<?xml version="1.0" encoding="UTF-8"?>
<gpx version="1.1" creator="Garmin Connect"
  xsi:schemaLocation="http://www.topografix.com/GPX/1/1 http://www.topografix.com/GPX/1/1/gpx.xsd http://www.garmin.com/xmlschemas/GpxExtensions/v3 http://www.garmin.com/xmlschemas/GpxExtensionsv3.xsd http://www.garmin.com/xmlschemas/TrackPointExtension/v1 http://www.garmin.com/xmlschemas/TrackPointExtensionv1.xsd"
  xmlns="http://www.topografix.com/GPX/1/1"
  xmlns:gpxtpx="http://www.garmin.com/xmlschemas/TrackPointExtension/v1"
  xmlns:gpxx="http://www.garmin.com/xmlschemas/GpxExtensions/v3" xmlns:xsi="http://www.w3.org/2001/XMLSchema-instance">
  <metadata>
    <link href="connect.garmin.com">
      <text>Garmin Connect</text>
    </link>
    <time>2014-05-10T07:08:34.000Z</time>
  </metadata>
  <trk>
    <name>SAILLON-SAVIESE-BEX (10.05.2014)</name>
    <trkseg>
      <trkpt lon="7.178984982892871" lat="46.16935294121504">
        <ele>473.3999938964844</ele>
        <time>2014-05-10T07:08:35.000Z</time>
      </trkpt>
      <trkpt lon="7.179034939035773" lat="46.16937096230686">
        <ele>473.3999938964844</ele>
        <time>2014-05-10T07:08:40.000Z</time>
      </trkpt>
      <trkpt lon="7.179237948730588" lat="46.16941899061203">
        <ele>474.3999938964844</ele>
        <time>2014-05-10T07:08:48.000Z</time>
      </trkpt>
      <trkpt lon="7.179261920973659" lat="46.16942494176328">
        <ele>474.79998779296875</ele>
        <time>2014-05-10T07:08:49.000Z</time>
      </trkpt>
      <trkpt lon="7.179594933986664" lat="46.169495936483145">
        <ele>475.20001220703125</ele>
        <time>2014-05-10T07:08:58.000Z</time>
      </trkpt>
      <trkpt lon="7.179824933409691" lat="46.16952694952488">
        <ele>475.0</ele>
        <time>2014-05-10T07:09:03.000Z</time>
      </trkpt>
      <trkpt lon="7.180033978074789" lat="46.16952996701002">
        <ele>474.6000061035156</ele>
        <time>2014-05-10T07:09:07.000Z</time>
      </trkpt>
      <trkpt lon="7.180357938632369" lat="46.16944095119834">
        <ele>474.20001220703125</ele>
        <time>2014-05-10T07:09:13.000Z</time>
      </trkpt>
      <trkpt lon="7.180409990251064" lat="46.16941899061203">
        <ele>474.0</ele>
        <time>2014-05-10T07:09:14.000Z</time>
      </trkpt>
      <trkpt lon="7.18074694275856" lat="46.169259985908866">
        <ele>473.6000061035156</ele>
        <time>2014-05-10T07:09:21.000Z</time>
      </trkpt>
      <trkpt lon="7.181103928014636" lat="46.16907197982073">
        <ele>472.79998779296875</ele>
        <time>2014-05-10T07:09:29.000Z</time>
      </trkpt>
      <trkpt lon="7.181151956319809" lat="46.169046917930245">
        <ele>472.79998779296875</ele>
        <time>2014-05-10T07:09:30.000Z</time>
      </trkpt>
      <trkpt lon="7.181312972679734" lat="46.16896695457399">
        <ele>473.20001220703125</ele>
        <time>2014-05-10T07:09:33.000Z</time>
      </trkpt>
      <trkpt lon="7.181638944894075" lat="46.16892596706748">
        <ele>472.79998779296875</ele>
        <time>2014-05-10T07:09:38.000Z</time>
      </trkpt>
      <trkpt lon="7.181972963735461" lat="46.16898992098868">
        <ele>472.79998779296875</ele>
        <time>2014-05-10T07:09:43.000Z</time>
      </trkpt>
      <trkpt lon="7.1824349742382765" lat="46.16918295621872">
        <ele>473.20001220703125</ele>
        <time>2014-05-10T07:09:51.000Z</time>
      </trkpt>
      <trkpt lon="7.1827309392392635" lat="46.16930692456663">
        <ele>475.0</ele>
        <time>2014-05-10T07:09:56.000Z</time>
      </trkpt>
      <trkpt lon="7.182894973084331" lat="46.16929695010185">
        <ele>474.79998779296875</ele>
        <time>2014-05-10T07:10:00.000Z</time>
      </trkpt>
      <trkpt lon="7.182928919792175" lat="46.16909896954894">
        <ele>474.0</ele>
        <time>2014-05-10T07:10:04.000Z</time>
      </trkpt>
      <trkpt lon="7.183184986934066" lat="46.16908094845712">
        <ele>473.3999938964844</ele>
        <time>2014-05-10T07:10:07.000Z</time>
      </trkpt>
      <trkpt lon="7.183335945010185" lat="46.16918195039034">
        <ele>473.0</ele>
        <time>2014-05-10T07:10:10.000Z</time>
      </trkpt>
      <trkpt lon="7.183801978826523" lat="46.16945796646178">
        <ele>473.20001220703125</ele>
        <time>2014-05-10T07:10:18.000Z</time>
      </trkpt>
      <trkpt lon="7.183967940509319" lat="46.169558968394995">
        <ele>473.0</ele>
        <time>2014-05-10T07:10:21.000Z</time>
      </trkpt>
      <trkpt lon="7.184300953522325" lat="46.16977195255458">
        <ele>473.20001220703125</ele>
        <time>2014-05-10T07:10:27.000Z</time>
      </trkpt>
      <trkpt lon="7.1847159415483475" lat="46.17002894170582">
        <ele>473.3999938964844</ele>
        <time>2014-05-10T07:10:33.000Z</time>
      </trkpt>
      <trkpt lon="7.185265962034464" lat="46.17037092335522">
        <ele>473.6000061035156</ele>
        <time>2014-05-10T07:10:41.000Z</time>
      </trkpt>
      <trkpt lon="7.185795949772" lat="46.170700918883085">
        <ele>474.20001220703125</ele>
        <time>2014-05-10T07:10:50.000Z</time>
      </trkpt>
      <trkpt lon="7.186362985521555" lat="46.171059999614954">
        <ele>474.3999938964844</ele>
        <time>2014-05-10T07:11:00.000Z</time>
      </trkpt>
      <trkpt lon="7.186864977702498" lat="46.17149996571243">
        <ele>474.3999938964844</ele>
        <time>2014-05-10T07:11:10.000Z</time>
      </trkpt>
      <trkpt lon="7.187032951042056" lat="46.17165595293045">
        <ele>474.3999938964844</ele>
        <time>2014-05-10T07:11:14.000Z</time>
      </trkpt>
      <trkpt lon="7.187193967401981" lat="46.171797942370176">
        <ele>474.20001220703125</ele>
        <time>2014-05-10T07:11:18.000Z</time>
      </trkpt>
      <trkpt lon="7.187540978193283" lat="46.17210094816983">
        <ele>474.6000061035156</ele>
        <time>2014-05-10T07:11:26.000Z</time>
      </trkpt>
      <trkpt lon="7.187608955428004" lat="46.1721629742533">
        <ele>474.3999938964844</ele>
        <time>2014-05-10T07:11:28.000Z</time>
      </trkpt>
      <trkpt lon="7.187646925449371" lat="46.17219792678952">
        <ele>473.79998779296875</ele>
        <time>2014-05-10T07:11:32.000Z</time>
      </trkpt>
      <trkpt lon="7.187698977068067" lat="46.172246960923076">
        <ele>473.6000061035156</ele>
        <time>2014-05-10T07:11:37.000Z</time>
      </trkpt>
      <trkpt lon="7.187804924324155" lat="46.17234494537115">
        <ele>473.79998779296875</ele>
        <time>2014-05-10T07:11:40.000Z</time>
      </trkpt>
      <trkpt lon="7.187998965382576" lat="46.172525994479656">
        <ele>473.79998779296875</ele>
        <time>2014-05-10T07:11:45.000Z</time>
      </trkpt>
      <trkpt lon="7.188190994784236" lat="46.17270494811237">
        <ele>473.6000061035156</ele>
        <time>2014-05-10T07:11:50.000Z</time>
      </trkpt>
      <trkpt lon="7.188390986993909" lat="46.17260092869401">
        <ele>473.3999938964844</ele>
        <time>2014-05-10T07:11:52.000Z</time>
      </trkpt>
      <trkpt lon="7.1888799872249365" lat="46.17234595119953">
        <ele>473.20001220703125</ele>
        <time>2014-05-10T07:12:01.000Z</time>
      </trkpt>
      <trkpt lon="7.188983922824264" lat="46.17229197174311">
        <ele>473.0</ele>
        <time>2014-05-10T07:12:03.000Z</time>
      </trkpt>
      <trkpt lon="7.1891959849745035" lat="46.172182923182845">
        <ele>472.6000061035156</ele>
        <time>2014-05-10T07:12:07.000Z</time>
      </trkpt>
      <trkpt lon="7.189345937222242" lat="46.17209994234145">
        <ele>472.79998779296875</ele>
        <time>2014-05-10T07:12:10.000Z</time>
      </trkpt>
      <trkpt lon="7.189439982175827" lat="46.17204495705664">
        <ele>472.3999938964844</ele>
        <time>2014-05-10T07:12:16.000Z</time>
      </trkpt>
      <trkpt lon="7.190208937972784" lat="46.17164698429406">
        <ele>471.0</ele>
        <time>2014-05-10T07:12:26.000Z</time>
      </trkpt>
      <trkpt lon="7.1907589584589005" lat="46.171341966837645">
        <ele>470.3999938964844</ele>
        <time>2014-05-10T07:12:36.000Z</time>
      </trkpt>
      <trkpt lon="7.19127394258976" lat="46.17106997407973">
        <ele>470.3999938964844</ele>
        <time>2014-05-10T07:12:45.000Z</time>
      </trkpt>
      <trkpt lon="7.191672921180725" lat="46.17086294107139">
        <ele>470.0</ele>
        <time>2014-05-10T07:12:52.000Z</time>
      </trkpt>
      <trkpt lon="7.19222093001008" lat="46.17057896219194">
        <ele>470.0</ele>
        <time>2014-05-10T07:13:02.000Z</time>
      </trkpt>
      <trkpt lon="7.192383958026767" lat="46.17049396969378">
        <ele>470.20001220703125</ele>
        <time>2014-05-10T07:13:06.000Z</time>
      </trkpt>
      <trkpt lon="7.192430980503559" lat="46.17046899162233">
        <ele>471.0</ele>
        <time>2014-05-10T07:13:12.000Z</time>
      </trkpt>
      <trkpt lon="7.192519996315241" lat="46.17042297497392">
        <ele>471.0</ele>
        <time>2014-05-10T07:13:17.000Z</time>
      </trkpt>
      <trkpt lon="7.192747984081507" lat="46.17030093446374">
        <ele>471.0</ele>
        <time>2014-05-10T07:13:24.000Z</time>
      </trkpt>
      <trkpt lon="7.193027939647436" lat="46.170150982216">
        <ele>471.0</ele>
        <time>2014-05-10T07:13:32.000Z</time>
      </trkpt>
      <trkpt lon="7.193372938781977" lat="46.169966999441385">
        <ele>471.0</ele>
        <time>2014-05-10T07:13:40.000Z</time>
      </trkpt>
      <trkpt lon="7.19370192848146" lat="46.16979198530316">
        <ele>471.0</ele>
        <time>2014-05-10T07:13:48.000Z</time>
      </trkpt>
      <trkpt lon="7.193856993690133" lat="46.169816963374615">
        <ele>471.0</ele>
        <time>2014-05-10T07:13:52.000Z</time>
      </trkpt>
      <trkpt lon="7.194177936762571" lat="46.17017596028745">
        <ele>472.0</ele>
        <time>2014-05-10T07:14:02.000Z</time>
      </trkpt>
      <trkpt lon="7.194510949775577" lat="46.170549960806966">
        <ele>472.0</ele>
        <time>2014-05-10T07:14:12.000Z</time>
      </trkpt>
      <trkpt lon="7.194808926433325" lat="46.17088297381997">
        <ele>472.3999938964844</ele>
        <time>2014-05-10T07:14:22.000Z</time>
      </trkpt>
      <trkpt lon="7.195008918642998" lat="46.17088196799159">
        <ele>471.6000061035156</ele>
        <time>2014-05-10T07:14:27.000Z</time>
      </trkpt>
      <trkpt lon="7.195350984111428" lat="46.17070795968175">
        <ele>470.6000061035156</ele>
        <time>2014-05-10T07:14:34.000Z</time>
      </trkpt>
      <trkpt lon="7.195873931050301" lat="46.17045692168176">
        <ele>469.6000061035156</ele>
        <time>2014-05-10T07:14:43.000Z</time>
      </trkpt>
      <trkpt lon="7.196574993431568" lat="46.17013396695256">
        <ele>468.79998779296875</ele>
        <time>2014-05-10T07:14:54.000Z</time>
      </trkpt>
      <trkpt lon="7.197384936735034" lat="46.16974798031151">
        <ele>467.79998779296875</ele>
        <time>2014-05-10T07:15:07.000Z</time>
      </trkpt>
      <trkpt lon="7.198122963309288" lat="46.169391917064786">
        <ele>467.6000061035156</ele>
        <time>2014-05-10T07:15:19.000Z</time>
      </trkpt>
      <trkpt lon="7.198607940226793" lat="46.16915797814727">
        <ele>468.79998779296875</ele>
        <time>2014-05-10T07:15:27.000Z</time>
      </trkpt>
      <trkpt lon="7.198959980159998" lat="46.169000985100865">
        <ele>471.3999938964844</ele>
        <time>2014-05-10T07:15:34.000Z</time>
      </trkpt>
      <trkpt lon="7.199136922135949" lat="46.16895195096731">
        <ele>472.6000061035156</ele>
        <time>2014-05-10T07:15:38.000Z</time>
      </trkpt>
      <trkpt lon="7.199272960424423" lat="46.1690269690007">
        <ele>473.3999938964844</ele>
        <time>2014-05-10T07:15:43.000Z</time>
      </trkpt>
      <trkpt lon="7.199302967637777" lat="46.169279934838414">
        <ele>474.20001220703125</ele>
        <time>2014-05-10T07:15:50.000Z</time>
      </trkpt>
      <trkpt lon="7.19935292378068" lat="46.16960599087179">
        <ele>474.3999938964844</ele>
        <time>2014-05-10T07:15:58.000Z</time>
      </trkpt>
      <trkpt lon="7.199404975399375" lat="46.170050986111164">
        <ele>474.3999938964844</ele>
        <time>2014-05-10T07:16:08.000Z</time>
      </trkpt>
      <trkpt lon="7.199460966512561" lat="46.170463962480426">
        <ele>474.79998779296875</ele>
        <time>2014-05-10T07:16:17.000Z</time>
      </trkpt>
      <trkpt lon="7.1995199751108885" lat="46.170892948284745">
        <ele>475.6000061035156</ele>
        <time>2014-05-10T07:16:26.000Z</time>
      </trkpt>
      <trkpt lon="7.199566997587681" lat="46.17124498821795">
        <ele>476.3999938964844</ele>
        <time>2014-05-10T07:16:33.000Z</time>
      </trkpt>
      <trkpt lon="7.199629945680499" lat="46.171706998720765">
        <ele>476.79998779296875</ele>
        <time>2014-05-10T07:16:42.000Z</time>
      </trkpt>
      <trkpt lon="7.1996869426220655" lat="46.17212592624128">
        <ele>477.0</ele>
        <time>2014-05-10T07:16:50.000Z</time>
      </trkpt>
      <trkpt lon="7.1997179556638" lat="46.172482995316386">
        <ele>477.3999938964844</ele>
        <time>2014-05-10T07:16:57.000Z</time>
      </trkpt>
      <trkpt lon="7.199850976467133" lat="46.172931930050254">
        <ele>477.20001220703125</ele>
        <time>2014-05-10T07:17:06.000Z</time>
      </trkpt>
      <trkpt lon="7.199988942593336" lat="46.17329193279147">
        <ele>477.0</ele>
        <time>2014-05-10T07:17:14.000Z</time>
      </trkpt>
      <trkpt lon="7.200130932033062" lat="46.1736149713397">
        <ele>476.6000061035156</ele>
        <time>2014-05-10T07:17:21.000Z</time>
      </trkpt>
      <trkpt lon="7.200324973091483" lat="46.173923928290606">
        <ele>476.0</ele>
        <time>2014-05-10T07:17:28.000Z</time>
      </trkpt>
      <trkpt lon="7.2005819622427225" lat="46.17429692298174">
        <ele>475.3999938964844</ele>
        <time>2014-05-10T07:17:37.000Z</time>
      </trkpt>
      <trkpt lon="7.2008559666574" lat="46.174631947651505">
        <ele>475.20001220703125</ele>
        <time>2014-05-10T07:17:45.000Z</time>
      </trkpt>
      <trkpt lon="7.201338931918144" lat="46.175062945112586">
        <ele>475.0</ele>
        <time>2014-05-10T07:17:56.000Z</time>
      </trkpt>
      <trkpt lon="7.201617965474725" lat="46.175275929272175">
        <ele>475.79998779296875</ele>
        <time>2014-05-10T07:18:02.000Z</time>
      </trkpt>
      <trkpt lon="7.201918959617615" lat="46.175491930916905">
        <ele>476.20001220703125</ele>
        <time>2014-05-10T07:18:08.000Z</time>
      </trkpt>
      <trkpt lon="7.202289942651987" lat="46.17573894560337">
        <ele>476.3999938964844</ele>
        <time>2014-05-10T07:18:15.000Z</time>
      </trkpt>
      <trkpt lon="7.202713983133435" lat="46.17601093836129">
        <ele>476.20001220703125</ele>
        <time>2014-05-10T07:18:23.000Z</time>
      </trkpt>
      <trkpt lon="7.2031639236956835" lat="46.17627798579633">
        <ele>477.20001220703125</ele>
        <time>2014-05-10T07:18:31.000Z</time>
      </trkpt>
      <trkpt lon="7.2036869544535875" lat="46.176588954404">
        <ele>477.20001220703125</ele>
        <time>2014-05-10T07:18:40.000Z</time>
      </trkpt>
      <trkpt lon="7.2042179480195045" lat="46.17689891718328">
        <ele>477.3999938964844</ele>
        <time>2014-05-10T07:18:49.000Z</time>
      </trkpt>
      <trkpt lon="7.20465699210763" lat="46.17711793631315">
        <ele>477.20001220703125</ele>
        <time>2014-05-10T07:18:56.000Z</time>
      </trkpt>
      <trkpt lon="7.2053859662264585" lat="46.177442986518145">
        <ele>477.3999938964844</ele>
        <time>2014-05-10T07:19:07.000Z</time>
      </trkpt>
      <trkpt lon="7.20607596449554" lat="46.177679942920804">
        <ele>477.6000061035156</ele>
        <time>2014-05-10T07:19:17.000Z</time>
      </trkpt>
      <trkpt lon="7.206803932785988" lat="46.177896950393915">
        <ele>477.79998779296875</ele>
        <time>2014-05-10T07:19:27.000Z</time>
      </trkpt>
      <trkpt lon="7.207509940490127" lat="46.178087973967195">
        <ele>478.3999938964844</ele>
        <time>2014-05-10T07:19:37.000Z</time>
      </trkpt>
      <trkpt lon="7.208089968189597" lat="46.1782119423151">
        <ele>478.3999938964844</ele>
        <time>2014-05-10T07:19:45.000Z</time>
      </trkpt>
      <trkpt lon="7.209004936739802" lat="46.17833892814815">
        <ele>478.20001220703125</ele>
        <time>2014-05-10T07:19:57.000Z</time>
      </trkpt>
      <trkpt lon="7.209630981087685" lat="46.178371952846646">
        <ele>478.6000061035156</ele>
        <time>2014-05-10T07:20:05.000Z</time>
      </trkpt>
      <trkpt lon="7.210125932469964" lat="46.17839399725199">
        <ele>479.20001220703125</ele>
        <time>2014-05-10T07:20:12.000Z</time>
      </trkpt>
      <trkpt lon="7.210728926584125" lat="46.1784209869802">
        <ele>478.79998779296875</ele>
        <time>2014-05-10T07:20:20.000Z</time>
      </trkpt>
      <trkpt lon="7.211386989802122" lat="46.17846398614347">
        <ele>479.0</ele>
        <time>2014-05-10T07:20:29.000Z</time>
      </trkpt>
      <trkpt lon="7.2118819411844015" lat="46.17848292924464">
        <ele>479.3999938964844</ele>
        <time>2014-05-10T07:20:36.000Z</time>
      </trkpt>
      <trkpt lon="7.212487952783704" lat="46.17850597947836">
        <ele>480.0</ele>
        <time>2014-05-10T07:20:44.000Z</time>
      </trkpt>
      <trkpt lon="7.2130729258060455" lat="46.178541937842965">
        <ele>480.0</ele>
        <time>2014-05-10T07:20:52.000Z</time>
      </trkpt>
      <trkpt lon="7.213535942137241" lat="46.178562976419926">
        <ele>479.0</ele>
        <time>2014-05-10T07:20:59.000Z</time>
      </trkpt>
      <trkpt lon="7.213975992053747" lat="46.17861092090607">
        <ele>476.79998779296875</ele>
        <time>2014-05-10T07:21:05.000Z</time>
      </trkpt>
      <trkpt lon="7.214700942859054" lat="46.178691973909736">
        <ele>474.3999938964844</ele>
        <time>2014-05-10T07:21:13.000Z</time>
      </trkpt>
      <trkpt lon="7.214910993352532" lat="46.178691973909736">
        <ele>474.79998779296875</ele>
        <time>2014-05-10T07:21:15.000Z</time>
      </trkpt>
      <trkpt lon="7.215404938906431" lat="46.178669929504395">
        <ele>476.0</ele>
        <time>2014-05-10T07:21:21.000Z</time>
      </trkpt>
      <trkpt lon="7.215552963316441" lat="46.17866791784763">
        <ele>477.0</ele>
        <time>2014-05-10T07:21:23.000Z</time>
      </trkpt>
      <trkpt lon="7.216136930510402" lat="46.17865995503962">
        <ele>478.3999938964844</ele>
        <time>2014-05-10T07:21:32.000Z</time>
      </trkpt>
      <trkpt lon="7.216651998460293" lat="46.178690968081355">
        <ele>478.79998779296875</ele>
        <time>2014-05-10T07:21:39.000Z</time>
      </trkpt>
      <trkpt lon="7.217202940955758" lat="46.17871996946633">
        <ele>480.0</ele>
        <time>2014-05-10T07:21:47.000Z</time>
      </trkpt>
      <trkpt lon="7.21733596175909" lat="46.17872692644596">
        <ele>479.6000061035156</ele>
        <time>2014-05-10T07:21:49.000Z</time>
      </trkpt>
      <trkpt lon="7.217753967270255" lat="46.1787489708513">
        <ele>480.0</ele>
        <time>2014-05-10T07:21:56.000Z</time>
      </trkpt>
      <trkpt lon="7.217902997508645" lat="46.178755927830935">
        <ele>479.6000061035156</ele>
        <time>2014-05-10T07:22:00.000Z</time>
      </trkpt>
      <trkpt lon="7.218093937262893" lat="46.178755927830935">
        <ele>478.79998779296875</ele>
        <time>2014-05-10T07:22:04.000Z</time>
      </trkpt>
      <trkpt lon="7.218463998287916" lat="46.17877193726599">
        <ele>478.20001220703125</ele>
        <time>2014-05-10T07:22:10.000Z</time>
      </trkpt>
      <trkpt lon="7.219225997105241" lat="46.17882499471307">
        <ele>477.6000061035156</ele>
        <time>2014-05-10T07:22:21.000Z</time>
      </trkpt>
      <trkpt lon="7.219824967905879" lat="46.17884695529938">
        <ele>477.20001220703125</ele>
        <time>2014-05-10T07:22:30.000Z</time>
      </trkpt>
      <trkpt lon="7.220674976706505" lat="46.17889096029103">
        <ele>477.0</ele>
        <time>2014-05-10T07:22:42.000Z</time>
      </trkpt>
      <trkpt lon="7.221326921135187" lat="46.178923984989524">
        <ele>477.20001220703125</ele>
        <time>2014-05-10T07:22:51.000Z</time>
      </trkpt>
      <trkpt lon="7.221985990181565" lat="46.17895793169737">
        <ele>477.79998779296875</ele>
        <time>2014-05-10T07:23:00.000Z</time>
      </trkpt>
      <trkpt lon="7.2224909998476505" lat="46.17898399941623">
        <ele>477.3999938964844</ele>
        <time>2014-05-10T07:23:08.000Z</time>
      </trkpt>
      <trkpt lon="7.222652938216925" lat="46.178991962224245">
        <ele>477.3999938964844</ele>
        <time>2014-05-10T07:23:12.000Z</time>
      </trkpt>
      <trkpt lon="7.222652938216925" lat="46.178991962224245">
        <ele>477.0</ele>
        <time>2014-05-10T07:23:17.000Z</time>
      </trkpt>
      <trkpt lon="7.223446955904365" lat="46.17890194058418">
        <ele>476.6000061035156</ele>
        <time>2014-05-10T07:23:23.000Z</time>
      </trkpt>
      <trkpt lon="7.223819950595498" lat="46.17889699526131">
        <ele>476.79998779296875</ele>
        <time>2014-05-10T07:23:30.000Z</time>
      </trkpt>
      <trkpt lon="7.223945930600166" lat="46.17889096029103">
        <ele>475.6000061035156</ele>
        <time>2014-05-10T07:23:34.000Z</time>
      </trkpt>
      <trkpt lon="7.22421096637845" lat="46.178880985826254">
        <ele>472.79998779296875</ele>
        <time>2014-05-10T07:23:39.000Z</time>
      </trkpt>
      <trkpt lon="7.224494945257902" lat="46.17887092754245">
        <ele>473.0</ele>
        <time>2014-05-10T07:23:44.000Z</time>
      </trkpt>
      <trkpt lon="7.224825946614146" lat="46.17882792837918">
        <ele>474.20001220703125</ele>
        <time>2014-05-10T07:23:49.000Z</time>
      </trkpt>
      <trkpt lon="7.225314946845174" lat="46.17859792895615">
        <ele>474.79998779296875</ele>
        <time>2014-05-10T07:23:58.000Z</time>
      </trkpt>
      <trkpt lon="7.225504964590073" lat="46.17850991897285">
        <ele>473.79998779296875</ele>
        <time>2014-05-10T07:24:02.000Z</time>
      </trkpt>
      <trkpt lon="7.225639997050166" lat="46.17844294756651">
        <ele>473.20001220703125</ele>
        <time>2014-05-10T07:24:04.000Z</time>
      </trkpt>
      <trkpt lon="7.226159926503897" lat="46.17840196006">
        <ele>475.3999938964844</ele>
        <time>2014-05-10T07:24:09.000Z</time>
      </trkpt>
      <trkpt lon="7.22638095729053" lat="46.178321996703744">
        <ele>476.6000061035156</ele>
        <time>2014-05-10T07:24:13.000Z</time>
      </trkpt>
      <trkpt lon="7.2267289739102125" lat="46.17820599116385">
        <ele>476.3999938964844</ele>
        <time>2014-05-10T07:24:20.000Z</time>
      </trkpt>
      <trkpt lon="7.227125940844417" lat="46.1780739761889">
        <ele>476.20001220703125</ele>
        <time>2014-05-10T07:24:27.000Z</time>
      </trkpt>
      <trkpt lon="7.227511927485466" lat="46.177940955385566">
        <ele>476.0</ele>
        <time>2014-05-10T07:24:34.000Z</time>
      </trkpt>
      <trkpt lon="7.2278849221765995" lat="46.17780692875385">
        <ele>476.0</ele>
        <time>2014-05-10T07:24:41.000Z</time>
      </trkpt>
      <trkpt lon="7.228073934093118" lat="46.17773794569075">
        <ele>476.20001220703125</ele>
        <time>2014-05-10T07:24:46.000Z</time>
      </trkpt>
      <trkpt lon="7.228107964619994" lat="46.177725959569216">
        <ele>476.20001220703125</ele>
        <time>2014-05-10T07:24:48.000Z</time>
      </trkpt>
      <trkpt lon="7.228180970996618" lat="46.177726965397596">
        <ele>476.6000061035156</ele>
        <time>2014-05-10T07:24:53.000Z</time>
      </trkpt>
      <trkpt lon="7.228353973478079" lat="46.17799795232713">
        <ele>475.79998779296875</ele>
        <time>2014-05-10T07:25:01.000Z</time>
      </trkpt>
      <trkpt lon="7.228443995118141" lat="46.17813994176686">
        <ele>475.6000061035156</ele>
        <time>2014-05-10T07:25:05.000Z</time>
      </trkpt>
      <trkpt lon="7.228727973997593" lat="46.17810297757387">
        <ele>475.6000061035156</ele>
        <time>2014-05-10T07:25:08.000Z</time>
      </trkpt>
      <trkpt lon="7.229231977835298" lat="46.178049920126796">
        <ele>475.20001220703125</ele>
        <time>2014-05-10T07:25:15.000Z</time>
      </trkpt>
      <trkpt lon="7.229759953916073" lat="46.178133990615606">
        <ele>475.0</ele>
        <time>2014-05-10T07:25:23.000Z</time>
      </trkpt>
      <trkpt lon="7.229822985827923" lat="46.17814698256552">
        <ele>475.0</ele>
        <time>2014-05-10T07:25:24.000Z</time>
      </trkpt>
      <trkpt lon="7.230193968862295" lat="46.17833498865366">
        <ele>475.0</ele>
        <time>2014-05-10T07:25:31.000Z</time>
      </trkpt>
      <trkpt lon="7.230585990473628" lat="46.17854998447001">
        <ele>476.0</ele>
        <time>2014-05-10T07:25:39.000Z</time>
      </trkpt>
      <trkpt lon="7.231073984876275" lat="46.17880395613611">
        <ele>475.6000061035156</ele>
        <time>2014-05-10T07:25:48.000Z</time>
      </trkpt>
      <trkpt lon="7.231609923765063" lat="46.17907293140888">
        <ele>475.3999938964844</ele>
        <time>2014-05-10T07:25:57.000Z</time>
      </trkpt>
      <trkpt lon="7.232088949531317" lat="46.17937493138015">
        <ele>474.20001220703125</ele>
        <time>2014-05-10T07:26:06.000Z</time>
      </trkpt>
      <trkpt lon="7.232469990849495" lat="46.17968497797847">
        <ele>473.6000061035156</ele>
        <time>2014-05-10T07:26:14.000Z</time>
      </trkpt>
      <trkpt lon="7.232666965574026" lat="46.17986493743956">
        <ele>474.3999938964844</ele>
        <time>2014-05-10T07:26:19.000Z</time>
      </trkpt>
      <trkpt lon="7.2329159919172525" lat="46.179936937987804">
        <ele>476.0</ele>
        <time>2014-05-10T07:26:24.000Z</time>
      </trkpt>
      <trkpt lon="7.233068961650133" lat="46.18001296184957">
        <ele>477.0</ele>
        <time>2014-05-10T07:26:28.000Z</time>
      </trkpt>
      <trkpt lon="7.2332019824534655" lat="46.180194932967424">
        <ele>476.79998779296875</ele>
        <time>2014-05-10T07:26:34.000Z</time>
      </trkpt>
      <trkpt lon="7.233367944136262" lat="46.18037296459079">
        <ele>476.6000061035156</ele>
        <time>2014-05-10T07:26:40.000Z</time>
      </trkpt>
      <trkpt lon="7.2334399446845055" lat="46.18044597096741">
        <ele>477.0</ele>
        <time>2014-05-10T07:26:42.000Z</time>
      </trkpt>
      <trkpt lon="7.23359995521605" lat="46.18059097789228">
        <ele>476.79998779296875</ele>
        <time>2014-05-10T07:26:46.000Z</time>
      </trkpt>
      <trkpt lon="7.233835989609361" lat="46.180750988423824">
        <ele>478.20001220703125</ele>
        <time>2014-05-10T07:26:51.000Z</time>
      </trkpt>
      <trkpt lon="7.234284924343228" lat="46.181032955646515">
        <ele>479.20001220703125</ele>
        <time>2014-05-10T07:27:00.000Z</time>
      </trkpt>
      <trkpt lon="7.234657919034362" lat="46.18124099448323">
        <ele>479.6000061035156</ele>
        <time>2014-05-10T07:27:07.000Z</time>
      </trkpt>
      <trkpt lon="7.235178938135505" lat="46.18147694505751">
        <ele>481.0</ele>
        <time>2014-05-10T07:27:16.000Z</time>
      </trkpt>
      <trkpt lon="7.235424946993589" lat="46.18156394921243">
        <ele>481.6000061035156</ele>
        <time>2014-05-10T07:27:20.000Z</time>
      </trkpt>
      <trkpt lon="7.236032970249653" lat="46.18170493282378">
        <ele>481.3999938964844</ele>
        <time>2014-05-10T07:27:29.000Z</time>
      </trkpt>
      <trkpt lon="7.236639987677336" lat="46.18181297555566">
        <ele>481.3999938964844</ele>
        <time>2014-05-10T07:27:38.000Z</time>
      </trkpt>
      <trkpt lon="7.237193947657943" lat="46.181911965832114">
        <ele>481.3999938964844</ele>
        <time>2014-05-10T07:27:46.000Z</time>
      </trkpt>
      <trkpt lon="7.237792918458581" lat="46.18201891891658">
        <ele>481.3999938964844</ele>
        <time>2014-05-10T07:27:55.000Z</time>
      </trkpt>
      <trkpt lon="7.238377975299954" lat="46.18213299661875">
        <ele>481.3999938964844</ele>
        <time>2014-05-10T07:28:04.000Z</time>
      </trkpt>
      <trkpt lon="7.238919949159026" lat="46.18221899494529">
        <ele>481.20001220703125</ele>
        <time>2014-05-10T07:28:12.000Z</time>
      </trkpt>
      <trkpt lon="7.239561919122934" lat="46.182323936372995">
        <ele>480.79998779296875</ele>
        <time>2014-05-10T07:28:21.000Z</time>
      </trkpt>
      <trkpt lon="7.240277985110879" lat="46.18244094774127">
        <ele>480.79998779296875</ele>
        <time>2014-05-10T07:28:31.000Z</time>
      </trkpt>
      <trkpt lon="7.240928923711181" lat="46.18254798464477">
        <ele>480.6000061035156</ele>
        <time>2014-05-10T07:28:40.000Z</time>
      </trkpt>
      <trkpt lon="7.241481961682439" lat="46.1826379224658">
        <ele>481.3999938964844</ele>
        <time>2014-05-10T07:28:48.000Z</time>
      </trkpt>
      <trkpt lon="7.241892926394939" lat="46.182705983519554">
        <ele>481.79998779296875</ele>
        <time>2014-05-10T07:28:54.000Z</time>
      </trkpt>
      <trkpt lon="7.242699936032295" lat="46.182837998494506">
        <ele>481.20001220703125</ele>
        <time>2014-05-10T07:29:05.000Z</time>
      </trkpt>
      <trkpt lon="7.243189942091703" lat="46.18291796185076">
        <ele>481.3999938964844</ele>
        <time>2014-05-10T07:29:12.000Z</time>
      </trkpt>
      <trkpt lon="7.243687994778156" lat="46.18299993686378">
        <ele>481.3999938964844</ele>
        <time>2014-05-10T07:29:19.000Z</time>
      </trkpt>
      <trkpt lon="7.244184957817197" lat="46.18306598626077">
        <ele>481.6000061035156</ele>
        <time>2014-05-10T07:29:26.000Z</time>
      </trkpt>
      <trkpt lon="7.2447829227894545" lat="46.18315299041569">
        <ele>481.79998779296875</ele>
        <time>2014-05-10T07:29:34.000Z</time>
      </trkpt>
      <trkpt lon="7.245362950488925" lat="46.183246951550245">
        <ele>481.3999938964844</ele>
        <time>2014-05-10T07:29:42.000Z</time>
      </trkpt>
      <trkpt lon="7.245796965435147" lat="46.18334393016994">
        <ele>481.20001220703125</ele>
        <time>2014-05-10T07:29:48.000Z</time>
      </trkpt>
      <trkpt lon="7.246505990624428" lat="46.18348499760032">
        <ele>481.0</ele>
        <time>2014-05-10T07:29:58.000Z</time>
      </trkpt>
      <trkpt lon="7.247002953663468" lat="46.183589939028025">
        <ele>481.20001220703125</ele>
        <time>2014-05-10T07:30:05.000Z</time>
      </trkpt>
      <trkpt lon="7.247561942785978" lat="46.18370795622468">
        <ele>481.79998779296875</ele>
        <time>2014-05-10T07:30:13.000Z</time>
      </trkpt>
      <trkpt lon="7.2480519488453865" lat="46.18381993845105">
        <ele>481.6000061035156</ele>
        <time>2014-05-10T07:30:20.000Z</time>
      </trkpt>
      <trkpt lon="7.248595934361219" lat="46.183959916234016">
        <ele>482.79998779296875</ele>
        <time>2014-05-10T07:30:28.000Z</time>
      </trkpt>
      <trkpt lon="7.2491619642823935" lat="46.18407097645104">
        <ele>483.3999938964844</ele>
        <time>2014-05-10T07:30:37.000Z</time>
      </trkpt>
      <trkpt lon="7.249670997262001" lat="46.18421598337591">
        <ele>482.3999938964844</ele>
        <time>2014-05-10T07:30:45.000Z</time>
      </trkpt>
      <trkpt lon="7.250128984451294" lat="46.1843459866941">
        <ele>482.20001220703125</ele>
        <time>2014-05-10T07:30:52.000Z</time>
      </trkpt>
      <trkpt lon="7.25070096552372" lat="46.18450792506337">
        <ele>482.6000061035156</ele>
        <time>2014-05-10T07:31:01.000Z</time>
      </trkpt>
      <trkpt lon="7.2513719368726015" lat="46.184709928929806">
        <ele>482.79998779296875</ele>
        <time>2014-05-10T07:31:11.000Z</time>
      </trkpt>
      <trkpt lon="7.252064952626824" lat="46.184942945837975">
        <ele>483.3999938964844</ele>
        <time>2014-05-10T07:31:21.000Z</time>
      </trkpt>
      <trkpt lon="7.252793926745653" lat="46.18524796329439">
        <ele>483.0</ele>
        <time>2014-05-10T07:31:32.000Z</time>
      </trkpt>
      <trkpt lon="7.253437992185354" lat="46.18553294800222">
        <ele>483.0</ele>
        <time>2014-05-10T07:31:42.000Z</time>
      </trkpt>
      <trkpt lon="7.253991952165961" lat="46.18577795103192">
        <ele>481.6000061035156</ele>
        <time>2014-05-10T07:31:51.000Z</time>
      </trkpt>
      <trkpt lon="7.254423955455422" lat="46.185972997918725">
        <ele>481.20001220703125</ele>
        <time>2014-05-10T07:31:58.000Z</time>
      </trkpt>
      <trkpt lon="7.254606932401657" lat="46.18606494739652">
        <ele>481.20001220703125</ele>
        <time>2014-05-10T07:32:01.000Z</time>
      </trkpt>
      <trkpt lon="7.255085958167911" lat="46.186318919062614">
        <ele>481.79998779296875</ele>
        <time>2014-05-10T07:32:09.000Z</time>
      </trkpt>
      <trkpt lon="7.255249992012978" lat="46.18641698732972">
        <ele>481.3999938964844</ele>
        <time>2014-05-10T07:32:12.000Z</time>
      </trkpt>
      <trkpt lon="7.2554729506373405" lat="46.18654891848564">
        <ele>481.0</ele>
        <time>2014-05-10T07:32:16.000Z</time>
      </trkpt>
      <trkpt lon="7.255753995850682" lat="46.18671798147261">
        <ele>480.3999938964844</ele>
        <time>2014-05-10T07:32:21.000Z</time>
      </trkpt>
      <trkpt lon="7.256042920053005" lat="46.186900958418846">
        <ele>480.6000061035156</ele>
        <time>2014-05-10T07:32:26.000Z</time>
      </trkpt>
      <trkpt lon="7.256484981626272" lat="46.18722994811833">
        <ele>481.0</ele>
        <time>2014-05-10T07:32:34.000Z</time>
      </trkpt>
      <trkpt lon="7.256694948300719" lat="46.187391970306635">
        <ele>481.0</ele>
        <time>2014-05-10T07:32:38.000Z</time>
      </trkpt>
      <trkpt lon="7.257111947983503" lat="46.187713919207454">
        <ele>480.3999938964844</ele>
        <time>2014-05-10T07:32:46.000Z</time>
      </trkpt>
      <trkpt lon="7.257577981799841" lat="46.18807392194867">
        <ele>480.6000061035156</ele>
        <time>2014-05-10T07:32:55.000Z</time>
      </trkpt>
      <trkpt lon="7.25798693485558" lat="46.18839092552662">
        <ele>480.3999938964844</ele>
        <time>2014-05-10T07:33:03.000Z</time>
      </trkpt>
      <trkpt lon="7.2583529725670815" lat="46.188676999881864">
        <ele>480.6000061035156</ele>
        <time>2014-05-10T07:33:10.000Z</time>
      </trkpt>
      <trkpt lon="7.258819928392768" lat="46.189043959602714">
        <ele>481.20001220703125</ele>
        <time>2014-05-10T07:33:19.000Z</time>
      </trkpt>
      <trkpt lon="7.258924953639507" lat="46.18912694044411">
        <ele>481.20001220703125</ele>
        <time>2014-05-10T07:33:21.000Z</time>
      </trkpt>
      <trkpt lon="7.259284956380725" lat="46.189409997314215">
        <ele>481.20001220703125</ele>
        <time>2014-05-10T07:33:28.000Z</time>
      </trkpt>
      <trkpt lon="7.2596679255366325" lat="46.189669920131564">
        <ele>481.0</ele>
        <time>2014-05-10T07:33:35.000Z</time>
      </trkpt>
      <trkpt lon="7.2597819194197655" lat="46.1897389870137">
        <ele>481.20001220703125</ele>
        <time>2014-05-10T07:33:37.000Z</time>
      </trkpt>
      <trkpt lon="7.260057935491204" lat="46.18991592898965">
        <ele>481.20001220703125</ele>
        <time>2014-05-10T07:33:42.000Z</time>
      </trkpt>
      <trkpt lon="7.260491950437427" lat="46.19020191952586">
        <ele>482.0</ele>
        <time>2014-05-10T07:33:50.000Z</time>
      </trkpt>
      <trkpt lon="7.260545929893851" lat="46.19023896753788">
        <ele>482.20001220703125</ele>
        <time>2014-05-10T07:33:51.000Z</time>
      </trkpt>
      <trkpt lon="7.260654978454113" lat="46.19031096808612">
        <ele>482.79998779296875</ele>
        <time>2014-05-10T07:33:53.000Z</time>
      </trkpt>
      <trkpt lon="7.26114297285676" lat="46.19062797166407">
        <ele>483.3999938964844</ele>
        <time>2014-05-10T07:34:02.000Z</time>
      </trkpt>
      <trkpt lon="7.261643959209323" lat="46.19094296358526">
        <ele>483.79998779296875</ele>
        <time>2014-05-10T07:34:11.000Z</time>
      </trkpt>
      <trkpt lon="7.261812938377261" lat="46.191046983003616">
        <ele>484.0</ele>
        <time>2014-05-10T07:34:14.000Z</time>
      </trkpt>
      <trkpt lon="7.261923998594284" lat="46.19111395440996">
        <ele>483.79998779296875</ele>
        <time>2014-05-10T07:34:16.000Z</time>
      </trkpt>
      <trkpt lon="7.262199930846691" lat="46.191278994083405">
        <ele>483.20001220703125</ele>
        <time>2014-05-10T07:34:21.000Z</time>
      </trkpt>
      <trkpt lon="7.262652972713113" lat="46.1915329657495">
        <ele>481.79998779296875</ele>
        <time>2014-05-10T07:34:29.000Z</time>
      </trkpt>
      <trkpt lon="7.263216990977526" lat="46.19180797599256">
        <ele>481.20001220703125</ele>
        <time>2014-05-10T07:34:38.000Z</time>
      </trkpt>
      <trkpt lon="7.263733986765146" lat="46.19204694405198">
        <ele>482.20001220703125</ele>
        <time>2014-05-10T07:34:46.000Z</time>
      </trkpt>
      <trkpt lon="7.263999944552779" lat="46.19215699844062">
        <ele>483.3999938964844</ele>
        <time>2014-05-10T07:34:50.000Z</time>
      </trkpt>
      <trkpt lon="7.264651972800493" lat="46.19242697954178">
        <ele>483.0</ele>
        <time>2014-05-10T07:35:00.000Z</time>
      </trkpt>
      <trkpt lon="7.26515999995172" lat="46.192637952044606">
        <ele>482.3999938964844</ele>
        <time>2014-05-10T07:35:08.000Z</time>
      </trkpt>
      <trkpt lon="7.265725946053863" lat="46.1928749922663">
        <ele>482.0</ele>
        <time>2014-05-10T07:35:17.000Z</time>
      </trkpt>
      <trkpt lon="7.265915963798761" lat="46.19295394979417">
        <ele>482.0</ele>
        <time>2014-05-10T07:35:20.000Z</time>
      </trkpt>
      <trkpt lon="7.266393983736634" lat="46.193153942003846">
        <ele>481.79998779296875</ele>
        <time>2014-05-10T07:35:28.000Z</time>
      </trkpt>
      <trkpt lon="7.266555922105908" lat="46.19322191923857">
        <ele>481.3999938964844</ele>
        <time>2014-05-10T07:35:31.000Z</time>
      </trkpt>
      <trkpt lon="7.267013993114233" lat="46.19341294281185">
        <ele>481.20001220703125</ele>
        <time>2014-05-10T07:35:39.000Z</time>
      </trkpt>
      <trkpt lon="7.267497964203358" lat="46.19361494667828">
        <ele>481.3999938964844</ele>
        <time>2014-05-10T07:35:47.000Z</time>
      </trkpt>
      <trkpt lon="7.268205983564258" lat="46.1939109954983">
        <ele>482.6000061035156</ele>
        <time>2014-05-10T07:35:58.000Z</time>
      </trkpt>
      <trkpt lon="7.268727924674749" lat="46.19412892498076">
        <ele>483.6000061035156</ele>
        <time>2014-05-10T07:36:06.000Z</time>
      </trkpt>
      <trkpt lon="7.269189935177565" lat="46.19432296603918">
        <ele>484.20001220703125</ele>
        <time>2014-05-10T07:36:13.000Z</time>
      </trkpt>
      <trkpt lon="7.26954398676753" lat="46.19447099044919">
        <ele>485.0</ele>
        <time>2014-05-10T07:36:19.000Z</time>
      </trkpt>
      <trkpt lon="7.270021922886372" lat="46.194671988487244">
        <ele>485.3999938964844</ele>
        <time>2014-05-10T07:36:26.000Z</time>
      </trkpt>
      <trkpt lon="7.270567920058966" lat="46.194934928789735">
        <ele>485.0</ele>
        <time>2014-05-10T07:36:36.000Z</time>
      </trkpt>
      <trkpt lon="7.271141996607184" lat="46.195117989555">
        <ele>484.6000061035156</ele>
        <time>2014-05-10T07:36:43.000Z</time>
      </trkpt>
      <trkpt lon="7.271528989076614" lat="46.19528294540942">
        <ele>485.20001220703125</ele>
        <time>2014-05-10T07:36:49.000Z</time>
      </trkpt>
      <trkpt lon="7.27192897349596" lat="46.1954549420625">
        <ele>485.0</ele>
        <time>2014-05-10T07:36:55.000Z</time>
      </trkpt>
      <trkpt lon="7.272457955405116" lat="46.195683935657144">
        <ele>485.0</ele>
        <time>2014-05-10T07:37:03.000Z</time>
      </trkpt>
      <trkpt lon="7.272924995049834" lat="46.195879988372326">
        <ele>485.3999938964844</ele>
        <time>2014-05-10T07:37:10.000Z</time>
      </trkpt>
      <trkpt lon="7.273601917549968" lat="46.196160949766636">
        <ele>484.6000061035156</ele>
        <time>2014-05-10T07:37:20.000Z</time>
      </trkpt>
      <trkpt lon="7.274134922772646" lat="46.19638298638165">
        <ele>484.79998779296875</ele>
        <time>2014-05-10T07:37:28.000Z</time>
      </trkpt>
      <trkpt lon="7.274712938815355" lat="46.19661499746144">
        <ele>484.3999938964844</ele>
        <time>2014-05-10T07:37:37.000Z</time>
      </trkpt>
      <trkpt lon="7.275203950703144" lat="46.19683393277228">
        <ele>484.3999938964844</ele>
        <time>2014-05-10T07:37:45.000Z</time>
      </trkpt>
      <trkpt lon="7.275716923177242" lat="46.19704993441701">
        <ele>484.79998779296875</ele>
        <time>2014-05-10T07:37:53.000Z</time>
      </trkpt>
      <trkpt lon="7.276042979210615" lat="46.197186978533864">
        <ele>485.0</ele>
        <time>2014-05-10T07:37:58.000Z</time>
      </trkpt>
      <trkpt lon="7.276466935873032" lat="46.19736693799496">
        <ele>484.3999938964844</ele>
        <time>2014-05-10T07:38:05.000Z</time>
      </trkpt>
      <trkpt lon="7.276525944471359" lat="46.19739199988544">
        <ele>484.3999938964844</ele>
        <time>2014-05-10T07:38:06.000Z</time>
      </trkpt>
      <trkpt lon="7.2769369930028915" lat="46.19756299071014">
        <ele>483.3999938964844</ele>
        <time>2014-05-10T07:38:13.000Z</time>
      </trkpt>
      <trkpt lon="7.277400931343436" lat="46.197751918807626">
        <ele>483.3999938964844</ele>
        <time>2014-05-10T07:38:21.000Z</time>
      </trkpt>
      <trkpt lon="7.277828995138407" lat="46.19793196208775">
        <ele>483.79998779296875</ele>
        <time>2014-05-10T07:38:28.000Z</time>
      </trkpt>
      <trkpt lon="7.278215987607837" lat="46.19810194708407">
        <ele>484.20001220703125</ele>
        <time>2014-05-10T07:38:34.000Z</time>
      </trkpt>
      <trkpt lon="7.2785429656505585" lat="46.1982349678874">
        <ele>484.79998779296875</ele>
        <time>2014-05-10T07:38:39.000Z</time>
      </trkpt>
      <trkpt lon="7.279068930074573" lat="46.1984389834106">
        <ele>485.0</ele>
        <time>2014-05-10T07:38:47.000Z</time>
      </trkpt>
      <trkpt lon="7.279585925862193" lat="46.198652973398566">
        <ele>485.3999938964844</ele>
        <time>2014-05-10T07:38:55.000Z</time>
      </trkpt>
      <trkpt lon="7.279650969430804" lat="46.19867996312678">
        <ele>485.6000061035156</ele>
        <time>2014-05-10T07:38:56.000Z</time>
      </trkpt>
      <trkpt lon="7.280235942453146" lat="46.19892295449972">
        <ele>485.3999938964844</ele>
        <time>2014-05-10T07:39:05.000Z</time>
      </trkpt>
      <trkpt lon="7.280712956562638" lat="46.19910693727434">
        <ele>486.0</ele>
        <time>2014-05-10T07:39:12.000Z</time>
      </trkpt>
      <trkpt lon="7.28091093711555" lat="46.19917592033744">
        <ele>486.3999938964844</ele>
        <time>2014-05-10T07:39:15.000Z</time>
      </trkpt>
      <trkpt lon="7.28138099424541" lat="46.199338948354125">
        <ele>486.20001220703125</ele>
        <time>2014-05-10T07:39:22.000Z</time>
      </trkpt>
      <trkpt lon="7.281849961727858" lat="46.19950298219919">
        <ele>486.6000061035156</ele>
        <time>2014-05-10T07:39:29.000Z</time>
      </trkpt>
      <trkpt lon="7.2822639439255" lat="46.19963097386062">
        <ele>487.3999938964844</ele>
        <time>2014-05-10T07:39:35.000Z</time>
      </trkpt>
      <trkpt lon="7.282715979963541" lat="46.19974899105728">
        <ele>486.6000061035156</ele>
        <time>2014-05-10T07:39:42.000Z</time>
      </trkpt>
      <trkpt lon="7.283262982964516" lat="46.199833983555436">
        <ele>485.3999938964844</ele>
        <time>2014-05-10T07:39:50.000Z</time>
      </trkpt>
      <trkpt lon="7.2839839942753315" lat="46.19994697161019">
        <ele>484.6000061035156</ele>
        <time>2014-05-10T07:40:00.000Z</time>
      </trkpt>
      <trkpt lon="7.284872978925705" lat="46.200089966878295">
        <ele>484.0</ele>
        <time>2014-05-10T07:40:12.000Z</time>
      </trkpt>
      <trkpt lon="7.285693986341357" lat="46.20022499933839">
        <ele>484.0</ele>
        <time>2014-05-10T07:40:23.000Z</time>
      </trkpt>
      <trkpt lon="7.286262949928641" lat="46.20031292550266">
        <ele>484.0</ele>
        <time>2014-05-10T07:40:31.000Z</time>
      </trkpt>
      <trkpt lon="7.286973986774683" lat="46.20042398571968">
        <ele>483.3999938964844</ele>
        <time>2014-05-10T07:40:41.000Z</time>
      </trkpt>
      <trkpt lon="7.287039952352643" lat="46.200433960184455">
        <ele>483.6000061035156</ele>
        <time>2014-05-10T07:40:42.000Z</time>
      </trkpt>
      <trkpt lon="7.2873899806290865" lat="46.20048793964088">
        <ele>484.20001220703125</ele>
        <time>2014-05-10T07:40:48.000Z</time>
      </trkpt>
      <trkpt lon="7.287743948400021" lat="46.200544936582446">
        <ele>484.20001220703125</ele>
        <time>2014-05-10T07:40:55.000Z</time>
      </trkpt>
      <trkpt lon="7.288139993324876" lat="46.20061098597944">
        <ele>484.20001220703125</ele>
        <time>2014-05-10T07:41:02.000Z</time>
      </trkpt>
      <trkpt lon="7.288649948313832" lat="46.20069698430598">
        <ele>483.79998779296875</ele>
        <time>2014-05-10T07:41:10.000Z</time>
      </trkpt>
      <trkpt lon="7.289206925779581" lat="46.20079195126891">
        <ele>483.79998779296875</ele>
        <time>2014-05-10T07:41:18.000Z</time>
      </trkpt>
      <trkpt lon="7.289940929040313" lat="46.20091298595071">
        <ele>484.20001220703125</ele>
        <time>2014-05-10T07:41:28.000Z</time>
      </trkpt>
      <trkpt lon="7.290703933686018" lat="46.20102798566222">
        <ele>484.3999938964844</ele>
        <time>2014-05-10T07:41:38.000Z</time>
      </trkpt>
      <trkpt lon="7.291472973302007" lat="46.201145919039845">
        <ele>485.6000061035156</ele>
        <time>2014-05-10T07:41:48.000Z</time>
      </trkpt>
      <trkpt lon="7.292096922174096" lat="46.201245998963714">
        <ele>485.79998779296875</ele>
        <time>2014-05-10T07:41:56.000Z</time>
      </trkpt>
      <trkpt lon="7.292776945978403" lat="46.20136493816972">
        <ele>485.6000061035156</ele>
        <time>2014-05-10T07:42:05.000Z</time>
      </trkpt>
      <trkpt lon="7.293433919548988" lat="46.201460994780064">
        <ele>485.79998779296875</ele>
        <time>2014-05-10T07:42:14.000Z</time>
      </trkpt>
      <trkpt lon="7.294222991913557" lat="46.20160097256303">
        <ele>485.6000061035156</ele>
        <time>2014-05-10T07:42:25.000Z</time>
      </trkpt>
      <trkpt lon="7.295092949643731" lat="46.20178294368088">
        <ele>485.3999938964844</ele>
        <time>2014-05-10T07:42:37.000Z</time>
      </trkpt>
      <trkpt lon="7.295588990673423" lat="46.20191898196936">
        <ele>486.0</ele>
        <time>2014-05-10T07:42:44.000Z</time>
      </trkpt>
      <trkpt lon="7.296008924022317" lat="46.20205191895366">
        <ele>486.79998779296875</ele>
        <time>2014-05-10T07:42:50.000Z</time>
      </trkpt>
      <trkpt lon="7.296591969206929" lat="46.202237997204065">
        <ele>488.0</ele>
        <time>2014-05-10T07:42:59.000Z</time>
      </trkpt>
      <trkpt lon="7.296786932274699" lat="46.20230999775231">
        <ele>487.6000061035156</ele>
        <time>2014-05-10T07:43:02.000Z</time>
      </trkpt>
      <trkpt lon="7.297207955271006" lat="46.202472941949964">
        <ele>487.3999938964844</ele>
        <time>2014-05-10T07:43:09.000Z</time>
      </trkpt>
      <trkpt lon="7.297676922753453" lat="46.202670922502875">
        <ele>487.20001220703125</ele>
        <time>2014-05-10T07:43:17.000Z</time>
      </trkpt>
      <trkpt lon="7.298281928524375" lat="46.20293092913926">
        <ele>489.0</ele>
        <time>2014-05-10T07:43:27.000Z</time>
      </trkpt>
      <trkpt lon="7.298673950135708" lat="46.203099992126226">
        <ele>489.20001220703125</ele>
        <time>2014-05-10T07:43:34.000Z</time>
      </trkpt>
      <trkpt lon="7.29908692650497" lat="46.20327793993056">
        <ele>488.79998779296875</ele>
        <time>2014-05-10T07:43:41.000Z</time>
      </trkpt>
      <trkpt lon="7.299201926216483" lat="46.20332697406411">
        <ele>488.79998779296875</ele>
        <time>2014-05-10T07:43:43.000Z</time>
      </trkpt>
      <trkpt lon="7.299609957262874" lat="46.203502994030714">
        <ele>489.0</ele>
        <time>2014-05-10T07:43:50.000Z</time>
      </trkpt>
      <trkpt lon="7.299783965572715" lat="46.20357792824507">
        <ele>488.79998779296875</ele>
        <time>2014-05-10T07:43:53.000Z</time>
      </trkpt>
      <trkpt lon="7.300074985250831" lat="46.20370298624039">
        <ele>488.0</ele>
        <time>2014-05-10T07:43:58.000Z</time>
      </trkpt>
      <trkpt lon="7.300509922206402" lat="46.203886969015">
        <ele>487.3999938964844</ele>
        <time>2014-05-10T07:44:05.000Z</time>
      </trkpt>
      <trkpt lon="7.301180977374315" lat="46.20420196093619">
        <ele>485.20001220703125</ele>
        <time>2014-05-10T07:44:16.000Z</time>
      </trkpt>
      <trkpt lon="7.3015999887138605" lat="46.20440396480262">
        <ele>484.6000061035156</ele>
        <time>2014-05-10T07:44:23.000Z</time>
      </trkpt>
      <trkpt lon="7.302000978961587" lat="46.204620972275734">
        <ele>485.0</ele>
        <time>2014-05-10T07:44:30.000Z</time>
      </trkpt>
      <trkpt lon="7.302149925380945" lat="46.204709988087416">
        <ele>485.20001220703125</ele>
        <time>2014-05-10T07:44:33.000Z</time>
      </trkpt>
      <trkpt lon="7.30224397033453" lat="46.2047659792006">
        <ele>485.6000061035156</ele>
        <time>2014-05-10T07:44:35.000Z</time>
      </trkpt>
      <trkpt lon="7.302398951724172" lat="46.204858934506774">
        <ele>486.79998779296875</ele>
        <time>2014-05-10T07:44:38.000Z</time>
      </trkpt>
      <trkpt lon="7.3026039730757475" lat="46.204990949481726">
        <ele>485.79998779296875</ele>
        <time>2014-05-10T07:44:42.000Z</time>
      </trkpt>
      <trkpt lon="7.303098924458027" lat="46.20530292391777">
        <ele>483.79998779296875</ele>
        <time>2014-05-10T07:44:51.000Z</time>
      </trkpt>
      <trkpt lon="7.303535956889391" lat="46.20557893998921">
        <ele>483.79998779296875</ele>
        <time>2014-05-10T07:44:59.000Z</time>
      </trkpt>
      <trkpt lon="7.303924961015582" lat="46.205825954675674">
        <ele>485.0</ele>
        <time>2014-05-10T07:45:06.000Z</time>
      </trkpt>
      <trkpt lon="7.30443793348968" lat="46.206148993223906">
        <ele>486.79998779296875</ele>
        <time>2014-05-10T07:45:16.000Z</time>
      </trkpt>
      <trkpt lon="7.304788967594504" lat="46.20636994019151">
        <ele>487.0</ele>
        <time>2014-05-10T07:45:23.000Z</time>
      </trkpt>
      <trkpt lon="7.305252989754081" lat="46.20665794238448">
        <ele>487.6000061035156</ele>
        <time>2014-05-10T07:45:32.000Z</time>
      </trkpt>
      <trkpt lon="7.305568987503648" lat="46.20685491710901">
        <ele>487.79998779296875</ele>
        <time>2014-05-10T07:45:39.000Z</time>
      </trkpt>
      <trkpt lon="7.305969977751374" lat="46.207105955109">
        <ele>488.0</ele>
        <time>2014-05-10T07:45:48.000Z</time>
      </trkpt>
      <trkpt lon="7.30643299408257" lat="46.207393957301974">
        <ele>489.0</ele>
        <time>2014-05-10T07:45:58.000Z</time>
      </trkpt>
      <trkpt lon="7.306715967133641" lat="46.20756997726858">
        <ele>489.20001220703125</ele>
        <time>2014-05-10T07:46:04.000Z</time>
      </trkpt>
      <trkpt lon="7.30710094794631" lat="46.20780995115638">
        <ele>489.6000061035156</ele>
        <time>2014-05-10T07:46:12.000Z</time>
      </trkpt>
      <trkpt lon="7.307427925989032" lat="46.208015978336334">
        <ele>489.0</ele>
        <time>2014-05-10T07:46:19.000Z</time>
      </trkpt>
      <trkpt lon="7.307804943993688" lat="46.208253940567374">
        <ele>490.6000061035156</ele>
        <time>2014-05-10T07:46:27.000Z</time>
      </trkpt>
      <trkpt lon="7.308179950341582" lat="46.208491986617446">
        <ele>491.6000061035156</ele>
        <time>2014-05-10T07:46:36.000Z</time>
      </trkpt>
      <trkpt lon="7.308447919785976" lat="46.208661971613765">
        <ele>492.0</ele>
        <time>2014-05-10T07:46:44.000Z</time>
      </trkpt>
      <trkpt lon="7.308576917275786" lat="46.20878191664815">
        <ele>492.20001220703125</ele>
        <time>2014-05-10T07:46:49.000Z</time>
      </trkpt>
      <trkpt lon="7.308654952794313" lat="46.20903295464814">
        <ele>490.79998779296875</ele>
        <time>2014-05-10T07:46:58.000Z</time>
      </trkpt>
      <trkpt lon="7.308878917247057" lat="46.209048964083195">
        <ele>490.6000061035156</ele>
        <time>2014-05-10T07:47:02.000Z</time>
      </trkpt>
      <trkpt lon="7.308941949158907" lat="46.209135968238115">
        <ele>490.0</ele>
        <time>2014-05-10T07:47:06.000Z</time>
      </trkpt>
      <trkpt lon="7.308935998007655" lat="46.20916798710823">
        <ele>489.79998779296875</ele>
        <time>2014-05-10T07:47:07.000Z</time>
      </trkpt>
      <trkpt lon="7.308882940560579" lat="46.209455989301205">
        <ele>489.6000061035156</ele>
        <time>2014-05-10T07:47:15.000Z</time>
      </trkpt>
      <trkpt lon="7.308831978589296" lat="46.209626980125904">
        <ele>489.79998779296875</ele>
        <time>2014-05-10T07:47:21.000Z</time>
      </trkpt>
      <trkpt lon="7.308762995526195" lat="46.20980995707214">
        <ele>488.0</ele>
        <time>2014-05-10T07:47:29.000Z</time>
      </trkpt>
      <trkpt lon="7.308695940300822" lat="46.20998195372522">
        <ele>487.20001220703125</ele>
        <time>2014-05-10T07:47:35.000Z</time>
      </trkpt>
      <trkpt lon="7.308597955852747" lat="46.2102229334414">
        <ele>487.6000061035156</ele>
        <time>2014-05-10T07:47:43.000Z</time>
      </trkpt>
      <trkpt lon="7.30847398750484" lat="46.21050297282636">
        <ele>487.20001220703125</ele>
        <time>2014-05-10T07:47:51.000Z</time>
      </trkpt>
      <trkpt lon="7.30830199085176" lat="46.21088895946741">
        <ele>488.6000061035156</ele>
        <time>2014-05-10T07:48:01.000Z</time>
      </trkpt>
      <trkpt lon="7.308199983090162" lat="46.21111795306206">
        <ele>488.79998779296875</ele>
        <time>2014-05-10T07:48:08.000Z</time>
      </trkpt>
      <trkpt lon="7.3080909345299006" lat="46.21136396192014">
        <ele>489.0</ele>
        <time>2014-05-10T07:48:15.000Z</time>
      </trkpt>
      <trkpt lon="7.307955985888839" lat="46.21166696771979">
        <ele>489.20001220703125</ele>
        <time>2014-05-10T07:48:23.000Z</time>
      </trkpt>
      <trkpt lon="7.3078029323369265" lat="46.21204197406769">
        <ele>489.6000061035156</ele>
        <time>2014-05-10T07:48:33.000Z</time>
      </trkpt>
      <trkpt lon="7.307737972587347" lat="46.212203996255994">
        <ele>489.20001220703125</ele>
        <time>2014-05-10T07:48:38.000Z</time>
      </trkpt>
      <trkpt lon="7.307690950110555" lat="46.21231799013913">
        <ele>488.3999938964844</ele>
        <time>2014-05-10T07:48:41.000Z</time>
      </trkpt>
      <trkpt lon="7.307611992582679" lat="46.212508929893374">
        <ele>487.3999938964844</ele>
        <time>2014-05-10T07:48:46.000Z</time>
      </trkpt>
      <trkpt lon="7.307490957900882" lat="46.21280397288501">
        <ele>485.79998779296875</ele>
        <time>2014-05-10T07:48:52.000Z</time>
      </trkpt>
      <trkpt lon="7.307298928499222" lat="46.21322197839618">
        <ele>485.3999938964844</ele>
        <time>2014-05-10T07:48:59.000Z</time>
      </trkpt>
      <trkpt lon="7.307159956544638" lat="46.21352791786194">
        <ele>486.20001220703125</ele>
        <time>2014-05-10T07:49:05.000Z</time>
      </trkpt>
      <trkpt lon="7.307011932134628" lat="46.21385296806693">
        <ele>490.20001220703125</ele>
        <time>2014-05-10T07:49:13.000Z</time>
      </trkpt>
      <trkpt lon="7.306847982108593" lat="46.214205930009484">
        <ele>491.6000061035156</ele>
        <time>2014-05-10T07:49:22.000Z</time>
      </trkpt>
      <trkpt lon="7.306721918284893" lat="46.21447892859578">
        <ele>492.20001220703125</ele>
        <time>2014-05-10T07:49:29.000Z</time>
      </trkpt>
      <trkpt lon="7.306616976857185" lat="46.21471395716071">
        <ele>492.79998779296875</ele>
        <time>2014-05-10T07:49:36.000Z</time>
      </trkpt>
      <trkpt lon="7.306600967422128" lat="46.21474899351597">
        <ele>492.79998779296875</ele>
        <time>2014-05-10T07:49:39.000Z</time>
      </trkpt>
      <trkpt lon="7.306594932451844" lat="46.214761985465884">
        <ele>493.0</ele>
        <time>2014-05-10T07:49:42.000Z</time>
      </trkpt>
      <trkpt lon="7.30636996217072" lat="46.21471395716071">
        <ele>493.20001220703125</ele>
        <time>2014-05-10T07:49:49.000Z</time>
      </trkpt>
      <trkpt lon="7.306294944137335" lat="46.214697947725654">
        <ele>493.20001220703125</ele>
        <time>2014-05-10T07:49:51.000Z</time>
      </trkpt>
      <trkpt lon="7.306294944137335" lat="46.214697947725654">
        <ele>492.79998779296875</ele>
        <time>2014-05-10T07:49:57.000Z</time>
      </trkpt>
      <trkpt lon="7.306099981069565" lat="46.215109918266535">
        <ele>493.20001220703125</ele>
        <time>2014-05-10T07:50:03.000Z</time>
      </trkpt>
      <trkpt lon="7.305941982194781" lat="46.2154779676348">
        <ele>493.0</ele>
        <time>2014-05-10T07:50:11.000Z</time>
      </trkpt>
      <trkpt lon="7.305740984156728" lat="46.21590896509588">
        <ele>493.6000061035156</ele>
        <time>2014-05-10T07:50:22.000Z</time>
      </trkpt>
      <trkpt lon="7.305714916437864" lat="46.21596395038068">
        <ele>493.6000061035156</ele>
        <time>2014-05-10T07:50:25.000Z</time>
      </trkpt>
      <trkpt lon="7.305615926161408" lat="46.21598498895764">
        <ele>493.20001220703125</ele>
        <time>2014-05-10T07:50:29.000Z</time>
      </trkpt>
      <trkpt lon="7.305268999189138" lat="46.215905947610736">
        <ele>492.3999938964844</ele>
        <time>2014-05-10T07:50:36.000Z</time>
      </trkpt>
      <trkpt lon="7.304934980347753" lat="46.21582891792059">
        <ele>491.3999938964844</ele>
        <time>2014-05-10T07:50:41.000Z</time>
      </trkpt>
      <trkpt lon="7.3046849481761456" lat="46.215770998969674">
        <ele>489.79998779296875</ele>
        <time>2014-05-10T07:50:45.000Z</time>
      </trkpt>
      <trkpt lon="7.304407926276326" lat="46.21586596593261">
        <ele>490.6000061035156</ele>
        <time>2014-05-10T07:50:49.000Z</time>
      </trkpt>
      <trkpt lon="7.304382948204875" lat="46.215948946774006">
        <ele>492.3999938964844</ele>
        <time>2014-05-10T07:50:51.000Z</time>
      </trkpt>
      <trkpt lon="7.304314970970154" lat="46.21616897173226">
        <ele>491.79998779296875</ele>
        <time>2014-05-10T07:50:56.000Z</time>
      </trkpt>
      <trkpt lon="7.304266942664981" lat="46.216354966163635">
        <ele>490.20001220703125</ele>
        <time>2014-05-10T07:51:00.000Z</time>
      </trkpt>
      <trkpt lon="7.304459977895021" lat="46.216421937569976">
        <ele>489.6000061035156</ele>
        <time>2014-05-10T07:51:02.000Z</time>
      </trkpt>
      <trkpt lon="7.304558968171477" lat="46.21636996977031">
        <ele>490.0</ele>
        <time>2014-05-10T07:51:04.000Z</time>
      </trkpt>
      <trkpt lon="7.30490698479116" lat="46.21626393869519">
        <ele>491.79998779296875</ele>
        <time>2014-05-10T07:51:11.000Z</time>
      </trkpt>
      <trkpt lon="7.305240919813514" lat="46.21627198532224">
        <ele>491.79998779296875</ele>
        <time>2014-05-10T07:51:17.000Z</time>
      </trkpt>
      <trkpt lon="7.305534956976771" lat="46.21630693785846">
        <ele>492.3999938964844</ele>
        <time>2014-05-10T07:51:23.000Z</time>
      </trkpt>
      <trkpt lon="7.305612992495298" lat="46.216313978657126">
        <ele>492.3999938964844</ele>
        <time>2014-05-10T07:51:25.000Z</time>
      </trkpt>
      <trkpt lon="7.30550897307694" lat="46.21634197421372">
        <ele>493.0</ele>
        <time>2014-05-10T07:51:28.000Z</time>
      </trkpt>
      <trkpt lon="7.305496986955404" lat="46.21637198142707">
        <ele>494.6000061035156</ele>
        <time>2014-05-10T07:51:44.000Z</time>
      </trkpt>
      <trkpt lon="7.305456921458244" lat="46.21647692285478">
        <ele>494.6000061035156</ele>
        <time>2014-05-10T07:51:48.000Z</time>
      </trkpt>
      <trkpt lon="7.305333958938718" lat="46.216829968616366">
        <ele>494.0</ele>
        <time>2014-05-10T07:51:56.000Z</time>
      </trkpt>
      <trkpt lon="7.305240919813514" lat="46.21728099882603">
        <ele>494.0</ele>
        <time>2014-05-10T07:52:04.000Z</time>
      </trkpt>
      <trkpt lon="7.305194986984134" lat="46.217646952718496">
        <ele>494.20001220703125</ele>
        <time>2014-05-10T07:52:10.000Z</time>
      </trkpt>
      <trkpt lon="7.3051929753273726" lat="46.21802296489477">
        <ele>493.79998779296875</ele>
        <time>2014-05-10T07:52:16.000Z</time>
      </trkpt>
      <trkpt lon="7.30529397726059" lat="46.218327982351184">
        <ele>494.6000061035156</ele>
        <time>2014-05-10T07:52:22.000Z</time>
      </trkpt>
      <trkpt lon="7.305348962545395" lat="46.21857793070376">
        <ele>493.3999938964844</ele>
        <time>2014-05-10T07:52:29.000Z</time>
      </trkpt>
      <trkpt lon="7.305356925353408" lat="46.218612967059016">
        <ele>493.20001220703125</ele>
        <time>2014-05-10T07:52:30.000Z</time>
      </trkpt>
      <trkpt lon="7.305453987792134" lat="46.21886299923062">
        <ele>493.20001220703125</ele>
        <time>2014-05-10T07:52:36.000Z</time>
      </trkpt>
      <trkpt lon="7.305512996390462" lat="46.21898797340691">
        <ele>493.6000061035156</ele>
        <time>2014-05-10T07:52:39.000Z</time>
      </trkpt>
      <trkpt lon="7.305709971114993" lat="46.219342947006226">
        <ele>494.0</ele>
        <time>2014-05-10T07:52:48.000Z</time>
      </trkpt>
      <trkpt lon="7.305889930576086" lat="46.219598930329084">
        <ele>494.20001220703125</ele>
        <time>2014-05-10T07:52:55.000Z</time>
      </trkpt>
      <trkpt lon="7.3060959577560425" lat="46.219856925308704">
        <ele>494.20001220703125</ele>
        <time>2014-05-10T07:53:02.000Z</time>
      </trkpt>
      <trkpt lon="7.306160917505622" lat="46.21992892585695">
        <ele>494.0</ele>
        <time>2014-05-10T07:53:04.000Z</time>
      </trkpt>
      <trkpt lon="7.306538941338658" lat="46.22029999271035">
        <ele>494.6000061035156</ele>
        <time>2014-05-10T07:53:14.000Z</time>
      </trkpt>
      <trkpt lon="7.306839935481548" lat="46.22057491913438">
        <ele>496.20001220703125</ele>
        <time>2014-05-10T07:53:22.000Z</time>
      </trkpt>
      <trkpt lon="7.307175965979695" lat="46.22081397101283">
        <ele>496.3999938964844</ele>
        <time>2014-05-10T07:53:30.000Z</time>
      </trkpt>
      <trkpt lon="7.307412922382355" lat="46.220971969887614">
        <ele>496.3999938964844</ele>
        <time>2014-05-10T07:53:36.000Z</time>
      </trkpt>
      <trkpt lon="7.307431949302554" lat="46.22098496183753">
        <ele>497.0</ele>
        <time>2014-05-10T07:53:40.000Z</time>
      </trkpt>
      <trkpt lon="7.307431949302554" lat="46.22098496183753">
        <ele>497.6000061035156</ele>
        <time>2014-05-10T07:53:45.000Z</time>
      </trkpt>
      <trkpt lon="7.307994961738586" lat="46.22137094847858">
        <ele>498.20001220703125</ele>
        <time>2014-05-10T07:53:54.000Z</time>
      </trkpt>
      <trkpt lon="7.308326968923211" lat="46.22158896178007">
        <ele>497.20001220703125</ele>
        <time>2014-05-10T07:54:02.000Z</time>
      </trkpt>
      <trkpt lon="7.308725947514176" lat="46.22186598367989">
        <ele>498.0</ele>
        <time>2014-05-10T07:54:11.000Z</time>
      </trkpt>
      <trkpt lon="7.308853939175606" lat="46.22195499949157">
        <ele>498.3999938964844</ele>
        <time>2014-05-10T07:54:14.000Z</time>
      </trkpt>
      <trkpt lon="7.309147976338863" lat="46.2221609428525">
        <ele>498.3999938964844</ele>
        <time>2014-05-10T07:54:21.000Z</time>
      </trkpt>
      <trkpt lon="7.309457939118147" lat="46.22237895615399">
        <ele>497.6000061035156</ele>
        <time>2014-05-10T07:54:29.000Z</time>
      </trkpt>
      <trkpt lon="7.309733955189586" lat="46.22257199138403">
        <ele>498.20001220703125</ele>
        <time>2014-05-10T07:54:36.000Z</time>
      </trkpt>
      <trkpt lon="7.309813918545842" lat="46.222626976668835">
        <ele>498.0</ele>
        <time>2014-05-10T07:54:38.000Z</time>
      </trkpt>
      <trkpt lon="7.309898994863033" lat="46.22268497943878">
        <ele>497.6000061035156</ele>
        <time>2014-05-10T07:54:40.000Z</time>
      </trkpt>
      <trkpt lon="7.310231924057007" lat="46.22291397303343">
        <ele>497.0</ele>
        <time>2014-05-10T07:54:48.000Z</time>
      </trkpt>
      <trkpt lon="7.3104979656636715" lat="46.223100973293185">
        <ele>498.0</ele>
        <time>2014-05-10T07:54:54.000Z</time>
      </trkpt>
      <trkpt lon="7.310848999768496" lat="46.22334999963641">
        <ele>498.79998779296875</ele>
        <time>2014-05-10T07:55:02.000Z</time>
      </trkpt>
      <trkpt lon="7.3111379239708185" lat="46.223553931340575">
        <ele>497.79998779296875</ele>
        <time>2014-05-10T07:55:09.000Z</time>
      </trkpt>
      <trkpt lon="7.311424920335412" lat="46.22375794686377">
        <ele>496.79998779296875</ele>
        <time>2014-05-10T07:55:16.000Z</time>
      </trkpt>
      <trkpt lon="7.311704959720373" lat="46.22395693324506">
        <ele>496.3999938964844</ele>
        <time>2014-05-10T07:55:23.000Z</time>
      </trkpt>
      <trkpt lon="7.311897994950414" lat="46.22409397736192">
        <ele>494.79998779296875</ele>
        <time>2014-05-10T07:55:28.000Z</time>
      </trkpt>
      <trkpt lon="7.312088934704661" lat="46.22422892600298">
        <ele>494.0</ele>
        <time>2014-05-10T07:55:33.000Z</time>
      </trkpt>
      <trkpt lon="7.312314994633198" lat="46.224392959848046">
        <ele>502.3999938964844</ele>
        <time>2014-05-10T07:55:39.000Z</time>
      </trkpt>
      <trkpt lon="7.312524961307645" lat="46.22454592958093">
        <ele>504.20001220703125</ele>
        <time>2014-05-10T07:55:46.000Z</time>
      </trkpt>
      <trkpt lon="7.3125839699059725" lat="46.2245889287442">
        <ele>503.6000061035156</ele>
        <time>2014-05-10T07:55:49.000Z</time>
      </trkpt>
      <trkpt lon="7.312671979889274" lat="46.22465296648443">
        <ele>504.0</ele>
        <time>2014-05-10T07:55:56.000Z</time>
      </trkpt>
      <trkpt lon="7.312671979889274" lat="46.22465296648443">
        <ele>504.3999938964844</ele>
        <time>2014-05-10T07:56:00.000Z</time>
      </trkpt>
      <trkpt lon="7.312752949073911" lat="46.22480392456055">
        <ele>509.6000061035156</ele>
        <time>2014-05-10T07:56:59.000Z</time>
      </trkpt>
      <trkpt lon="7.312752949073911" lat="46.22480392456055">
        <ele>509.79998779296875</ele>
        <time>2014-05-10T07:57:02.000Z</time>
      </trkpt>
      <trkpt lon="7.312752949073911" lat="46.22480392456055">
        <ele>508.79998779296875</ele>
        <time>2014-05-10T07:57:06.000Z</time>
      </trkpt>
      <trkpt lon="7.3127129673957825" lat="46.225160993635654">
        <ele>508.3999938964844</ele>
        <time>2014-05-10T07:57:11.000Z</time>
      </trkpt>
      <trkpt lon="7.312695952132344" lat="46.22528395615518">
        <ele>508.6000061035156</ele>
        <time>2014-05-10T07:57:14.000Z</time>
      </trkpt>
      <trkpt lon="7.312661921605468" lat="46.22562593780458">
        <ele>509.3999938964844</ele>
        <time>2014-05-10T07:57:22.000Z</time>
      </trkpt>
      <trkpt lon="7.3126269690692425" lat="46.22599692083895">
        <ele>511.79998779296875</ele>
        <time>2014-05-10T07:57:30.000Z</time>
      </trkpt>
      <trkpt lon="7.312618922442198" lat="46.2260929774493">
        <ele>512.2000122070312</ele>
        <time>2014-05-10T07:57:32.000Z</time>
      </trkpt>
      <trkpt lon="7.312602996826172" lat="46.22627494856715">
        <ele>510.79998779296875</ele>
        <time>2014-05-10T07:57:36.000Z</time>
      </trkpt>
      <trkpt lon="7.312936931848526" lat="46.22628592886031">
        <ele>510.0</ele>
        <time>2014-05-10T07:57:39.000Z</time>
      </trkpt>
      <trkpt lon="7.313195932656527" lat="46.22629699297249">
        <ele>509.0</ele>
        <time>2014-05-10T07:57:43.000Z</time>
      </trkpt>
      <trkpt lon="7.31343992985785" lat="46.22630696743727">
        <ele>508.20001220703125</ele>
        <time>2014-05-10T07:57:47.000Z</time>
      </trkpt>
      <trkpt lon="7.313422998413444" lat="46.22646898962557">
        <ele>508.0</ele>
        <time>2014-05-10T07:57:49.000Z</time>
      </trkpt>
      <trkpt lon="7.313384944573045" lat="46.22684299014509">
        <ele>508.3999938964844</ele>
        <time>2014-05-10T07:57:57.000Z</time>
      </trkpt>
      <trkpt lon="7.313370946794748" lat="46.22697793878615">
        <ele>508.6000061035156</ele>
        <time>2014-05-10T07:58:00.000Z</time>
      </trkpt>
      <trkpt lon="7.3133499920368195" lat="46.22718991711736">
        <ele>508.79998779296875</ele>
        <time>2014-05-10T07:58:05.000Z</time>
      </trkpt>
      <trkpt lon="7.3133099265396595" lat="46.227589985355735">
        <ele>508.79998779296875</ele>
        <time>2014-05-10T07:58:14.000Z</time>
      </trkpt>
      <trkpt lon="7.313299952074885" lat="46.227680929005146">
        <ele>508.79998779296875</ele>
        <time>2014-05-10T07:58:16.000Z</time>
      </trkpt>
      <trkpt lon="7.313289977610111" lat="46.22777296230197">
        <ele>509.0</ele>
        <time>2014-05-10T07:58:18.000Z</time>
      </trkpt>
      <trkpt lon="7.313246978446841" lat="46.22817797586322">
        <ele>509.6000061035156</ele>
        <time>2014-05-10T07:58:27.000Z</time>
      </trkpt>
      <trkpt lon="7.313227951526642" lat="46.22836095280945">
        <ele>510.20001220703125</ele>
        <time>2014-05-10T07:58:31.000Z</time>
      </trkpt>
      <trkpt lon="7.313167937099934" lat="46.228795973584056">
        <ele>510.79998779296875</ele>
        <time>2014-05-10T07:58:40.000Z</time>
      </trkpt>
      <trkpt lon="7.3131229262799025" lat="46.22908598743379">
        <ele>510.79998779296875</ele>
        <time>2014-05-10T07:58:46.000Z</time>
      </trkpt>
      <trkpt lon="7.313109934329987" lat="46.229182966053486">
        <ele>511.0</ele>
        <time>2014-05-10T07:58:48.000Z</time>
      </trkpt>
      <trkpt lon="7.313064923509955" lat="46.2295519374311">
        <ele>511.6000061035156</ele>
        <time>2014-05-10T07:58:56.000Z</time>
      </trkpt>
      <trkpt lon="7.313043968752027" lat="46.22972896322608">
        <ele>512.0</ele>
        <time>2014-05-10T07:59:00.000Z</time>
      </trkpt>
      <trkpt lon="7.312982948496938" lat="46.23019893653691">
        <ele>513.0</ele>
        <time>2014-05-10T07:59:11.000Z</time>
      </trkpt>
      <trkpt lon="7.312903990969062" lat="46.23050596565008">
        <ele>513.0</ele>
        <time>2014-05-10T07:59:19.000Z</time>
      </trkpt>
      <trkpt lon="7.312850933521986" lat="46.230685925111175">
        <ele>513.2000122070312</ele>
        <time>2014-05-10T07:59:25.000Z</time>
      </trkpt>
      <trkpt lon="7.312845988199115" lat="46.230704952031374">
        <ele>513.2000122070312</ele>
        <time>2014-05-10T07:59:26.000Z</time>
      </trkpt>
      <trkpt lon="7.312826961278915" lat="46.23080092482269">
        <ele>513.2000122070312</ele>
        <time>2014-05-10T07:59:33.000Z</time>
      </trkpt>
      <trkpt lon="7.312811957672238" lat="46.23089496977627">
        <ele>512.7999877929688</ele>
        <time>2014-05-10T07:59:40.000Z</time>
      </trkpt>
      <trkpt lon="7.312802989035845" lat="46.23095791786909">
        <ele>513.5999755859375</ele>
        <time>2014-05-10T07:59:44.000Z</time>
      </trkpt>
      <trkpt lon="7.312764935195446" lat="46.23123292811215">
        <ele>514.0</ele>
        <time>2014-05-10T07:59:52.000Z</time>
      </trkpt>
      <trkpt lon="7.312721936032176" lat="46.23157692141831">
        <ele>513.5999755859375</ele>
        <time>2014-05-10T08:00:01.000Z</time>
      </trkpt>
      <trkpt lon="7.312695952132344" lat="46.23175595887005">
        <ele>514.5999755859375</ele>
        <time>2014-05-10T08:00:06.000Z</time>
      </trkpt>
      <trkpt lon="7.312617916613817" lat="46.23200297355652">
        <ele>515.4000244140625</ele>
        <time>2014-05-10T08:00:13.000Z</time>
      </trkpt>
      <trkpt lon="7.312508951872587" lat="46.232188967987895">
        <ele>516.4000244140625</ele>
        <time>2014-05-10T08:00:19.000Z</time>
      </trkpt>
      <trkpt lon="7.312435945495963" lat="46.232380997389555">
        <ele>516.0</ele>
        <time>2014-05-10T08:00:25.000Z</time>
      </trkpt>
      <trkpt lon="7.312374925240874" lat="46.232643937692046">
        <ele>517.0</ele>
        <time>2014-05-10T08:00:32.000Z</time>
      </trkpt>
      <trkpt lon="7.312248945236206" lat="46.23301894403994">
        <ele>518.4000244140625</ele>
        <time>2014-05-10T08:00:42.000Z</time>
      </trkpt>
      <trkpt lon="7.3121059499681" lat="46.23334692791104">
        <ele>520.5999755859375</ele>
        <time>2014-05-10T08:00:52.000Z</time>
      </trkpt>
      <trkpt lon="7.31195792555809" lat="46.23364792205393">
        <ele>522.4000244140625</ele>
        <time>2014-05-10T08:01:02.000Z</time>
      </trkpt>
      <trkpt lon="7.311831945553422" lat="46.2338999658823">
        <ele>523.4000244140625</ele>
        <time>2014-05-10T08:01:11.000Z</time>
      </trkpt>
      <trkpt lon="7.311701942235231" lat="46.23417698778212">
        <ele>524.0</ele>
        <time>2014-05-10T08:01:21.000Z</time>
      </trkpt>
      <trkpt lon="7.311636982485652" lat="46.234381925314665">
        <ele>524.7999877929688</ele>
        <time>2014-05-10T08:01:30.000Z</time>
      </trkpt>
      <trkpt lon="7.311650980263948" lat="46.23452299274504">
        <ele>525.5999755859375</ele>
        <time>2014-05-10T08:01:37.000Z</time>
      </trkpt>
      <trkpt lon="7.311654919758439" lat="46.2345339730382">
        <ele>525.7999877929688</ele>
        <time>2014-05-10T08:01:39.000Z</time>
      </trkpt>
      <trkpt lon="7.3116759583354" lat="46.23456699773669">
        <ele>526.2000122070312</ele>
        <time>2014-05-10T08:01:50.000Z</time>
      </trkpt>
      <trkpt lon="7.311753993853927" lat="46.234659953042865">
        <ele>527.2000122070312</ele>
        <time>2014-05-10T08:01:56.000Z</time>
      </trkpt>
      <trkpt lon="7.311833957210183" lat="46.234725918620825">
        <ele>527.7999877929688</ele>
        <time>2014-05-10T08:02:02.000Z</time>
      </trkpt>
      <trkpt lon="7.3119239788502455" lat="46.2347929738462">
        <ele>528.0</ele>
        <time>2014-05-10T08:02:08.000Z</time>
      </trkpt>
      <trkpt lon="7.312049958854914" lat="46.23488995246589">
        <ele>530.4000244140625</ele>
        <time>2014-05-10T08:02:16.000Z</time>
      </trkpt>
      <trkpt lon="7.312165964394808" lat="46.23498994857073">
        <ele>532.2000122070312</ele>
        <time>2014-05-10T08:02:24.000Z</time>
      </trkpt>
      <trkpt lon="7.3122829757630825" lat="46.235089944675565">
        <ele>533.5999755859375</ele>
        <time>2014-05-10T08:02:32.000Z</time>
      </trkpt>
      <trkpt lon="7.3124119732528925" lat="46.235220953822136">
        <ele>534.5999755859375</ele>
        <time>2014-05-10T08:02:42.000Z</time>
      </trkpt>
      <trkpt lon="7.312519932165742" lat="46.23533796519041">
        <ele>535.7999877929688</ele>
        <time>2014-05-10T08:02:50.000Z</time>
      </trkpt>
      <trkpt lon="7.312691928818822" lat="46.23553594574332">
        <ele>539.0</ele>
        <time>2014-05-10T08:03:02.000Z</time>
      </trkpt>
      <trkpt lon="7.312800977379084" lat="46.23566695488989">
        <ele>541.0</ele>
        <time>2014-05-10T08:03:10.000Z</time>
      </trkpt>
      <trkpt lon="7.312947995960712" lat="46.235840963199735">
        <ele>543.2000122070312</ele>
        <time>2014-05-10T08:03:21.000Z</time>
      </trkpt>
      <trkpt lon="7.313083950430155" lat="46.23600298538804">
        <ele>545.0</ele>
        <time>2014-05-10T08:03:31.000Z</time>
      </trkpt>
      <trkpt lon="7.313260976225138" lat="46.23619199730456">
        <ele>546.7999877929688</ele>
        <time>2014-05-10T08:03:43.000Z</time>
      </trkpt>
      <trkpt lon="7.313457950949669" lat="46.2363969348371">
        <ele>549.0</ele>
        <time>2014-05-10T08:03:56.000Z</time>
      </trkpt>
      <trkpt lon="7.313621984794736" lat="46.23656993731856">
        <ele>550.2000122070312</ele>
        <time>2014-05-10T08:04:07.000Z</time>
      </trkpt>
      <trkpt lon="7.313730949535966" lat="46.236699940636754">
        <ele>551.4000244140625</ele>
        <time>2014-05-10T08:04:15.000Z</time>
      </trkpt>
      <trkpt lon="7.313831951469183" lat="46.236829943954945">
        <ele>552.7999877929688</ele>
        <time>2014-05-10T08:04:23.000Z</time>
      </trkpt>
      <trkpt lon="7.3139039520174265" lat="46.236938992515206">
        <ele>553.7999877929688</ele>
        <time>2014-05-10T08:04:30.000Z</time>
      </trkpt>
      <trkpt lon="7.313947957009077" lat="46.237087938934565">
        <ele>555.4000244140625</ele>
        <time>2014-05-10T08:04:39.000Z</time>
      </trkpt>
      <trkpt lon="7.313963966444135" lat="46.237194975838065">
        <ele>556.2000122070312</ele>
        <time>2014-05-10T08:04:45.000Z</time>
      </trkpt>
      <trkpt lon="7.31397595256567" lat="46.23733495362103">
        <ele>557.5999755859375</ele>
        <time>2014-05-10T08:04:53.000Z</time>
      </trkpt>
      <trkpt lon="7.31397595256567" lat="46.2374989874661">
        <ele>558.7999877929688</ele>
        <time>2014-05-10T08:05:02.000Z</time>
      </trkpt>
      <trkpt lon="7.3139899503439665" lat="46.237686993554235">
        <ele>560.2000122070312</ele>
        <time>2014-05-10T08:05:12.000Z</time>
      </trkpt>
      <trkpt lon="7.314017945900559" lat="46.23789394274354">
        <ele>561.7999877929688</ele>
        <time>2014-05-10T08:05:23.000Z</time>
      </trkpt>
      <trkpt lon="7.314042923972011" lat="46.23805898241699">
        <ele>562.7999877929688</ele>
        <time>2014-05-10T08:05:32.000Z</time>
      </trkpt>
      <trkpt lon="7.314076954498887" lat="46.23824195936322">
        <ele>564.2000122070312</ele>
        <time>2014-05-10T08:05:42.000Z</time>
      </trkpt>
      <trkpt lon="7.314083995297551" lat="46.23838797211647">
        <ele>565.2000122070312</ele>
        <time>2014-05-10T08:05:50.000Z</time>
      </trkpt>
      <trkpt lon="7.3140709195286036" lat="46.238548988476396">
        <ele>566.2000122070312</ele>
        <time>2014-05-10T08:05:59.000Z</time>
      </trkpt>
      <trkpt lon="7.3140129167586565" lat="46.23870992101729">
        <ele>567.0</ele>
        <time>2014-05-10T08:06:08.000Z</time>
      </trkpt>
      <trkpt lon="7.313967989757657" lat="46.23887797817588">
        <ele>568.4000244140625</ele>
        <time>2014-05-10T08:06:17.000Z</time>
      </trkpt>
      <trkpt lon="7.313986932858825" lat="46.2390529923141">
        <ele>569.5999755859375</ele>
        <time>2014-05-10T08:06:26.000Z</time>
      </trkpt>
      <trkpt lon="7.314037978649139" lat="46.239192970097065">
        <ele>571.4000244140625</ele>
        <time>2014-05-10T08:06:34.000Z</time>
      </trkpt>
      <trkpt lon="7.314121965318918" lat="46.239321967586875">
        <ele>573.5999755859375</ele>
        <time>2014-05-10T08:06:42.000Z</time>
      </trkpt>
      <trkpt lon="7.314213998615742" lat="46.239452976733446">
        <ele>574.7999877929688</ele>
        <time>2014-05-10T08:06:50.000Z</time>
      </trkpt>
      <trkpt lon="7.314304942265153" lat="46.23956294730306">
        <ele>574.7999877929688</ele>
        <time>2014-05-10T08:06:57.000Z</time>
      </trkpt>
      <trkpt lon="7.314406950026751" lat="46.239689933136106">
        <ele>576.5999755859375</ele>
        <time>2014-05-10T08:07:05.000Z</time>
      </trkpt>
      <trkpt lon="7.31451197527349" lat="46.2398749217391">
        <ele>578.2000122070312</ele>
        <time>2014-05-10T08:07:16.000Z</time>
      </trkpt>
      <trkpt lon="7.314576935023069" lat="46.240032920613885">
        <ele>579.5999755859375</ele>
        <time>2014-05-10T08:07:25.000Z</time>
      </trkpt>
      <trkpt lon="7.3146499413996935" lat="46.24019796028733">
        <ele>581.0</ele>
        <time>2014-05-10T08:07:35.000Z</time>
      </trkpt>
      <trkpt lon="7.314731916412711" lat="46.24027498997748">
        <ele>581.7999877929688</ele>
        <time>2014-05-10T08:07:41.000Z</time>
      </trkpt>
      <trkpt lon="7.314858986064792" lat="46.24033994972706">
        <ele>583.4000244140625</ele>
        <time>2014-05-10T08:07:49.000Z</time>
      </trkpt>
      <trkpt lon="7.314982954412699" lat="46.240328969433904">
        <ele>584.0</ele>
        <time>2014-05-10T08:07:55.000Z</time>
      </trkpt>
      <trkpt lon="7.315088985487819" lat="46.24028194695711">
        <ele>584.7999877929688</ele>
        <time>2014-05-10T08:08:01.000Z</time>
      </trkpt>
      <trkpt lon="7.315190993249416" lat="46.24017499387264">
        <ele>585.7999877929688</ele>
        <time>2014-05-10T08:08:08.000Z</time>
      </trkpt>
      <trkpt lon="7.315240949392319" lat="46.2401029933244">
        <ele>586.4000244140625</ele>
        <time>2014-05-10T08:08:13.000Z</time>
      </trkpt>
      <trkpt lon="7.315350919961929" lat="46.23996192589402">
        <ele>588.0</ele>
        <time>2014-05-10T08:08:23.000Z</time>
      </trkpt>
      <trkpt lon="7.3155019618570805" lat="46.23982597142458">
        <ele>589.4000244140625</ele>
        <time>2014-05-10T08:08:33.000Z</time>
      </trkpt>
      <trkpt lon="7.315644957125187" lat="46.23972496949136">
        <ele>590.0</ele>
        <time>2014-05-10T08:08:41.000Z</time>
      </trkpt>
      <trkpt lon="7.315820977091789" lat="46.23961097560823">
        <ele>590.5999755859375</ele>
        <time>2014-05-10T08:08:50.000Z</time>
      </trkpt>
      <trkpt lon="7.316043935716152" lat="46.23952992260456">
        <ele>592.0</ele>
        <time>2014-05-10T08:09:00.000Z</time>
      </trkpt>
      <trkpt lon="7.316162958741188" lat="46.23958691954613">
        <ele>592.7999877929688</ele>
        <time>2014-05-10T08:09:06.000Z</time>
      </trkpt>
      <trkpt lon="7.316186930984259" lat="46.239749947562814">
        <ele>594.4000244140625</ele>
        <time>2014-05-10T08:09:15.000Z</time>
      </trkpt>
      <trkpt lon="7.316214926540852" lat="46.2398749217391">
        <ele>595.2000122070312</ele>
        <time>2014-05-10T08:09:22.000Z</time>
      </trkpt>
      <trkpt lon="7.316315928474069" lat="46.23997592367232">
        <ele>596.4000244140625</ele>
        <time>2014-05-10T08:09:29.000Z</time>
      </trkpt>
      <trkpt lon="7.31642397120595" lat="46.24014196917415">
        <ele>597.7999877929688</ele>
        <time>2014-05-10T08:09:39.000Z</time>
      </trkpt>
      <trkpt lon="7.316432939842343" lat="46.24028395861387">
        <ele>599.4000244140625</ele>
        <time>2014-05-10T08:09:47.000Z</time>
      </trkpt>
      <trkpt lon="7.31644693762064" lat="46.24045494943857">
        <ele>603.0</ele>
        <time>2014-05-10T08:09:57.000Z</time>
      </trkpt>
      <trkpt lon="7.316527990624309" lat="46.240589981898665">
        <ele>605.5999755859375</ele>
        <time>2014-05-10T08:10:06.000Z</time>
      </trkpt>
      <trkpt lon="7.316593956202269" lat="46.2407539319247">
        <ele>607.4000244140625</ele>
        <time>2014-05-10T08:10:16.000Z</time>
      </trkpt>
      <trkpt lon="7.3165359534323215" lat="46.240890976041555">
        <ele>608.7999877929688</ele>
        <time>2014-05-10T08:10:24.000Z</time>
      </trkpt>
      <trkpt lon="7.316388934850693" lat="46.241037994623184">
        <ele>610.0</ele>
        <time>2014-05-10T08:10:34.000Z</time>
      </trkpt>
      <trkpt lon="7.3163719195872545" lat="46.24115592800081">
        <ele>611.2000122070312</ele>
        <time>2014-05-10T08:10:41.000Z</time>
      </trkpt>
      <trkpt lon="7.31646697036922" lat="46.24130596406758">
        <ele>612.7999877929688</ele>
        <time>2014-05-10T08:10:51.000Z</time>
      </trkpt>
      <trkpt lon="7.316562943160534" lat="46.24145792797208">
        <ele>615.0</ele>
        <time>2014-05-10T08:11:01.000Z</time>
      </trkpt>
      <trkpt lon="7.316688923165202" lat="46.241577956825495">
        <ele>616.5999755859375</ele>
        <time>2014-05-10T08:11:11.000Z</time>
      </trkpt>
      <trkpt lon="7.3168219439685345" lat="46.24162497930229">
        <ele>618.0</ele>
        <time>2014-05-10T08:11:18.000Z</time>
      </trkpt>
      <trkpt lon="7.316955970600247" lat="46.24157493934035">
        <ele>618.7999877929688</ele>
        <time>2014-05-10T08:11:25.000Z</time>
      </trkpt>
      <trkpt lon="7.317093936726451" lat="46.24143797904253">
        <ele>619.7999877929688</ele>
        <time>2014-05-10T08:11:34.000Z</time>
      </trkpt>
      <trkpt lon="7.31724196113646" lat="46.24139095656574">
        <ele>619.0</ele>
        <time>2014-05-10T08:11:41.000Z</time>
      </trkpt>
      <trkpt lon="7.3174309730529785" lat="46.24141895212233">
        <ele>620.4000244140625</ele>
        <time>2014-05-10T08:11:48.000Z</time>
      </trkpt>
      <trkpt lon="7.3176059871912" lat="46.2414949759841">
        <ele>623.7999877929688</ele>
        <time>2014-05-10T08:11:56.000Z</time>
      </trkpt>
      <trkpt lon="7.317760968580842" lat="46.24157192185521">
        <ele>625.4000244140625</ele>
        <time>2014-05-10T08:12:04.000Z</time>
      </trkpt>
      <trkpt lon="7.317827939987183" lat="46.24171399511397">
        <ele>626.5999755859375</ele>
        <time>2014-05-10T08:12:13.000Z</time>
      </trkpt>
      <trkpt lon="7.317810924723744" lat="46.24190895818174">
        <ele>629.4000244140625</ele>
        <time>2014-05-10T08:12:24.000Z</time>
      </trkpt>
      <trkpt lon="7.3178689274936914" lat="46.24204499647021">
        <ele>631.2000122070312</ele>
        <time>2014-05-10T08:12:33.000Z</time>
      </trkpt>
      <trkpt lon="7.317959954962134" lat="46.24222093261778">
        <ele>632.7999877929688</ele>
        <time>2014-05-10T08:12:44.000Z</time>
      </trkpt>
      <trkpt lon="7.3180279321968555" lat="46.24236795119941">
        <ele>634.0</ele>
        <time>2014-05-10T08:12:53.000Z</time>
      </trkpt>
      <trkpt lon="7.318082917481661" lat="46.24256392009556">
        <ele>636.0</ele>
        <time>2014-05-10T08:13:04.000Z</time>
      </trkpt>
      <trkpt lon="7.318140920251608" lat="46.2427759822458">
        <ele>638.0</ele>
        <time>2014-05-10T08:13:16.000Z</time>
      </trkpt>
      <trkpt lon="7.318208981305361" lat="46.2429419439286">
        <ele>639.5999755859375</ele>
        <time>2014-05-10T08:13:26.000Z</time>
      </trkpt>
      <trkpt lon="7.318339990451932" lat="46.24306499026716">
        <ele>641.2000122070312</ele>
        <time>2014-05-10T08:13:35.000Z</time>
      </trkpt>
      <trkpt lon="7.31846496462822" lat="46.243188958615065">
        <ele>643.4000244140625</ele>
        <time>2014-05-10T08:13:44.000Z</time>
      </trkpt>
      <trkpt lon="7.3185439221560955" lat="46.24335299246013">
        <ele>644.5999755859375</ele>
        <time>2014-05-10T08:13:54.000Z</time>
      </trkpt>
      <trkpt lon="7.318476950749755" lat="46.24352197162807">
        <ele>645.4000244140625</ele>
        <time>2014-05-10T08:14:03.000Z</time>
      </trkpt>
      <trkpt lon="7.318372931331396" lat="46.24366697855294">
        <ele>646.7999877929688</ele>
        <time>2014-05-10T08:14:12.000Z</time>
      </trkpt>
      <trkpt lon="7.318241922184825" lat="46.24380796216428">
        <ele>648.2000122070312</ele>
        <time>2014-05-10T08:14:22.000Z</time>
      </trkpt>
      <trkpt lon="7.318068919703364" lat="46.24399496242404">
        <ele>649.7999877929688</ele>
        <time>2014-05-10T08:14:35.000Z</time>
      </trkpt>
      <trkpt lon="7.317890971899033" lat="46.24416695907712">
        <ele>651.5999755859375</ele>
        <time>2014-05-10T08:14:47.000Z</time>
      </trkpt>
      <trkpt lon="7.317744959145784" lat="46.244263937696815">
        <ele>653.0</ele>
        <time>2014-05-10T08:14:55.000Z</time>
      </trkpt>
      <trkpt lon="7.317550918087363" lat="46.24429092742503">
        <ele>654.4000244140625</ele>
        <time>2014-05-10T08:15:03.000Z</time>
      </trkpt>
      <trkpt lon="7.3174109403043985" lat="46.24426796101034">
        <ele>654.7999877929688</ele>
        <time>2014-05-10T08:15:09.000Z</time>
      </trkpt>
      <trkpt lon="7.317152945324779" lat="46.24422697350383">
        <ele>655.0</ele>
        <time>2014-05-10T08:15:20.000Z</time>
      </trkpt>
      <trkpt lon="7.316971980035305" lat="46.2441869918257">
        <ele>655.5999755859375</ele>
        <time>2014-05-10T08:15:28.000Z</time>
      </trkpt>
      <trkpt lon="7.31674893759191" lat="46.24413091689348">
        <ele>656.4000244140625</ele>
        <time>2014-05-10T08:15:38.000Z</time>
      </trkpt>
      <trkpt lon="7.3165839817374945" lat="46.2440989818424">
        <ele>657.7999877929688</ele>
        <time>2014-05-10T08:15:45.000Z</time>
      </trkpt>
      <trkpt lon="7.316396981477737" lat="46.24406394548714">
        <ele>659.0</ele>
        <time>2014-05-10T08:15:53.000Z</time>
      </trkpt>
      <trkpt lon="7.3161539901047945" lat="46.24402094632387">
        <ele>659.7999877929688</ele>
        <time>2014-05-10T08:16:03.000Z</time>
      </trkpt>
      <trkpt lon="7.315915944054723" lat="46.243985993787646">
        <ele>660.5999755859375</ele>
        <time>2014-05-10T08:16:13.000Z</time>
      </trkpt>
      <trkpt lon="7.3156739585101604" lat="46.24395196326077">
        <ele>662.4000244140625</ele>
        <time>2014-05-10T08:16:23.000Z</time>
      </trkpt>
      <trkpt lon="7.315466925501823" lat="46.24391592107713">
        <ele>664.4000244140625</ele>
        <time>2014-05-10T08:16:31.000Z</time>
      </trkpt>
      <trkpt lon="7.315209936350584" lat="46.24388893134892">
        <ele>665.7999877929688</ele>
        <time>2014-05-10T08:16:41.000Z</time>
      </trkpt>
      <trkpt lon="7.314967950806022" lat="46.243919944390655">
        <ele>668.0</ele>
        <time>2014-05-10T08:16:51.000Z</time>
      </trkpt>
      <trkpt lon="7.314701993018389" lat="46.24403796158731">
        <ele>670.5999755859375</ele>
        <time>2014-05-10T08:17:03.000Z</time>
      </trkpt>
      <trkpt lon="7.314521949738264" lat="46.24408892355859">
        <ele>671.7999877929688</ele>
        <time>2014-05-10T08:17:11.000Z</time>
      </trkpt>
      <trkpt lon="7.314277952536941" lat="46.244073919951916">
        <ele>673.5999755859375</ele>
        <time>2014-05-10T08:17:21.000Z</time>
      </trkpt>
      <trkpt lon="7.314151972532272" lat="46.24404491856694">
        <ele>675.7999877929688</ele>
        <time>2014-05-10T08:17:27.000Z</time>
      </trkpt>
      <trkpt lon="7.314059939235449" lat="46.2440299987793">
        <ele>676.4000244140625</ele>
        <time>2014-05-10T08:17:32.000Z</time>
      </trkpt>
      <trkpt lon="7.313884925097227" lat="46.24401499517262">
        <ele>677.5999755859375</ele>
        <time>2014-05-10T08:17:40.000Z</time>
      </trkpt>
      <trkpt lon="7.313714940100908" lat="46.24402295798063">
        <ele>678.5999755859375</ele>
        <time>2014-05-10T08:17:48.000Z</time>
      </trkpt>
      <trkpt lon="7.313472954556346" lat="46.24405992217362">
        <ele>680.5999755859375</ele>
        <time>2014-05-10T08:17:59.000Z</time>
      </trkpt>
      <trkpt lon="7.313272962346673" lat="46.24408992938697">
        <ele>681.5999755859375</ele>
        <time>2014-05-10T08:18:08.000Z</time>
      </trkpt>
      <trkpt lon="7.313001975417137" lat="46.24412898905575">
        <ele>682.2000122070312</ele>
        <time>2014-05-10T08:18:20.000Z</time>
      </trkpt>
      <trkpt lon="7.312891921028495" lat="46.24414399266243">
        <ele>682.7999877929688</ele>
        <time>2014-05-10T08:18:26.000Z</time>
      </trkpt>
      <trkpt lon="7.312688995152712" lat="46.244222950190306">
        <ele>686.0</ele>
        <time>2014-05-10T08:18:36.000Z</time>
      </trkpt>
      <trkpt lon="7.3126269690692425" lat="46.244351947680116">
        <ele>687.4000244140625</ele>
        <time>2014-05-10T08:18:44.000Z</time>
      </trkpt>
      <trkpt lon="7.312561925500631" lat="46.24442294239998">
        <ele>688.2000122070312</ele>
        <time>2014-05-10T08:18:50.000Z</time>
      </trkpt>
      <trkpt lon="7.312561925500631" lat="46.24446895904839">
        <ele>688.4000244140625</ele>
        <time>2014-05-10T08:18:53.000Z</time>
      </trkpt>
      <trkpt lon="7.312632920220494" lat="46.244610948488116">
        <ele>690.0</ele>
        <time>2014-05-10T08:19:02.000Z</time>
      </trkpt>
      <trkpt lon="7.312624957412481" lat="46.244712956249714">
        <ele>691.0</ele>
        <time>2014-05-10T08:19:08.000Z</time>
      </trkpt>
      <trkpt lon="7.312661921605468" lat="46.244775988161564">
        <ele>693.0</ele>
        <time>2014-05-10T08:19:14.000Z</time>
      </trkpt>
      <trkpt lon="7.312787985429168" lat="46.244732988998294">
        <ele>694.0</ele>
        <time>2014-05-10T08:19:19.000Z</time>
      </trkpt>
      <trkpt lon="7.312842970713973" lat="46.24466199427843">
        <ele>694.7999877929688</ele>
        <time>2014-05-10T08:19:26.000Z</time>
      </trkpt>
      <trkpt lon="7.312968950718641" lat="46.24459896236658">
        <ele>695.0</ele>
        <time>2014-05-10T08:19:33.000Z</time>
      </trkpt>
      <trkpt lon="7.313061989843845" lat="46.244587982073426">
        <ele>695.4000244140625</ele>
        <time>2014-05-10T08:19:38.000Z</time>
      </trkpt>
      <trkpt lon="7.313226945698261" lat="46.24458898790181">
        <ele>696.7999877929688</ele>
        <time>2014-05-10T08:19:45.000Z</time>
      </trkpt>
      <trkpt lon="7.313472954556346" lat="46.24464598484337">
        <ele>699.7999877929688</ele>
        <time>2014-05-10T08:19:56.000Z</time>
      </trkpt>
      <trkpt lon="7.31369792483747" lat="46.244695940986276">
        <ele>702.5999755859375</ele>
        <time>2014-05-10T08:20:06.000Z</time>
      </trkpt>
      <trkpt lon="7.313953991979361" lat="46.24475293792784">
        <ele>705.4000244140625</ele>
        <time>2014-05-10T08:20:17.000Z</time>
      </trkpt>
      <trkpt lon="7.314232941716909" lat="46.24482896178961">
        <ele>708.7999877929688</ele>
        <time>2014-05-10T08:20:29.000Z</time>
      </trkpt>
      <trkpt lon="7.314467970281839" lat="46.24490397982299">
        <ele>711.4000244140625</ele>
        <time>2014-05-10T08:20:39.000Z</time>
      </trkpt>
      <trkpt lon="7.314673997461796" lat="46.24496298842132">
        <ele>713.5999755859375</ele>
        <time>2014-05-10T08:20:48.000Z</time>
      </trkpt>
      <trkpt lon="7.3148799408227205" lat="46.245016967877746">
        <ele>715.4000244140625</ele>
        <time>2014-05-10T08:20:57.000Z</time>
      </trkpt>
      <trkpt lon="7.315076999366283" lat="46.24506893567741">
        <ele>716.7999877929688</ele>
        <time>2014-05-10T08:21:06.000Z</time>
      </trkpt>
      <trkpt lon="7.315244972705841" lat="46.24511294066906">
        <ele>717.5999755859375</ele>
        <time>2014-05-10T08:21:14.000Z</time>
      </trkpt>
      <trkpt lon="7.3153959307819605" lat="46.24515099450946">
        <ele>718.7999877929688</ele>
        <time>2014-05-10T08:21:21.000Z</time>
      </trkpt>
      <trkpt lon="7.315502967685461" lat="46.245169937610626">
        <ele>719.5999755859375</ele>
        <time>2014-05-10T08:21:26.000Z</time>
      </trkpt>
      <trkpt lon="7.315765991806984" lat="46.24524193815887">
        <ele>721.5999755859375</ele>
        <time>2014-05-10T08:21:38.000Z</time>
      </trkpt>
      <trkpt lon="7.315949974581599" lat="46.245291978120804">
        <ele>723.2000122070312</ele>
        <time>2014-05-10T08:21:46.000Z</time>
      </trkpt>
      <trkpt lon="7.316152984276414" lat="46.24532693065703">
        <ele>725.0</ele>
        <time>2014-05-10T08:21:55.000Z</time>
      </trkpt>
      <trkpt lon="7.316417936235666" lat="46.245358949527144">
        <ele>727.7999877929688</ele>
        <time>2014-05-10T08:22:06.000Z</time>
      </trkpt>
      <trkpt lon="7.31666293926537" lat="46.24538795091212">
        <ele>729.0</ele>
        <time>2014-05-10T08:22:16.000Z</time>
      </trkpt>
      <trkpt lon="7.316880952566862" lat="46.24541594646871">
        <ele>730.4000244140625</ele>
        <time>2014-05-10T08:22:25.000Z</time>
      </trkpt>
      <trkpt lon="7.317083962261677" lat="46.24543799087405">
        <ele>731.2000122070312</ele>
        <time>2014-05-10T08:22:34.000Z</time>
      </trkpt>
      <trkpt lon="7.3172869719564915" lat="46.24545995146036">
        <ele>732.0</ele>
        <time>2014-05-10T08:22:43.000Z</time>
      </trkpt>
      <trkpt lon="7.317439941689372" lat="46.2454819958657">
        <ele>732.7999877929688</ele>
        <time>2014-05-10T08:22:50.000Z</time>
      </trkpt>
      <trkpt lon="7.3176029697060585" lat="46.245510997250676">
        <ele>734.0</ele>
        <time>2014-05-10T08:22:57.000Z</time>
      </trkpt>
      <trkpt lon="7.31765192002058" lat="46.24560495838523">
        <ele>734.5999755859375</ele>
        <time>2014-05-10T08:23:03.000Z</time>
      </trkpt>
      <trkpt lon="7.317514959722757" lat="46.24561199918389">
        <ele>734.7999877929688</ele>
        <time>2014-05-10T08:23:09.000Z</time>
      </trkpt>
      <trkpt lon="7.317268950864673" lat="46.245596995577216">
        <ele>736.0</ele>
        <time>2014-05-10T08:23:18.000Z</time>
      </trkpt>
      <trkpt lon="7.317020930349827" lat="46.24560294672847">
        <ele>737.5999755859375</ele>
        <time>2014-05-10T08:23:27.000Z</time>
      </trkpt>
      <trkpt lon="7.31676897034049" lat="46.24566497281194">
        <ele>739.5999755859375</ele>
        <time>2014-05-10T08:23:38.000Z</time>
      </trkpt>
      <trkpt lon="7.316478956490755" lat="46.24571492895484">
        <ele>741.5999755859375</ele>
        <time>2014-05-10T08:23:50.000Z</time>
      </trkpt>
      <trkpt lon="7.3162549920380116" lat="46.245791958644986">
        <ele>742.0</ele>
        <time>2014-05-10T08:24:00.000Z</time>
      </trkpt>
      <trkpt lon="7.316104955971241" lat="46.24586496502161">
        <ele>742.4000244140625</ele>
        <time>2014-05-10T08:24:08.000Z</time>
      </trkpt>
      <trkpt lon="7.315856935456395" lat="46.24590595252812">
        <ele>744.0</ele>
        <time>2014-05-10T08:24:19.000Z</time>
      </trkpt>
      <trkpt lon="7.315720980986953" lat="46.24592992477119">
        <ele>745.0</ele>
        <time>2014-05-10T08:24:25.000Z</time>
      </trkpt>
      <trkpt lon="7.315397942438722" lat="46.245986921712756">
        <ele>747.7999877929688</ele>
        <time>2014-05-10T08:24:39.000Z</time>
      </trkpt>
      <trkpt lon="7.315134918317199" lat="46.24601491726935">
        <ele>750.4000244140625</ele>
        <time>2014-05-10T08:24:50.000Z</time>
      </trkpt>
      <trkpt lon="7.314880946651101" lat="46.24605791643262">
        <ele>752.4000244140625</ele>
        <time>2014-05-10T08:25:01.000Z</time>
      </trkpt>
      <trkpt lon="7.314648935571313" lat="46.24609395861626">
        <ele>754.2000122070312</ele>
        <time>2014-05-10T08:25:11.000Z</time>
      </trkpt>
      <trkpt lon="7.314442992210388" lat="46.246151961386204">
        <ele>755.5999755859375</ele>
        <time>2014-05-10T08:25:20.000Z</time>
      </trkpt>
      <trkpt lon="7.314243922010064" lat="46.24622899107635">
        <ele>756.5999755859375</ele>
        <time>2014-05-10T08:25:29.000Z</time>
      </trkpt>
      <trkpt lon="7.314080977812409" lat="46.24632194638252">
        <ele>756.7999877929688</ele>
        <time>2014-05-10T08:25:38.000Z</time>
      </trkpt>
      <trkpt lon="7.313915938138962" lat="46.24642395414412">
        <ele>757.5999755859375</ele>
        <time>2014-05-10T08:25:47.000Z</time>
      </trkpt>
      <trkpt lon="7.313763974234462" lat="46.24652495607734">
        <ele>758.5999755859375</ele>
        <time>2014-05-10T08:25:56.000Z</time>
      </trkpt>
      <trkpt lon="7.3136739525943995" lat="46.246584970504045">
        <ele>758.7999877929688</ele>
        <time>2014-05-10T08:26:02.000Z</time>
      </trkpt>
      <trkpt lon="7.3135449551045895" lat="46.24667298048735">
        <ele>759.7999877929688</ele>
        <time>2014-05-10T08:26:10.000Z</time>
      </trkpt>
      <trkpt lon="7.313503967598081" lat="46.24679292552173">
        <ele>761.2000122070312</ele>
        <time>2014-05-10T08:26:19.000Z</time>
      </trkpt>
      <trkpt lon="7.313555935397744" lat="46.24691496603191">
        <ele>762.7999877929688</ele>
        <time>2014-05-10T08:26:28.000Z</time>
      </trkpt>
      <trkpt lon="7.3136459570378065" lat="46.247075982391834">
        <ele>765.2000122070312</ele>
        <time>2014-05-10T08:26:39.000Z</time>
      </trkpt>
      <trkpt lon="7.313725920394063" lat="46.24719492159784">
        <ele>767.7999877929688</ele>
        <time>2014-05-10T08:26:47.000Z</time>
      </trkpt>
      <trkpt lon="7.3138329572975636" lat="46.24732492491603">
        <ele>771.2000122070312</ele>
        <time>2014-05-10T08:26:56.000Z</time>
      </trkpt>
      <trkpt lon="7.313945945352316" lat="46.24737395904958">
        <ele>773.4000244140625</ele>
        <time>2014-05-10T08:27:02.000Z</time>
      </trkpt>
      <trkpt lon="7.313997996971011" lat="46.247398937121034">
        <ele>775.0</ele>
        <time>2014-05-10T08:27:09.000Z</time>
      </trkpt>
      <trkpt lon="7.314168987795711" lat="46.247119987383485">
        <ele>776.2000122070312</ele>
        <time>2014-05-10T08:27:17.000Z</time>
      </trkpt>
      <trkpt lon="7.314225984737277" lat="46.24702099710703">
        <ele>776.7999877929688</ele>
        <time>2014-05-10T08:27:24.000Z</time>
      </trkpt>
      <trkpt lon="7.3144119791686535" lat="46.246947990730405">
        <ele>777.5999755859375</ele>
        <time>2014-05-10T08:27:33.000Z</time>
      </trkpt>
      <trkpt lon="7.314680954441428" lat="46.24689493328333">
        <ele>777.5999755859375</ele>
        <time>2014-05-10T08:27:44.000Z</time>
      </trkpt>
      <trkpt lon="7.3149079363793135" lat="46.24683299101889">
        <ele>777.7999877929688</ele>
        <time>2014-05-10T08:27:54.000Z</time>
      </trkpt>
      <trkpt lon="7.315103989094496" lat="46.246779933571815">
        <ele>778.7999877929688</ele>
        <time>2014-05-10T08:28:03.000Z</time>
      </trkpt>
      <trkpt lon="7.3153449688106775" lat="46.246780939400196">
        <ele>781.4000244140625</ele>
        <time>2014-05-10T08:28:12.000Z</time>
      </trkpt>
      <trkpt lon="7.315545966848731" lat="46.246820921078324">
        <ele>784.0</ele>
        <time>2014-05-10T08:28:20.000Z</time>
      </trkpt>
      <trkpt lon="7.315811924636364" lat="46.246885964646935">
        <ele>787.2000122070312</ele>
        <time>2014-05-10T08:28:31.000Z</time>
      </trkpt>
      <trkpt lon="7.316065980121493" lat="46.24695595353842">
        <ele>790.7999877929688</ele>
        <time>2014-05-10T08:28:42.000Z</time>
      </trkpt>
      <trkpt lon="7.316250968724489" lat="46.24700699932873">
        <ele>792.5999755859375</ele>
        <time>2014-05-10T08:28:50.000Z</time>
      </trkpt>
      <trkpt lon="7.316455990076065" lat="46.24706198461354">
        <ele>794.2000122070312</ele>
        <time>2014-05-10T08:28:59.000Z</time>
      </trkpt>
      <trkpt lon="7.3166419845074415" lat="46.247123926877975">
        <ele>795.7999877929688</ele>
        <time>2014-05-10T08:29:08.000Z</time>
      </trkpt>
      <trkpt lon="7.31678799726069" lat="46.24715795740485">
        <ele>797.5999755859375</ele>
        <time>2014-05-10T08:29:15.000Z</time>
      </trkpt>
      <trkpt lon="7.317035933956504" lat="46.24720296822488">
        <ele>799.2000122070312</ele>
        <time>2014-05-10T08:29:26.000Z</time>
      </trkpt>
      <trkpt lon="7.31724095530808" lat="46.24723297543824">
        <ele>800.4000244140625</ele>
        <time>2014-05-10T08:29:35.000Z</time>
      </trkpt>
      <trkpt lon="7.317444970831275" lat="46.247249990701675">
        <ele>800.7999877929688</ele>
        <time>2014-05-10T08:29:44.000Z</time>
      </trkpt>
      <trkpt lon="7.3176609724760056" lat="46.24726499430835">
        <ele>801.5999755859375</ele>
        <time>2014-05-10T08:29:53.000Z</time>
      </trkpt>
      <trkpt lon="7.317836992442608" lat="46.24728091992438">
        <ele>802.5999755859375</ele>
        <time>2014-05-10T08:30:01.000Z</time>
      </trkpt>
      <trkpt lon="7.31799297966063" lat="46.2473089993">
        <ele>803.0</ele>
        <time>2014-05-10T08:30:08.000Z</time>
      </trkpt>
      <trkpt lon="7.318221973255277" lat="46.24738493934274">
        <ele>805.4000244140625</ele>
        <time>2014-05-10T08:30:18.000Z</time>
      </trkpt>
      <trkpt lon="7.3184149246662855" lat="46.247462974861264">
        <ele>807.7999877929688</ele>
        <time>2014-05-10T08:30:27.000Z</time>
      </trkpt>
      <trkpt lon="7.318628998473287" lat="46.247547967359424">
        <ele>810.2000122070312</ele>
        <time>2014-05-10T08:30:37.000Z</time>
      </trkpt>
      <trkpt lon="7.318820944055915" lat="46.247617956250906">
        <ele>811.7999877929688</ele>
        <time>2014-05-10T08:30:46.000Z</time>
      </trkpt>
      <trkpt lon="7.31893896125257" lat="46.24762591905892">
        <ele>812.4000244140625</ele>
        <time>2014-05-10T08:30:53.000Z</time>
      </trkpt>
      <trkpt lon="7.31909092515707" lat="46.24756892211735">
        <ele>813.2000122070312</ele>
        <time>2014-05-10T08:31:01.000Z</time>
      </trkpt>
      <trkpt lon="7.319252947345376" lat="46.2474559340626">
        <ele>814.2000122070312</ele>
        <time>2014-05-10T08:31:11.000Z</time>
      </trkpt>
      <trkpt lon="7.319487975910306" lat="46.247441936284304">
        <ele>814.4000244140625</ele>
        <time>2014-05-10T08:31:20.000Z</time>
      </trkpt>
      <trkpt lon="7.319716969504952" lat="46.24747194349766">
        <ele>816.4000244140625</ele>
        <time>2014-05-10T08:31:29.000Z</time>
      </trkpt>
      <trkpt lon="7.319974964484572" lat="46.24754293821752">
        <ele>819.5999755859375</ele>
        <time>2014-05-10T08:31:40.000Z</time>
      </trkpt>
      <trkpt lon="7.320123994722962" lat="46.24760094098747">
        <ele>821.0</ele>
        <time>2014-05-10T08:31:47.000Z</time>
      </trkpt>
      <trkpt lon="7.320323986932635" lat="46.247680988162756">
        <ele>823.2000122070312</ele>
        <time>2014-05-10T08:31:56.000Z</time>
      </trkpt>
      <trkpt lon="7.320532947778702" lat="46.24776899814606">
        <ele>826.0</ele>
        <time>2014-05-10T08:32:06.000Z</time>
      </trkpt>
      <trkpt lon="7.320763953030109" lat="46.247852984815836">
        <ele>826.7999877929688</ele>
        <time>2014-05-10T08:32:16.000Z</time>
      </trkpt>
      <trkpt lon="7.320967968553305" lat="46.24793395400047">
        <ele>827.5999755859375</ele>
        <time>2014-05-10T08:32:25.000Z</time>
      </trkpt>
      <trkpt lon="7.321056984364986" lat="46.247978964820504">
        <ele>827.7999877929688</ele>
        <time>2014-05-10T08:32:32.000Z</time>
      </trkpt>
      <trkpt lon="7.321240967139602" lat="46.24791995622218">
        <ele>827.4000244140625</ele>
        <time>2014-05-10T08:32:38.000Z</time>
      </trkpt>
      <trkpt lon="7.321359990164638" lat="46.24785692431033">
        <ele>826.4000244140625</ele>
        <time>2014-05-10T08:32:43.000Z</time>
      </trkpt>
      <trkpt lon="7.321507930755615" lat="46.24777897261083">
        <ele>825.5999755859375</ele>
        <time>2014-05-10T08:32:50.000Z</time>
      </trkpt>
      <trkpt lon="7.3215199168771505" lat="46.24777293764055">
        <ele>825.4000244140625</ele>
        <time>2014-05-10T08:32:52.000Z</time>
      </trkpt>
      <trkpt lon="7.321586972102523" lat="46.24773798510432">
        <ele>827.4000244140625</ele>
        <time>2014-05-10T08:36:43.000Z</time>
      </trkpt>
      <trkpt lon="7.321642963215709" lat="46.24770898371935">
        <ele>827.7999877929688</ele>
        <time>2014-05-10T08:36:46.000Z</time>
      </trkpt>
      <trkpt lon="7.321810936555266" lat="46.24762893654406">
        <ele>827.2000122070312</ele>
        <time>2014-05-10T08:36:53.000Z</time>
      </trkpt>
      <trkpt lon="7.322037918493152" lat="46.247531957924366">
        <ele>826.7999877929688</ele>
        <time>2014-05-10T08:36:58.000Z</time>
      </trkpt>
      <trkpt lon="7.322451984509826" lat="46.24742399901152">
        <ele>826.2000122070312</ele>
        <time>2014-05-10T08:37:05.000Z</time>
      </trkpt>
      <trkpt lon="7.322691958397627" lat="46.247381921857595">
        <ele>826.0</ele>
        <time>2014-05-10T08:37:10.000Z</time>
      </trkpt>
      <trkpt lon="7.322926986962557" lat="46.24734395183623">
        <ele>825.5999755859375</ele>
        <time>2014-05-10T08:37:14.000Z</time>
      </trkpt>
      <trkpt lon="7.323015918955207" lat="46.2473229970783">
        <ele>825.5999755859375</ele>
        <time>2014-05-10T08:37:16.000Z</time>
      </trkpt>
      <trkpt lon="7.32351497747004" lat="46.24708998017013">
        <ele>826.2000122070312</ele>
        <time>2014-05-10T08:37:25.000Z</time>
      </trkpt>
      <trkpt lon="7.3238209169358015" lat="46.24697799794376">
        <ele>828.0</ele>
        <time>2014-05-10T08:37:31.000Z</time>
      </trkpt>
      <trkpt lon="7.324197934940457" lat="46.246865931898355">
        <ele>829.7999877929688</ele>
        <time>2014-05-10T08:37:39.000Z</time>
      </trkpt>
      <trkpt lon="7.324494989588857" lat="46.246862998232245">
        <ele>830.4000244140625</ele>
        <time>2014-05-10T08:37:45.000Z</time>
      </trkpt>
      <trkpt lon="7.324957922101021" lat="46.24687196686864">
        <ele>831.5999755859375</ele>
        <time>2014-05-10T08:37:55.000Z</time>
      </trkpt>
      <trkpt lon="7.325409958139062" lat="46.2468879763037">
        <ele>833.4000244140625</ele>
        <time>2014-05-10T08:38:05.000Z</time>
      </trkpt>
      <trkpt lon="7.325778929516673" lat="46.24689593911171">
        <ele>835.0</ele>
        <time>2014-05-10T08:38:13.000Z</time>
      </trkpt>
      <trkpt lon="7.3263439536094666" lat="46.2469239346683">
        <ele>837.5999755859375</ele>
        <time>2014-05-10T08:38:25.000Z</time>
      </trkpt>
      <trkpt lon="7.326828930526972" lat="46.24700096435845">
        <ele>840.2000122070312</ele>
        <time>2014-05-10T08:38:36.000Z</time>
      </trkpt>
      <trkpt lon="7.327120956033468" lat="46.2470639962703">
        <ele>842.2000122070312</ele>
        <time>2014-05-10T08:38:45.000Z</time>
      </trkpt>
      <trkpt lon="7.3274539690464735" lat="46.24713691882789">
        <ele>844.5999755859375</ele>
        <time>2014-05-10T08:38:56.000Z</time>
      </trkpt>
      <trkpt lon="7.327672988176346" lat="46.247183941304684">
        <ele>845.7999877929688</ele>
        <time>2014-05-10T08:39:04.000Z</time>
      </trkpt>
      <trkpt lon="7.327735936269164" lat="46.24719793908298">
        <ele>846.4000244140625</ele>
        <time>2014-05-10T08:39:07.000Z</time>
      </trkpt>
      <trkpt lon="7.327890917658806" lat="46.24723196960986">
        <ele>847.7999877929688</ele>
        <time>2014-05-10T08:39:14.000Z</time>
      </trkpt>
      <trkpt lon="7.328253937885165" lat="46.24731092713773">
        <ele>850.0</ele>
        <time>2014-05-10T08:39:26.000Z</time>
      </trkpt>
      <trkpt lon="7.328527942299843" lat="46.24740899540484">
        <ele>852.0</ele>
        <time>2014-05-10T08:39:35.000Z</time>
      </trkpt>
      <trkpt lon="7.328810999169946" lat="46.24750195071101">
        <ele>852.5999755859375</ele>
        <time>2014-05-10T08:39:44.000Z</time>
      </trkpt>
      <trkpt lon="7.329143928363919" lat="46.24757797457278">
        <ele>852.7999877929688</ele>
        <time>2014-05-10T08:39:52.000Z</time>
      </trkpt>
      <trkpt lon="7.3295199405401945" lat="46.24771895818412">
        <ele>853.5999755859375</ele>
        <time>2014-05-10T08:40:01.000Z</time>
      </trkpt>
      <trkpt lon="7.329805931076407" lat="46.24784192070365">
        <ele>854.2000122070312</ele>
        <time>2014-05-10T08:40:08.000Z</time>
      </trkpt>
      <trkpt lon="7.330301972106099" lat="46.24807393178344">
        <ele>855.2000122070312</ele>
        <time>2014-05-10T08:40:20.000Z</time>
      </trkpt>
      <trkpt lon="7.330737998709083" lat="46.24818893149495">
        <ele>855.5999755859375</ele>
        <time>2014-05-10T08:40:29.000Z</time>
      </trkpt>
      <trkpt lon="7.331242924556136" lat="46.248281970620155">
        <ele>855.7999877929688</ele>
        <time>2014-05-10T08:40:37.000Z</time>
      </trkpt>
      <trkpt lon="7.33174298889935" lat="46.248321952298284">
        <ele>856.4000244140625</ele>
        <time>2014-05-10T08:40:44.000Z</time>
      </trkpt>
      <trkpt lon="7.332305917516351" lat="46.248321952298284">
        <ele>857.5999755859375</ele>
        <time>2014-05-10T08:40:52.000Z</time>
      </trkpt>
      <trkpt lon="7.332650916650891" lat="46.24837492592633">
        <ele>858.2000122070312</ele>
        <time>2014-05-10T08:40:58.000Z</time>
      </trkpt>
      <trkpt lon="7.332760971039534" lat="46.24841398559511">
        <ele>858.5999755859375</ele>
        <time>2014-05-10T08:41:00.000Z</time>
      </trkpt>
      <trkpt lon="7.333205966278911" lat="46.248643985018134">
        <ele>861.0</ele>
        <time>2014-05-10T08:41:10.000Z</time>
      </trkpt>
      <trkpt lon="7.3334969859570265" lat="46.248777927830815">
        <ele>862.2000122070312</ele>
        <time>2014-05-10T08:41:18.000Z</time>
      </trkpt>
      <trkpt lon="7.333837961778045" lat="46.24891094863415">
        <ele>864.2000122070312</ele>
        <time>2014-05-10T08:41:28.000Z</time>
      </trkpt>
      <trkpt lon="7.334157982841134" lat="46.24906794168055">
        <ele>865.0</ele>
        <time>2014-05-10T08:41:38.000Z</time>
      </trkpt>
      <trkpt lon="7.334462916478515" lat="46.249141953885555">
        <ele>865.4000244140625</ele>
        <time>2014-05-10T08:41:46.000Z</time>
      </trkpt>
      <trkpt lon="7.334794923663139" lat="46.24915896914899">
        <ele>866.5999755859375</ele>
        <time>2014-05-10T08:41:54.000Z</time>
      </trkpt>
      <trkpt lon="7.3351839277893305" lat="46.249246979132295">
        <ele>868.4000244140625</ele>
        <time>2014-05-10T08:42:03.000Z</time>
      </trkpt>
      <trkpt lon="7.3356059566140175" lat="46.24936792999506">
        <ele>869.2000122070312</ele>
        <time>2014-05-10T08:42:11.000Z</time>
      </trkpt>
      <trkpt lon="7.335888929665089" lat="46.24943498522043">
        <ele>868.7999877929688</ele>
        <time>2014-05-10T08:42:17.000Z</time>
      </trkpt>
      <trkpt lon="7.336038965731859" lat="46.24946599826217">
        <ele>869.0</ele>
        <time>2014-05-10T08:42:21.000Z</time>
      </trkpt>
      <trkpt lon="7.33621196821332" lat="46.24951595440507">
        <ele>869.2000122070312</ele>
        <time>2014-05-10T08:42:24.000Z</time>
      </trkpt>
      <trkpt lon="7.33655596151948" lat="46.24957697466016">
        <ele>868.4000244140625</ele>
        <time>2014-05-10T08:42:30.000Z</time>
      </trkpt>
      <trkpt lon="7.336787972599268" lat="46.249609999358654">
        <ele>867.5999755859375</ele>
        <time>2014-05-10T08:42:34.000Z</time>
      </trkpt>
      <trkpt lon="7.337061977013946" lat="46.24951796606183">
        <ele>866.2000122070312</ele>
        <time>2014-05-10T08:42:39.000Z</time>
      </trkpt>
      <trkpt lon="7.337384931743145" lat="46.24934596940875">
        <ele>864.2000122070312</ele>
        <time>2014-05-10T08:42:43.000Z</time>
      </trkpt>
      <trkpt lon="7.337590958923101" lat="46.24933096580207">
        <ele>863.2000122070312</ele>
        <time>2014-05-10T08:42:45.000Z</time>
      </trkpt>
      <trkpt lon="7.338555967435241" lat="46.249271957203746">
        <ele>860.5999755859375</ele>
        <time>2014-05-10T08:42:54.000Z</time>
      </trkpt>
      <trkpt lon="7.339303968474269" lat="46.249164920300245">
        <ele>859.5999755859375</ele>
        <time>2014-05-10T08:43:01.000Z</time>
      </trkpt>
      <trkpt lon="7.3398359678685665" lat="46.24909493140876">
        <ele>860.0</ele>
        <time>2014-05-10T08:43:07.000Z</time>
      </trkpt>
      <trkpt lon="7.340547926723957" lat="46.249140948057175">
        <ele>860.4000244140625</ele>
        <time>2014-05-10T08:43:16.000Z</time>
      </trkpt>
      <trkpt lon="7.341028964146972" lat="46.24917296692729">
        <ele>859.0</ele>
        <time>2014-05-10T08:43:23.000Z</time>
      </trkpt>
      <trkpt lon="7.341470941901207" lat="46.24922191724181">
        <ele>856.4000244140625</ele>
        <time>2014-05-10T08:43:28.000Z</time>
      </trkpt>
      <trkpt lon="7.3420589324086905" lat="46.249291989952326">
        <ele>852.4000244140625</ele>
        <time>2014-05-10T08:43:33.000Z</time>
      </trkpt>
      <trkpt lon="7.3427739925682545" lat="46.24939098022878">
        <ele>847.7999877929688</ele>
        <time>2014-05-10T08:43:38.000Z</time>
      </trkpt>
      <trkpt lon="7.3437779769301414" lat="46.24952299520373">
        <ele>841.0</ele>
        <time>2014-05-10T08:43:44.000Z</time>
      </trkpt>
      <trkpt lon="7.343953996896744" lat="46.24956197105348">
        <ele>840.0</ele>
        <time>2014-05-10T08:43:45.000Z</time>
      </trkpt>
      <trkpt lon="7.344929985702038" lat="46.249549984931946">
        <ele>834.7999877929688</ele>
        <time>2014-05-10T08:43:50.000Z</time>
      </trkpt>
      <trkpt lon="7.3454999551177025" lat="46.249614944681525">
        <ele>833.0</ele>
        <time>2014-05-10T08:43:53.000Z</time>
      </trkpt>
      <trkpt lon="7.346448954194784" lat="46.24994594603777">
        <ele>831.2000122070312</ele>
        <time>2014-05-10T08:43:59.000Z</time>
      </trkpt>
      <trkpt lon="7.34708396717906" lat="46.25022598542273">
        <ele>831.4000244140625</ele>
        <time>2014-05-10T08:44:04.000Z</time>
      </trkpt>
      <trkpt lon="7.347846971824765" lat="46.250579953193665">
        <ele>831.0</ele>
        <time>2014-05-10T08:44:11.000Z</time>
      </trkpt>
      <trkpt lon="7.348439991474152" lat="46.25087097287178">
        <ele>831.0</ele>
        <time>2014-05-10T08:44:17.000Z</time>
      </trkpt>
      <trkpt lon="7.34876194037497" lat="46.25102796591818">
        <ele>830.4000244140625</ele>
        <time>2014-05-10T08:44:21.000Z</time>
      </trkpt>
      <trkpt lon="7.348840981721878" lat="46.25108798034489">
        <ele>829.7999877929688</ele>
        <time>2014-05-10T08:44:24.000Z</time>
      </trkpt>
      <trkpt lon="7.348856991156936" lat="46.251097954809666">
        <ele>830.5999755859375</ele>
        <time>2014-05-10T08:44:27.000Z</time>
      </trkpt>
      <trkpt lon="7.348951958119869" lat="46.25114598311484">
        <ele>831.0</ele>
        <time>2014-05-10T08:44:32.000Z</time>
      </trkpt>
      <trkpt lon="7.349000992253423" lat="46.251012962311506">
        <ele>830.7999877929688</ele>
        <time>2014-05-10T08:44:34.000Z</time>
      </trkpt>
      <trkpt lon="7.349138958379626" lat="46.25073694624007">
        <ele>830.2000122070312</ele>
        <time>2014-05-10T08:44:40.000Z</time>
      </trkpt>
      <trkpt lon="7.34918899834156" lat="46.250645918771625">
        <ele>829.7999877929688</ele>
        <time>2014-05-10T08:44:42.000Z</time>
      </trkpt>
      <trkpt lon="7.349238954484463" lat="46.25054692849517">
        <ele>827.5999755859375</ele>
        <time>2014-05-10T08:44:48.000Z</time>
      </trkpt>
      <trkpt lon="7.3492419719696045" lat="46.250535948202014">
        <ele>827.2000122070312</ele>
        <time>2014-05-10T08:44:50.000Z</time>
      </trkpt>
      <trkpt lon="7.349166953936219" lat="46.25068196095526">
        <ele>820.2000122070312</ele>
        <time>2014-05-10T08:56:29.000Z</time>
      </trkpt>
      <trkpt lon="7.349232919514179" lat="46.25057098455727">
        <ele>821.2000122070312</ele>
        <time>2014-05-10T08:56:37.000Z</time>
      </trkpt>
      <trkpt lon="7.349223950877786" lat="46.25058699399233">
        <ele>821.7999877929688</ele>
        <time>2014-05-10T08:56:40.000Z</time>
      </trkpt>
      <trkpt lon="7.349177934229374" lat="46.25066393986344">
        <ele>822.2000122070312</ele>
        <time>2014-05-10T08:56:52.000Z</time>
      </trkpt>
      <trkpt lon="7.349109956994653" lat="46.250796960666776">
        <ele>824.2000122070312</ele>
        <time>2014-05-10T08:56:59.000Z</time>
      </trkpt>
      <trkpt lon="7.349005937576294" lat="46.25099795870483">
        <ele>827.4000244140625</ele>
        <time>2014-05-10T08:57:07.000Z</time>
      </trkpt>
      <trkpt lon="7.349078943952918" lat="46.251184958964586">
        <ele>829.2000122070312</ele>
        <time>2014-05-10T08:57:12.000Z</time>
      </trkpt>
      <trkpt lon="7.34931799583137" lat="46.25125394202769">
        <ele>830.0</ele>
        <time>2014-05-10T08:57:18.000Z</time>
      </trkpt>
      <trkpt lon="7.34957498498261" lat="46.25132292509079">
        <ele>829.4000244140625</ele>
        <time>2014-05-10T08:57:23.000Z</time>
      </trkpt>
      <trkpt lon="7.349950997158885" lat="46.25141194090247">
        <ele>828.5999755859375</ele>
        <time>2014-05-10T08:57:28.000Z</time>
      </trkpt>
      <trkpt lon="7.350499927997589" lat="46.251392997801304">
        <ele>826.2000122070312</ele>
        <time>2014-05-10T08:57:34.000Z</time>
      </trkpt>
      <trkpt lon="7.3508879262954" lat="46.25145393423736">
        <ele>825.5999755859375</ele>
        <time>2014-05-10T08:57:38.000Z</time>
      </trkpt>
      <trkpt lon="7.351786969229579" lat="46.25178895890713">
        <ele>824.5999755859375</ele>
        <time>2014-05-10T08:57:47.000Z</time>
      </trkpt>
      <trkpt lon="7.352481996640563" lat="46.2520029488951">
        <ele>824.5999755859375</ele>
        <time>2014-05-10T08:57:54.000Z</time>
      </trkpt>
      <trkpt lon="7.353254975751042" lat="46.25226496718824">
        <ele>822.7999877929688</ele>
        <time>2014-05-10T08:58:02.000Z</time>
      </trkpt>
      <trkpt lon="7.3542179726064205" lat="46.2526589166373">
        <ele>821.5999755859375</ele>
        <time>2014-05-10T08:58:12.000Z</time>
      </trkpt>
      <trkpt lon="7.354836976155639" lat="46.25284398905933">
        <ele>821.0</ele>
        <time>2014-05-10T08:58:18.000Z</time>
      </trkpt>
      <trkpt lon="7.3553859908133745" lat="46.25289293937385">
        <ele>820.5999755859375</ele>
        <time>2014-05-10T08:58:23.000Z</time>
      </trkpt>
      <trkpt lon="7.356095938012004" lat="46.25289293937385">
        <ele>820.2000122070312</ele>
        <time>2014-05-10T08:58:30.000Z</time>
      </trkpt>
      <trkpt lon="7.356729945167899" lat="46.25297198072076">
        <ele>821.0</ele>
        <time>2014-05-10T08:58:37.000Z</time>
      </trkpt>
      <trkpt lon="7.3573279939591885" lat="46.253089997917414">
        <ele>821.4000244140625</ele>
        <time>2014-05-10T08:58:44.000Z</time>
      </trkpt>
      <trkpt lon="7.358145983889699" lat="46.25331396237016">
        <ele>821.2000122070312</ele>
        <time>2014-05-10T08:58:54.000Z</time>
      </trkpt>
      <trkpt lon="7.358582932502031" lat="46.25348797068">
        <ele>822.0</ele>
        <time>2014-05-10T08:59:00.000Z</time>
      </trkpt>
      <trkpt lon="7.358902953565121" lat="46.25367094762623">
        <ele>823.2000122070312</ele>
        <time>2014-05-10T08:59:06.000Z</time>
      </trkpt>
      <trkpt lon="7.359151979908347" lat="46.25381997786462">
        <ele>824.4000244140625</ele>
        <time>2014-05-10T08:59:13.000Z</time>
      </trkpt>
      <trkpt lon="7.359343925490975" lat="46.25394495204091">
        <ele>826.0</ele>
        <time>2014-05-10T08:59:20.000Z</time>
      </trkpt>
      <trkpt lon="7.359498990699649" lat="46.25405198894441">
        <ele>827.0</ele>
        <time>2014-05-10T08:59:26.000Z</time>
      </trkpt>
      <trkpt lon="7.359653972089291" lat="46.254208981990814">
        <ele>828.7999877929688</ele>
        <time>2014-05-10T08:59:34.000Z</time>
      </trkpt>
      <trkpt lon="7.359740976244211" lat="46.254383996129036">
        <ele>829.7999877929688</ele>
        <time>2014-05-10T08:59:43.000Z</time>
      </trkpt>
      <trkpt lon="7.3598109651356936" lat="46.25456093810499">
        <ele>830.5999755859375</ele>
        <time>2014-05-10T08:59:51.000Z</time>
      </trkpt>
      <trkpt lon="7.359914984554052" lat="46.25465095974505">
        <ele>831.5999755859375</ele>
        <time>2014-05-10T08:59:57.000Z</time>
      </trkpt>
      <trkpt lon="7.360046999529004" lat="46.254730923101306">
        <ele>832.5999755859375</ele>
        <time>2014-05-10T09:00:04.000Z</time>
      </trkpt>
      <trkpt lon="7.360216984525323" lat="46.25483091920614">
        <ele>833.0</ele>
        <time>2014-05-10T09:00:13.000Z</time>
      </trkpt>
      <trkpt lon="7.3603549506515265" lat="46.25489193946123">
        <ele>833.5999755859375</ele>
        <time>2014-05-10T09:00:20.000Z</time>
      </trkpt>
      <trkpt lon="7.360488977283239" lat="46.2549589946866">
        <ele>834.4000244140625</ele>
        <time>2014-05-10T09:00:27.000Z</time>
      </trkpt>
      <trkpt lon="7.3606279492378235" lat="46.255050944164395">
        <ele>834.7999877929688</ele>
        <time>2014-05-10T09:00:34.000Z</time>
      </trkpt>
      <trkpt lon="7.360801957547665" lat="46.25516393221915">
        <ele>834.7999877929688</ele>
        <time>2014-05-10T09:00:41.000Z</time>
      </trkpt>
      <trkpt lon="7.3611159436404705" lat="46.25534397549927">
        <ele>835.5999755859375</ele>
        <time>2014-05-10T09:00:51.000Z</time>
      </trkpt>
      <trkpt lon="7.361351978033781" lat="46.25548797659576">
        <ele>835.7999877929688</ele>
        <time>2014-05-10T09:00:58.000Z</time>
      </trkpt>
      <trkpt lon="7.361701922491193" lat="46.25573297962546">
        <ele>836.4000244140625</ele>
        <time>2014-05-10T09:01:09.000Z</time>
      </trkpt>
      <trkpt lon="7.361892946064472" lat="46.25591897405684">
        <ele>836.7999877929688</ele>
        <time>2014-05-10T09:01:16.000Z</time>
      </trkpt>
      <trkpt lon="7.362064942717552" lat="46.256103962659836">
        <ele>836.7999877929688</ele>
        <time>2014-05-10T09:01:23.000Z</time>
      </trkpt>
      <trkpt lon="7.362218918278813" lat="46.256403950974345">
        <ele>837.2000122070312</ele>
        <time>2014-05-10T09:01:33.000Z</time>
      </trkpt>
      <trkpt lon="7.36233894713223" lat="46.25660193152726">
        <ele>838.4000244140625</ele>
        <time>2014-05-10T09:01:41.000Z</time>
      </trkpt>
      <trkpt lon="7.362485965713859" lat="46.25676093623042">
        <ele>839.7999877929688</ele>
        <time>2014-05-10T09:01:50.000Z</time>
      </trkpt>
      <trkpt lon="7.362626949325204" lat="46.256895968690515">
        <ele>841.2000122070312</ele>
        <time>2014-05-10T09:01:59.000Z</time>
      </trkpt>
      <trkpt lon="7.3627769853919744" lat="46.2570209428668">
        <ele>842.4000244140625</ele>
        <time>2014-05-10T09:02:08.000Z</time>
      </trkpt>
      <trkpt lon="7.362894918769598" lat="46.25716494396329">
        <ele>844.7999877929688</ele>
        <time>2014-05-10T09:02:18.000Z</time>
      </trkpt>
      <trkpt lon="7.363013941794634" lat="46.257307939231396">
        <ele>846.5999755859375</ele>
        <time>2014-05-10T09:02:27.000Z</time>
      </trkpt>
      <trkpt lon="7.36315299756825" lat="46.257457975298166">
        <ele>848.2000122070312</ele>
        <time>2014-05-10T09:02:36.000Z</time>
      </trkpt>
      <trkpt lon="7.363358940929174" lat="46.257603988051414">
        <ele>849.4000244140625</ele>
        <time>2014-05-10T09:02:46.000Z</time>
      </trkpt>
      <trkpt lon="7.363550970330834" lat="46.25766098499298">
        <ele>850.4000244140625</ele>
        <time>2014-05-10T09:02:53.000Z</time>
      </trkpt>
      <trkpt lon="7.363806953653693" lat="46.25770792365074">
        <ele>851.5999755859375</ele>
        <time>2014-05-10T09:03:01.000Z</time>
      </trkpt>
      <trkpt lon="7.364104930311441" lat="46.257819989696145">
        <ele>852.4000244140625</ele>
        <time>2014-05-10T09:03:09.000Z</time>
      </trkpt>
      <trkpt lon="7.364318920299411" lat="46.25795896165073">
        <ele>853.2000122070312</ele>
        <time>2014-05-10T09:03:16.000Z</time>
      </trkpt>
      <trkpt lon="7.364494940266013" lat="46.25813296996057">
        <ele>853.5999755859375</ele>
        <time>2014-05-10T09:03:23.000Z</time>
      </trkpt>
      <trkpt lon="7.364675989374518" lat="46.258227936923504">
        <ele>854.4000244140625</ele>
        <time>2014-05-10T09:03:29.000Z</time>
      </trkpt>
      <trkpt lon="7.3648809269070625" lat="46.2583299446851">
        <ele>855.4000244140625</ele>
        <time>2014-05-10T09:03:36.000Z</time>
      </trkpt>
      <trkpt lon="7.365083936601877" lat="46.25844896771014">
        <ele>856.2000122070312</ele>
        <time>2014-05-10T09:03:43.000Z</time>
      </trkpt>
      <trkpt lon="7.3653229884803295" lat="46.258595986291766">
        <ele>856.5999755859375</ele>
        <time>2014-05-10T09:03:51.000Z</time>
      </trkpt>
      <trkpt lon="7.365507977083325" lat="46.2587099801749">
        <ele>856.5999755859375</ele>
        <time>2014-05-10T09:03:57.000Z</time>
      </trkpt>
      <trkpt lon="7.365735964849591" lat="46.25887191854417">
        <ele>857.7999877929688</ele>
        <time>2014-05-10T09:04:05.000Z</time>
      </trkpt>
      <trkpt lon="7.365941992029548" lat="46.259045926854014">
        <ele>858.2000122070312</ele>
        <time>2014-05-10T09:04:13.000Z</time>
      </trkpt>
      <trkpt lon="7.366128992289305" lat="46.259238962084055">
        <ele>857.7999877929688</ele>
        <time>2014-05-10T09:04:20.000Z</time>
      </trkpt>
      <trkpt lon="7.366361925378442" lat="46.259322948753834">
        <ele>857.7999877929688</ele>
        <time>2014-05-10T09:04:26.000Z</time>
      </trkpt>
      <trkpt lon="7.3665999714285135" lat="46.259478935971856">
        <ele>858.4000244140625</ele>
        <time>2014-05-10T09:04:34.000Z</time>
      </trkpt>
      <trkpt lon="7.366809938102961" lat="46.259607933461666">
        <ele>858.2000122070312</ele>
        <time>2014-05-10T09:04:42.000Z</time>
      </trkpt>
      <trkpt lon="7.3669439647346735" lat="46.25970399007201">
        <ele>859.2000122070312</ele>
        <time>2014-05-10T09:04:48.000Z</time>
      </trkpt>
      <trkpt lon="7.367047984153032" lat="46.259817983955145">
        <ele>861.0</ele>
        <time>2014-05-10T09:04:54.000Z</time>
      </trkpt>
      <trkpt lon="7.367167929187417" lat="46.25998193398118">
        <ele>862.0</ele>
        <time>2014-05-10T09:05:01.000Z</time>
      </trkpt>
      <trkpt lon="7.367331963032484" lat="46.2601519189775">
        <ele>862.5999755859375</ele>
        <time>2014-05-10T09:05:08.000Z</time>
      </trkpt>
      <trkpt lon="7.3673939891159534" lat="46.260203970596194">
        <ele>862.0</ele>
        <time>2014-05-10T09:05:10.000Z</time>
      </trkpt>
      <trkpt lon="7.367687942460179" lat="46.26042592339218">
        <ele>861.4000244140625</ele>
        <time>2014-05-10T09:05:17.000Z</time>
      </trkpt>
      <trkpt lon="7.3677329532802105" lat="46.26045199111104">
        <ele>861.2000122070312</ele>
        <time>2014-05-10T09:05:18.000Z</time>
      </trkpt>
      <trkpt lon="7.368102930486202" lat="46.26064393669367">
        <ele>862.5999755859375</ele>
        <time>2014-05-10T09:05:26.000Z</time>
      </trkpt>
      <trkpt lon="7.36833393573761" lat="46.26074795611203">
        <ele>864.4000244140625</ele>
        <time>2014-05-10T09:05:32.000Z</time>
      </trkpt>
      <trkpt lon="7.368602994829416" lat="46.26083898358047">
        <ele>865.2000122070312</ele>
        <time>2014-05-10T09:05:40.000Z</time>
      </trkpt>
      <trkpt lon="7.36876392737031" lat="46.26091894693673">
        <ele>865.2000122070312</ele>
        <time>2014-05-10T09:05:47.000Z</time>
      </trkpt>
      <trkpt lon="7.368834922090173" lat="46.260978961363435">
        <ele>865.0</ele>
        <time>2014-05-10T09:05:53.000Z</time>
      </trkpt>
      <trkpt lon="7.368879932910204" lat="46.26101491972804">
        <ele>864.7999877929688</ele>
        <time>2014-05-10T09:05:58.000Z</time>
      </trkpt>
      <trkpt lon="7.36897699534893" lat="46.261087926104665">
        <ele>864.7999877929688</ele>
        <time>2014-05-10T09:06:03.000Z</time>
      </trkpt>
      <trkpt lon="7.369055952876806" lat="46.261148946359754">
        <ele>864.7999877929688</ele>
        <time>2014-05-10T09:06:08.000Z</time>
      </trkpt>
      <trkpt lon="7.3691309709101915" lat="46.261212984099984">
        <ele>864.7999877929688</ele>
        <time>2014-05-10T09:06:13.000Z</time>
      </trkpt>
      <trkpt lon="7.3692019656300545" lat="46.26127392053604">
        <ele>864.5999755859375</ele>
        <time>2014-05-10T09:06:20.000Z</time>
      </trkpt>
      <trkpt lon="7.36929995007813" lat="46.26135799102485">
        <ele>864.7999877929688</ele>
        <time>2014-05-10T09:06:25.000Z</time>
      </trkpt>
      <trkpt lon="7.369465995579958" lat="46.261539962142706">
        <ele>864.5999755859375</ele>
        <time>2014-05-10T09:06:33.000Z</time>
      </trkpt>
      <trkpt lon="7.36953891813755" lat="46.26168295741081">
        <ele>864.5999755859375</ele>
        <time>2014-05-10T09:06:39.000Z</time>
      </trkpt>
      <trkpt lon="7.369572948664427" lat="46.261925948783755">
        <ele>864.7999877929688</ele>
        <time>2014-05-10T09:06:47.000Z</time>
      </trkpt>
      <trkpt lon="7.369536990299821" lat="46.262162989005446">
        <ele>864.4000244140625</ele>
        <time>2014-05-10T09:06:54.000Z</time>
      </trkpt>
      <trkpt lon="7.369477981701493" lat="46.26235292293131">
        <ele>862.7999877929688</ele>
        <time>2014-05-10T09:06:59.000Z</time>
      </trkpt>
      <trkpt lon="7.369458954781294" lat="46.26249298453331">
        <ele>862.0</ele>
        <time>2014-05-10T09:07:02.000Z</time>
      </trkpt>
      <trkpt lon="7.369758943095803" lat="46.26254495233297">
        <ele>861.4000244140625</ele>
        <time>2014-05-10T09:07:07.000Z</time>
      </trkpt>
      <trkpt lon="7.369758943095803" lat="46.26255995593965">
        <ele>862.5999755859375</ele>
        <time>2014-05-10T09:13:26.000Z</time>
      </trkpt>
      <trkpt lon="7.369736982509494" lat="46.26257596537471">
        <ele>862.7999877929688</ele>
        <time>2014-05-10T09:13:39.000Z</time>
      </trkpt>
      <trkpt lon="7.3695379961282015" lat="46.26264193095267">
        <ele>862.4000244140625</ele>
        <time>2014-05-10T09:13:44.000Z</time>
      </trkpt>
      <trkpt lon="7.369665987789631" lat="46.26273497007787">
        <ele>861.5999755859375</ele>
        <time>2014-05-10T09:13:51.000Z</time>
      </trkpt>
      <trkpt lon="7.369757937267423" lat="46.26276698894799">
        <ele>861.2000122070312</ele>
        <time>2014-05-10T09:13:54.000Z</time>
      </trkpt>
      <trkpt lon="7.370060943067074" lat="46.262828931212425">
        <ele>860.0</ele>
        <time>2014-05-10T09:13:59.000Z</time>
      </trkpt>
      <trkpt lon="7.370211984962225" lat="46.2628579325974">
        <ele>859.4000244140625</ele>
        <time>2014-05-10T09:14:01.000Z</time>
      </trkpt>
      <trkpt lon="7.370571987703443" lat="46.263043927028775">
        <ele>857.7999877929688</ele>
        <time>2014-05-10T09:14:06.000Z</time>
      </trkpt>
      <trkpt lon="7.370624961331487" lat="46.263254983350635">
        <ele>856.2000122070312</ele>
        <time>2014-05-10T09:14:09.000Z</time>
      </trkpt>
      <trkpt lon="7.370624961331487" lat="46.26333695836365">
        <ele>855.5999755859375</ele>
        <time>2014-05-10T09:14:10.000Z</time>
      </trkpt>
      <trkpt lon="7.370553966611624" lat="46.263773990795016">
        <ele>853.2000122070312</ele>
        <time>2014-05-10T09:14:15.000Z</time>
      </trkpt>
      <trkpt lon="7.370531922206283" lat="46.26386493444443">
        <ele>852.7999877929688</ele>
        <time>2014-05-10T09:14:16.000Z</time>
      </trkpt>
      <trkpt lon="7.370576933026314" lat="46.26421898603439">
        <ele>852.0</ele>
        <time>2014-05-10T09:14:20.000Z</time>
      </trkpt>
      <trkpt lon="7.370746918022633" lat="46.26426491886377">
        <ele>852.0</ele>
        <time>2014-05-10T09:14:22.000Z</time>
      </trkpt>
      <trkpt lon="7.370881950482726" lat="46.2642219197005">
        <ele>851.5999755859375</ele>
        <time>2014-05-10T09:14:24.000Z</time>
      </trkpt>
      <trkpt lon="7.3711159732192755" lat="46.26391991972923">
        <ele>852.7999877929688</ele>
        <time>2014-05-10T09:14:30.000Z</time>
      </trkpt>
      <trkpt lon="7.371438927948475" lat="46.263579949736595">
        <ele>857.4000244140625</ele>
        <time>2014-05-10T09:14:39.000Z</time>
      </trkpt>
      <trkpt lon="7.371631963178515" lat="46.26337895169854">
        <ele>859.5999755859375</ele>
        <time>2014-05-10T09:14:45.000Z</time>
      </trkpt>
      <trkpt lon="7.371718967333436" lat="46.26314291730523">
        <ele>861.4000244140625</ele>
        <time>2014-05-10T09:14:50.000Z</time>
      </trkpt>
      <trkpt lon="7.371681919321418" lat="46.26298299059272">
        <ele>863.4000244140625</ele>
        <time>2014-05-10T09:14:55.000Z</time>
      </trkpt>
      <trkpt lon="7.371670939028263" lat="46.262955917045474">
        <ele>863.7999877929688</ele>
        <time>2014-05-10T09:14:56.000Z</time>
      </trkpt>
      <trkpt lon="7.371588964015245" lat="46.26275299116969">
        <ele>866.2000122070312</ele>
        <time>2014-05-10T09:15:04.000Z</time>
      </trkpt>
      <trkpt lon="7.3715689312666655" lat="46.26255392096937">
        <ele>867.7999877929688</ele>
        <time>2014-05-10T09:15:12.000Z</time>
      </trkpt>
      <trkpt lon="7.371620982885361" lat="46.26237295567989">
        <ele>868.7999877929688</ele>
        <time>2014-05-10T09:15:20.000Z</time>
      </trkpt>
      <trkpt lon="7.371787950396538" lat="46.262201964855194">
        <ele>869.2000122070312</ele>
        <time>2014-05-10T09:15:28.000Z</time>
      </trkpt>
      <trkpt lon="7.371997917070985" lat="46.262097945436835">
        <ele>868.7999877929688</ele>
        <time>2014-05-10T09:15:36.000Z</time>
      </trkpt>
      <trkpt lon="7.372247949242592" lat="46.26202493906021">
        <ele>868.4000244140625</ele>
        <time>2014-05-10T09:15:43.000Z</time>
      </trkpt>
      <trkpt lon="7.372680958360434" lat="46.26196199096739">
        <ele>867.2000122070312</ele>
        <time>2014-05-10T09:15:53.000Z</time>
      </trkpt>
      <trkpt lon="7.373071974143386" lat="46.26190792769194">
        <ele>866.7999877929688</ele>
        <time>2014-05-10T09:16:02.000Z</time>
      </trkpt>
      <trkpt lon="7.373427953571081" lat="46.261862916871905">
        <ele>866.2000122070312</ele>
        <time>2014-05-10T09:16:09.000Z</time>
      </trkpt>
      <trkpt lon="7.373722996562719" lat="46.26181094907224">
        <ele>866.0</ele>
        <time>2014-05-10T09:16:15.000Z</time>
      </trkpt>
      <trkpt lon="7.373946961015463" lat="46.261750934645534">
        <ele>865.7999877929688</ele>
        <time>2014-05-10T09:16:19.000Z</time>
      </trkpt>
      <trkpt lon="7.374687921255827" lat="46.26156695187092">
        <ele>864.7999877929688</ele>
        <time>2014-05-10T09:16:29.000Z</time>
      </trkpt>
      <trkpt lon="7.375195948407054" lat="46.261470979079604">
        <ele>864.2000122070312</ele>
        <time>2014-05-10T09:16:36.000Z</time>
      </trkpt>
      <trkpt lon="7.375449920073152" lat="46.261432925239205">
        <ele>865.0</ele>
        <time>2014-05-10T09:16:40.000Z</time>
      </trkpt>
      <trkpt lon="7.375585958361626" lat="46.261432925239205">
        <ele>866.2000122070312</ele>
        <time>2014-05-10T09:16:42.000Z</time>
      </trkpt>
      <trkpt lon="7.376116951927543" lat="46.261432925239205">
        <ele>868.5999755859375</ele>
        <time>2014-05-10T09:16:49.000Z</time>
      </trkpt>
      <trkpt lon="7.376743918284774" lat="46.26139596104622">
        <ele>870.7999877929688</ele>
        <time>2014-05-10T09:16:57.000Z</time>
      </trkpt>
      <trkpt lon="7.377172987908125" lat="46.26129596494138">
        <ele>872.0</ele>
        <time>2014-05-10T09:17:04.000Z</time>
      </trkpt>
      <trkpt lon="7.377562997862697" lat="46.261256989091635">
        <ele>872.7999877929688</ele>
        <time>2014-05-10T09:17:11.000Z</time>
      </trkpt>
      <trkpt lon="7.377911936491728" lat="46.26126796938479">
        <ele>874.0</ele>
        <time>2014-05-10T09:17:18.000Z</time>
      </trkpt>
      <trkpt lon="7.378171943128109" lat="46.261302921921015">
        <ele>874.4000244140625</ele>
        <time>2014-05-10T09:17:24.000Z</time>
      </trkpt>
      <trkpt lon="7.378339916467667" lat="46.26133896410465">
        <ele>875.4000244140625</ele>
        <time>2014-05-10T09:17:29.000Z</time>
      </trkpt>
      <trkpt lon="7.378369923681021" lat="46.261346926912665">
        <ele>876.0</ele>
        <time>2014-05-10T09:17:33.000Z</time>
      </trkpt>
      <trkpt lon="7.378010926768184" lat="46.261279955506325">
        <ele>874.2000122070312</ele>
        <time>2014-05-10T09:17:39.000Z</time>
      </trkpt>
      <trkpt lon="7.377854939550161" lat="46.261260928586125">
        <ele>874.5999755859375</ele>
        <time>2014-05-10T09:17:42.000Z</time>
      </trkpt>
      <trkpt lon="7.377885952591896" lat="46.26126495189965">
        <ele>874.5999755859375</ele>
        <time>2014-05-10T09:17:44.000Z</time>
      </trkpt>
      <trkpt lon="7.378223994746804" lat="46.26131298020482">
        <ele>875.7999877929688</ele>
        <time>2014-05-10T09:17:52.000Z</time>
      </trkpt>
      <trkpt lon="7.378596989437938" lat="46.261407947167754">
        <ele>877.5999755859375</ele>
        <time>2014-05-10T09:18:00.000Z</time>
      </trkpt>
      <trkpt lon="7.379001919180155" lat="46.261515989899635">
        <ele>879.5999755859375</ele>
        <time>2014-05-10T09:18:09.000Z</time>
      </trkpt>
      <trkpt lon="7.379289921373129" lat="46.261557983234525">
        <ele>880.5999755859375</ele>
        <time>2014-05-10T09:18:16.000Z</time>
      </trkpt>
      <trkpt lon="7.379665933549404" lat="46.261560916900635">
        <ele>881.4000244140625</ele>
        <time>2014-05-10T09:18:26.000Z</time>
      </trkpt>
      <trkpt lon="7.380045969039202" lat="46.261560916900635">
        <ele>882.4000244140625</ele>
        <time>2014-05-10T09:18:36.000Z</time>
      </trkpt>
      <trkpt lon="7.380434973165393" lat="46.26156896352768">
        <ele>883.7999877929688</ele>
        <time>2014-05-10T09:18:45.000Z</time>
      </trkpt>
      <trkpt lon="7.380722975358367" lat="46.261622942984104">
        <ele>885.2000122070312</ele>
        <time>2014-05-10T09:18:52.000Z</time>
      </trkpt>
      <trkpt lon="7.381086917594075" lat="46.261729979887605">
        <ele>887.0</ele>
        <time>2014-05-10T09:19:01.000Z</time>
      </trkpt>
      <trkpt lon="7.381511963903904" lat="46.26186895184219">
        <ele>888.7999877929688</ele>
        <time>2014-05-10T09:19:11.000Z</time>
      </trkpt>
      <trkpt lon="7.381939943879843" lat="46.26200892962515">
        <ele>890.4000244140625</ele>
        <time>2014-05-10T09:19:21.000Z</time>
      </trkpt>
      <trkpt lon="7.3823529202491045" lat="46.26214396208525">
        <ele>891.5999755859375</ele>
        <time>2014-05-10T09:19:31.000Z</time>
      </trkpt>
      <trkpt lon="7.382498933002353" lat="46.26219199039042">
        <ele>892.0</ele>
        <time>2014-05-10T09:19:36.000Z</time>
      </trkpt>
      <trkpt lon="7.382780984044075" lat="46.26228393986821">
        <ele>893.0</ele>
        <time>2014-05-10T09:19:44.000Z</time>
      </trkpt>
      <trkpt lon="7.38315992988646" lat="46.26240799203515">
        <ele>895.0</ele>
        <time>2014-05-10T09:19:54.000Z</time>
      </trkpt>
      <trkpt lon="7.383549939841032" lat="46.262523997575045">
        <ele>895.4000244140625</ele>
        <time>2014-05-10T09:20:04.000Z</time>
      </trkpt>
      <trkpt lon="7.383875995874405" lat="46.26260496675968">
        <ele>896.0</ele>
        <time>2014-05-10T09:20:12.000Z</time>
      </trkpt>
      <trkpt lon="7.384259970858693" lat="46.26268392428756">
        <ele>896.4000244140625</ele>
        <time>2014-05-10T09:20:21.000Z</time>
      </trkpt>
      <trkpt lon="7.384663978591561" lat="46.262698927894235">
        <ele>897.5999755859375</ele>
        <time>2014-05-10T09:20:30.000Z</time>
      </trkpt>
      <trkpt lon="7.3850909527391195" lat="46.26266498118639">
        <ele>898.5999755859375</ele>
        <time>2014-05-10T09:20:39.000Z</time>
      </trkpt>
      <trkpt lon="7.385291950777173" lat="46.262611923739314">
        <ele>899.4000244140625</ele>
        <time>2014-05-10T09:20:45.000Z</time>
      </trkpt>
      <trkpt lon="7.385557992383838" lat="46.26251695677638">
        <ele>899.7999877929688</ele>
        <time>2014-05-10T09:20:53.000Z</time>
      </trkpt>
      <trkpt lon="7.385687995702028" lat="46.262462977319956">
        <ele>900.2000122070312</ele>
        <time>2014-05-10T09:21:00.000Z</time>
      </trkpt>
      <trkpt lon="7.385687995702028" lat="46.262462977319956">
        <ele>900.0</ele>
        <time>2014-05-10T09:21:05.000Z</time>
      </trkpt>
      <trkpt lon="7.385661927983165" lat="46.2622429523617">
        <ele>899.5999755859375</ele>
        <time>2014-05-10T09:21:11.000Z</time>
      </trkpt>
      <trkpt lon="7.385751949623227" lat="46.262311935424805">
        <ele>899.4000244140625</ele>
        <time>2014-05-10T09:21:15.000Z</time>
      </trkpt>
      <trkpt lon="7.385751949623227" lat="46.262311935424805">
        <ele>899.4000244140625</ele>
        <time>2014-05-10T09:21:17.000Z</time>
      </trkpt>
      <trkpt lon="7.385655976831913" lat="46.2622379232198">
        <ele>899.5999755859375</ele>
        <time>2014-05-10T09:21:21.000Z</time>
      </trkpt>
      <trkpt lon="7.385602919384837" lat="46.26219492405653">
        <ele>899.7999877929688</ele>
        <time>2014-05-10T09:21:24.000Z</time>
      </trkpt>
      <trkpt lon="7.38543595187366" lat="46.26206994988024">
        <ele>900.7999877929688</ele>
        <time>2014-05-10T09:21:32.000Z</time>
      </trkpt>
      <trkpt lon="7.385373925790191" lat="46.26202393323183">
        <ele>901.7999877929688</ele>
        <time>2014-05-10T09:21:35.000Z</time>
      </trkpt>
      <trkpt lon="7.385751949623227" lat="46.262311935424805">
        <ele>901.4000244140625</ele>
        <time>2014-05-10T09:21:40.000Z</time>
      </trkpt>
      <trkpt lon="7.385396976023912" lat="46.26182997599244">
        <ele>900.7999877929688</ele>
        <time>2014-05-10T09:21:44.000Z</time>
      </trkpt>
      <trkpt lon="7.38524098880589" lat="46.26171497628093">
        <ele>901.7999877929688</ele>
        <time>2014-05-10T09:21:50.000Z</time>
      </trkpt>
      <trkpt lon="7.385115930810571" lat="46.26158991828561">
        <ele>901.5999755859375</ele>
        <time>2014-05-10T09:21:55.000Z</time>
      </trkpt>
      <trkpt lon="7.385043930262327" lat="46.261518923565745">
        <ele>901.0</ele>
        <time>2014-05-10T09:22:01.000Z</time>
      </trkpt>
      <trkpt lon="7.385164964944124" lat="46.261236956343055">
        <ele>900.4000244140625</ele>
        <time>2014-05-10T09:22:08.000Z</time>
      </trkpt>
      <trkpt lon="7.385294968262315" lat="46.26097493804991">
        <ele>899.5999755859375</ele>
        <time>2014-05-10T09:22:15.000Z</time>
      </trkpt>
      <trkpt lon="7.38545598462224" lat="46.260696994140744">
        <ele>898.0</ele>
        <time>2014-05-10T09:22:22.000Z</time>
      </trkpt>
      <trkpt lon="7.385591939091682" lat="46.26051996834576">
        <ele>897.2000122070312</ele>
        <time>2014-05-10T09:22:28.000Z</time>
      </trkpt>
      <trkpt lon="7.385630998760462" lat="46.26043992117047">
        <ele>896.7999877929688</ele>
        <time>2014-05-10T09:22:32.000Z</time>
      </trkpt>
      <trkpt lon="7.385665951296687" lat="46.26038099639118">
        <ele>895.7999877929688</ele>
        <time>2014-05-10T09:22:37.000Z</time>
      </trkpt>
      <trkpt lon="7.385665951296687" lat="46.26038099639118">
        <ele>895.4000244140625</ele>
        <time>2014-05-10T09:22:41.000Z</time>
      </trkpt>
      <trkpt lon="7.385687995702028" lat="46.26023096032441">
        <ele>895.4000244140625</ele>
        <time>2014-05-10T09:22:45.000Z</time>
      </trkpt>
      <trkpt lon="7.385687995702028" lat="46.26023096032441">
        <ele>895.2000122070312</ele>
        <time>2014-05-10T09:22:49.000Z</time>
      </trkpt>
      <trkpt lon="7.385687995702028" lat="46.26023096032441">
        <ele>895.2000122070312</ele>
        <time>2014-05-10T09:22:50.000Z</time>
      </trkpt>
      <trkpt lon="7.385562937706709" lat="46.26004396006465">
        <ele>895.5999755859375</ele>
        <time>2014-05-10T09:22:54.000Z</time>
      </trkpt>
      <trkpt lon="7.385485991835594" lat="46.26000096090138">
        <ele>896.2000122070312</ele>
        <time>2014-05-10T09:22:58.000Z</time>
      </trkpt>
      <trkpt lon="7.385389935225248" lat="46.25995293259621">
        <ele>898.5999755859375</ele>
        <time>2014-05-10T09:23:00.000Z</time>
      </trkpt>
      <trkpt lon="7.385127916932106" lat="46.25987699255347">
        <ele>896.4000244140625</ele>
        <time>2014-05-10T09:23:04.000Z</time>
      </trkpt>
      <trkpt lon="7.384925996884704" lat="46.25988897867501">
        <ele>895.7999877929688</ele>
        <time>2014-05-10T09:23:09.000Z</time>
      </trkpt>
      <trkpt lon="7.384596923366189" lat="46.25984991900623">
        <ele>895.5999755859375</ele>
        <time>2014-05-10T09:23:12.000Z</time>
      </trkpt>
      <trkpt lon="7.384722987189889" lat="46.259908927604556">
        <ele>893.0</ele>
        <time>2014-05-10T09:25:21.000Z</time>
      </trkpt>
      <trkpt lon="7.384354937821627" lat="46.25989099033177">
        <ele>891.2000122070312</ele>
        <time>2014-05-10T09:25:26.000Z</time>
      </trkpt>
      <trkpt lon="7.384020918980241" lat="46.259839944541454">
        <ele>889.2000122070312</ele>
        <time>2014-05-10T09:25:29.000Z</time>
      </trkpt>
      <trkpt lon="7.383537953719497" lat="46.25965998508036">
        <ele>885.4000244140625</ele>
        <time>2014-05-10T09:25:33.000Z</time>
      </trkpt>
      <trkpt lon="7.3833489418029785" lat="46.25950894318521">
        <ele>883.0</ele>
        <time>2014-05-10T09:25:35.000Z</time>
      </trkpt>
      <trkpt lon="7.382888942956924" lat="46.25891097821295">
        <ele>876.5999755859375</ele>
        <time>2014-05-10T09:25:41.000Z</time>
      </trkpt>
      <trkpt lon="7.38253396935761" lat="46.25857897102833">
        <ele>873.7999877929688</ele>
        <time>2014-05-10T09:25:45.000Z</time>
      </trkpt>
      <trkpt lon="7.3823679238557816" lat="46.25837495550513">
        <ele>871.5999755859375</ele>
        <time>2014-05-10T09:25:48.000Z</time>
      </trkpt>
      <trkpt lon="7.382366918027401" lat="46.258229948580265">
        <ele>870.0</ele>
        <time>2014-05-10T09:25:50.000Z</time>
      </trkpt>
      <trkpt lon="7.382446965202689" lat="46.25795694999397">
        <ele>868.0</ele>
        <time>2014-05-10T09:25:53.000Z</time>
      </trkpt>
      <trkpt lon="7.382511924952269" lat="46.25755595974624">
        <ele>864.7999877929688</ele>
        <time>2014-05-10T09:25:57.000Z</time>
      </trkpt>
      <trkpt lon="7.382408995181322" lat="46.25724599696696">
        <ele>863.0</ele>
        <time>2014-05-10T09:26:00.000Z</time>
      </trkpt>
      <trkpt lon="7.3824109230190516" lat="46.256809970363975">
        <ele>859.4000244140625</ele>
        <time>2014-05-10T09:26:04.000Z</time>
      </trkpt>
      <trkpt lon="7.38261996768415" lat="46.256507970392704">
        <ele>856.5999755859375</ele>
        <time>2014-05-10T09:26:07.000Z</time>
      </trkpt>
      <trkpt lon="7.383008971810341" lat="46.256316946819425">
        <ele>853.7999877929688</ele>
        <time>2014-05-10T09:26:10.000Z</time>
      </trkpt>
      <trkpt lon="7.383467964828014" lat="46.25623991712928">
        <ele>851.0</ele>
        <time>2014-05-10T09:26:13.000Z</time>
      </trkpt>
      <trkpt lon="7.38451193086803" lat="46.25623991712928">
        <ele>845.4000244140625</ele>
        <time>2014-05-10T09:26:19.000Z</time>
      </trkpt>
      <trkpt lon="7.385398987680674" lat="46.25622197985649">
        <ele>841.0</ele>
        <time>2014-05-10T09:26:24.000Z</time>
      </trkpt>
      <trkpt lon="7.386064929887652" lat="46.25630898401141">
        <ele>836.7999877929688</ele>
        <time>2014-05-10T09:26:28.000Z</time>
      </trkpt>
      <trkpt lon="7.386437924578786" lat="46.25630496069789">
        <ele>834.4000244140625</ele>
        <time>2014-05-10T09:26:31.000Z</time>
      </trkpt>
      <trkpt lon="7.3865249287337065" lat="46.25614897347987">
        <ele>832.5999755859375</ele>
        <time>2014-05-10T09:26:33.000Z</time>
      </trkpt>
      <trkpt lon="7.3863099329173565" lat="46.25602492131293">
        <ele>831.2000122070312</ele>
        <time>2014-05-10T09:26:35.000Z</time>
      </trkpt>
      <trkpt lon="7.385938949882984" lat="46.25587899237871">
        <ele>829.4000244140625</ele>
        <time>2014-05-10T09:26:38.000Z</time>
      </trkpt>
      <trkpt lon="7.385528990998864" lat="46.25557892024517">
        <ele>826.4000244140625</ele>
        <time>2014-05-10T09:26:42.000Z</time>
      </trkpt>
      <trkpt lon="7.385022975504398" lat="46.25511799938977">
        <ele>822.0</ele>
        <time>2014-05-10T09:26:47.000Z</time>
      </trkpt>
      <trkpt lon="7.384084956720471" lat="46.254704939201474">
        <ele>817.5999755859375</ele>
        <time>2014-05-10T09:26:53.000Z</time>
      </trkpt>
      <trkpt lon="7.383496966212988" lat="46.25433194451034">
        <ele>814.2000122070312</ele>
        <time>2014-05-10T09:26:57.000Z</time>
      </trkpt>
      <trkpt lon="7.383165964856744" lat="46.253972947597504">
        <ele>810.5999755859375</ele>
        <time>2014-05-10T09:27:00.000Z</time>
      </trkpt>
      <trkpt lon="7.38306999206543" lat="46.253846967592835">
        <ele>809.0</ele>
        <time>2014-05-10T09:27:01.000Z</time>
      </trkpt>
      <trkpt lon="7.382864970713854" lat="46.253522923216224">
        <ele>805.5999755859375</ele>
        <time>2014-05-10T09:27:04.000Z</time>
      </trkpt>
      <trkpt lon="7.382646957412362" lat="46.253228969872">
        <ele>802.5999755859375</ele>
        <time>2014-05-10T09:27:08.000Z</time>
      </trkpt>
      <trkpt lon="7.38247093744576" lat="46.2530579790473">
        <ele>801.0</ele>
        <time>2014-05-10T09:27:11.000Z</time>
      </trkpt>
      <trkpt lon="7.38216994330287" lat="46.25284591689706">
        <ele>796.5999755859375</ele>
        <time>2014-05-10T09:27:15.000Z</time>
      </trkpt>
      <trkpt lon="7.38208495080471" lat="46.25278095714748">
        <ele>795.2000122070312</ele>
        <time>2014-05-10T09:27:16.000Z</time>
      </trkpt>
      <trkpt lon="7.381902979686856" lat="46.252664951607585">
        <ele>792.2000122070312</ele>
        <time>2014-05-10T09:27:18.000Z</time>
      </trkpt>
      <trkpt lon="7.38176392391324" lat="46.25235599465668">
        <ele>788.4000244140625</ele>
        <time>2014-05-10T09:27:21.000Z</time>
      </trkpt>
      <trkpt lon="7.381628975272179" lat="46.25201594084501">
        <ele>781.2000122070312</ele>
        <time>2014-05-10T09:27:25.000Z</time>
      </trkpt>
      <trkpt lon="7.381581952795386" lat="46.251780996099114">
        <ele>776.4000244140625</ele>
        <time>2014-05-10T09:27:28.000Z</time>
      </trkpt>
      <trkpt lon="7.381546916440129" lat="46.25160497613251">
        <ele>771.7999877929688</ele>
        <time>2014-05-10T09:27:32.000Z</time>
      </trkpt>
      <trkpt lon="7.381708938628435" lat="46.25161696225405">
        <ele>770.2000122070312</ele>
        <time>2014-05-10T09:27:34.000Z</time>
      </trkpt>
      <trkpt lon="7.381930975243449" lat="46.25164797529578">
        <ele>768.5999755859375</ele>
        <time>2014-05-10T09:27:37.000Z</time>
      </trkpt>
      <trkpt lon="7.382333977147937" lat="46.25178191810846">
        <ele>766.2000122070312</ele>
        <time>2014-05-10T09:27:43.000Z</time>
      </trkpt>
      <trkpt lon="7.3825829196721315" lat="46.25187998637557">
        <ele>765.0</ele>
        <time>2014-05-10T09:27:48.000Z</time>
      </trkpt>
      <trkpt lon="7.382820965722203" lat="46.25197394751012">
        <ele>764.0</ele>
        <time>2014-05-10T09:27:53.000Z</time>
      </trkpt>
      <trkpt lon="7.3831969778984785" lat="46.2521649710834">
        <ele>762.2000122070312</ele>
        <time>2014-05-10T09:27:59.000Z</time>
      </trkpt>
      <trkpt lon="7.383590927347541" lat="46.25241299159825">
        <ele>759.5999755859375</ele>
        <time>2014-05-10T09:28:04.000Z</time>
      </trkpt>
      <trkpt lon="7.384044975042343" lat="46.25269395299256">
        <ele>757.2000122070312</ele>
        <time>2014-05-10T09:28:09.000Z</time>
      </trkpt>
      <trkpt lon="7.3843249306082726" lat="46.25275698490441">
        <ele>755.4000244140625</ele>
        <time>2014-05-10T09:28:12.000Z</time>
      </trkpt>
      <trkpt lon="7.3844509944319725" lat="46.252771988511086">
        <ele>753.0</ele>
        <time>2014-05-10T09:28:14.000Z</time>
      </trkpt>
      <trkpt lon="7.384585943073034" lat="46.25263494439423">
        <ele>750.4000244140625</ele>
        <time>2014-05-10T09:28:15.000Z</time>
      </trkpt>
      <trkpt lon="7.384851984679699" lat="46.252515921369195">
        <ele>745.2000122070312</ele>
        <time>2014-05-10T09:28:17.000Z</time>
      </trkpt>
      <trkpt lon="7.385350959375501" lat="46.25239497050643">
        <ele>739.7999877929688</ele>
        <time>2014-05-10T09:28:21.000Z</time>
      </trkpt>
      <trkpt lon="7.385467970743775" lat="46.25242196023464">
        <ele>739.0</ele>
        <time>2014-05-10T09:28:22.000Z</time>
      </trkpt>
      <trkpt lon="7.386313956230879" lat="46.252664951607585">
        <ele>738.2000122070312</ele>
        <time>2014-05-10T09:28:30.000Z</time>
      </trkpt>
      <trkpt lon="7.3869269248098135" lat="46.25284398905933">
        <ele>738.7999877929688</ele>
        <time>2014-05-10T09:28:37.000Z</time>
      </trkpt>
      <trkpt lon="7.387507958337665" lat="46.25306694768369">
        <ele>737.5999755859375</ele>
        <time>2014-05-10T09:28:45.000Z</time>
      </trkpt>
      <trkpt lon="7.388021936640143" lat="46.253266939893365">
        <ele>736.0</ele>
        <time>2014-05-10T09:28:52.000Z</time>
      </trkpt>
      <trkpt lon="7.388257971033454" lat="46.25330097042024">
        <ele>735.7999877929688</ele>
        <time>2014-05-10T09:28:55.000Z</time>
      </trkpt>
      <trkpt lon="7.3889849334955215" lat="46.253331983461976">
        <ele>734.5999755859375</ele>
        <time>2014-05-10T09:29:05.000Z</time>
      </trkpt>
      <trkpt lon="7.389378966763616" lat="46.25336492434144">
        <ele>734.0</ele>
        <time>2014-05-10T09:29:11.000Z</time>
      </trkpt>
      <trkpt lon="7.3894429206848145" lat="46.25327096320689">
        <ele>730.7999877929688</ele>
        <time>2014-05-10T09:29:15.000Z</time>
      </trkpt>
      <trkpt lon="7.389463959261775" lat="46.25305999070406">
        <ele>727.4000244140625</ele>
        <time>2014-05-10T09:29:19.000Z</time>
      </trkpt>
      <trkpt lon="7.389278970658779" lat="46.25303199514747">
        <ele>726.0</ele>
        <time>2014-05-10T09:29:22.000Z</time>
      </trkpt>
      <trkpt lon="7.389085935428739" lat="46.25301497988403">
        <ele>725.5999755859375</ele>
        <time>2014-05-10T09:29:24.000Z</time>
      </trkpt>
      <trkpt lon="7.388587966561317" lat="46.25292898155749">
        <ele>723.5999755859375</ele>
        <time>2014-05-10T09:29:29.000Z</time>
      </trkpt>
      <trkpt lon="7.388182953000069" lat="46.2527799513191">
        <ele>721.5999755859375</ele>
        <time>2014-05-10T09:29:33.000Z</time>
      </trkpt>
      <trkpt lon="7.387646930292249" lat="46.252600997686386">
        <ele>719.7999877929688</ele>
        <time>2014-05-10T09:29:38.000Z</time>
      </trkpt>
      <trkpt lon="7.387278964743018" lat="46.25250292941928">
        <ele>719.0</ele>
        <time>2014-05-10T09:29:41.000Z</time>
      </trkpt>
      <trkpt lon="7.386813936755061" lat="46.252300925552845">
        <ele>717.0</ele>
        <time>2014-05-10T09:29:45.000Z</time>
      </trkpt>
      <trkpt lon="7.386178923770785" lat="46.25184495002031">
        <ele>711.5999755859375</ele>
        <time>2014-05-10T09:29:51.000Z</time>
      </trkpt>
      <trkpt lon="7.385585987940431" lat="46.251422921195626">
        <ele>709.5999755859375</ele>
        <time>2014-05-10T09:29:56.000Z</time>
      </trkpt>
      <trkpt lon="7.385279964655638" lat="46.25121898949146">
        <ele>709.2000122070312</ele>
        <time>2014-05-10T09:29:59.000Z</time>
      </trkpt>
      <trkpt lon="7.384892972186208" lat="46.25101597979665">
        <ele>710.4000244140625</ele>
        <time>2014-05-10T09:30:03.000Z</time>
      </trkpt>
      <trkpt lon="7.384335994720459" lat="46.250839959830046">
        <ele>713.2000122070312</ele>
        <time>2014-05-10T09:30:09.000Z</time>
      </trkpt>
      <trkpt lon="7.38410197198391" lat="46.25076192431152">
        <ele>714.2000122070312</ele>
        <time>2014-05-10T09:30:12.000Z</time>
      </trkpt>
      <trkpt lon="7.383531918749213" lat="46.25059596262872">
        <ele>716.7999877929688</ele>
        <time>2014-05-10T09:30:20.000Z</time>
      </trkpt>
      <trkpt lon="7.383269984275103" lat="46.25052496790886">
        <ele>718.5999755859375</ele>
        <time>2014-05-10T09:30:25.000Z</time>
      </trkpt>
      <trkpt lon="7.383013917133212" lat="46.25045598484576">
        <ele>720.0</ele>
        <time>2014-05-10T09:30:32.000Z</time>
      </trkpt>
      <trkpt lon="7.382666990160942" lat="46.250363951548934">
        <ele>720.5999755859375</ele>
        <time>2014-05-10T09:30:41.000Z</time>
      </trkpt>
      <trkpt lon="7.382171954959631" lat="46.25024098902941">
        <ele>722.0</ele>
        <time>2014-05-10T09:30:53.000Z</time>
      </trkpt>
      <trkpt lon="7.381871966645122" lat="46.25011693686247">
        <ele>723.0</ele>
        <time>2014-05-10T09:31:01.000Z</time>
      </trkpt>
      <trkpt lon="7.38154792226851" lat="46.249956926330924">
        <ele>723.7999877929688</ele>
        <time>2014-05-10T09:31:09.000Z</time>
      </trkpt>
      <trkpt lon="7.3812479339540005" lat="46.24979398213327">
        <ele>724.2000122070312</ele>
        <time>2014-05-10T09:31:16.000Z</time>
      </trkpt>
      <trkpt lon="7.380844932049513" lat="46.249659955501556">
        <ele>725.2000122070312</ele>
        <time>2014-05-10T09:31:24.000Z</time>
      </trkpt>
      <trkpt lon="7.380323996767402" lat="46.24951394274831">
        <ele>726.2000122070312</ele>
        <time>2014-05-10T09:31:34.000Z</time>
      </trkpt>
      <trkpt lon="7.3798999562859535" lat="46.24938595108688">
        <ele>726.4000244140625</ele>
        <time>2014-05-10T09:31:42.000Z</time>
      </trkpt>
      <trkpt lon="7.379328981041908" lat="46.2492189835757">
        <ele>727.0</ele>
        <time>2014-05-10T09:31:52.000Z</time>
      </trkpt>
      <trkpt lon="7.378833945840597" lat="46.249077999964356">
        <ele>728.4000244140625</ele>
        <time>2014-05-10T09:32:01.000Z</time>
      </trkpt>
      <trkpt lon="7.378226928412914" lat="46.24892092309892">
        <ele>729.2000122070312</ele>
        <time>2014-05-10T09:32:12.000Z</time>
      </trkpt>
      <trkpt lon="7.377831973135471" lat="46.24887691810727">
        <ele>730.2000122070312</ele>
        <time>2014-05-10T09:32:19.000Z</time>
      </trkpt>
      <trkpt lon="7.377457972615957" lat="46.248863926157355">
        <ele>730.5999755859375</ele>
        <time>2014-05-10T09:32:26.000Z</time>
      </trkpt>
      <trkpt lon="7.377168964594603" lat="46.24883693642914">
        <ele>731.4000244140625</ele>
        <time>2014-05-10T09:32:33.000Z</time>
      </trkpt>
      <trkpt lon="7.376715922728181" lat="46.24865999445319">
        <ele>732.4000244140625</ele>
        <time>2014-05-10T09:32:42.000Z</time>
      </trkpt>
      <trkpt lon="7.376424986869097" lat="46.248559998348355">
        <ele>733.7999877929688</ele>
        <time>2014-05-10T09:32:49.000Z</time>
      </trkpt>
      <trkpt lon="7.376249972730875" lat="46.248410968109965">
        <ele>733.2000122070312</ele>
        <time>2014-05-10T09:32:55.000Z</time>
      </trkpt>
      <trkpt lon="7.376059954985976" lat="46.24814894981682">
        <ele>732.4000244140625</ele>
        <time>2014-05-10T09:33:01.000Z</time>
      </trkpt>
      <trkpt lon="7.37602299079299" lat="46.24809798784554">
        <ele>732.2000122070312</ele>
        <time>2014-05-10T09:33:02.000Z</time>
      </trkpt>
      <trkpt lon="7.37576499581337" lat="46.24784594401717">
        <ele>732.0</ele>
        <time>2014-05-10T09:33:07.000Z</time>
      </trkpt>
      <trkpt lon="7.375695928931236" lat="46.24781593680382">
        <ele>732.2000122070312</ele>
        <time>2014-05-10T09:33:08.000Z</time>
      </trkpt>
      <trkpt lon="7.375069968402386" lat="46.2475439440459">
        <ele>732.5999755859375</ele>
        <time>2014-05-10T09:33:17.000Z</time>
      </trkpt>
      <trkpt lon="7.3744739312678576" lat="46.24728896655142">
        <ele>730.0</ele>
        <time>2014-05-10T09:33:25.000Z</time>
      </trkpt>
      <trkpt lon="7.373943943530321" lat="46.24706894159317">
        <ele>727.2000122070312</ele>
        <time>2014-05-10T09:33:31.000Z</time>
      </trkpt>
      <trkpt lon="7.373772952705622" lat="46.24699995853007">
        <ele>726.7999877929688</ele>
        <time>2014-05-10T09:33:33.000Z</time>
      </trkpt>
      <trkpt lon="7.372959991917014" lat="46.24664297327399">
        <ele>725.2000122070312</ele>
        <time>2014-05-10T09:33:42.000Z</time>
      </trkpt>
      <trkpt lon="7.372701996937394" lat="46.24653493054211">
        <ele>725.0</ele>
        <time>2014-05-10T09:33:45.000Z</time>
      </trkpt>
      <trkpt lon="7.37222196534276" lat="46.24636393971741">
        <ele>726.5999755859375</ele>
        <time>2014-05-10T09:33:52.000Z</time>
      </trkpt>
      <trkpt lon="7.371832961216569" lat="46.24622899107635">
        <ele>726.2000122070312</ele>
        <time>2014-05-10T09:33:59.000Z</time>
      </trkpt>
      <trkpt lon="7.37151394598186" lat="46.24612195417285">
        <ele>725.7999877929688</ele>
        <time>2014-05-10T09:34:06.000Z</time>
      </trkpt>
      <trkpt lon="7.371366927400231" lat="46.246072920039296">
        <ele>724.7999877929688</ele>
        <time>2014-05-10T09:34:10.000Z</time>
      </trkpt>
      <trkpt lon="7.371172970160842" lat="46.24603595584631">
        <ele>723.0</ele>
        <time>2014-05-10T09:34:14.000Z</time>
      </trkpt>
      <trkpt lon="7.371074985712767" lat="46.246025981381536">
        <ele>721.0</ele>
        <time>2014-05-10T09:34:18.000Z</time>
      </trkpt>
      <trkpt lon="7.370422957465053" lat="46.24577695503831">
        <ele>718.0</ele>
        <time>2014-05-10T09:34:23.000Z</time>
      </trkpt>
      <trkpt lon="7.369733965024352" lat="46.245486941188574">
        <ele>715.4000244140625</ele>
        <time>2014-05-10T09:34:29.000Z</time>
      </trkpt>
      <trkpt lon="7.369122924283147" lat="46.245212936773896">
        <ele>713.4000244140625</ele>
        <time>2014-05-10T09:34:34.000Z</time>
      </trkpt>
      <trkpt lon="7.368600983172655" lat="46.244994923472404">
        <ele>712.0</ele>
        <time>2014-05-10T09:34:38.000Z</time>
      </trkpt>
      <trkpt lon="7.3679909482598305" lat="46.244905991479754">
        <ele>708.2000122070312</ele>
        <time>2014-05-10T09:34:42.000Z</time>
      </trkpt>
      <trkpt lon="7.367501948028803" lat="46.24500095844269">
        <ele>705.0</ele>
        <time>2014-05-10T09:34:45.000Z</time>
      </trkpt>
      <trkpt lon="7.367062987759709" lat="46.245060972869396">
        <ele>701.2000122070312</ele>
        <time>2014-05-10T09:34:48.000Z</time>
      </trkpt>
      <trkpt lon="7.366890991106629" lat="46.244974974542856">
        <ele>698.2000122070312</ele>
        <time>2014-05-10T09:34:50.000Z</time>
      </trkpt>
      <trkpt lon="7.366852937266231" lat="46.24492292292416">
        <ele>696.7999877929688</ele>
        <time>2014-05-10T09:34:51.000Z</time>
      </trkpt>
      <trkpt lon="7.366760987788439" lat="46.24479694291949">
        <ele>691.7999877929688</ele>
        <time>2014-05-10T09:34:55.000Z</time>
      </trkpt>
      <trkpt lon="7.366210967302322" lat="46.245083939284086">
        <ele>691.0</ele>
        <time>2014-05-10T09:34:56.000Z</time>
      </trkpt>
      <trkpt lon="7.3659199476242065" lat="46.24487799592316">
        <ele>685.5999755859375</ele>
        <time>2014-05-10T09:35:00.000Z</time>
      </trkpt>
      <trkpt lon="7.3656669817864895" lat="46.24480599537492">
        <ele>683.4000244140625</ele>
        <time>2014-05-10T09:35:02.000Z</time>
      </trkpt>
      <trkpt lon="7.365462966263294" lat="46.24461899511516">
        <ele>680.0</ele>
        <time>2014-05-10T09:35:05.000Z</time>
      </trkpt>
      <trkpt lon="7.365383924916387" lat="46.24440299347043">
        <ele>677.5999755859375</ele>
        <time>2014-05-10T09:35:07.000Z</time>
      </trkpt>
      <trkpt lon="7.3650809191167355" lat="46.24397995881736">
        <ele>672.2000122070312</ele>
        <time>2014-05-10T09:35:11.000Z</time>
      </trkpt>
      <trkpt lon="7.36478797160089" lat="46.243772925809026">
        <ele>668.5999755859375</ele>
        <time>2014-05-10T09:35:15.000Z</time>
      </trkpt>
      <trkpt lon="7.364727957174182" lat="46.24361199326813">
        <ele>666.7999877929688</ele>
        <time>2014-05-10T09:35:18.000Z</time>
      </trkpt>
      <trkpt lon="7.3646199982613325" lat="46.24353798106313">
        <ele>666.0</ele>
        <time>2014-05-10T09:35:20.000Z</time>
      </trkpt>
      <trkpt lon="7.364559983834624" lat="46.24353697523475">
        <ele>666.2000122070312</ele>
        <time>2014-05-10T09:35:26.000Z</time>
      </trkpt>
      <trkpt lon="7.364559983834624" lat="46.24353697523475">
        <ele>666.2000122070312</ele>
        <time>2014-05-10T09:35:27.000Z</time>
      </trkpt>
      <trkpt lon="7.36461597494781" lat="46.24353697523475">
        <ele>665.2000122070312</ele>
        <time>2014-05-10T09:35:41.000Z</time>
      </trkpt>
      <trkpt lon="7.364578926935792" lat="46.24403594993055">
        <ele>661.2000122070312</ele>
        <time>2014-05-10T09:35:46.000Z</time>
      </trkpt>
      <trkpt lon="7.36465897411108" lat="46.24429092742503">
        <ele>658.5999755859375</ele>
        <time>2014-05-10T09:35:49.000Z</time>
      </trkpt>
      <trkpt lon="7.364132925868034" lat="46.24475394375622">
        <ele>657.0</ele>
        <time>2014-05-10T09:35:52.000Z</time>
      </trkpt>
      <trkpt lon="7.36455193720758" lat="46.244587982073426">
        <ele>655.4000244140625</ele>
        <time>2014-05-10T09:35:54.000Z</time>
      </trkpt>
      <trkpt lon="7.36403695307672" lat="46.24454598873854">
        <ele>654.5999755859375</ele>
        <time>2014-05-10T09:35:56.000Z</time>
      </trkpt>
      <trkpt lon="7.364417994394898" lat="46.24439695850015">
        <ele>654.0</ele>
        <time>2014-05-10T09:35:57.000Z</time>
      </trkpt>
      <trkpt lon="7.36414197832346" lat="46.244025975465775">
        <ele>650.0</ele>
        <time>2014-05-10T09:36:02.000Z</time>
      </trkpt>
      <trkpt lon="7.363789938390255" lat="46.243515936657786">
        <ele>644.5999755859375</ele>
        <time>2014-05-10T09:36:07.000Z</time>
      </trkpt>
      <trkpt lon="7.363747945055366" lat="46.243405966088176">
        <ele>643.7999877929688</ele>
        <time>2014-05-10T09:36:08.000Z</time>
      </trkpt>
      <trkpt lon="7.3636669758707285" lat="46.243211925029755">
        <ele>642.5999755859375</ele>
        <time>2014-05-10T09:36:10.000Z</time>
      </trkpt>
      <trkpt lon="7.363564968109131" lat="46.24310798943043">
        <ele>641.4000244140625</ele>
        <time>2014-05-10T09:36:13.000Z</time>
      </trkpt>
      <trkpt lon="7.363507971167564" lat="46.24308896251023">
        <ele>640.7999877929688</ele>
        <time>2014-05-10T09:36:15.000Z</time>
      </trkpt>
      <trkpt lon="7.36345793120563" lat="46.243085945025086">
        <ele>640.0</ele>
        <time>2014-05-10T09:36:19.000Z</time>
      </trkpt>
      <trkpt lon="7.363495985046029" lat="46.24304797500372">
        <ele>639.0</ele>
        <time>2014-05-10T09:36:22.000Z</time>
      </trkpt>
      <trkpt lon="7.363554993644357" lat="46.24298896640539">
        <ele>637.7999877929688</ele>
        <time>2014-05-10T09:36:25.000Z</time>
      </trkpt>
      <trkpt lon="7.363846935331821" lat="46.24280699528754">
        <ele>634.5999755859375</ele>
        <time>2014-05-10T09:36:30.000Z</time>
      </trkpt>
      <trkpt lon="7.363922959193587" lat="46.24270096421242">
        <ele>633.7999877929688</ele>
        <time>2014-05-10T09:36:34.000Z</time>
      </trkpt>
      <trkpt lon="7.363944919779897" lat="46.24266995117068">
        <ele>633.5999755859375</ele>
        <time>2014-05-10T09:36:36.000Z</time>
      </trkpt>
      <trkpt lon="7.3635009303689" lat="46.243085945025086">
        <ele>634.0</ele>
        <time>2014-05-10T09:36:41.000Z</time>
      </trkpt>
      <trkpt lon="7.363928994163871" lat="46.242691995576024">
        <ele>634.0</ele>
        <time>2014-05-10T09:36:45.000Z</time>
      </trkpt>
      <trkpt lon="7.363872919231653" lat="46.24276994727552">
        <ele>634.5999755859375</ele>
        <time>2014-05-10T09:36:48.000Z</time>
      </trkpt>
      <trkpt lon="7.363611990585923" lat="46.24296993948519">
        <ele>637.2000122070312</ele>
        <time>2014-05-10T09:36:55.000Z</time>
      </trkpt>
      <trkpt lon="7.3635179456323385" lat="46.24302593059838">
        <ele>638.4000244140625</ele>
        <time>2014-05-10T09:36:58.000Z</time>
      </trkpt>
      <trkpt lon="7.36345793120563" lat="46.243085945025086">
        <ele>639.0</ele>
        <time>2014-05-10T09:37:04.000Z</time>
      </trkpt>
      <trkpt lon="7.363441921770573" lat="46.24313799664378">
        <ele>637.4000244140625</ele>
        <time>2014-05-10T09:37:07.000Z</time>
      </trkpt>
      <trkpt lon="7.3632419295609" lat="46.243036994710565">
        <ele>636.4000244140625</ele>
        <time>2014-05-10T09:37:10.000Z</time>
      </trkpt>
      <trkpt lon="7.3630649875849485" lat="46.24297899194062">
        <ele>633.4000244140625</ele>
        <time>2014-05-10T09:37:13.000Z</time>
      </trkpt>
      <trkpt lon="7.362906988710165" lat="46.24286198057234">
        <ele>629.2000122070312</ele>
        <time>2014-05-10T09:37:16.000Z</time>
      </trkpt>
      <trkpt lon="7.3628659173846245" lat="46.24279995448887">
        <ele>628.2000122070312</ele>
        <time>2014-05-10T09:37:17.000Z</time>
      </trkpt>
      <trkpt lon="7.3627339862287045" lat="46.24246895313263">
        <ele>622.2000122070312</ele>
        <time>2014-05-10T09:37:23.000Z</time>
      </trkpt>
      <trkpt lon="7.362721916288137" lat="46.24242595396936">
        <ele>621.4000244140625</ele>
        <time>2014-05-10T09:37:26.000Z</time>
      </trkpt>
      <trkpt lon="7.362716970965266" lat="46.24240499921143">
        <ele>621.7999877929688</ele>
        <time>2014-05-10T09:37:30.000Z</time>
      </trkpt>
      <trkpt lon="7.362689981237054" lat="46.242309948429465">
        <ele>619.5999755859375</ele>
        <time>2014-05-10T09:37:40.000Z</time>
      </trkpt>
      <trkpt lon="7.362684952095151" lat="46.242290921509266">
        <ele>618.7999877929688</ele>
        <time>2014-05-10T09:37:43.000Z</time>
      </trkpt>
      <trkpt lon="7.362651927396655" lat="46.24220995232463">
        <ele>616.7999877929688</ele>
        <time>2014-05-10T09:37:48.000Z</time>
      </trkpt>
      <trkpt lon="7.362638935446739" lat="46.24218296259642">
        <ele>616.2000122070312</ele>
        <time>2014-05-10T09:37:50.000Z</time>
      </trkpt>
      <trkpt lon="7.362546985968947" lat="46.24211993068457">
        <ele>614.0</ele>
        <time>2014-05-10T09:37:53.000Z</time>
      </trkpt>
      <trkpt lon="7.3623849637806416" lat="46.24200493097305">
        <ele>610.7999877929688</ele>
        <time>2014-05-10T09:37:57.000Z</time>
      </trkpt>
      <trkpt lon="7.362355962395668" lat="46.241983976215124">
        <ele>609.2000122070312</ele>
        <time>2014-05-10T09:37:59.000Z</time>
      </trkpt>
      <trkpt lon="7.362196957692504" lat="46.24188398011029">
        <ele>606.2000122070312</ele>
        <time>2014-05-10T09:38:03.000Z</time>
      </trkpt>
      <trkpt lon="7.362170973792672" lat="46.24186897650361">
        <ele>605.5999755859375</ele>
        <time>2014-05-10T09:38:04.000Z</time>
      </trkpt>
      <trkpt lon="7.36197492107749" lat="46.241727992892265">
        <ele>601.2000122070312</ele>
        <time>2014-05-10T09:38:09.000Z</time>
      </trkpt>
      <trkpt lon="7.361907949671149" lat="46.24166999012232">
        <ele>599.0</ele>
        <time>2014-05-10T09:38:13.000Z</time>
      </trkpt>
      <trkpt lon="7.361907949671149" lat="46.24166999012232">
        <ele>597.5999755859375</ele>
        <time>2014-05-10T09:38:16.000Z</time>
      </trkpt>
      <trkpt lon="7.361834943294525" lat="46.24166999012232">
        <ele>593.7999877929688</ele>
        <time>2014-05-10T09:38:24.000Z</time>
      </trkpt>
      <trkpt lon="7.361834943294525" lat="46.24166999012232">
        <ele>593.2000122070312</ele>
        <time>2014-05-10T09:38:26.000Z</time>
      </trkpt>
      <trkpt lon="7.3616319335997105" lat="46.241640988737345">
        <ele>590.4000244140625</ele>
        <time>2014-05-10T09:38:33.000Z</time>
      </trkpt>
      <trkpt lon="7.3619629349559546" lat="46.241576950997114">
        <ele>587.4000244140625</ele>
        <time>2014-05-10T09:38:36.000Z</time>
      </trkpt>
      <trkpt lon="7.361456919461489" lat="46.24148592352867">
        <ele>585.4000244140625</ele>
        <time>2014-05-10T09:38:38.000Z</time>
      </trkpt>
      <trkpt lon="7.361376956105232" lat="46.241319961845875">
        <ele>579.7999877929688</ele>
        <time>2014-05-10T09:38:43.000Z</time>
      </trkpt>
      <trkpt lon="7.361207976937294" lat="46.241104966029525">
        <ele>575.7999877929688</ele>
        <time>2014-05-10T09:38:49.000Z</time>
      </trkpt>
      <trkpt lon="7.361018965020776" lat="46.241018967702985">
        <ele>575.5999755859375</ele>
        <time>2014-05-10T09:38:54.000Z</time>
      </trkpt>
      <trkpt lon="7.360932966694236" lat="46.241060961037874">
        <ele>573.7999877929688</ele>
        <time>2014-05-10T09:38:58.000Z</time>
      </trkpt>
      <trkpt lon="7.360881920903921" lat="46.241080993786454">
        <ele>571.4000244140625</ele>
        <time>2014-05-10T09:39:01.000Z</time>
      </trkpt>
      <trkpt lon="7.360780918970704" lat="46.24111795797944">
        <ele>570.0</ele>
        <time>2014-05-10T09:39:06.000Z</time>
      </trkpt>
      <trkpt lon="7.360796928405762" lat="46.24111192300916">
        <ele>570.7999877929688</ele>
        <time>2014-05-10T09:39:09.000Z</time>
      </trkpt>
      <trkpt lon="7.360808998346329" lat="46.24111393466592">
        <ele>572.5999755859375</ele>
        <time>2014-05-10T09:39:14.000Z</time>
      </trkpt>
      <trkpt lon="7.360796928405762" lat="46.24111192300916">
        <ele>574.5999755859375</ele>
        <time>2014-05-10T09:40:21.000Z</time>
      </trkpt>
      <trkpt lon="7.360629960894585" lat="46.241172943264246">
        <ele>573.5999755859375</ele>
        <time>2014-05-10T09:40:26.000Z</time>
      </trkpt>
      <trkpt lon="7.360522923991084" lat="46.24112198129296">
        <ele>572.7999877929688</ele>
        <time>2014-05-10T09:40:29.000Z</time>
      </trkpt>
      <trkpt lon="7.360423933714628" lat="46.2409389205277">
        <ele>572.2000122070312</ele>
        <time>2014-05-10T09:40:33.000Z</time>
      </trkpt>
      <trkpt lon="7.3602329939603806" lat="46.24059593304992">
        <ele>571.4000244140625</ele>
        <time>2014-05-10T09:40:38.000Z</time>
      </trkpt>
      <trkpt lon="7.36003995873034" lat="46.24016594141722">
        <ele>567.5999755859375</ele>
        <time>2014-05-10T09:40:43.000Z</time>
      </trkpt>
      <trkpt lon="7.359878942370415" lat="46.23963595367968">
        <ele>562.7999877929688</ele>
        <time>2014-05-10T09:40:48.000Z</time>
      </trkpt>
      <trkpt lon="7.359845917671919" lat="46.23903991654515">
        <ele>559.2000122070312</ele>
        <time>2014-05-10T09:40:53.000Z</time>
      </trkpt>
      <trkpt lon="7.359866956248879" lat="46.23892491683364">
        <ele>558.5999755859375</ele>
        <time>2014-05-10T09:40:54.000Z</time>
      </trkpt>
      <trkpt lon="7.359920935705304" lat="46.238697934895754">
        <ele>556.4000244140625</ele>
        <time>2014-05-10T09:40:56.000Z</time>
      </trkpt>
      <trkpt lon="7.3601199220865965" lat="46.23800693079829">
        <ele>552.5999755859375</ele>
        <time>2014-05-10T09:41:02.000Z</time>
      </trkpt>
      <trkpt lon="7.360322931781411" lat="46.236891970038414">
        <ele>544.2000122070312</ele>
        <time>2014-05-10T09:41:11.000Z</time>
      </trkpt>
      <trkpt lon="7.360442960634828" lat="46.23627598397434">
        <ele>540.2000122070312</ele>
        <time>2014-05-10T09:41:16.000Z</time>
      </trkpt>
      <trkpt lon="7.360501969233155" lat="46.23597691766918">
        <ele>538.7999877929688</ele>
        <time>2014-05-10T09:41:19.000Z</time>
      </trkpt>
      <trkpt lon="7.360516972839832" lat="46.23590198345482">
        <ele>538.4000244140625</ele>
        <time>2014-05-10T09:41:20.000Z</time>
      </trkpt>
      <trkpt lon="7.360517978668213" lat="46.2358979601413">
        <ele>535.0</ele>
        <time>2014-05-10T09:41:25.000Z</time>
      </trkpt>
      <trkpt lon="7.360514961183071" lat="46.23519195243716">
        <ele>536.7999877929688</ele>
        <time>2014-05-10T09:41:30.000Z</time>
      </trkpt>
      <trkpt lon="7.360504986718297" lat="46.2351259868592">
        <ele>536.7999877929688</ele>
        <time>2014-05-10T09:41:31.000Z</time>
      </trkpt>
      <trkpt lon="7.360479924827814" lat="46.234959941357374">
        <ele>539.7999877929688</ele>
        <time>2014-05-10T09:41:35.000Z</time>
      </trkpt>
      <trkpt lon="7.360467938706279" lat="46.23487997800112">
        <ele>543.5999755859375</ele>
        <time>2014-05-10T09:41:39.000Z</time>
      </trkpt>
      <trkpt lon="7.360453940927982" lat="46.234680991619825">
        <ele>550.7999877929688</ele>
        <time>2014-05-10T09:41:45.000Z</time>
      </trkpt>
      <trkpt lon="7.360424939543009" lat="46.23451796360314">
        <ele>552.7999877929688</ele>
        <time>2014-05-10T09:41:50.000Z</time>
      </trkpt>
      <trkpt lon="7.360410941764712" lat="46.23443892225623">
        <ele>552.7999877929688</ele>
        <time>2014-05-10T09:41:52.000Z</time>
      </trkpt>
      <trkpt lon="7.360413959249854" lat="46.23430397361517">
        <ele>549.4000244140625</ele>
        <time>2014-05-10T09:41:56.000Z</time>
      </trkpt>
      <trkpt lon="7.360421922057867" lat="46.23418293893337">
        <ele>546.5999755859375</ele>
        <time>2014-05-10T09:41:59.000Z</time>
      </trkpt>
      <trkpt lon="7.360427957028151" lat="46.23409098945558">
        <ele>545.7999877929688</ele>
        <time>2014-05-10T09:42:01.000Z</time>
      </trkpt>
      <trkpt lon="7.360462993383408" lat="46.2338809389621">
        <ele>542.5999755859375</ele>
        <time>2014-05-10T09:42:05.000Z</time>
      </trkpt>
      <trkpt lon="7.360540945082903" lat="46.233478942885995">
        <ele>541.2000122070312</ele>
        <time>2014-05-10T09:42:12.000Z</time>
      </trkpt>
      <trkpt lon="7.360559972003102" lat="46.23335497453809">
        <ele>540.4000244140625</ele>
        <time>2014-05-10T09:42:14.000Z</time>
      </trkpt>
      <trkpt lon="7.3605649173259735" lat="46.23316294513643">
        <ele>539.7999877929688</ele>
        <time>2014-05-10T09:42:18.000Z</time>
      </trkpt>
      <trkpt lon="7.360725933685899" lat="46.233007963746786">
        <ele>539.0</ele>
        <time>2014-05-10T09:42:23.000Z</time>
      </trkpt>
      <trkpt lon="7.360849985852838" lat="46.23288399539888">
        <ele>535.7999877929688</ele>
        <time>2014-05-10T09:42:27.000Z</time>
      </trkpt>
      <trkpt lon="7.360955933108926" lat="46.23278793878853">
        <ele>537.0</ele>
        <time>2014-05-10T09:42:31.000Z</time>
      </trkpt>
      <trkpt lon="7.361059952527285" lat="46.23268995434046">
        <ele>540.5999755859375</ele>
        <time>2014-05-10T09:42:34.000Z</time>
      </trkpt>
      <trkpt lon="7.3611589428037405" lat="46.23269892297685">
        <ele>535.2000122070312</ele>
        <time>2014-05-10T09:42:39.000Z</time>
      </trkpt>
      <trkpt lon="7.361247958615422" lat="46.23274393379688">
        <ele>536.0</ele>
        <time>2014-05-10T09:42:43.000Z</time>
      </trkpt>
      <trkpt lon="7.36141593195498" lat="46.2327119987458">
        <ele>535.4000244140625</ele>
        <time>2014-05-10T09:42:44.000Z</time>
      </trkpt>
      <trkpt lon="7.3617529682815075" lat="46.232616947963834">
        <ele>533.5999755859375</ele>
        <time>2014-05-10T09:42:50.000Z</time>
      </trkpt>
      <trkpt lon="7.36184592358768" lat="46.23258098959923">
        <ele>531.4000244140625</ele>
        <time>2014-05-10T09:42:54.000Z</time>
      </trkpt>
      <trkpt lon="7.36184592358768" lat="46.23258098959923">
        <ele>531.7999877929688</ele>
        <time>2014-05-10T09:42:55.000Z</time>
      </trkpt>
      <trkpt lon="7.362007945775986" lat="46.2325029540807">
        <ele>544.5999755859375</ele>
        <time>2014-05-10T09:44:36.000Z</time>
      </trkpt>
      <trkpt lon="7.362251942977309" lat="46.23241293244064">
        <ele>544.4000244140625</ele>
        <time>2014-05-10T09:44:44.000Z</time>
      </trkpt>
      <trkpt lon="7.362443972378969" lat="46.232385942712426">
        <ele>539.0</ele>
        <time>2014-05-10T09:44:49.000Z</time>
      </trkpt>
      <trkpt lon="7.362600965425372" lat="46.232337998226285">
        <ele>532.5999755859375</ele>
        <time>2014-05-10T09:44:54.000Z</time>
      </trkpt>
      <trkpt lon="7.362741949036717" lat="46.23228494077921">
        <ele>533.4000244140625</ele>
        <time>2014-05-10T09:44:59.000Z</time>
      </trkpt>
      <trkpt lon="7.3629359900951385" lat="46.232211934402585">
        <ele>531.7999877929688</ele>
        <time>2014-05-10T09:45:03.000Z</time>
      </trkpt>
      <trkpt lon="7.363076973706484" lat="46.23215292580426">
        <ele>529.0</ele>
        <time>2014-05-10T09:45:06.000Z</time>
      </trkpt>
      <trkpt lon="7.36313296481967" lat="46.232125936076045">
        <ele>528.2000122070312</ele>
        <time>2014-05-10T09:45:07.000Z</time>
      </trkpt>
      <trkpt lon="7.363309990614653" lat="46.232041949406266">
        <ele>527.2000122070312</ele>
        <time>2014-05-10T09:45:12.000Z</time>
      </trkpt>
      <trkpt lon="7.36332499422133" lat="46.232034992426634">
        <ele>526.5999755859375</ele>
        <time>2014-05-10T09:45:13.000Z</time>
      </trkpt>
      <trkpt lon="7.363432953134179" lat="46.23198294080794">
        <ele>524.0</ele>
        <time>2014-05-10T09:45:20.000Z</time>
      </trkpt>
      <trkpt lon="7.363615930080414" lat="46.23200498521328">
        <ele>523.0</ele>
        <time>2014-05-10T09:45:23.000Z</time>
      </trkpt>
      <trkpt lon="7.363446950912476" lat="46.23196894302964">
        <ele>521.7999877929688</ele>
        <time>2014-05-10T09:45:29.000Z</time>
      </trkpt>
      <trkpt lon="7.363329939544201" lat="46.23193994164467">
        <ele>521.7999877929688</ele>
        <time>2014-05-10T09:45:34.000Z</time>
      </trkpt>
      <trkpt lon="7.363226925954223" lat="46.23191496357322">
        <ele>520.5999755859375</ele>
        <time>2014-05-10T09:45:38.000Z</time>
      </trkpt>
      <trkpt lon="7.363263973966241" lat="46.23206298798323">
        <ele>519.2000122070312</ele>
        <time>2014-05-10T09:45:42.000Z</time>
      </trkpt>
      <trkpt lon="7.36375791952014" lat="46.232035998255014">
        <ele>521.2000122070312</ele>
        <time>2014-05-10T09:45:47.000Z</time>
      </trkpt>
      <trkpt lon="7.363185938447714" lat="46.23190498910844">
        <ele>521.4000244140625</ele>
        <time>2014-05-10T09:45:51.000Z</time>
      </trkpt>
      <trkpt lon="7.363297920674086" lat="46.23204798437655">
        <ele>521.7999877929688</ele>
        <time>2014-05-10T09:45:55.000Z</time>
      </trkpt>
      <trkpt lon="7.36330496147275" lat="46.23204396106303">
        <ele>521.2000122070312</ele>
        <time>2014-05-10T09:45:58.000Z</time>
      </trkpt>
      <trkpt lon="7.36330496147275" lat="46.23204396106303">
        <ele>522.0</ele>
        <time>2014-05-10T09:46:09.000Z</time>
      </trkpt>
      <trkpt lon="7.363425996154547" lat="46.23198595829308">
        <ele>523.0</ele>
        <time>2014-05-10T09:46:27.000Z</time>
      </trkpt>
      <trkpt lon="7.36345793120563" lat="46.2319709546864">
        <ele>520.2000122070312</ele>
        <time>2014-05-10T09:46:32.000Z</time>
      </trkpt>
      <trkpt lon="7.36345793120563" lat="46.2319709546864">
        <ele>519.5999755859375</ele>
        <time>2014-05-10T09:46:33.000Z</time>
      </trkpt>
      <trkpt lon="7.363925976678729" lat="46.23207597993314">
        <ele>518.2000122070312</ele>
        <time>2014-05-10T09:46:38.000Z</time>
      </trkpt>
      <trkpt lon="7.364490916952491" lat="46.23221696354449">
        <ele>517.5999755859375</ele>
        <time>2014-05-10T09:46:44.000Z</time>
      </trkpt>
      <trkpt lon="7.364695938304067" lat="46.23227194882929">
        <ele>515.2000122070312</ele>
        <time>2014-05-10T09:46:46.000Z</time>
      </trkpt>
      <trkpt lon="7.365273954346776" lat="46.232360964640975">
        <ele>510.6000061035156</ele>
        <time>2014-05-10T09:46:51.000Z</time>
      </trkpt>
      <trkpt lon="7.365909973159432" lat="46.2323959171772">
        <ele>508.0</ele>
        <time>2014-05-10T09:46:56.000Z</time>
      </trkpt>
      <trkpt lon="7.366293948143721" lat="46.23241796158254">
        <ele>506.20001220703125</ele>
        <time>2014-05-10T09:46:59.000Z</time>
      </trkpt>
      <trkpt lon="7.366956956684589" lat="46.23245391994715">
        <ele>503.0</ele>
        <time>2014-05-10T09:47:04.000Z</time>
      </trkpt>
      <trkpt lon="7.3674319591373205" lat="46.23253799043596">
        <ele>500.79998779296875</ele>
        <time>2014-05-10T09:47:08.000Z</time>
      </trkpt>
      <trkpt lon="7.367960941046476" lat="46.232685931026936">
        <ele>499.79998779296875</ele>
        <time>2014-05-10T09:47:13.000Z</time>
      </trkpt>
      <trkpt lon="7.36829093657434" lat="46.23284392990172">
        <ele>499.20001220703125</ele>
        <time>2014-05-10T09:47:17.000Z</time>
      </trkpt>
      <trkpt lon="7.368567958474159" lat="46.23310494236648">
        <ele>496.6000061035156</ele>
        <time>2014-05-10T09:47:22.000Z</time>
      </trkpt>
      <trkpt lon="7.368659991770983" lat="46.233222959563136">
        <ele>497.0</ele>
        <time>2014-05-10T09:47:24.000Z</time>
      </trkpt>
      <trkpt lon="7.368819918483496" lat="46.23345999978483">
        <ele>497.0</ele>
        <time>2014-05-10T09:47:28.000Z</time>
      </trkpt>
      <trkpt lon="7.369069950655103" lat="46.233651945367455">
        <ele>497.3999938964844</ele>
        <time>2014-05-10T09:47:31.000Z</time>
      </trkpt>
      <trkpt lon="7.369283940643072" lat="46.23363995924592">
        <ele>497.3999938964844</ele>
        <time>2014-05-10T09:47:33.000Z</time>
      </trkpt>
      <trkpt lon="7.369315959513187" lat="46.23362394981086">
        <ele>497.79998779296875</ele>
        <time>2014-05-10T09:47:36.000Z</time>
      </trkpt>
      <trkpt lon="7.369364993646741" lat="46.2334319204092">
        <ele>497.79998779296875</ele>
        <time>2014-05-10T09:47:37.000Z</time>
      </trkpt>
      <trkpt lon="7.369246976450086" lat="46.23322798870504">
        <ele>498.0</ele>
        <time>2014-05-10T09:47:41.000Z</time>
      </trkpt>
      <trkpt lon="7.369443951174617" lat="46.23347299173474">
        <ele>497.79998779296875</ele>
        <time>2014-05-10T09:47:42.000Z</time>
      </trkpt>
      <trkpt lon="7.369165923446417" lat="46.23308692127466">
        <ele>496.20001220703125</ele>
        <time>2014-05-10T09:47:46.000Z</time>
      </trkpt>
      <trkpt lon="7.36906198784709" lat="46.232942920178175">
        <ele>495.3999938964844</ele>
        <time>2014-05-10T09:47:50.000Z</time>
      </trkpt>
      <trkpt lon="7.369010942056775" lat="46.23287997208536">
        <ele>495.0</ele>
        <time>2014-05-10T09:47:52.000Z</time>
      </trkpt>
      <trkpt lon="7.369212945923209" lat="46.23264494352043">
        <ele>495.3999938964844</ele>
        <time>2014-05-10T09:47:56.000Z</time>
      </trkpt>
      <trkpt lon="7.369271954521537" lat="46.232636980712414">
        <ele>496.79998779296875</ele>
        <time>2014-05-10T09:47:57.000Z</time>
      </trkpt>
      <trkpt lon="7.369513940066099" lat="46.23260295018554">
        <ele>499.0</ele>
        <time>2014-05-10T09:48:02.000Z</time>
      </trkpt>
      <trkpt lon="7.3697989247739315" lat="46.232728930190206">
        <ele>498.79998779296875</ele>
        <time>2014-05-10T09:48:07.000Z</time>
      </trkpt>
      <trkpt lon="7.369888946413994" lat="46.23295096680522">
        <ele>500.79998779296875</ele>
        <time>2014-05-10T09:48:12.000Z</time>
      </trkpt>
      <trkpt lon="7.369914930313826" lat="46.2330159265548">
        <ele>500.3999938964844</ele>
        <time>2014-05-10T09:48:16.000Z</time>
      </trkpt>
      <trkpt lon="7.369820969179273" lat="46.23278399929404">
        <ele>500.3999938964844</ele>
        <time>2014-05-10T09:48:23.000Z</time>
      </trkpt>
      <trkpt lon="7.369776964187622" lat="46.23266799375415">
        <ele>499.3999938964844</ele>
        <time>2014-05-10T09:48:26.000Z</time>
      </trkpt>
      <trkpt lon="7.369746956974268" lat="46.232577972114086">
        <ele>498.20001220703125</ele>
        <time>2014-05-10T09:48:30.000Z</time>
      </trkpt>
      <trkpt lon="7.3696619644761086" lat="46.23228896409273">
        <ele>497.79998779296875</ele>
        <time>2014-05-10T09:48:37.000Z</time>
      </trkpt>
      <trkpt lon="7.369563980028033" lat="46.23189199715853">
        <ele>498.0</ele>
        <time>2014-05-10T09:48:44.000Z</time>
      </trkpt>
      <trkpt lon="7.369476975873113" lat="46.231456976383924">
        <ele>498.6000061035156</ele>
        <time>2014-05-10T09:48:52.000Z</time>
      </trkpt>
      <trkpt lon="7.369390977546573" lat="46.231029918417335">
        <ele>499.20001220703125</ele>
        <time>2014-05-10T09:49:01.000Z</time>
      </trkpt>
      <trkpt lon="7.369339931756258" lat="46.23065499588847">
        <ele>499.3999938964844</ele>
        <time>2014-05-10T09:49:09.000Z</time>
      </trkpt>
      <trkpt lon="7.369336998090148" lat="46.23061099089682">
        <ele>499.6000061035156</ele>
        <time>2014-05-10T09:49:10.000Z</time>
      </trkpt>
      <trkpt lon="7.369318976998329" lat="46.23016498982906">
        <ele>499.79998779296875</ele>
        <time>2014-05-10T09:49:19.000Z</time>
      </trkpt>
      <trkpt lon="7.369293998926878" lat="46.229805992916226">
        <ele>500.20001220703125</ele>
        <time>2014-05-10T09:49:25.000Z</time>
      </trkpt>
      <trkpt lon="7.369308918714523" lat="46.22952897101641">
        <ele>499.79998779296875</ele>
        <time>2014-05-10T09:49:30.000Z</time>
      </trkpt>
      <trkpt lon="7.369186962023377" lat="46.22928095050156">
        <ele>499.20001220703125</ele>
        <time>2014-05-10T09:49:35.000Z</time>
      </trkpt>
      <trkpt lon="7.369031980633736" lat="46.22900694608688">
        <ele>498.0</ele>
        <time>2014-05-10T09:49:41.000Z</time>
      </trkpt>
      <trkpt lon="7.368961991742253" lat="46.22888892889023">
        <ele>497.79998779296875</ele>
        <time>2014-05-10T09:49:45.000Z</time>
      </trkpt>
      <trkpt lon="7.368946988135576" lat="46.228861939162016">
        <ele>498.20001220703125</ele>
        <time>2014-05-10T09:49:47.000Z</time>
      </trkpt>
      <trkpt lon="7.368921926245093" lat="46.22881994582713">
        <ele>497.3999938964844</ele>
        <time>2014-05-10T09:49:51.000Z</time>
      </trkpt>
      <trkpt lon="7.368907928466797" lat="46.228795973584056">
        <ele>497.0</ele>
        <time>2014-05-10T09:49:54.000Z</time>
      </trkpt>
      <trkpt lon="7.368790917098522" lat="46.228576954454184">
        <ele>496.6000061035156</ele>
        <time>2014-05-10T09:49:57.000Z</time>
      </trkpt>
      <trkpt lon="7.369176987558603" lat="46.22861794196069">
        <ele>496.6000061035156</ele>
        <time>2014-05-10T09:50:01.000Z</time>
      </trkpt>
      <trkpt lon="7.369285952299833" lat="46.22858592309058">
        <ele>497.0</ele>
        <time>2014-05-10T09:50:03.000Z</time>
      </trkpt>
      <trkpt lon="7.369014965370297" lat="46.228666976094246">
        <ele>497.0</ele>
        <time>2014-05-10T09:50:04.000Z</time>
      </trkpt>
      <trkpt lon="7.368500987067819" lat="46.22820697724819">
        <ele>497.3999938964844</ele>
        <time>2014-05-10T09:50:11.000Z</time>
      </trkpt>
      <trkpt lon="7.368293954059482" lat="46.2279889639467">
        <ele>494.79998779296875</ele>
        <time>2014-05-10T09:50:18.000Z</time>
      </trkpt>
      <trkpt lon="7.36824793741107" lat="46.227483954280615">
        <ele>493.0</ele>
        <time>2014-05-10T09:50:25.000Z</time>
      </trkpt>
      <trkpt lon="7.3677749466151" lat="46.227073995396495">
        <ele>492.20001220703125</ele>
        <time>2014-05-10T09:50:33.000Z</time>
      </trkpt>
      <trkpt lon="7.367261974141002" lat="46.22663595713675">
        <ele>491.79998779296875</ele>
        <time>2014-05-10T09:50:41.000Z</time>
      </trkpt>
      <trkpt lon="7.366938935592771" lat="46.22636094689369">
        <ele>492.0</ele>
        <time>2014-05-10T09:50:46.000Z</time>
      </trkpt>
      <trkpt lon="7.366572981700301" lat="46.22604897245765">
        <ele>491.79998779296875</ele>
        <time>2014-05-10T09:50:52.000Z</time>
      </trkpt>
      <trkpt lon="7.366015920415521" lat="46.22562199831009">
        <ele>492.79998779296875</ele>
        <time>2014-05-10T09:51:01.000Z</time>
      </trkpt>
      <trkpt lon="7.365490961819887" lat="46.225246991962194">
        <ele>492.0</ele>
        <time>2014-05-10T09:51:09.000Z</time>
      </trkpt>
      <trkpt lon="7.364716976881027" lat="46.22476092539728">
        <ele>491.79998779296875</ele>
        <time>2014-05-10T09:51:20.000Z</time>
      </trkpt>
      <trkpt lon="7.36431397497654" lat="46.22450896538794">
        <ele>492.6000061035156</ele>
        <time>2014-05-10T09:51:26.000Z</time>
      </trkpt>
      <trkpt lon="7.3639679700136185" lat="46.224265974015">
        <ele>490.79998779296875</ele>
        <time>2014-05-10T09:51:32.000Z</time>
      </trkpt>
      <trkpt lon="7.36366898752749" lat="46.224021976813674">
        <ele>489.0</ele>
        <time>2014-05-10T09:51:37.000Z</time>
      </trkpt>
      <trkpt lon="7.363541917875409" lat="46.223918963223696">
        <ele>488.6000061035156</ele>
        <time>2014-05-10T09:51:39.000Z</time>
      </trkpt>
      <trkpt lon="7.363091977313161" lat="46.22388493269682">
        <ele>489.0</ele>
        <time>2014-05-10T09:51:44.000Z</time>
      </trkpt>
      <trkpt lon="7.363030957058072" lat="46.22351495549083">
        <ele>489.6000061035156</ele>
        <time>2014-05-10T09:51:48.000Z</time>
      </trkpt>
      <trkpt lon="7.3627719562500715" lat="46.223317980766296">
        <ele>490.20001220703125</ele>
        <time>2014-05-10T09:51:53.000Z</time>
      </trkpt>
      <trkpt lon="7.36261798068881" lat="46.22320096939802">
        <ele>490.79998779296875</ele>
        <time>2014-05-10T09:51:56.000Z</time>
      </trkpt>
      <trkpt lon="7.362304916605353" lat="46.22297792695463">
        <ele>490.3999938964844</ele>
        <time>2014-05-10T09:52:02.000Z</time>
      </trkpt>
      <trkpt lon="7.362029990181327" lat="46.222820933908224">
        <ele>489.79998779296875</ele>
        <time>2014-05-10T09:52:07.000Z</time>
      </trkpt>
      <trkpt lon="7.3619679640978575" lat="46.22278497554362">
        <ele>489.79998779296875</ele>
        <time>2014-05-10T09:52:08.000Z</time>
      </trkpt>
      <trkpt lon="7.361783981323242" lat="46.22267995029688">
        <ele>490.79998779296875</ele>
        <time>2014-05-10T09:52:12.000Z</time>
      </trkpt>
      <trkpt lon="7.361599998548627" lat="46.22261599637568">
        <ele>491.20001220703125</ele>
        <time>2014-05-10T09:52:17.000Z</time>
      </trkpt>
      <trkpt lon="7.361442921683192" lat="46.22256092727184">
        <ele>491.0</ele>
        <time>2014-05-10T09:52:20.000Z</time>
      </trkpt>
      <trkpt lon="7.360967919230461" lat="46.22205591760576">
        <ele>491.0</ele>
        <time>2014-05-10T09:52:27.000Z</time>
      </trkpt>
      <trkpt lon="7.360839927569032" lat="46.2217999342829">
        <ele>491.0</ele>
        <time>2014-05-10T09:52:34.000Z</time>
      </trkpt>
      <trkpt lon="7.360595930367708" lat="46.2216149456799">
        <ele>491.0</ele>
        <time>2014-05-10T09:52:40.000Z</time>
      </trkpt>
      <trkpt lon="7.360227964818478" lat="46.22136893682182">
        <ele>491.3999938964844</ele>
        <time>2014-05-10T09:52:48.000Z</time>
      </trkpt>
      <trkpt lon="7.359851952642202" lat="46.221167938783765">
        <ele>493.79998779296875</ele>
        <time>2014-05-10T09:52:56.000Z</time>
      </trkpt>
      <trkpt lon="7.359541989862919" lat="46.22101899236441">
        <ele>492.6000061035156</ele>
        <time>2014-05-10T09:53:02.000Z</time>
      </trkpt>
      <trkpt lon="7.359435958787799" lat="46.22096694074571">
        <ele>492.0</ele>
        <time>2014-05-10T09:53:04.000Z</time>
      </trkpt>
      <trkpt lon="7.35911694355309" lat="46.22076996602118">
        <ele>489.3999938964844</ele>
        <time>2014-05-10T09:53:09.000Z</time>
      </trkpt>
      <trkpt lon="7.358972942456603" lat="46.22066494077444">
        <ele>488.79998779296875</ele>
        <time>2014-05-10T09:53:12.000Z</time>
      </trkpt>
      <trkpt lon="7.358652921393514" lat="46.220460925251245">
        <ele>489.20001220703125</ele>
        <time>2014-05-10T09:53:18.000Z</time>
      </trkpt>
      <trkpt lon="7.358285961672664" lat="46.220283983275294">
        <ele>488.79998779296875</ele>
        <time>2014-05-10T09:53:25.000Z</time>
      </trkpt>
      <trkpt lon="7.358014974743128" lat="46.22016998939216">
        <ele>487.6000061035156</ele>
        <time>2014-05-10T09:53:29.000Z</time>
      </trkpt>
      <trkpt lon="7.3577809520065784" lat="46.220071921125054">
        <ele>487.6000061035156</ele>
        <time>2014-05-10T09:53:32.000Z</time>
      </trkpt>
      <trkpt lon="7.357503930106759" lat="46.21996899135411">
        <ele>486.79998779296875</ele>
        <time>2014-05-10T09:53:36.000Z</time>
      </trkpt>
      <trkpt lon="7.35722397454083" lat="46.21986698359251">
        <ele>488.20001220703125</ele>
        <time>2014-05-10T09:53:40.000Z</time>
      </trkpt>
      <trkpt lon="7.357038985937834" lat="46.21979598887265">
        <ele>489.79998779296875</ele>
        <time>2014-05-10T09:53:43.000Z</time>
      </trkpt>
      <trkpt lon="7.356749977916479" lat="46.219684928655624">
        <ele>492.20001220703125</ele>
        <time>2014-05-10T09:53:48.000Z</time>
      </trkpt>
      <trkpt lon="7.356620980426669" lat="46.2196359783411">
        <ele>491.79998779296875</ele>
        <time>2014-05-10T09:53:50.000Z</time>
      </trkpt>
      <trkpt lon="7.356163999065757" lat="46.21948393061757">
        <ele>489.20001220703125</ele>
        <time>2014-05-10T09:53:57.000Z</time>
      </trkpt>
      <trkpt lon="7.35563694499433" lat="46.219300953671336">
        <ele>490.3999938964844</ele>
        <time>2014-05-10T09:54:05.000Z</time>
      </trkpt>
      <trkpt lon="7.355209970846772" lat="46.219146978110075">
        <ele>489.20001220703125</ele>
        <time>2014-05-10T09:54:12.000Z</time>
      </trkpt>
      <trkpt lon="7.354801939800382" lat="46.218999959528446">
        <ele>489.79998779296875</ele>
        <time>2014-05-10T09:54:18.000Z</time>
      </trkpt>
      <trkpt lon="7.354522990062833" lat="46.21889493428171">
        <ele>489.6000061035156</ele>
        <time>2014-05-10T09:54:22.000Z</time>
      </trkpt>
      <trkpt lon="7.354383934289217" lat="46.21884296648204">
        <ele>488.3999938964844</ele>
        <time>2014-05-10T09:54:24.000Z</time>
      </trkpt>
      <trkpt lon="7.354193916544318" lat="46.21877197176218">
        <ele>488.20001220703125</ele>
        <time>2014-05-10T09:54:27.000Z</time>
      </trkpt>
      <trkpt lon="7.353757973760366" lat="46.218609949573874">
        <ele>489.6000061035156</ele>
        <time>2014-05-10T09:54:34.000Z</time>
      </trkpt>
      <trkpt lon="7.353563932701945" lat="46.218543983995914">
        <ele>489.20001220703125</ele>
        <time>2014-05-10T09:54:37.000Z</time>
      </trkpt>
      <trkpt lon="7.353105945512652" lat="46.21838799677789">
        <ele>488.0</ele>
        <time>2014-05-10T09:54:44.000Z</time>
      </trkpt>
      <trkpt lon="7.352530946955085" lat="46.21818892657757">
        <ele>493.3999938964844</ele>
        <time>2014-05-10T09:54:52.000Z</time>
      </trkpt>
      <trkpt lon="7.352535976096988" lat="46.217946941033006">
        <ele>493.0</ele>
        <time>2014-05-10T09:54:54.000Z</time>
      </trkpt>
      <trkpt lon="7.352201957255602" lat="46.217812998220325">
        <ele>492.0</ele>
        <time>2014-05-10T09:54:59.000Z</time>
      </trkpt>
      <trkpt lon="7.352142948657274" lat="46.2177899479866">
        <ele>492.0</ele>
        <time>2014-05-10T09:55:00.000Z</time>
      </trkpt>
      <trkpt lon="7.351765930652618" lat="46.21766195632517">
        <ele>492.3999938964844</ele>
        <time>2014-05-10T09:55:07.000Z</time>
      </trkpt>
      <trkpt lon="7.351543977856636" lat="46.21758995577693">
        <ele>491.79998779296875</ele>
        <time>2014-05-10T09:55:12.000Z</time>
      </trkpt>
      <trkpt lon="7.35148698091507" lat="46.21757092885673">
        <ele>489.0</ele>
        <time>2014-05-10T09:55:14.000Z</time>
      </trkpt>
      <trkpt lon="7.351351948454976" lat="46.21752692386508">
        <ele>487.3999938964844</ele>
        <time>2014-05-10T09:55:19.000Z</time>
      </trkpt>
      <trkpt lon="7.351441970095038" lat="46.21756799519062">
        <ele>486.20001220703125</ele>
        <time>2014-05-10T09:55:22.000Z</time>
      </trkpt>
      <trkpt lon="7.351352954283357" lat="46.217688946053386">
        <ele>486.6000061035156</ele>
        <time>2014-05-10T09:55:28.000Z</time>
      </trkpt>
      <trkpt lon="7.35114298760891" lat="46.21772498823702">
        <ele>488.3999938964844</ele>
        <time>2014-05-10T09:55:32.000Z</time>
      </trkpt>
      <trkpt lon="7.350875940173864" lat="46.217645946890116">
        <ele>487.6000061035156</ele>
        <time>2014-05-10T09:55:39.000Z</time>
      </trkpt>
      <trkpt lon="7.35056396573782" lat="46.21755592525005">
        <ele>488.20001220703125</ele>
        <time>2014-05-10T09:55:45.000Z</time>
      </trkpt>
      <trkpt lon="7.3502659890800714" lat="46.21746992692351">
        <ele>488.79998779296875</ele>
        <time>2014-05-10T09:55:50.000Z</time>
      </trkpt>
      <trkpt lon="7.349744969978929" lat="46.217321986332536">
        <ele>488.6000061035156</ele>
        <time>2014-05-10T09:55:58.000Z</time>
      </trkpt>
      <trkpt lon="7.349271979182959" lat="46.21718192473054">
        <ele>489.0</ele>
        <time>2014-05-10T09:56:05.000Z</time>
      </trkpt>
      <trkpt lon="7.348828995600343" lat="46.217040941119194">
        <ele>488.6000061035156</ele>
        <time>2014-05-10T09:56:12.000Z</time>
      </trkpt>
      <trkpt lon="7.348656998947263" lat="46.21698696166277">
        <ele>488.20001220703125</ele>
        <time>2014-05-10T09:56:15.000Z</time>
      </trkpt>
      <trkpt lon="7.348458934575319" lat="46.21692895889282">
        <ele>489.20001220703125</ele>
        <time>2014-05-10T09:56:20.000Z</time>
      </trkpt>
      <trkpt lon="7.348052999004722" lat="46.216804990544915">
        <ele>488.3999938964844</ele>
        <time>2014-05-10T09:56:25.000Z</time>
      </trkpt>
      <trkpt lon="7.3477219976484776" lat="46.21670298278332">
        <ele>488.20001220703125</ele>
        <time>2014-05-10T09:56:30.000Z</time>
      </trkpt>
      <trkpt lon="7.347320923581719" lat="46.21657993644476">
        <ele>489.79998779296875</ele>
        <time>2014-05-10T09:56:36.000Z</time>
      </trkpt>
      <trkpt lon="7.347066951915622" lat="46.216502990573645">
        <ele>491.3999938964844</ele>
        <time>2014-05-10T09:56:40.000Z</time>
      </trkpt>
      <trkpt lon="7.3467539716511965" lat="46.21640592813492">
        <ele>491.6000061035156</ele>
        <time>2014-05-10T09:56:45.000Z</time>
      </trkpt>
      <trkpt lon="7.346630925312638" lat="46.21636896394193">
        <ele>491.0</ele>
        <time>2014-05-10T09:56:47.000Z</time>
      </trkpt>
      <trkpt lon="7.346455994993448" lat="46.21635898947716">
        <ele>490.3999938964844</ele>
        <time>2014-05-10T09:56:50.000Z</time>
      </trkpt>
      <trkpt lon="7.346181990578771" lat="46.216549929231405">
        <ele>489.6000061035156</ele>
        <time>2014-05-10T09:56:55.000Z</time>
      </trkpt>
      <trkpt lon="7.346086939796805" lat="46.21651799418032">
        <ele>488.79998779296875</ele>
        <time>2014-05-10T09:56:57.000Z</time>
      </trkpt>
      <trkpt lon="7.3457929864525795" lat="46.216419925913215">
        <ele>486.79998779296875</ele>
        <time>2014-05-10T09:57:03.000Z</time>
      </trkpt>
      <trkpt lon="7.345809917896986" lat="46.21618892066181">
        <ele>485.3999938964844</ele>
        <time>2014-05-10T09:57:07.000Z</time>
      </trkpt>
      <trkpt lon="7.345783933997154" lat="46.21615497395396">
        <ele>486.0</ele>
        <time>2014-05-10T09:57:08.000Z</time>
      </trkpt>
      <trkpt lon="7.345740934833884" lat="46.21611197479069">
        <ele>485.3999938964844</ele>
        <time>2014-05-10T09:57:10.000Z</time>
      </trkpt>
      <trkpt lon="7.345416974276304" lat="46.21600493788719">
        <ele>487.0</ele>
        <time>2014-05-10T09:57:16.000Z</time>
      </trkpt>
      <trkpt lon="7.345032999292016" lat="46.215856997296214">
        <ele>487.20001220703125</ele>
        <time>2014-05-10T09:57:23.000Z</time>
      </trkpt>
      <trkpt lon="7.344656987115741" lat="46.215709978714585">
        <ele>488.0</ele>
        <time>2014-05-10T09:57:29.000Z</time>
      </trkpt>
      <trkpt lon="7.344286926090717" lat="46.21556497178972">
        <ele>487.6000061035156</ele>
        <time>2014-05-10T09:57:35.000Z</time>
      </trkpt>
      <trkpt lon="7.343910997733474" lat="46.21541795320809">
        <ele>487.79998779296875</ele>
        <time>2014-05-10T09:57:41.000Z</time>
      </trkpt>
      <trkpt lon="7.343624923378229" lat="46.21530597098172">
        <ele>490.3999938964844</ele>
        <time>2014-05-10T09:57:46.000Z</time>
      </trkpt>
      <trkpt lon="7.3434369172900915" lat="46.21523296460509">
        <ele>490.0</ele>
        <time>2014-05-10T09:57:50.000Z</time>
      </trkpt>
      <trkpt lon="7.34338796697557" lat="46.215213937684894">
        <ele>490.20001220703125</ele>
        <time>2014-05-10T09:57:51.000Z</time>
      </trkpt>
      <trkpt lon="7.343019917607307" lat="46.21506993658841">
        <ele>487.0</ele>
        <time>2014-05-10T09:57:57.000Z</time>
      </trkpt>
      <trkpt lon="7.342857979238033" lat="46.21500698849559">
        <ele>484.79998779296875</ele>
        <time>2014-05-10T09:58:00.000Z</time>
      </trkpt>
      <trkpt lon="7.342737950384617" lat="46.214957954362035">
        <ele>483.0</ele>
        <time>2014-05-10T09:58:02.000Z</time>
      </trkpt>
      <trkpt lon="7.342294966802001" lat="46.21477698907256">
        <ele>482.79998779296875</ele>
        <time>2014-05-10T09:58:08.000Z</time>
      </trkpt>
      <trkpt lon="7.3416919726878405" lat="46.21453098021448">
        <ele>484.3999938964844</ele>
        <time>2014-05-10T09:58:16.000Z</time>
      </trkpt>
      <trkpt lon="7.341268938034773" lat="46.2143589835614">
        <ele>486.20001220703125</ele>
        <time>2014-05-10T09:58:22.000Z</time>
      </trkpt>
      <trkpt lon="7.341195931658149" lat="46.21432897634804">
        <ele>487.0</ele>
        <time>2014-05-10T09:58:23.000Z</time>
      </trkpt>
      <trkpt lon="7.340920921415091" lat="46.21421397663653">
        <ele>489.6000061035156</ele>
        <time>2014-05-10T09:58:27.000Z</time>
      </trkpt>
      <trkpt lon="7.340650940313935" lat="46.21410199441016">
        <ele>491.0</ele>
        <time>2014-05-10T09:58:31.000Z</time>
      </trkpt>
      <trkpt lon="7.3403869941830635" lat="46.213991940021515">
        <ele>491.6000061035156</ele>
        <time>2014-05-10T09:58:35.000Z</time>
      </trkpt>
      <trkpt lon="7.339910985901952" lat="46.21379295364022">
        <ele>489.20001220703125</ele>
        <time>2014-05-10T09:58:42.000Z</time>
      </trkpt>
      <trkpt lon="7.339439922943711" lat="46.213625986129045">
        <ele>487.3999938964844</ele>
        <time>2014-05-10T09:58:48.000Z</time>
      </trkpt>
      <trkpt lon="7.338758977130055" lat="46.21333697810769">
        <ele>488.79998779296875</ele>
        <time>2014-05-10T09:58:57.000Z</time>
      </trkpt>
      <trkpt lon="7.338225971907377" lat="46.21312097646296">
        <ele>489.3999938964844</ele>
        <time>2014-05-10T09:59:05.000Z</time>
      </trkpt>
      <trkpt lon="7.337679974734783" lat="46.21291193179786">
        <ele>489.3999938964844</ele>
        <time>2014-05-10T09:59:13.000Z</time>
      </trkpt>
      <trkpt lon="7.3371329717338085" lat="46.212699953466654">
        <ele>489.20001220703125</ele>
        <time>2014-05-10T09:59:21.000Z</time>
      </trkpt>
      <trkpt lon="7.336648916825652" lat="46.212508929893374">
        <ele>489.0</ele>
        <time>2014-05-10T09:59:28.000Z</time>
      </trkpt>
      <trkpt lon="7.336223954334855" lat="46.21234095655382">
        <ele>489.0</ele>
        <time>2014-05-10T09:59:34.000Z</time>
      </trkpt>
      <trkpt lon="7.335786921903491" lat="46.21216895990074">
        <ele>487.6000061035156</ele>
        <time>2014-05-10T09:59:40.000Z</time>
      </trkpt>
      <trkpt lon="7.33543798327446" lat="46.21203099377453">
        <ele>486.0</ele>
        <time>2014-05-10T09:59:45.000Z</time>
      </trkpt>
      <trkpt lon="7.334880921989679" lat="46.21181096881628">
        <ele>485.6000061035156</ele>
        <time>2014-05-10T09:59:53.000Z</time>
      </trkpt>
      <trkpt lon="7.334520919248462" lat="46.21167794801295">
        <ele>485.20001220703125</ele>
        <time>2014-05-10T09:59:58.000Z</time>
      </trkpt>
      <trkpt lon="7.333824969828129" lat="46.21147192083299">
        <ele>483.3999938964844</ele>
        <time>2014-05-10T10:00:07.000Z</time>
      </trkpt>
      <trkpt lon="7.333506960421801" lat="46.21137896552682">
        <ele>482.79998779296875</ele>
        <time>2014-05-10T10:00:11.000Z</time>
      </trkpt>
      <trkpt lon="7.333349967375398" lat="46.21133395470679">
        <ele>482.3999938964844</ele>
        <time>2014-05-10T10:00:13.000Z</time>
      </trkpt>
      <trkpt lon="7.3330699279904366" lat="46.21125399135053">
        <ele>482.3999938964844</ele>
        <time>2014-05-10T10:00:17.000Z</time>
      </trkpt>
      <trkpt lon="7.332938918843865" lat="46.21121694333851">
        <ele>482.0</ele>
        <time>2014-05-10T10:00:19.000Z</time>
      </trkpt>
      <trkpt lon="7.332365931943059" lat="46.21106095612049">
        <ele>480.79998779296875</ele>
        <time>2014-05-10T10:00:27.000Z</time>
      </trkpt>
      <trkpt lon="7.331793950870633" lat="46.210898933932185">
        <ele>478.6000061035156</ele>
        <time>2014-05-10T10:00:35.000Z</time>
      </trkpt>
      <trkpt lon="7.3315979819744825" lat="46.210842942819">
        <ele>478.3999938964844</ele>
        <time>2014-05-10T10:00:38.000Z</time>
      </trkpt>
      <trkpt lon="7.3311379831284285" lat="46.21073992922902">
        <ele>476.79998779296875</ele>
        <time>2014-05-10T10:00:45.000Z</time>
      </trkpt>
      <trkpt lon="7.33067094348371" lat="46.210642950609326">
        <ele>478.20001220703125</ele>
        <time>2014-05-10T10:00:51.000Z</time>
      </trkpt>
      <trkpt lon="7.33004791662097" lat="46.21053499169648">
        <ele>479.20001220703125</ele>
        <time>2014-05-10T10:00:59.000Z</time>
      </trkpt>
      <trkpt lon="7.329542990773916" lat="46.21047891676426">
        <ele>480.20001220703125</ele>
        <time>2014-05-10T10:01:05.000Z</time>
      </trkpt>
      <trkpt lon="7.329374933615327" lat="46.21045695617795">
        <ele>479.79998779296875</ele>
        <time>2014-05-10T10:01:07.000Z</time>
      </trkpt>
      <trkpt lon="7.328791972249746" lat="46.21037598699331">
        <ele>481.6000061035156</ele>
        <time>2014-05-10T10:01:15.000Z</time>
      </trkpt>
      <trkpt lon="7.328631961718202" lat="46.2103629950434">
        <ele>481.6000061035156</ele>
        <time>2014-05-10T10:01:17.000Z</time>
      </trkpt>
      <trkpt lon="7.328471951186657" lat="46.2103489972651">
        <ele>482.0</ele>
        <time>2014-05-10T10:01:19.000Z</time>
      </trkpt>
      <trkpt lon="7.327987980097532" lat="46.2103109434247">
        <ele>482.6000061035156</ele>
        <time>2014-05-10T10:01:25.000Z</time>
      </trkpt>
      <trkpt lon="7.327350955456495" lat="46.210294933989644">
        <ele>480.6000061035156</ele>
        <time>2014-05-10T10:01:33.000Z</time>
      </trkpt>
      <trkpt lon="7.326891962438822" lat="46.21027993038297">
        <ele>479.20001220703125</ele>
        <time>2014-05-10T10:01:39.000Z</time>
      </trkpt>
      <trkpt lon="7.326817950233817" lat="46.21028294786811">
        <ele>479.20001220703125</ele>
        <time>2014-05-10T10:01:40.000Z</time>
      </trkpt>
      <trkpt lon="7.326493989676237" lat="46.210296945646405">
        <ele>479.6000061035156</ele>
        <time>2014-05-10T10:01:45.000Z</time>
      </trkpt>
      <trkpt lon="7.3259619902819395" lat="46.210320917889476">
        <ele>480.3999938964844</ele>
        <time>2014-05-10T10:01:52.000Z</time>
      </trkpt>
      <trkpt lon="7.325359918177128" lat="46.2103629950434">
        <ele>480.6000061035156</ele>
        <time>2014-05-10T10:02:00.000Z</time>
      </trkpt>
      <trkpt lon="7.324991952627897" lat="46.21039199642837">
        <ele>480.79998779296875</ele>
        <time>2014-05-10T10:02:05.000Z</time>
      </trkpt>
      <trkpt lon="7.324473951011896" lat="46.21045494452119">
        <ele>479.20001220703125</ele>
        <time>2014-05-10T10:02:12.000Z</time>
      </trkpt>
      <trkpt lon="7.323914961889386" lat="46.21051697060466">
        <ele>477.79998779296875</ele>
        <time>2014-05-10T10:02:19.000Z</time>
      </trkpt>
      <trkpt lon="7.323343986645341" lat="46.210572961717844">
        <ele>476.3999938964844</ele>
        <time>2014-05-10T10:02:26.000Z</time>
      </trkpt>
      <trkpt lon="7.322688940912485" lat="46.210636999458075">
        <ele>477.6000061035156</ele>
        <time>2014-05-10T10:02:34.000Z</time>
      </trkpt>
      <trkpt lon="7.322069937363267" lat="46.21068896725774">
        <ele>478.79998779296875</ele>
        <time>2014-05-10T10:02:42.000Z</time>
      </trkpt>
      <trkpt lon="7.321646986529231" lat="46.21071092784405">
        <ele>481.20001220703125</ele>
        <time>2014-05-10T10:02:48.000Z</time>
      </trkpt>
      <trkpt lon="7.321252953261137" lat="46.21071998029947">
        <ele>481.6000061035156</ele>
        <time>2014-05-10T10:02:54.000Z</time>
      </trkpt>
      <trkpt lon="7.3208449222147465" lat="46.21073196642101">
        <ele>483.0</ele>
        <time>2014-05-10T10:03:01.000Z</time>
      </trkpt>
      <trkpt lon="7.320588938891888" lat="46.21074998751283">
        <ele>483.3999938964844</ele>
        <time>2014-05-10T10:03:06.000Z</time>
      </trkpt>
      <trkpt lon="7.320431945845485" lat="46.21076096780598">
        <ele>483.79998779296875</ele>
        <time>2014-05-10T10:03:10.000Z</time>
      </trkpt>
      <trkpt lon="7.320255925878882" lat="46.21077295392752">
        <ele>483.3999938964844</ele>
        <time>2014-05-10T10:03:13.000Z</time>
      </trkpt>
      <trkpt lon="7.320114942267537" lat="46.21078192256391">
        <ele>483.20001220703125</ele>
        <time>2014-05-10T10:03:15.000Z</time>
      </trkpt>
      <trkpt lon="7.319662990048528" lat="46.210813941434026">
        <ele>481.20001220703125</ele>
        <time>2014-05-10T10:03:23.000Z</time>
      </trkpt>
      <trkpt lon="7.31891892850399" lat="46.2107929866761">
        <ele>479.6000061035156</ele>
        <time>2014-05-10T10:03:31.000Z</time>
      </trkpt>
      <trkpt lon="7.318529924377799" lat="46.21077798306942">
        <ele>481.79998779296875</ele>
        <time>2014-05-10T10:03:36.000Z</time>
      </trkpt>
      <trkpt lon="7.31814393773675" lat="46.21076398529112">
        <ele>482.0</ele>
        <time>2014-05-10T10:03:41.000Z</time>
      </trkpt>
      <trkpt lon="7.317658960819244" lat="46.210745964199305">
        <ele>481.20001220703125</ele>
        <time>2014-05-10T10:03:47.000Z</time>
      </trkpt>
      <trkpt lon="7.31758494861424" lat="46.21074294671416">
        <ele>480.79998779296875</ele>
        <time>2014-05-10T10:03:48.000Z</time>
      </trkpt>
      <trkpt lon="7.317067952826619" lat="46.21071998029947">
        <ele>480.6000061035156</ele>
        <time>2014-05-10T10:03:55.000Z</time>
      </trkpt>
      <trkpt lon="7.316579958423972" lat="46.21069592423737">
        <ele>480.6000061035156</ele>
        <time>2014-05-10T10:04:02.000Z</time>
      </trkpt>
      <trkpt lon="7.3159619607031345" lat="46.2106719519943">
        <ele>480.6000061035156</ele>
        <time>2014-05-10T10:04:10.000Z</time>
      </trkpt>
      <trkpt lon="7.315519982948899" lat="46.21065493673086">
        <ele>480.79998779296875</ele>
        <time>2014-05-10T10:04:16.000Z</time>
      </trkpt>
      <trkpt lon="7.314962921664119" lat="46.21062099002302">
        <ele>481.0</ele>
        <time>2014-05-10T10:04:24.000Z</time>
      </trkpt>
      <trkpt lon="7.314450955018401" lat="46.21062099002302">
        <ele>481.79998779296875</ele>
        <time>2014-05-10T10:04:32.000Z</time>
      </trkpt>
      <trkpt lon="7.314089946448803" lat="46.210640938952565">
        <ele>484.0</ele>
        <time>2014-05-10T10:04:39.000Z</time>
      </trkpt>
      <trkpt lon="7.3139469511806965" lat="46.21066398918629">
        <ele>484.79998779296875</ele>
        <time>2014-05-10T10:04:43.000Z</time>
      </trkpt>
      <trkpt lon="7.3139469511806965" lat="46.21066398918629">
        <ele>485.6000061035156</ele>
        <time>2014-05-10T10:04:50.000Z</time>
      </trkpt>
      <trkpt lon="7.3139469511806965" lat="46.21066398918629">
        <ele>485.3999938964844</ele>
        <time>2014-05-10T10:04:51.000Z</time>
      </trkpt>
      <trkpt lon="7.313747964799404" lat="46.210639933124185">
        <ele>484.20001220703125</ele>
        <time>2014-05-10T10:04:56.000Z</time>
      </trkpt>
      <trkpt lon="7.313575968146324" lat="46.21061394922435">
        <ele>483.3999938964844</ele>
        <time>2014-05-10T10:04:59.000Z</time>
      </trkpt>
      <trkpt lon="7.312991917133331" lat="46.21057195588946">
        <ele>481.20001220703125</ele>
        <time>2014-05-10T10:05:07.000Z</time>
      </trkpt>
      <trkpt lon="7.312501994892955" lat="46.21048495173454">
        <ele>481.3999938964844</ele>
        <time>2014-05-10T10:05:14.000Z</time>
      </trkpt>
      <trkpt lon="7.312182979658246" lat="46.21040892787278">
        <ele>480.6000061035156</ele>
        <time>2014-05-10T10:05:19.000Z</time>
      </trkpt>
      <trkpt lon="7.31154696084559" lat="46.210230980068445">
        <ele>483.0</ele>
        <time>2014-05-10T10:05:28.000Z</time>
      </trkpt>
      <trkpt lon="7.310983948409557" lat="46.210018917918205">
        <ele>483.20001220703125</ele>
        <time>2014-05-10T10:05:36.000Z</time>
      </trkpt>
      <trkpt lon="7.3103859834373" lat="46.209778944030404">
        <ele>484.0</ele>
        <time>2014-05-10T10:05:45.000Z</time>
      </trkpt>
      <trkpt lon="7.310129916295409" lat="46.20966696180403">
        <ele>484.0</ele>
        <time>2014-05-10T10:05:49.000Z</time>
      </trkpt>
      <trkpt lon="7.30963597074151" lat="46.20940796099603">
        <ele>483.20001220703125</ele>
        <time>2014-05-10T10:05:57.000Z</time>
      </trkpt>
      <trkpt lon="7.309178989380598" lat="46.209103949368">
        <ele>482.6000061035156</ele>
        <time>2014-05-10T10:06:05.000Z</time>
      </trkpt>
      <trkpt lon="7.308920994400978" lat="46.20905198156834">
        <ele>483.20001220703125</ele>
        <time>2014-05-10T10:06:09.000Z</time>
      </trkpt>
      <trkpt lon="7.308687977492809" lat="46.2090349663049">
        <ele>482.79998779296875</ele>
        <time>2014-05-10T10:06:13.000Z</time>
      </trkpt>
      <trkpt lon="7.308654952794313" lat="46.20903295464814">
        <ele>482.79998779296875</ele>
        <time>2014-05-10T10:06:15.000Z</time>
      </trkpt>
      <trkpt lon="7.308621928095818" lat="46.20884595438838">
        <ele>482.79998779296875</ele>
        <time>2014-05-10T10:06:17.000Z</time>
      </trkpt>
      <trkpt lon="7.3085399530828" lat="46.20873095467687">
        <ele>482.6000061035156</ele>
        <time>2014-05-10T10:06:20.000Z</time>
      </trkpt>
      <trkpt lon="7.308362927287817" lat="46.20860799215734">
        <ele>482.20001220703125</ele>
        <time>2014-05-10T10:06:24.000Z</time>
      </trkpt>
      <trkpt lon="7.308022957295179" lat="46.20839199051261">
        <ele>483.0</ele>
        <time>2014-05-10T10:06:31.000Z</time>
      </trkpt>
      <trkpt lon="7.307590954005718" lat="46.20811798609793">
        <ele>483.6000061035156</ele>
        <time>2014-05-10T10:06:39.000Z</time>
      </trkpt>
      <trkpt lon="7.307051997631788" lat="46.20777893811464">
        <ele>482.79998779296875</ele>
        <time>2014-05-10T10:06:48.000Z</time>
      </trkpt>
      <trkpt lon="7.306314976885915" lat="46.20732095092535">
        <ele>482.0</ele>
        <time>2014-05-10T10:07:00.000Z</time>
      </trkpt>
      <trkpt lon="7.3058609291911125" lat="46.2070369720459">
        <ele>482.0</ele>
        <time>2014-05-10T10:07:08.000Z</time>
      </trkpt>
      <trkpt lon="7.305409982800484" lat="46.206754921004176">
        <ele>482.20001220703125</ele>
        <time>2014-05-10T10:07:16.000Z</time>
      </trkpt>
      <trkpt lon="7.304943948984146" lat="46.20646499097347">
        <ele>482.20001220703125</ele>
        <time>2014-05-10T10:07:24.000Z</time>
      </trkpt>
      <trkpt lon="7.304459977895021" lat="46.2061629910022">
        <ele>482.0</ele>
        <time>2014-05-10T10:07:32.000Z</time>
      </trkpt>
      <trkpt lon="7.30402797460556" lat="46.205890998244286">
        <ele>481.3999938964844</ele>
        <time>2014-05-10T10:07:39.000Z</time>
      </trkpt>
      <trkpt lon="7.303853966295719" lat="46.20578094385564">
        <ele>481.0</ele>
        <time>2014-05-10T10:07:42.000Z</time>
      </trkpt>
      <trkpt lon="7.303738966584206" lat="46.20570793747902">
        <ele>480.79998779296875</ele>
        <time>2014-05-10T10:07:44.000Z</time>
      </trkpt>
      <trkpt lon="7.303106971085072" lat="46.20530795305967">
        <ele>480.0</ele>
        <time>2014-05-10T10:07:55.000Z</time>
      </trkpt>
      <trkpt lon="7.302763983607292" lat="46.20509195141494">
        <ele>479.3999938964844</ele>
        <time>2014-05-10T10:08:01.000Z</time>
      </trkpt>
      <trkpt lon="7.302409932017326" lat="46.20486496947706">
        <ele>479.0</ele>
        <time>2014-05-10T10:08:07.000Z</time>
      </trkpt>
      <trkpt lon="7.302045989781618" lat="46.204646956175566">
        <ele>478.79998779296875</ele>
        <time>2014-05-10T10:08:13.000Z</time>
      </trkpt>
      <trkpt lon="7.301289942115545" lat="46.20425594039261">
        <ele>478.0</ele>
        <time>2014-05-10T10:08:24.000Z</time>
      </trkpt>
      <trkpt lon="7.300696922466159" lat="46.2039649207145">
        <ele>478.79998779296875</ele>
        <time>2014-05-10T10:08:33.000Z</time>
      </trkpt>
      <trkpt lon="7.299980940297246" lat="46.20366292074323">
        <ele>479.79998779296875</ele>
        <time>2014-05-10T10:08:43.000Z</time>
      </trkpt>
      <trkpt lon="7.299484983086586" lat="46.20344893075526">
        <ele>480.79998779296875</ele>
        <time>2014-05-10T10:08:50.000Z</time>
      </trkpt>
      <trkpt lon="7.298814933747053" lat="46.20316092856228">
        <ele>480.6000061035156</ele>
        <time>2014-05-10T10:08:59.000Z</time>
      </trkpt>
      <trkpt lon="7.298381924629211" lat="46.20297392830253">
        <ele>481.3999938964844</ele>
        <time>2014-05-10T10:09:05.000Z</time>
      </trkpt>
      <trkpt lon="7.297910945490003" lat="46.20277192443609">
        <ele>482.20001220703125</ele>
        <time>2014-05-10T10:09:12.000Z</time>
      </trkpt>
      <trkpt lon="7.297441978007555" lat="46.20256899856031">
        <ele>482.20001220703125</ele>
        <time>2014-05-10T10:09:19.000Z</time>
      </trkpt>
      <trkpt lon="7.297307951375842" lat="46.20251191779971">
        <ele>482.3999938964844</ele>
        <time>2014-05-10T10:09:21.000Z</time>
      </trkpt>
      <trkpt lon="7.296684924513102" lat="46.20227093808353">
        <ele>482.3999938964844</ele>
        <time>2014-05-10T10:09:30.000Z</time>
      </trkpt>
      <trkpt lon="7.296312935650349" lat="46.202148981392384">
        <ele>482.6000061035156</ele>
        <time>2014-05-10T10:09:35.000Z</time>
      </trkpt>
      <trkpt lon="7.295960979536176" lat="46.20203599333763">
        <ele>482.20001220703125</ele>
        <time>2014-05-10T10:09:40.000Z</time>
      </trkpt>
      <trkpt lon="7.295682951807976" lat="46.20194798335433">
        <ele>481.3999938964844</ele>
        <time>2014-05-10T10:09:44.000Z</time>
      </trkpt>
      <trkpt lon="7.2950539737939835" lat="46.20177196338773">
        <ele>480.0</ele>
        <time>2014-05-10T10:09:52.000Z</time>
      </trkpt>
      <trkpt lon="7.294593974947929" lat="46.20167196728289">
        <ele>480.20001220703125</ele>
        <time>2014-05-10T10:09:58.000Z</time>
      </trkpt>
      <trkpt lon="7.294074967503548" lat="46.201571971178055">
        <ele>481.3999938964844</ele>
        <time>2014-05-10T10:10:05.000Z</time>
      </trkpt>
      <trkpt lon="7.2936479933559895" lat="46.20149795897305">
        <ele>481.20001220703125</ele>
        <time>2014-05-10T10:10:11.000Z</time>
      </trkpt>
      <trkpt lon="7.293419921770692" lat="46.2014589831233">
        <ele>480.6000061035156</ele>
        <time>2014-05-10T10:10:14.000Z</time>
      </trkpt>
      <trkpt lon="7.2928109765052795" lat="46.20136996731162">
        <ele>480.20001220703125</ele>
        <time>2014-05-10T10:10:21.000Z</time>
      </trkpt>
      <trkpt lon="7.292233966290951" lat="46.201274916529655">
        <ele>480.20001220703125</ele>
        <time>2014-05-10T10:10:29.000Z</time>
      </trkpt>
      <trkpt lon="7.291852924972773" lat="46.201205933466554">
        <ele>480.0</ele>
        <time>2014-05-10T10:10:35.000Z</time>
      </trkpt>
      <trkpt lon="7.291446989402175" lat="46.201141979545355">
        <ele>479.0</ele>
        <time>2014-05-10T10:10:41.000Z</time>
      </trkpt>
      <trkpt lon="7.2912639286369085" lat="46.20111297816038">
        <ele>478.0</ele>
        <time>2014-05-10T10:10:44.000Z</time>
      </trkpt>
      <trkpt lon="7.29085598140955" lat="46.20105095207691">
        <ele>477.20001220703125</ele>
        <time>2014-05-10T10:10:51.000Z</time>
      </trkpt>
      <trkpt lon="7.29036396369338" lat="46.20097794570029">
        <ele>478.0</ele>
        <time>2014-05-10T10:11:00.000Z</time>
      </trkpt>
      <trkpt lon="7.290032962337136" lat="46.200928995385766">
        <ele>478.0</ele>
        <time>2014-05-10T10:11:07.000Z</time>
      </trkpt>
      <trkpt lon="7.289727944880724" lat="46.20087292045355">
        <ele>478.3999938964844</ele>
        <time>2014-05-10T10:11:13.000Z</time>
      </trkpt>
      <trkpt lon="7.2895219177007675" lat="46.20083495043218">
        <ele>478.6000061035156</ele>
        <time>2014-05-10T10:11:17.000Z</time>
      </trkpt>
      <trkpt lon="7.289027972146869" lat="46.20076093822718">
        <ele>479.3999938964844</ele>
        <time>2014-05-10T10:11:24.000Z</time>
      </trkpt>
      <trkpt lon="7.288664951920509" lat="46.20069899596274">
        <ele>479.3999938964844</ele>
        <time>2014-05-10T10:11:29.000Z</time>
      </trkpt>
      <trkpt lon="7.288510976359248" lat="46.200672928243876">
        <ele>479.6000061035156</ele>
        <time>2014-05-10T10:11:31.000Z</time>
      </trkpt>
      <trkpt lon="7.287933966144919" lat="46.20057594962418">
        <ele>480.20001220703125</ele>
        <time>2014-05-10T10:11:39.000Z</time>
      </trkpt>
      <trkpt lon="7.287635989487171" lat="46.20052699930966">
        <ele>480.79998779296875</ele>
        <time>2014-05-10T10:11:44.000Z</time>
      </trkpt>
      <trkpt lon="7.287563988938928" lat="46.20051291771233">
        <ele>481.3999938964844</ele>
        <time>2014-05-10T10:11:48.000Z</time>
      </trkpt>
      <trkpt lon="7.287614950910211" lat="46.20048793964088">
        <ele>481.3999938964844</ele>
        <time>2014-05-10T10:11:50.000Z</time>
      </trkpt>
      <trkpt lon="7.287721987813711" lat="46.200435971841216">
        <ele>482.0</ele>
        <time>2014-05-10T10:11:53.000Z</time>
      </trkpt>
      <trkpt lon="7.288088947534561" lat="46.20025492273271">
        <ele>483.3999938964844</ele>
        <time>2014-05-10T10:11:58.000Z</time>
      </trkpt>
      <trkpt lon="7.288656989112496" lat="46.19997496716678">
        <ele>482.0</ele>
        <time>2014-05-10T10:12:05.000Z</time>
      </trkpt>
      <trkpt lon="7.288919929414988" lat="46.19984596967697">
        <ele>480.3999938964844</ele>
        <time>2014-05-10T10:12:09.000Z</time>
      </trkpt>
      <trkpt lon="7.288998970761895" lat="46.199806993827224">
        <ele>480.20001220703125</ele>
        <time>2014-05-10T10:12:11.000Z</time>
      </trkpt>
      <trkpt lon="7.289386969059706" lat="46.199876982718706">
        <ele>480.79998779296875</ele>
        <time>2014-05-10T10:12:18.000Z</time>
      </trkpt>
      <trkpt lon="7.289702966809273" lat="46.19993297383189">
        <ele>481.0</ele>
        <time>2014-05-10T10:12:23.000Z</time>
      </trkpt>
      <trkpt lon="7.290048971772194" lat="46.19999499991536">
        <ele>481.3999938964844</ele>
        <time>2014-05-10T10:12:29.000Z</time>
      </trkpt>
      <trkpt lon="7.290467983111739" lat="46.20006398297846">
        <ele>481.79998779296875</ele>
        <time>2014-05-10T10:12:38.000Z</time>
      </trkpt>
      <trkpt lon="7.290635956451297" lat="46.200091978535056">
        <ele>481.79998779296875</ele>
        <time>2014-05-10T10:12:42.000Z</time>
      </trkpt>
      <trkpt lon="7.290776940062642" lat="46.200114944949746">
        <ele>482.3999938964844</ele>
        <time>2014-05-10T10:12:46.000Z</time>
      </trkpt>
      <trkpt lon="7.290820945054293" lat="46.20012198574841">
        <ele>482.3999938964844</ele>
        <time>2014-05-10T10:12:49.000Z</time>
      </trkpt>
      <trkpt lon="7.290744921192527" lat="46.200109999626875">
        <ele>482.3999938964844</ele>
        <time>2014-05-10T10:12:51.000Z</time>
      </trkpt>
      <trkpt lon="7.290212921798229" lat="46.200021989643574">
        <ele>480.6000061035156</ele>
        <time>2014-05-10T10:12:59.000Z</time>
      </trkpt>
      <trkpt lon="7.289696931838989" lat="46.19993196800351">
        <ele>479.6000061035156</ele>
        <time>2014-05-10T10:13:06.000Z</time>
      </trkpt>
      <trkpt lon="7.2892609890550375" lat="46.199853932484984">
        <ele>479.3999938964844</ele>
        <time>2014-05-10T10:13:12.000Z</time>
      </trkpt>
      <trkpt lon="7.2890769224613905" lat="46.19981998577714">
        <ele>479.20001220703125</ele>
        <time>2014-05-10T10:13:15.000Z</time>
      </trkpt>
      <trkpt lon="7.288882965222001" lat="46.19978293776512">
        <ele>479.3999938964844</ele>
        <time>2014-05-10T10:13:19.000Z</time>
      </trkpt>
      <trkpt lon="7.288724966347218" lat="46.199940936639905">
        <ele>480.20001220703125</ele>
        <time>2014-05-10T10:13:22.000Z</time>
      </trkpt>
      <trkpt lon="7.288028933107853" lat="46.200283924117684">
        <ele>480.6000061035156</ele>
        <time>2014-05-10T10:13:34.000Z</time>
      </trkpt>
      <trkpt lon="7.287625931203365" lat="46.20048299431801">
        <ele>479.79998779296875</ele>
        <time>2014-05-10T10:13:42.000Z</time>
      </trkpt>
      <trkpt lon="7.2875619772821665" lat="46.20051392354071">
        <ele>480.3999938964844</ele>
        <time>2014-05-10T10:13:46.000Z</time>
      </trkpt>
      <trkpt lon="7.2875619772821665" lat="46.20051392354071">
        <ele>480.79998779296875</ele>
        <time>2014-05-10T10:13:51.000Z</time>
      </trkpt>
      <trkpt lon="7.2875619772821665" lat="46.20051392354071">
        <ele>481.0</ele>
        <time>2014-05-10T10:13:55.000Z</time>
      </trkpt>
      <trkpt lon="7.2875619772821665" lat="46.20051392354071">
        <ele>481.3999938964844</ele>
        <time>2014-05-10T10:14:00.000Z</time>
      </trkpt>
      <trkpt lon="7.2875619772821665" lat="46.20051392354071">
        <ele>482.3999938964844</ele>
        <time>2014-05-10T10:14:07.000Z</time>
      </trkpt>
      <trkpt lon="7.2875619772821665" lat="46.20051392354071">
        <ele>482.3999938964844</ele>
        <time>2014-05-10T10:14:10.000Z</time>
      </trkpt>
      <trkpt lon="7.287295935675502" lat="46.2004729360342">
        <ele>482.20001220703125</ele>
        <time>2014-05-10T10:14:15.000Z</time>
      </trkpt>
      <trkpt lon="7.287173978984356" lat="46.200453992933035">
        <ele>482.20001220703125</ele>
        <time>2014-05-10T10:14:20.000Z</time>
      </trkpt>
      <trkpt lon="7.287110947072506" lat="46.20044494047761">
        <ele>482.20001220703125</ele>
        <time>2014-05-10T10:14:22.000Z</time>
      </trkpt>
      <trkpt lon="7.286738958209753" lat="46.20038693770766">
        <ele>482.3999938964844</ele>
        <time>2014-05-10T10:14:30.000Z</time>
      </trkpt>
      <trkpt lon="7.286263955757022" lat="46.20031393133104">
        <ele>481.79998779296875</ele>
        <time>2014-05-10T10:14:38.000Z</time>
      </trkpt>
      <trkpt lon="7.285673953592777" lat="46.20022198185325">
        <ele>482.20001220703125</ele>
        <time>2014-05-10T10:14:46.000Z</time>
      </trkpt>
      <trkpt lon="7.284794943407178" lat="46.20007697492838">
        <ele>481.79998779296875</ele>
        <time>2014-05-10T10:14:57.000Z</time>
      </trkpt>
      <trkpt lon="7.283954992890358" lat="46.199941942468286">
        <ele>481.20001220703125</ele>
        <time>2014-05-10T10:15:07.000Z</time>
      </trkpt>
      <trkpt lon="7.283494994044304" lat="46.19987094774842">
        <ele>481.20001220703125</ele>
        <time>2014-05-10T10:15:13.000Z</time>
      </trkpt>
      <trkpt lon="7.282855957746506" lat="46.199770951643586">
        <ele>480.6000061035156</ele>
        <time>2014-05-10T10:15:21.000Z</time>
      </trkpt>
      <trkpt lon="7.282266961410642" lat="46.199631979689">
        <ele>480.0</ele>
        <time>2014-05-10T10:15:29.000Z</time>
      </trkpt>
      <trkpt lon="7.2821209486573935" lat="46.19958998635411">
        <ele>479.79998779296875</ele>
        <time>2014-05-10T10:15:31.000Z</time>
      </trkpt>
      <trkpt lon="7.2815619595348835" lat="46.199401980265975">
        <ele>480.20001220703125</ele>
        <time>2014-05-10T10:15:38.000Z</time>
      </trkpt>
      <trkpt lon="7.281032977625728" lat="46.19921799749136">
        <ele>479.20001220703125</ele>
        <time>2014-05-10T10:15:45.000Z</time>
      </trkpt>
      <trkpt lon="7.280508941039443" lat="46.199035942554474">
        <ele>477.0</ele>
        <time>2014-05-10T10:15:52.000Z</time>
      </trkpt>
      <trkpt lon="7.279988927766681" lat="46.19881994090974">
        <ele>478.20001220703125</ele>
        <time>2014-05-10T10:15:59.000Z</time>
      </trkpt>
      <trkpt lon="7.279148977249861" lat="46.19847192429006">
        <ele>479.20001220703125</ele>
        <time>2014-05-10T10:16:10.000Z</time>
      </trkpt>
      <trkpt lon="7.278646985068917" lat="46.19827494956553">
        <ele>479.20001220703125</ele>
        <time>2014-05-10T10:16:17.000Z</time>
      </trkpt>
      <trkpt lon="7.2781129740178585" lat="46.19805693626404">
        <ele>479.79998779296875</ele>
        <time>2014-05-10T10:16:25.000Z</time>
      </trkpt>
      <trkpt lon="7.277486929669976" lat="46.19778796099126">
        <ele>481.20001220703125</ele>
        <time>2014-05-10T10:16:34.000Z</time>
      </trkpt>
      <trkpt lon="7.276899944990873" lat="46.19754698127508">
        <ele>480.79998779296875</ele>
        <time>2014-05-10T10:16:42.000Z</time>
      </trkpt>
      <trkpt lon="7.276301980018616" lat="46.197296949103475">
        <ele>479.3999938964844</ele>
        <time>2014-05-10T10:16:50.000Z</time>
      </trkpt>
      <trkpt lon="7.275774925947189" lat="46.19707399047911">
        <ele>478.20001220703125</ele>
        <time>2014-05-10T10:16:57.000Z</time>
      </trkpt>
      <trkpt lon="7.275086939334869" lat="46.19678498245776">
        <ele>477.6000061035156</ele>
        <time>2014-05-10T10:17:06.000Z</time>
      </trkpt>
      <trkpt lon="7.274638926610351" lat="46.196585996076465">
        <ele>478.20001220703125</ele>
        <time>2014-05-10T10:17:12.000Z</time>
      </trkpt>
      <trkpt lon="7.2741329949349165" lat="46.19638198055327">
        <ele>479.3999938964844</ele>
        <time>2014-05-10T10:17:19.000Z</time>
      </trkpt>
      <trkpt lon="7.273588925600052" lat="46.19615592062473">
        <ele>480.3999938964844</ele>
        <time>2014-05-10T10:17:27.000Z</time>
      </trkpt>
      <trkpt lon="7.273104954510927" lat="46.19595492258668">
        <ele>479.6000061035156</ele>
        <time>2014-05-10T10:17:34.000Z</time>
      </trkpt>
      <trkpt lon="7.2725969273597" lat="46.19574193842709">
        <ele>478.20001220703125</ele>
        <time>2014-05-10T10:17:41.000Z</time>
      </trkpt>
      <trkpt lon="7.272059982642531" lat="46.195511939004064">
        <ele>476.3999938964844</ele>
        <time>2014-05-10T10:17:48.000Z</time>
      </trkpt>
      <trkpt lon="7.271350957453251" lat="46.19520692154765">
        <ele>477.6000061035156</ele>
        <time>2014-05-10T10:17:57.000Z</time>
      </trkpt>
      <trkpt lon="7.271061949431896" lat="46.19508697651327">
        <ele>477.79998779296875</ele>
        <time>2014-05-10T10:18:01.000Z</time>
      </trkpt>
      <trkpt lon="7.2709879372268915" lat="46.19505797512829">
        <ele>478.0</ele>
        <time>2014-05-10T10:18:02.000Z</time>
      </trkpt>
      <trkpt lon="7.270781993865967" lat="46.194977927953005">
        <ele>477.3999938964844</ele>
        <time>2014-05-10T10:18:05.000Z</time>
      </trkpt>
      <trkpt lon="7.270449986681342" lat="46.19494398124516">
        <ele>474.3999938964844</ele>
        <time>2014-05-10T10:18:09.000Z</time>
      </trkpt>
      <trkpt lon="7.270299950614572" lat="46.195015981793404">
        <ele>473.6000061035156</ele>
        <time>2014-05-10T10:18:11.000Z</time>
      </trkpt>
      <trkpt lon="7.2698749881237745" lat="46.19549995288253">
        <ele>472.79998779296875</ele>
        <time>2014-05-10T10:18:19.000Z</time>
      </trkpt>
      <trkpt lon="7.269513979554176" lat="46.19593195617199">
        <ele>471.6000061035156</ele>
        <time>2014-05-10T10:18:27.000Z</time>
      </trkpt>
      <trkpt lon="7.269109971821308" lat="46.19640092365444">
        <ele>471.0</ele>
        <time>2014-05-10T10:18:36.000Z</time>
      </trkpt>
      <trkpt lon="7.268603956326842" lat="46.196996960788965">
        <ele>470.3999938964844</ele>
        <time>2014-05-10T10:18:47.000Z</time>
      </trkpt>
      <trkpt lon="7.268162984400988" lat="46.19751898571849">
        <ele>470.79998779296875</ele>
        <time>2014-05-10T10:18:57.000Z</time>
      </trkpt>
      <trkpt lon="7.267758976668119" lat="46.197986947372556">
        <ele>470.6000061035156</ele>
        <time>2014-05-10T10:19:06.000Z</time>
      </trkpt>
      <trkpt lon="7.267467956990004" lat="46.198324989527464">
        <ele>470.79998779296875</ele>
        <time>2014-05-10T10:19:13.000Z</time>
      </trkpt>
      <trkpt lon="7.267100997269154" lat="46.19875196367502">
        <ele>470.79998779296875</ele>
        <time>2014-05-10T10:19:23.000Z</time>
      </trkpt>
      <trkpt lon="7.266971999779344" lat="46.19890392757952">
        <ele>471.20001220703125</ele>
        <time>2014-05-10T10:19:27.000Z</time>
      </trkpt>
      <trkpt lon="7.266881978139281" lat="46.19903191924095">
        <ele>471.6000061035156</ele>
        <time>2014-05-10T10:19:32.000Z</time>
      </trkpt>
      <trkpt lon="7.266593975946307" lat="46.19894499890506">
        <ele>471.3999938964844</ele>
        <time>2014-05-10T10:19:36.000Z</time>
      </trkpt>
      <trkpt lon="7.266131965443492" lat="46.19883393868804">
        <ele>471.3999938964844</ele>
        <time>2014-05-10T10:19:43.000Z</time>
      </trkpt>
      <trkpt lon="7.265567947179079" lat="46.198627995327115">
        <ele>471.3999938964844</ele>
        <time>2014-05-10T10:19:51.000Z</time>
      </trkpt>
      <trkpt lon="7.265246920287609" lat="46.19846999645233">
        <ele>471.3999938964844</ele>
        <time>2014-05-10T10:19:56.000Z</time>
      </trkpt>
      <trkpt lon="7.265117922797799" lat="46.19839992374182">
        <ele>471.20001220703125</ele>
        <time>2014-05-10T10:19:58.000Z</time>
      </trkpt>
      <trkpt lon="7.26443094201386" lat="46.198026929050684">
        <ele>471.0</ele>
        <time>2014-05-10T10:20:08.000Z</time>
      </trkpt>
      <trkpt lon="7.263878993690014" lat="46.197727946564555">
        <ele>470.79998779296875</ele>
        <time>2014-05-10T10:20:16.000Z</time>
      </trkpt>
      <trkpt lon="7.263275999575853" lat="46.19741496630013">
        <ele>470.6000061035156</ele>
        <time>2014-05-10T10:20:25.000Z</time>
      </trkpt>
      <trkpt lon="7.262614918872714" lat="46.19705596938729">
        <ele>469.6000061035156</ele>
        <time>2014-05-10T10:20:35.000Z</time>
      </trkpt>
      <trkpt lon="7.2619689255952835" lat="46.19669898413122">
        <ele>470.0</ele>
        <time>2014-05-10T10:20:45.000Z</time>
      </trkpt>
      <trkpt lon="7.261530971154571" lat="46.19644895195961">
        <ele>470.3999938964844</ele>
        <time>2014-05-10T10:20:52.000Z</time>
      </trkpt>
      <trkpt lon="7.261234922334552" lat="46.19625591672957">
        <ele>471.20001220703125</ele>
        <time>2014-05-10T10:20:58.000Z</time>
      </trkpt>
      <trkpt lon="7.260920936241746" lat="46.196048967540264">
        <ele>471.20001220703125</ele>
        <time>2014-05-10T10:21:04.000Z</time>
      </trkpt>
      <trkpt lon="7.260628994554281" lat="46.19587194174528">
        <ele>470.6000061035156</ele>
        <time>2014-05-10T10:21:10.000Z</time>
      </trkpt>
      <trkpt lon="7.260398995131254" lat="46.19571595452726">
        <ele>470.6000061035156</ele>
        <time>2014-05-10T10:21:15.000Z</time>
      </trkpt>
      <trkpt lon="7.259893985465169" lat="46.19535494595766">
        <ele>470.79998779296875</ele>
        <time>2014-05-10T10:21:25.000Z</time>
      </trkpt>
      <trkpt lon="7.259447984397411" lat="46.19503593072295">
        <ele>471.20001220703125</ele>
        <time>2014-05-10T10:21:33.000Z</time>
      </trkpt>
      <trkpt lon="7.258827975019813" lat="46.19458498433232">
        <ele>471.3999938964844</ele>
        <time>2014-05-10T10:21:44.000Z</time>
      </trkpt>
      <trkpt lon="7.258251970633864" lat="46.19416899047792">
        <ele>471.6000061035156</ele>
        <time>2014-05-10T10:21:54.000Z</time>
      </trkpt>
      <trkpt lon="7.2578799817711115" lat="46.1939059663564">
        <ele>471.6000061035156</ele>
        <time>2014-05-10T10:22:01.000Z</time>
      </trkpt>
      <trkpt lon="7.25747094489634" lat="46.19360991753638">
        <ele>471.79998779296875</ele>
        <time>2014-05-10T10:22:09.000Z</time>
      </trkpt>
      <trkpt lon="7.257380923256278" lat="46.19354194030166">
        <ele>471.79998779296875</ele>
        <time>2014-05-10T10:22:11.000Z</time>
      </trkpt>
      <trkpt lon="7.25716995075345" lat="46.19338192977011">
        <ele>471.6000061035156</ele>
        <time>2014-05-10T10:22:16.000Z</time>
      </trkpt>
      <trkpt lon="7.256856970489025" lat="46.19314597919583">
        <ele>472.0</ele>
        <time>2014-05-10T10:22:23.000Z</time>
      </trkpt>
      <trkpt lon="7.25643795914948" lat="46.1928419675678">
        <ele>472.20001220703125</ele>
        <time>2014-05-10T10:22:31.000Z</time>
      </trkpt>
      <trkpt lon="7.255856925621629" lat="46.19242899119854">
        <ele>473.0</ele>
        <time>2014-05-10T10:22:41.000Z</time>
      </trkpt>
      <trkpt lon="7.255228953436017" lat="46.19197494350374">
        <ele>473.0</ele>
        <time>2014-05-10T10:22:52.000Z</time>
      </trkpt>
      <trkpt lon="7.25480692461133" lat="46.19165793992579">
        <ele>472.6000061035156</ele>
        <time>2014-05-10T10:23:00.000Z</time>
      </trkpt>
      <trkpt lon="7.254465948790312" lat="46.19140396825969">
        <ele>472.0</ele>
        <time>2014-05-10T10:23:07.000Z</time>
      </trkpt>
      <trkpt lon="7.254129918292165" lat="46.19116198271513">
        <ele>471.3999938964844</ele>
        <time>2014-05-10T10:23:14.000Z</time>
      </trkpt>
      <trkpt lon="7.253832947462797" lat="46.19095092639327">
        <ele>471.6000061035156</ele>
        <time>2014-05-10T10:23:20.000Z</time>
      </trkpt>
      <trkpt lon="7.253419971093535" lat="46.19065294973552">
        <ele>471.6000061035156</ele>
        <time>2014-05-10T10:23:27.000Z</time>
      </trkpt>
      <trkpt lon="7.253009928390384" lat="46.19034893810749">
        <ele>471.6000061035156</ele>
        <time>2014-05-10T10:23:34.000Z</time>
      </trkpt>
      <trkpt lon="7.252694936469197" lat="46.190121956169605">
        <ele>471.6000061035156</ele>
        <time>2014-05-10T10:23:40.000Z</time>
      </trkpt>
      <trkpt lon="7.252263939008117" lat="46.18980394676328">
        <ele>471.6000061035156</ele>
        <time>2014-05-10T10:23:48.000Z</time>
      </trkpt>
      <trkpt lon="7.251809975132346" lat="46.189476968720555">
        <ele>471.6000061035156</ele>
        <time>2014-05-10T10:23:56.000Z</time>
      </trkpt>
      <trkpt lon="7.2512279357761145" lat="46.189046977087855">
        <ele>471.3999938964844</ele>
        <time>2014-05-10T10:24:06.000Z</time>
      </trkpt>
      <trkpt lon="7.25089592859149" lat="46.18881898932159">
        <ele>471.79998779296875</ele>
        <time>2014-05-10T10:24:12.000Z</time>
      </trkpt>
      <trkpt lon="7.2504739835858345" lat="46.188508942723274">
        <ele>472.3999938964844</ele>
        <time>2014-05-10T10:24:20.000Z</time>
      </trkpt>
      <trkpt lon="7.249931925907731" lat="46.188101917505264">
        <ele>473.0</ele>
        <time>2014-05-10T10:24:31.000Z</time>
      </trkpt>
      <trkpt lon="7.2495289240032434" lat="46.18782699108124">
        <ele>473.20001220703125</ele>
        <time>2014-05-10T10:24:38.000Z</time>
      </trkpt>
      <trkpt lon="7.2489699348807335" lat="46.18741896003485">
        <ele>473.3999938964844</ele>
        <time>2014-05-10T10:24:48.000Z</time>
      </trkpt>
      <trkpt lon="7.248474983498454" lat="46.18713095784187">
        <ele>473.0</ele>
        <time>2014-05-10T10:24:56.000Z</time>
      </trkpt>
      <trkpt lon="7.248050943017006" lat="46.18688997812569">
        <ele>473.0</ele>
        <time>2014-05-10T10:25:03.000Z</time>
      </trkpt>
      <trkpt lon="7.247642995789647" lat="46.1866769939661">
        <ele>473.20001220703125</ele>
        <time>2014-05-10T10:25:10.000Z</time>
      </trkpt>
      <trkpt lon="7.247206969186664" lat="46.18647499009967">
        <ele>473.20001220703125</ele>
        <time>2014-05-10T10:25:18.000Z</time>
      </trkpt>
      <trkpt lon="7.2466969303786755" lat="46.18624297901988">
        <ele>473.6000061035156</ele>
        <time>2014-05-10T10:25:26.000Z</time>
      </trkpt>
      <trkpt lon="7.246207930147648" lat="46.18602697737515">
        <ele>473.79998779296875</ele>
        <time>2014-05-10T10:25:33.000Z</time>
      </trkpt>
      <trkpt lon="7.245818926021457" lat="46.18583092465997">
        <ele>474.0</ele>
        <time>2014-05-10T10:25:40.000Z</time>
      </trkpt>
      <trkpt lon="7.245711972936988" lat="46.185782980173826">
        <ele>474.0</ele>
        <time>2014-05-10T10:25:42.000Z</time>
      </trkpt>
      <trkpt lon="7.245476944372058" lat="46.18575498461723">
        <ele>474.20001220703125</ele>
        <time>2014-05-10T10:25:47.000Z</time>
      </trkpt>
      <trkpt lon="7.24530796520412" lat="46.18583796545863">
        <ele>474.0</ele>
        <time>2014-05-10T10:25:51.000Z</time>
      </trkpt>
      <trkpt lon="7.2451849188655615" lat="46.18579194881022">
        <ele>474.0</ele>
        <time>2014-05-10T10:25:53.000Z</time>
      </trkpt>
      <trkpt lon="7.244618972763419" lat="46.18556899018586">
        <ele>474.20001220703125</ele>
        <time>2014-05-10T10:26:02.000Z</time>
      </trkpt>
      <trkpt lon="7.244023941457272" lat="46.18529498577118">
        <ele>473.6000061035156</ele>
        <time>2014-05-10T10:26:10.000Z</time>
      </trkpt>
      <trkpt lon="7.243270995095372" lat="46.18494797497988">
        <ele>472.79998779296875</ele>
        <time>2014-05-10T10:26:20.000Z</time>
      </trkpt>
      <trkpt lon="7.242534980177879" lat="46.18460599333048">
        <ele>472.3999938964844</ele>
        <time>2014-05-10T10:26:30.000Z</time>
      </trkpt>
      <trkpt lon="7.241854956373572" lat="46.18428898975253">
        <ele>472.0</ele>
        <time>2014-05-10T10:26:39.000Z</time>
      </trkpt>
      <trkpt lon="7.240898916497827" lat="46.183827985078096">
        <ele>472.20001220703125</ele>
        <time>2014-05-10T10:26:52.000Z</time>
      </trkpt>
      <trkpt lon="7.24002392962575" lat="46.18342297151685">
        <ele>472.20001220703125</ele>
        <time>2014-05-10T10:27:04.000Z</time>
      </trkpt>
      <trkpt lon="7.239402998238802" lat="46.183136980980635">
        <ele>472.3999938964844</ele>
        <time>2014-05-10T10:27:13.000Z</time>
      </trkpt>
      <trkpt lon="7.238872926682234" lat="46.18289298377931">
        <ele>472.79998779296875</ele>
        <time>2014-05-10T10:27:21.000Z</time>
      </trkpt>
      <trkpt lon="7.238093996420503" lat="46.1825739685446">
        <ele>472.79998779296875</ele>
        <time>2014-05-10T10:27:32.000Z</time>
      </trkpt>
      <trkpt lon="7.237440962344408" lat="46.18233893997967">
        <ele>473.20001220703125</ele>
        <time>2014-05-10T10:27:41.000Z</time>
      </trkpt>
      <trkpt lon="7.236611992120743" lat="46.1821339186281">
        <ele>473.79998779296875</ele>
        <time>2014-05-10T10:27:52.000Z</time>
      </trkpt>
      <trkpt lon="7.235988965258002" lat="46.18199595250189">
        <ele>474.79998779296875</ele>
        <time>2014-05-10T10:28:01.000Z</time>
      </trkpt>
      <trkpt lon="7.235428970307112" lat="46.18187298998237">
        <ele>475.6000061035156</ele>
        <time>2014-05-10T10:28:10.000Z</time>
      </trkpt>
      <trkpt lon="7.235028985887766" lat="46.18178095668554">
        <ele>475.3999938964844</ele>
        <time>2014-05-10T10:28:17.000Z</time>
      </trkpt>
      <trkpt lon="7.234601927921176" lat="46.18162396363914">
        <ele>474.3999938964844</ele>
        <time>2014-05-10T10:28:23.000Z</time>
      </trkpt>
      <trkpt lon="7.2341929748654366" lat="46.181361945346">
        <ele>473.0</ele>
        <time>2014-05-10T10:28:30.000Z</time>
      </trkpt>
      <trkpt lon="7.233734987676144" lat="46.18102792650461">
        <ele>471.79998779296875</ele>
        <time>2014-05-10T10:28:38.000Z</time>
      </trkpt>
      <trkpt lon="7.233322933316231" lat="46.18071595206857">
        <ele>470.0</ele>
        <time>2014-05-10T10:28:46.000Z</time>
      </trkpt>
      <trkpt lon="7.232921943068504" lat="46.18033792823553">
        <ele>471.0</ele>
        <time>2014-05-10T10:28:55.000Z</time>
      </trkpt>
      <trkpt lon="7.232558922842145" lat="46.17999695241451">
        <ele>471.20001220703125</ele>
        <time>2014-05-10T10:29:03.000Z</time>
      </trkpt>
      <trkpt lon="7.232307968661189" lat="46.1797609180212">
        <ele>471.6000061035156</ele>
        <time>2014-05-10T10:29:09.000Z</time>
      </trkpt>
      <trkpt lon="7.232004962861538" lat="46.1795209441334">
        <ele>471.20001220703125</ele>
        <time>2014-05-10T10:29:16.000Z</time>
      </trkpt>
      <trkpt lon="7.231657952070236" lat="46.179337967187166">
        <ele>470.79998779296875</ele>
        <time>2014-05-10T10:29:23.000Z</time>
      </trkpt>
      <trkpt lon="7.231372967362404" lat="46.17919094860554">
        <ele>470.79998779296875</ele>
        <time>2014-05-10T10:29:29.000Z</time>
      </trkpt>
      <trkpt lon="7.231198959052563" lat="46.179101932793856">
        <ele>471.20001220703125</ele>
        <time>2014-05-10T10:29:33.000Z</time>
      </trkpt>
      <trkpt lon="7.231109943240881" lat="46.179056921973825">
        <ele>471.3999938964844</ele>
        <time>2014-05-10T10:29:35.000Z</time>
      </trkpt>
      <trkpt lon="7.230652961879969" lat="46.17882298305631">
        <ele>472.0</ele>
        <time>2014-05-10T10:29:43.000Z</time>
      </trkpt>
      <trkpt lon="7.230086931958795" lat="46.17853598669171">
        <ele>472.3999938964844</ele>
        <time>2014-05-10T10:29:53.000Z</time>
      </trkpt>
      <trkpt lon="7.229739921167493" lat="46.178364995867014">
        <ele>471.79998779296875</ele>
        <time>2014-05-10T10:29:59.000Z</time>
      </trkpt>
      <trkpt lon="7.229543952271342" lat="46.1782999522984">
        <ele>472.0</ele>
        <time>2014-05-10T10:30:02.000Z</time>
      </trkpt>
      <trkpt lon="7.2293739672750235" lat="46.17827296257019">
        <ele>472.20001220703125</ele>
        <time>2014-05-10T10:30:05.000Z</time>
      </trkpt>
      <trkpt lon="7.229260979220271" lat="46.178262988105416">
        <ele>472.20001220703125</ele>
        <time>2014-05-10T10:30:07.000Z</time>
      </trkpt>
      <trkpt lon="7.228867951780558" lat="46.17832099087536">
        <ele>473.0</ele>
        <time>2014-05-10T10:30:14.000Z</time>
      </trkpt>
      <trkpt lon="7.22876594401896" lat="46.17835996672511">
        <ele>473.6000061035156</ele>
        <time>2014-05-10T10:30:17.000Z</time>
      </trkpt>
      <trkpt lon="7.228560922667384" lat="46.17833691649139">
        <ele>474.0</ele>
        <time>2014-05-10T10:30:21.000Z</time>
      </trkpt>
      <trkpt lon="7.228522952646017" lat="46.17827296257019">
        <ele>474.0</ele>
        <time>2014-05-10T10:30:23.000Z</time>
      </trkpt>
      <trkpt lon="7.228393955156207" lat="46.17806098423898">
        <ele>474.3999938964844</ele>
        <time>2014-05-10T10:30:29.000Z</time>
      </trkpt>
      <trkpt lon="7.228230927139521" lat="46.17780491709709">
        <ele>475.0</ele>
        <time>2014-05-10T10:30:36.000Z</time>
      </trkpt>
      <trkpt lon="7.228043926879764" lat="46.17750694043934">
        <ele>475.3999938964844</ele>
        <time>2014-05-10T10:30:44.000Z</time>
      </trkpt>
      <trkpt lon="7.22779992967844" lat="46.17711894214153">
        <ele>477.3999938964844</ele>
        <time>2014-05-10T10:30:53.000Z</time>
      </trkpt>
      <trkpt lon="7.227630950510502" lat="46.17685499601066">
        <ele>477.79998779296875</ele>
        <time>2014-05-10T10:30:59.000Z</time>
      </trkpt>
      <trkpt lon="7.227572947740555" lat="46.17676296271384">
        <ele>478.0</ele>
        <time>2014-05-10T10:31:01.000Z</time>
      </trkpt>
      <trkpt lon="7.227337919175625" lat="46.17655299603939">
        <ele>477.79998779296875</ele>
        <time>2014-05-10T10:31:07.000Z</time>
      </trkpt>
      <trkpt lon="7.226995937526226" lat="46.1763849388808">
        <ele>478.20001220703125</ele>
        <time>2014-05-10T10:31:15.000Z</time>
      </trkpt>
      <trkpt lon="7.226662924513221" lat="46.1762139480561">
        <ele>480.20001220703125</ele>
        <time>2014-05-10T10:31:23.000Z</time>
      </trkpt>
      <trkpt lon="7.226304933428764" lat="46.17604094557464">
        <ele>481.6000061035156</ele>
        <time>2014-05-10T10:31:32.000Z</time>
      </trkpt>
      <trkpt lon="7.22623192705214" lat="46.176005993038416">
        <ele>481.6000061035156</ele>
        <time>2014-05-10T10:31:34.000Z</time>
      </trkpt>
      <trkpt lon="7.225875947624445" lat="46.176156951114535">
        <ele>480.20001220703125</ele>
        <time>2014-05-10T10:31:41.000Z</time>
      </trkpt>
      <trkpt lon="7.22550094127655" lat="46.176352920010686">
        <ele>479.20001220703125</ele>
        <time>2014-05-10T10:31:47.000Z</time>
      </trkpt>
      <trkpt lon="7.225011941045523" lat="46.17661192081869">
        <ele>477.3999938964844</ele>
        <time>2014-05-10T10:31:54.000Z</time>
      </trkpt>
      <trkpt lon="7.224580943584442" lat="46.176843931898475">
        <ele>476.20001220703125</ele>
        <time>2014-05-10T10:32:00.000Z</time>
      </trkpt>
      <trkpt lon="7.2245069313794374" lat="46.176882991567254">
        <ele>476.0</ele>
        <time>2014-05-10T10:32:01.000Z</time>
      </trkpt>
      <trkpt lon="7.224180959165096" lat="46.17699698545039">
        <ele>475.3999938964844</ele>
        <time>2014-05-10T10:32:05.000Z</time>
      </trkpt>
      <trkpt lon="7.223965963348746" lat="46.17689497768879">
        <ele>475.3999938964844</ele>
        <time>2014-05-10T10:32:08.000Z</time>
      </trkpt>
      <trkpt lon="7.223901925608516" lat="46.176847955212">
        <ele>475.6000061035156</ele>
        <time>2014-05-10T10:32:09.000Z</time>
      </trkpt>
      <trkpt lon="7.223360957577825" lat="46.176452999934554">
        <ele>476.3999938964844</ele>
        <time>2014-05-10T10:32:18.000Z</time>
      </trkpt>
      <trkpt lon="7.223023921251297" lat="46.17620699107647">
        <ele>476.3999938964844</ele>
        <time>2014-05-10T10:32:25.000Z</time>
      </trkpt>
      <trkpt lon="7.222847985103726" lat="46.17607899941504">
        <ele>475.79998779296875</ele>
        <time>2014-05-10T10:32:29.000Z</time>
      </trkpt>
      <trkpt lon="7.222764920443296" lat="46.17601797915995">
        <ele>475.6000061035156</ele>
        <time>2014-05-10T10:32:31.000Z</time>
      </trkpt>
      <trkpt lon="7.222471972927451" lat="46.17580499500036">
        <ele>475.3999938964844</ele>
        <time>2014-05-10T10:32:38.000Z</time>
      </trkpt>
      <trkpt lon="7.222109958529472" lat="46.175534930080175">
        <ele>475.79998779296875</ele>
        <time>2014-05-10T10:32:46.000Z</time>
      </trkpt>
      <trkpt lon="7.221837965771556" lat="46.17533192038536">
        <ele>477.20001220703125</ele>
        <time>2014-05-10T10:32:53.000Z</time>
      </trkpt>
      <trkpt lon="7.221785997971892" lat="46.175293950363994">
        <ele>477.20001220703125</ele>
        <time>2014-05-10T10:32:56.000Z</time>
      </trkpt>
      <trkpt lon="7.221785997971892" lat="46.175293950363994">
        <ele>476.79998779296875</ele>
        <time>2014-05-10T10:32:57.000Z</time>
      </trkpt>
      <trkpt lon="7.221735958009958" lat="46.17525698617101">
        <ele>477.79998779296875</ele>
        <time>2014-05-10T10:33:13.000Z</time>
      </trkpt>
      <trkpt lon="7.221616934984922" lat="46.175167970359325">
        <ele>478.3999938964844</ele>
        <time>2014-05-10T10:33:18.000Z</time>
      </trkpt>
      <trkpt lon="7.221409985795617" lat="46.175013994798064">
        <ele>478.3999938964844</ele>
        <time>2014-05-10T10:33:25.000Z</time>
      </trkpt>
      <trkpt lon="7.221067920327187" lat="46.174758933484554">
        <ele>479.20001220703125</ele>
        <time>2014-05-10T10:33:36.000Z</time>
      </trkpt>
      <trkpt lon="7.220836998894811" lat="46.174586936831474">
        <ele>480.0</ele>
        <time>2014-05-10T10:33:43.000Z</time>
      </trkpt>
      <trkpt lon="7.2204789239913225" lat="46.17432097904384">
        <ele>481.20001220703125</ele>
        <time>2014-05-10T10:33:54.000Z</time>
      </trkpt>
      <trkpt lon="7.220300976186991" lat="46.17418695241213">
        <ele>481.3999938964844</ele>
        <time>2014-05-10T10:34:01.000Z</time>
      </trkpt>
      <trkpt lon="7.220277925953269" lat="46.17416993714869">
        <ele>481.3999938964844</ele>
        <time>2014-05-10T10:34:02.000Z</time>
      </trkpt>
      <trkpt lon="7.22014993429184" lat="46.174224922433496">
        <ele>482.0</ele>
        <time>2014-05-10T10:34:06.000Z</time>
      </trkpt>
      <trkpt lon="7.220069970935583" lat="46.174264987930655">
        <ele>483.6000061035156</ele>
        <time>2014-05-10T10:34:08.000Z</time>
      </trkpt>
      <trkpt lon="7.219957988709211" lat="46.1743369884789">
        <ele>483.79998779296875</ele>
        <time>2014-05-10T10:34:11.000Z</time>
      </trkpt>
      <trkpt lon="7.219959916546941" lat="46.1744939815253">
        <ele>483.3999938964844</ele>
        <time>2014-05-10T10:34:15.000Z</time>
      </trkpt>
      <trkpt lon="7.220230987295508" lat="46.17468995042145">
        <ele>482.6000061035156</ele>
        <time>2014-05-10T10:34:21.000Z</time>
      </trkpt>
      <trkpt lon="7.22042896784842" lat="46.17483294568956">
        <ele>481.3999938964844</ele>
        <time>2014-05-10T10:34:25.000Z</time>
      </trkpt>
      <trkpt lon="7.220761980861425" lat="46.17507794871926">
        <ele>480.79998779296875</ele>
        <time>2014-05-10T10:34:31.000Z</time>
      </trkpt>
      <trkpt lon="7.220919979736209" lat="46.17528196424246">
        <ele>479.79998779296875</ele>
        <time>2014-05-10T10:34:35.000Z</time>
      </trkpt>
      <trkpt lon="7.220896929502487" lat="46.17547298781574">
        <ele>479.20001220703125</ele>
        <time>2014-05-10T10:34:38.000Z</time>
      </trkpt>
      <trkpt lon="7.2208429500460625" lat="46.17553794756532">
        <ele>478.79998779296875</ele>
        <time>2014-05-10T10:34:39.000Z</time>
      </trkpt>
      <trkpt lon="7.220261916518211" lat="46.17599794641137">
        <ele>476.0</ele>
        <time>2014-05-10T10:34:47.000Z</time>
      </trkpt>
      <trkpt lon="7.219710974022746" lat="46.17639994248748">
        <ele>474.20001220703125</ele>
        <time>2014-05-10T10:34:54.000Z</time>
      </trkpt>
      <trkpt lon="7.2193509712815285" lat="46.17666891776025">
        <ele>475.3999938964844</ele>
        <time>2014-05-10T10:34:59.000Z</time>
      </trkpt>
      <trkpt lon="7.21901192329824" lat="46.176926996558905">
        <ele>475.3999938964844</ele>
        <time>2014-05-10T10:35:06.000Z</time>
      </trkpt>
      <trkpt lon="7.218643957749009" lat="46.17722195573151">
        <ele>476.20001220703125</ele>
        <time>2014-05-10T10:35:15.000Z</time>
      </trkpt>
      <trkpt lon="7.218322930857539" lat="46.17750593461096">
        <ele>477.6000061035156</ele>
        <time>2014-05-10T10:35:24.000Z</time>
      </trkpt>
      <trkpt lon="7.218199968338013" lat="46.17769494652748">
        <ele>478.79998779296875</ele>
        <time>2014-05-10T10:35:29.000Z</time>
      </trkpt>
      <trkpt lon="7.217931998893619" lat="46.177747920155525">
        <ele>479.3999938964844</ele>
        <time>2014-05-10T10:35:35.000Z</time>
      </trkpt>
      <trkpt lon="7.2176869958639145" lat="46.177747920155525">
        <ele>478.3999938964844</ele>
        <time>2014-05-10T10:35:39.000Z</time>
      </trkpt>
      <trkpt lon="7.2174599301069975" lat="46.177747920155525">
        <ele>478.3999938964844</ele>
        <time>2014-05-10T10:35:42.000Z</time>
      </trkpt>
      <trkpt lon="7.2169869393110275" lat="46.17772897705436">
        <ele>477.79998779296875</ele>
        <time>2014-05-10T10:35:49.000Z</time>
      </trkpt>
      <trkpt lon="7.216548984870315" lat="46.17771699093282">
        <ele>477.79998779296875</ele>
        <time>2014-05-10T10:35:56.000Z</time>
      </trkpt>
      <trkpt lon="7.215972980484366" lat="46.17769494652748">
        <ele>478.6000061035156</ele>
        <time>2014-05-10T10:36:05.000Z</time>
      </trkpt>
      <trkpt lon="7.215470988303423" lat="46.17762898094952">
        <ele>478.0</ele>
        <time>2014-05-10T10:36:13.000Z</time>
      </trkpt>
      <trkpt lon="7.215095981955528" lat="46.17755999788642">
        <ele>475.0</ele>
        <time>2014-05-10T10:36:18.000Z</time>
      </trkpt>
      <trkpt lon="7.21467194147408" lat="46.177532924339175">
        <ele>475.0</ele>
        <time>2014-05-10T10:36:22.000Z</time>
      </trkpt>
      <trkpt lon="7.214256953448057" lat="46.177532924339175">
        <ele>477.20001220703125</ele>
        <time>2014-05-10T10:36:26.000Z</time>
      </trkpt>
      <trkpt lon="7.213844982907176" lat="46.17756997235119">
        <ele>478.20001220703125</ele>
        <time>2014-05-10T10:36:31.000Z</time>
      </trkpt>
      <trkpt lon="7.213205946609378" lat="46.17758296430111">
        <ele>477.3999938964844</ele>
        <time>2014-05-10T10:36:40.000Z</time>
      </trkpt>
      <trkpt lon="7.212507985532284" lat="46.17758899927139">
        <ele>476.3999938964844</ele>
        <time>2014-05-10T10:36:49.000Z</time>
      </trkpt>
      <trkpt lon="7.211860986426473" lat="46.17760693654418">
        <ele>476.0</ele>
        <time>2014-05-10T10:36:57.000Z</time>
      </trkpt>
      <trkpt lon="7.211274923756719" lat="46.177618922665715">
        <ele>476.0</ele>
        <time>2014-05-10T10:37:04.000Z</time>
      </trkpt>
      <trkpt lon="7.2106909565627575" lat="46.177616994827986">
        <ele>475.6000061035156</ele>
        <time>2014-05-10T10:37:11.000Z</time>
      </trkpt>
      <trkpt lon="7.209884952753782" lat="46.17754993960261">
        <ele>476.0</ele>
        <time>2014-05-10T10:37:21.000Z</time>
      </trkpt>
      <trkpt lon="7.208987921476364" lat="46.1774349398911">
        <ele>476.79998779296875</ele>
        <time>2014-05-10T10:37:32.000Z</time>
      </trkpt>
      <trkpt lon="7.2082659881561995" lat="46.17730393074453">
        <ele>476.0</ele>
        <time>2014-05-10T10:37:41.000Z</time>
      </trkpt>
      <trkpt lon="7.207788974046707" lat="46.17721692658961">
        <ele>476.0</ele>
        <time>2014-05-10T10:37:47.000Z</time>
      </trkpt>
      <trkpt lon="7.207294944673777" lat="46.177101926878095">
        <ele>475.3999938964844</ele>
        <time>2014-05-10T10:37:53.000Z</time>
      </trkpt>
      <trkpt lon="7.2068199422210455" lat="46.17696798406541">
        <ele>476.79998779296875</ele>
        <time>2014-05-10T10:37:59.000Z</time>
      </trkpt>
      <trkpt lon="7.2062659822404385" lat="46.176777966320515">
        <ele>479.20001220703125</ele>
        <time>2014-05-10T10:38:06.000Z</time>
      </trkpt>
      <trkpt lon="7.205916959792376" lat="46.176649974659085">
        <ele>479.79998779296875</ele>
        <time>2014-05-10T10:38:11.000Z</time>
      </trkpt>
      <trkpt lon="7.205444974824786" lat="46.17645098827779">
        <ele>479.3999938964844</ele>
        <time>2014-05-10T10:38:18.000Z</time>
      </trkpt>
      <trkpt lon="7.204782972112298" lat="46.17614094167948">
        <ele>479.6000061035156</ele>
        <time>2014-05-10T10:38:28.000Z</time>
      </trkpt>
      <trkpt lon="7.204368989914656" lat="46.17593399249017">
        <ele>479.3999938964844</ele>
        <time>2014-05-10T10:38:35.000Z</time>
      </trkpt>
      <trkpt lon="7.20420797355473" lat="46.175833996385336">
        <ele>479.79998779296875</ele>
        <time>2014-05-10T10:38:39.000Z</time>
      </trkpt>
      <trkpt lon="7.204087944701314" lat="46.17575696669519">
        <ele>479.79998779296875</ele>
        <time>2014-05-10T10:38:45.000Z</time>
      </trkpt>
      <trkpt lon="7.203920977190137" lat="46.17565093562007">
        <ele>478.6000061035156</ele>
        <time>2014-05-10T10:38:51.000Z</time>
      </trkpt>
      <trkpt lon="7.203678991645575" lat="46.17549595423043">
        <ele>477.79998779296875</ele>
        <time>2014-05-10T10:38:57.000Z</time>
      </trkpt>
      <trkpt lon="7.203635992482305" lat="46.175467958673835">
        <ele>477.79998779296875</ele>
        <time>2014-05-10T10:38:58.000Z</time>
      </trkpt>
      <trkpt lon="7.203290993347764" lat="46.175228990614414">
        <ele>477.6000061035156</ele>
        <time>2014-05-10T10:39:05.000Z</time>
      </trkpt>
      <trkpt lon="7.202842980623245" lat="46.17491399869323">
        <ele>477.6000061035156</ele>
        <time>2014-05-10T10:39:13.000Z</time>
      </trkpt>
      <trkpt lon="7.202454982325435" lat="46.174612920731306">
        <ele>478.0</ele>
        <time>2014-05-10T10:39:20.000Z</time>
      </trkpt>
      <trkpt lon="7.202197993174195" lat="46.174393985420465">
        <ele>477.3999938964844</ele>
        <time>2014-05-10T10:39:25.000Z</time>
      </trkpt>
      <trkpt lon="7.201869925484061" lat="46.17410992272198">
        <ele>477.0</ele>
        <time>2014-05-10T10:39:32.000Z</time>
      </trkpt>
      <trkpt lon="7.201783927157521" lat="46.17402392439544">
        <ele>477.0</ele>
        <time>2014-05-10T10:39:34.000Z</time>
      </trkpt>
      <trkpt lon="7.201653923839331" lat="46.17389392107725">
        <ele>477.0</ele>
        <time>2014-05-10T10:39:37.000Z</time>
      </trkpt>
      <trkpt lon="7.201377991586924" lat="46.17354699410498">
        <ele>477.6000061035156</ele>
        <time>2014-05-10T10:39:45.000Z</time>
      </trkpt>
      <trkpt lon="7.201234996318817" lat="46.17320794612169">
        <ele>478.0</ele>
        <time>2014-05-10T10:39:52.000Z</time>
      </trkpt>
      <trkpt lon="7.201196942478418" lat="46.17295095697045">
        <ele>478.20001220703125</ele>
        <time>2014-05-10T10:39:58.000Z</time>
      </trkpt>
      <trkpt lon="7.201159978285432" lat="46.1726479511708">
        <ele>477.6000061035156</ele>
        <time>2014-05-10T10:40:05.000Z</time>
      </trkpt>
      <trkpt lon="7.201106920838356" lat="46.172351986169815">
        <ele>477.79998779296875</ele>
        <time>2014-05-10T10:40:11.000Z</time>
      </trkpt>
      <trkpt lon="7.201041961088777" lat="46.17198293097317">
        <ele>477.6000061035156</ele>
        <time>2014-05-10T10:40:18.000Z</time>
      </trkpt>
      <trkpt lon="7.200978929176927" lat="46.17160893045366">
        <ele>477.3999938964844</ele>
        <time>2014-05-10T10:40:26.000Z</time>
      </trkpt>
      <trkpt lon="7.200950933620334" lat="46.17143995128572">
        <ele>477.3999938964844</ele>
        <time>2014-05-10T10:40:30.000Z</time>
      </trkpt>
      <trkpt lon="7.200932996347547" lat="46.17133593186736">
        <ele>477.3999938964844</ele>
        <time>2014-05-10T10:40:32.000Z</time>
      </trkpt>
      <trkpt lon="7.200872981920838" lat="46.170980958268046">
        <ele>476.0</ele>
        <time>2014-05-10T10:40:39.000Z</time>
      </trkpt>
      <trkpt lon="7.200822941958904" lat="46.17068096995354">
        <ele>475.79998779296875</ele>
        <time>2014-05-10T10:40:45.000Z</time>
      </trkpt>
      <trkpt lon="7.200741972774267" lat="46.170203955844045">
        <ele>475.79998779296875</ele>
        <time>2014-05-10T10:40:54.000Z</time>
      </trkpt>
      <trkpt lon="7.200685981661081" lat="46.169882928952575">
        <ele>475.6000061035156</ele>
        <time>2014-05-10T10:41:00.000Z</time>
      </trkpt>
      <trkpt lon="7.200617920607328" lat="46.169491996988654">
        <ele>476.3999938964844</ele>
        <time>2014-05-10T10:41:07.000Z</time>
      </trkpt>
      <trkpt lon="7.200514990836382" lat="46.16889998316765">
        <ele>476.79998779296875</ele>
        <time>2014-05-10T10:41:17.000Z</time>
      </trkpt>
      <trkpt lon="7.200408959761262" lat="46.16837292909622">
        <ele>477.0</ele>
        <time>2014-05-10T10:41:26.000Z</time>
      </trkpt>
      <trkpt lon="7.200353974476457" lat="46.168120969086885">
        <ele>477.0</ele>
        <time>2014-05-10T10:41:31.000Z</time>
      </trkpt>
      <trkpt lon="7.200234951451421" lat="46.167730959132314">
        <ele>476.79998779296875</ele>
        <time>2014-05-10T10:41:39.000Z</time>
      </trkpt>
      <trkpt lon="7.20012397505343" lat="46.16741898469627">
        <ele>476.20001220703125</ele>
        <time>2014-05-10T10:41:45.000Z</time>
      </trkpt>
      <trkpt lon="7.199968993663788" lat="46.16698698140681">
        <ele>475.79998779296875</ele>
        <time>2014-05-10T10:41:53.000Z</time>
      </trkpt>
      <trkpt lon="7.199911996722221" lat="46.166830994188786">
        <ele>476.0</ele>
        <time>2014-05-10T10:41:56.000Z</time>
      </trkpt>
      <trkpt lon="7.199756931513548" lat="46.166467973962426">
        <ele>476.3999938964844</ele>
        <time>2014-05-10T10:42:03.000Z</time>
      </trkpt>
      <trkpt lon="7.19963195733726" lat="46.1662379745394">
        <ele>477.3999938964844</ele>
        <time>2014-05-10T10:42:08.000Z</time>
      </trkpt>
      <trkpt lon="7.199483932927251" lat="46.165968999266624">
        <ele>477.6000061035156</ele>
        <time>2014-05-10T10:42:14.000Z</time>
      </trkpt>
      <trkpt lon="7.199340937659144" lat="46.16570295765996">
        <ele>477.3999938964844</ele>
        <time>2014-05-10T10:42:20.000Z</time>
      </trkpt>
      <trkpt lon="7.199088977649808" lat="46.16522896103561">
        <ele>477.20001220703125</ele>
        <time>2014-05-10T10:42:30.000Z</time>
      </trkpt>
      <trkpt lon="7.198909940198064" lat="46.16489494219422">
        <ele>476.3999938964844</ele>
        <time>2014-05-10T10:42:37.000Z</time>
      </trkpt>
      <trkpt lon="7.198630990460515" lat="46.16436998359859">
        <ele>476.3999938964844</ele>
        <time>2014-05-10T10:42:47.000Z</time>
      </trkpt>
      <trkpt lon="7.19838498160243" lat="46.16387293674052">
        <ele>476.6000061035156</ele>
        <time>2014-05-10T10:42:56.000Z</time>
      </trkpt>
      <trkpt lon="7.198068983852863" lat="46.163349989801645">
        <ele>476.6000061035156</ele>
        <time>2014-05-10T10:43:06.000Z</time>
      </trkpt>
      <trkpt lon="7.1977499686181545" lat="46.16295796819031">
        <ele>476.6000061035156</ele>
        <time>2014-05-10T10:43:14.000Z</time>
      </trkpt>
      <trkpt lon="7.197356941178441" lat="46.162598971277475">
        <ele>476.0</ele>
        <time>2014-05-10T10:43:22.000Z</time>
      </trkpt>
      <trkpt lon="7.196765933185816" lat="46.16219395771623">
        <ele>475.20001220703125</ele>
        <time>2014-05-10T10:43:32.000Z</time>
      </trkpt>
      <trkpt lon="7.196142990142107" lat="46.16187795996666">
        <ele>474.6000061035156</ele>
        <time>2014-05-10T10:43:41.000Z</time>
      </trkpt>
      <trkpt lon="7.1955709252506495" lat="46.16164896637201">
        <ele>473.6000061035156</ele>
        <time>2014-05-10T10:43:49.000Z</time>
      </trkpt>
      <trkpt lon="7.194992993026972" lat="46.161440927535295">
        <ele>473.3999938964844</ele>
        <time>2014-05-10T10:43:57.000Z</time>
      </trkpt>
      <trkpt lon="7.194422939792275" lat="46.16125292144716">
        <ele>472.6000061035156</ele>
        <time>2014-05-10T10:44:05.000Z</time>
      </trkpt>
      <trkpt lon="7.193943997845054" lat="46.161094922572374">
        <ele>472.6000061035156</ele>
        <time>2014-05-10T10:44:12.000Z</time>
      </trkpt>
      <trkpt lon="7.193306973204017" lat="46.16088696755469">
        <ele>473.6000061035156</ele>
        <time>2014-05-10T10:44:21.000Z</time>
      </trkpt>
      <trkpt lon="7.1928679291158915" lat="46.16075998172164">
        <ele>473.79998779296875</ele>
        <time>2014-05-10T10:44:28.000Z</time>
      </trkpt>
      <trkpt lon="7.192402984946966" lat="46.160623943433166">
        <ele>473.20001220703125</ele>
        <time>2014-05-10T10:44:35.000Z</time>
      </trkpt>
      <trkpt lon="7.191904932260513" lat="46.1604789365083">
        <ele>473.20001220703125</ele>
        <time>2014-05-10T10:44:43.000Z</time>
      </trkpt>
      <trkpt lon="7.191040925681591" lat="46.16026394069195">
        <ele>472.3999938964844</ele>
        <time>2014-05-10T10:44:55.000Z</time>
      </trkpt>
      <trkpt lon="7.190526947379112" lat="46.16014399565756">
        <ele>471.79998779296875</ele>
        <time>2014-05-10T10:45:02.000Z</time>
      </trkpt>
      <trkpt lon="7.1903799287974834" lat="46.16010996513069">
        <ele>472.0</ele>
        <time>2014-05-10T10:45:04.000Z</time>
      </trkpt>
      <trkpt lon="7.189841978251934" lat="46.1599849909544">
        <ele>472.0</ele>
        <time>2014-05-10T10:45:12.000Z</time>
      </trkpt>
      <trkpt lon="7.18925298191607" lat="46.159848952665925">
        <ele>471.79998779296875</ele>
        <time>2014-05-10T10:45:20.000Z</time>
      </trkpt>
      <trkpt lon="7.188723916187882" lat="46.15972699597478">
        <ele>472.0</ele>
        <time>2014-05-10T10:45:27.000Z</time>
      </trkpt>
      <trkpt lon="7.188060991466045" lat="46.15958198904991">
        <ele>473.6000061035156</ele>
        <time>2014-05-10T10:45:36.000Z</time>
      </trkpt>
      <trkpt lon="7.1876259706914425" lat="46.15948995575309">
        <ele>474.20001220703125</ele>
        <time>2014-05-10T10:45:42.000Z</time>
      </trkpt>
      <trkpt lon="7.186873946338892" lat="46.159331956878304">
        <ele>475.79998779296875</ele>
        <time>2014-05-10T10:45:52.000Z</time>
      </trkpt>
      <trkpt lon="7.186008933931589" lat="46.159161971881986">
        <ele>476.20001220703125</ele>
        <time>2014-05-10T10:46:03.000Z</time>
      </trkpt>
      <trkpt lon="7.18527895398438" lat="46.159031968563795">
        <ele>475.79998779296875</ele>
        <time>2014-05-10T10:46:12.000Z</time>
      </trkpt>
      <trkpt lon="7.184555931016803" lat="46.158902971073985">
        <ele>475.6000061035156</ele>
        <time>2014-05-10T10:46:21.000Z</time>
      </trkpt>
      <trkpt lon="7.183833997696638" lat="46.15878495387733">
        <ele>476.20001220703125</ele>
        <time>2014-05-10T10:46:30.000Z</time>
      </trkpt>
      <trkpt lon="7.183041991665959" lat="46.1586569622159">
        <ele>477.0</ele>
        <time>2014-05-10T10:46:40.000Z</time>
      </trkpt>
      <trkpt lon="7.1822489798069" lat="46.15853492170572">
        <ele>477.20001220703125</ele>
        <time>2014-05-10T10:46:50.000Z</time>
      </trkpt>
      <trkpt lon="7.1810599230229855" lat="46.15835898555815">
        <ele>477.3999938964844</ele>
        <time>2014-05-10T10:47:05.000Z</time>
      </trkpt>
      <trkpt lon="7.180254925042391" lat="46.15822797641158">
        <ele>477.3999938964844</ele>
        <time>2014-05-10T10:47:15.000Z</time>
      </trkpt>
      <trkpt lon="7.179460991173983" lat="46.15809394977987">
        <ele>477.20001220703125</ele>
        <time>2014-05-10T10:47:25.000Z</time>
      </trkpt>
      <trkpt lon="7.178756995126605" lat="46.15797693841159">
        <ele>477.0</ele>
        <time>2014-05-10T10:47:34.000Z</time>
      </trkpt>
      <trkpt lon="7.178084934130311" lat="46.157869985327125">
        <ele>477.20001220703125</ele>
        <time>2014-05-10T10:47:43.000Z</time>
      </trkpt>
      <trkpt lon="7.177362916991115" lat="46.15775599144399">
        <ele>477.6000061035156</ele>
        <time>2014-05-10T10:47:52.000Z</time>
      </trkpt>
      <trkpt lon="7.176281986758113" lat="46.15758399479091">
        <ele>477.20001220703125</ele>
        <time>2014-05-10T10:48:05.000Z</time>
      </trkpt>
      <trkpt lon="7.175535997375846" lat="46.157465977594256">
        <ele>476.6000061035156</ele>
        <time>2014-05-10T10:48:14.000Z</time>
      </trkpt>
      <trkpt lon="7.175032999366522" lat="46.15738593041897">
        <ele>475.3999938964844</ele>
        <time>2014-05-10T10:48:21.000Z</time>
      </trkpt>
      <trkpt lon="7.174405949190259" lat="46.157273948192596">
        <ele>475.3999938964844</ele>
        <time>2014-05-10T10:48:29.000Z</time>
      </trkpt>
      <trkpt lon="7.1738759614527225" lat="46.15717495791614">
        <ele>475.79998779296875</ele>
        <time>2014-05-10T10:48:36.000Z</time>
      </trkpt>
      <trkpt lon="7.173357959836721" lat="46.157078985124826">
        <ele>476.0</ele>
        <time>2014-05-10T10:48:43.000Z</time>
      </trkpt>
      <trkpt lon="7.1729279682040215" lat="46.15699893794954">
        <ele>476.20001220703125</ele>
        <time>2014-05-10T10:48:49.000Z</time>
      </trkpt>
      <trkpt lon="7.172480961307883" lat="46.156905982643366">
        <ele>476.20001220703125</ele>
        <time>2014-05-10T10:48:56.000Z</time>
      </trkpt>
      <trkpt lon="7.172008976340294" lat="46.15680296905339">
        <ele>475.79998779296875</ele>
        <time>2014-05-10T10:49:03.000Z</time>
      </trkpt>
      <trkpt lon="7.17125091701746" lat="46.15663692355156">
        <ele>475.79998779296875</ele>
        <time>2014-05-10T10:49:13.000Z</time>
      </trkpt>
      <trkpt lon="7.170530995354056" lat="46.15646492689848">
        <ele>474.79998779296875</ele>
        <time>2014-05-10T10:49:22.000Z</time>
      </trkpt>
      <trkpt lon="7.169925989583135" lat="46.1562929302454">
        <ele>474.20001220703125</ele>
        <time>2014-05-10T10:49:30.000Z</time>
      </trkpt>
      <trkpt lon="7.169422991573811" lat="46.15614993497729">
        <ele>474.20001220703125</ele>
        <time>2014-05-10T10:49:37.000Z</time>
      </trkpt>
      <trkpt lon="7.16897196136415" lat="46.156021943315864">
        <ele>474.20001220703125</ele>
        <time>2014-05-10T10:49:44.000Z</time>
      </trkpt>
      <trkpt lon="7.168544987216592" lat="46.155892945826054">
        <ele>473.79998779296875</ele>
        <time>2014-05-10T10:49:50.000Z</time>
      </trkpt>
      <trkpt lon="7.167768990620971" lat="46.15563997998834">
        <ele>473.20001220703125</ele>
        <time>2014-05-10T10:50:00.000Z</time>
      </trkpt>
      <trkpt lon="7.166787972673774" lat="46.15531995892525">
        <ele>473.0</ele>
        <time>2014-05-10T10:50:13.000Z</time>
      </trkpt>
      <trkpt lon="7.166223954409361" lat="46.1551099922508">
        <ele>472.6000061035156</ele>
        <time>2014-05-10T10:50:21.000Z</time>
      </trkpt>
      <trkpt lon="7.165523981675506" lat="46.15483498200774">
        <ele>472.79998779296875</ele>
        <time>2014-05-10T10:50:31.000Z</time>
      </trkpt>
      <trkpt lon="7.164842952042818" lat="46.154566928744316">
        <ele>473.0</ele>
        <time>2014-05-10T10:50:41.000Z</time>
      </trkpt>
      <trkpt lon="7.1642169915139675" lat="46.154305916279554">
        <ele>473.20001220703125</ele>
        <time>2014-05-10T10:50:50.000Z</time>
      </trkpt>
      <trkpt lon="7.164151947945356" lat="46.15427792072296">
        <ele>473.20001220703125</ele>
        <time>2014-05-10T10:50:51.000Z</time>
      </trkpt>
      <trkpt lon="7.163702929392457" lat="46.154086980968714">
        <ele>472.6000061035156</ele>
        <time>2014-05-10T10:50:58.000Z</time>
      </trkpt>
      <trkpt lon="7.163176964968443" lat="46.15386293269694">
        <ele>472.20001220703125</ele>
        <time>2014-05-10T10:51:06.000Z</time>
      </trkpt>
      <trkpt lon="7.162766922265291" lat="46.15368791855872">
        <ele>472.0</ele>
        <time>2014-05-10T10:51:12.000Z</time>
      </trkpt>
      <trkpt lon="7.162470957264304" lat="46.153552969917655">
        <ele>472.20001220703125</ele>
        <time>2014-05-10T10:51:17.000Z</time>
      </trkpt>
      <trkpt lon="7.1620879881083965" lat="46.15337192080915">
        <ele>473.0</ele>
        <time>2014-05-10T10:51:24.000Z</time>
      </trkpt>
      <trkpt lon="7.1620329190045595" lat="46.15334493108094">
        <ele>473.20001220703125</ele>
        <time>2014-05-10T10:51:25.000Z</time>
      </trkpt>
      <trkpt lon="7.1616739220917225" lat="46.15317494608462">
        <ele>473.0</ele>
        <time>2014-05-10T10:51:32.000Z</time>
      </trkpt>
      <trkpt lon="7.16127997264266" lat="46.15298895165324">
        <ele>472.3999938964844</ele>
        <time>2014-05-10T10:51:39.000Z</time>
      </trkpt>
      <trkpt lon="7.160842940211296" lat="46.152781918644905">
        <ele>471.79998779296875</ele>
        <time>2014-05-10T10:51:46.000Z</time>
      </trkpt>
      <trkpt lon="7.16016199439764" lat="46.15244597196579">
        <ele>471.6000061035156</ele>
        <time>2014-05-10T10:51:57.000Z</time>
      </trkpt>
      <trkpt lon="7.159660924226046" lat="46.15219593979418">
        <ele>471.20001220703125</ele>
        <time>2014-05-10T10:52:05.000Z</time>
      </trkpt>
      <trkpt lon="7.159275943413377" lat="46.152002988383174">
        <ele>470.79998779296875</ele>
        <time>2014-05-10T10:52:12.000Z</time>
      </trkpt>
      <trkpt lon="7.158784931525588" lat="46.15175798535347">
        <ele>471.79998779296875</ele>
        <time>2014-05-10T10:52:20.000Z</time>
      </trkpt>
      <trkpt lon="7.158193923532963" lat="46.15147694014013">
        <ele>472.3999938964844</ele>
        <time>2014-05-10T10:52:29.000Z</time>
      </trkpt>
      <trkpt lon="7.157571986317635" lat="46.1511829867959">
        <ele>472.79998779296875</ele>
        <time>2014-05-10T10:52:38.000Z</time>
      </trkpt>
      <trkpt lon="7.157173929736018" lat="46.150994980707765">
        <ele>473.0</ele>
        <time>2014-05-10T10:52:44.000Z</time>
      </trkpt>
      <trkpt lon="7.156461970880628" lat="46.15066096186638">
        <ele>472.20001220703125</ele>
        <time>2014-05-10T10:52:54.000Z</time>
      </trkpt>
      <trkpt lon="7.155977999791503" lat="46.150436997413635">
        <ele>472.79998779296875</ele>
        <time>2014-05-10T10:53:01.000Z</time>
      </trkpt>
      <trkpt lon="7.155503919348121" lat="46.15021697245538">
        <ele>471.79998779296875</ele>
        <time>2014-05-10T10:53:09.000Z</time>
      </trkpt>
      <trkpt lon="7.155144922435284" lat="46.150050926953554">
        <ele>471.0</ele>
        <time>2014-05-10T10:53:16.000Z</time>
      </trkpt>
      <trkpt lon="7.154697999358177" lat="46.14984397776425">
        <ele>470.79998779296875</ele>
        <time>2014-05-10T10:53:23.000Z</time>
      </trkpt>
      <trkpt lon="7.15425493195653" lat="46.14963795058429">
        <ele>470.79998779296875</ele>
        <time>2014-05-10T10:53:30.000Z</time>
      </trkpt>
      <trkpt lon="7.153712958097458" lat="46.149385990574956">
        <ele>471.0</ele>
        <time>2014-05-10T10:53:39.000Z</time>
      </trkpt>
      <trkpt lon="7.153208954259753" lat="46.14915196783841">
        <ele>471.3999938964844</ele>
        <time>2014-05-10T10:53:47.000Z</time>
      </trkpt>
      <trkpt lon="7.152892956510186" lat="46.14900494925678">
        <ele>470.6000061035156</ele>
        <time>2014-05-10T10:53:53.000Z</time>
      </trkpt>
      <trkpt lon="7.152372943237424" lat="46.148738991469145">
        <ele>469.79998779296875</ele>
        <time>2014-05-10T10:54:02.000Z</time>
      </trkpt>
      <trkpt lon="7.151988968253136" lat="46.14851896651089">
        <ele>468.79998779296875</ele>
        <time>2014-05-10T10:54:10.000Z</time>
      </trkpt>
      <trkpt lon="7.15189098380506" lat="46.148462975397706">
        <ele>468.3999938964844</ele>
        <time>2014-05-10T10:54:12.000Z</time>
      </trkpt>
      <trkpt lon="7.151538943871856" lat="46.14825996570289">
        <ele>466.3999938964844</ele>
        <time>2014-05-10T10:54:18.000Z</time>
      </trkpt>
      <trkpt lon="7.151404917240143" lat="46.148177990689874">
        <ele>465.20001220703125</ele>
        <time>2014-05-10T10:54:20.000Z</time>
      </trkpt>
      <trkpt lon="7.151128984987736" lat="46.147903986275196">
        <ele>463.0</ele>
        <time>2014-05-10T10:54:25.000Z</time>
      </trkpt>
      <trkpt lon="7.151082968339324" lat="46.14784296602011">
        <ele>463.3999938964844</ele>
        <time>2014-05-10T10:54:26.000Z</time>
      </trkpt>
      <trkpt lon="7.150864955037832" lat="46.147598968818784">
        <ele>464.3999938964844</ele>
        <time>2014-05-10T10:54:30.000Z</time>
      </trkpt>
      <trkpt lon="7.1505179442465305" lat="46.14739193581045">
        <ele>465.6000061035156</ele>
        <time>2014-05-10T10:54:36.000Z</time>
      </trkpt>
      <trkpt lon="7.150084935128689" lat="46.1472839768976">
        <ele>463.6000061035156</ele>
        <time>2014-05-10T10:54:43.000Z</time>
      </trkpt>
      <trkpt lon="7.149697942659259" lat="46.14723293110728">
        <ele>465.6000061035156</ele>
        <time>2014-05-10T10:54:49.000Z</time>
      </trkpt>
      <trkpt lon="7.149244984611869" lat="46.147194961085916">
        <ele>468.6000061035156</ele>
        <time>2014-05-10T10:54:56.000Z</time>
      </trkpt>
      <trkpt lon="7.1492029912769794" lat="46.147191943600774">
        <ele>469.0</ele>
        <time>2014-05-10T10:54:57.000Z</time>
      </trkpt>
      <trkpt lon="7.149124955758452" lat="46.147191943600774">
        <ele>469.79998779296875</ele>
        <time>2014-05-10T10:55:01.000Z</time>
      </trkpt>
      <trkpt lon="7.1490539610385895" lat="46.147191943600774">
        <ele>473.79998779296875</ele>
        <time>2014-05-10T10:57:14.000Z</time>
      </trkpt>
      <trkpt lon="7.148739974945784" lat="46.14707593806088">
        <ele>474.20001220703125</ele>
        <time>2014-05-10T10:57:20.000Z</time>
      </trkpt>
      <trkpt lon="7.148253992199898" lat="46.146848956122994">
        <ele>474.3999938964844</ele>
        <time>2014-05-10T10:57:28.000Z</time>
      </trkpt>
      <trkpt lon="7.147781923413277" lat="46.14662993699312">
        <ele>473.6000061035156</ele>
        <time>2014-05-10T10:57:35.000Z</time>
      </trkpt>
      <trkpt lon="7.147359978407621" lat="46.14643396809697">
        <ele>471.79998779296875</ele>
        <time>2014-05-10T10:57:41.000Z</time>
      </trkpt>
      <trkpt lon="7.146720942109823" lat="46.146136997267604">
        <ele>469.20001220703125</ele>
        <time>2014-05-10T10:57:50.000Z</time>
      </trkpt>
      <trkpt lon="7.146131945773959" lat="46.145862992852926">
        <ele>469.6000061035156</ele>
        <time>2014-05-10T10:57:58.000Z</time>
      </trkpt>
      <trkpt lon="7.14564093388617" lat="46.14563399925828">
        <ele>468.3999938964844</ele>
        <time>2014-05-10T10:58:05.000Z</time>
      </trkpt>
      <trkpt lon="7.145003993064165" lat="46.14533996209502">
        <ele>469.0</ele>
        <time>2014-05-10T10:58:14.000Z</time>
      </trkpt>
      <trkpt lon="7.144390940666199" lat="46.14505698904395">
        <ele>469.6000061035156</ele>
        <time>2014-05-10T10:58:23.000Z</time>
      </trkpt>
      <trkpt lon="7.143910992890596" lat="46.14483495242894">
        <ele>469.79998779296875</ele>
        <time>2014-05-10T10:58:30.000Z</time>
      </trkpt>
      <trkpt lon="7.14342693798244" lat="46.14460696466267">
        <ele>470.0</ele>
        <time>2014-05-10T10:58:38.000Z</time>
      </trkpt>
      <trkpt lon="7.142961993813515" lat="46.144379982724786">
        <ele>470.3999938964844</ele>
        <time>2014-05-10T10:58:45.000Z</time>
      </trkpt>
      <trkpt lon="7.142430916428566" lat="46.144120981916785">
        <ele>470.3999938964844</ele>
        <time>2014-05-10T10:58:53.000Z</time>
      </trkpt>
      <trkpt lon="7.141783917322755" lat="46.14380297251046">
        <ele>470.6000061035156</ele>
        <time>2014-05-10T10:59:03.000Z</time>
      </trkpt>
      <trkpt lon="7.141465991735458" lat="46.14363893866539">
        <ele>471.20001220703125</ele>
        <time>2014-05-10T10:59:09.000Z</time>
      </trkpt>
      <trkpt lon="7.141194920986891" lat="46.143498960882425">
        <ele>471.3999938964844</ele>
        <time>2014-05-10T10:59:15.000Z</time>
      </trkpt>
      <trkpt lon="7.140991995111108" lat="46.14339494146407">
        <ele>471.3999938964844</ele>
        <time>2014-05-10T10:59:19.000Z</time>
      </trkpt>
      <trkpt lon="7.14058798737824" lat="46.14318698644638">
        <ele>471.20001220703125</ele>
        <time>2014-05-10T10:59:26.000Z</time>
      </trkpt>
      <trkpt lon="7.139901928603649" lat="46.142830923199654">
        <ele>471.20001220703125</ele>
        <time>2014-05-10T10:59:37.000Z</time>
      </trkpt>
      <trkpt lon="7.139441929757595" lat="46.14259195514023">
        <ele>471.79998779296875</ele>
        <time>2014-05-10T10:59:44.000Z</time>
      </trkpt>
      <trkpt lon="7.138787973672152" lat="46.142251985147595">
        <ele>472.79998779296875</ele>
        <time>2014-05-10T10:59:54.000Z</time>
      </trkpt>
      <trkpt lon="7.138315988704562" lat="46.14200698211789">
        <ele>473.20001220703125</ele>
        <time>2014-05-10T11:00:02.000Z</time>
      </trkpt>
      <trkpt lon="7.138218926265836" lat="46.14195794798434">
        <ele>473.6000061035156</ele>
        <time>2014-05-10T11:00:04.000Z</time>
      </trkpt>
      <trkpt lon="7.13835496455431" lat="46.141799949109554">
        <ele>472.20001220703125</ele>
        <time>2014-05-10T11:00:08.000Z</time>
      </trkpt>
      <trkpt lon="7.138640955090523" lat="46.141587970778346">
        <ele>470.0</ele>
        <time>2014-05-10T11:00:13.000Z</time>
      </trkpt>
      <trkpt lon="7.139075975865126" lat="46.14125797525048">
        <ele>467.6000061035156</ele>
        <time>2014-05-10T11:00:19.000Z</time>
      </trkpt>
      <trkpt lon="7.139273956418037" lat="46.14110492169857">
        <ele>466.79998779296875</ele>
        <time>2014-05-10T11:00:22.000Z</time>
      </trkpt>
      <trkpt lon="7.139166919514537" lat="46.14099394530058">
        <ele>466.79998779296875</ele>
        <time>2014-05-10T11:00:24.000Z</time>
      </trkpt>
      <trkpt lon="7.138594938442111" lat="46.14060896448791">
        <ele>466.79998779296875</ele>
        <time>2014-05-10T11:00:33.000Z</time>
      </trkpt>
      <trkpt lon="7.137996973469853" lat="46.14021694287658">
        <ele>467.20001220703125</ele>
        <time>2014-05-10T11:00:42.000Z</time>
      </trkpt>
      <trkpt lon="7.137290965765715" lat="46.13978695124388">
        <ele>467.6000061035156</ele>
        <time>2014-05-10T11:00:52.000Z</time>
      </trkpt>
      <trkpt lon="7.136788973584771" lat="46.13944496959448">
        <ele>468.0</ele>
        <time>2014-05-10T11:01:00.000Z</time>
      </trkpt>
      <trkpt lon="7.136131916195154" lat="46.139007937163115">
        <ele>467.6000061035156</ele>
        <time>2014-05-10T11:01:10.000Z</time>
      </trkpt>
      <trkpt lon="7.135766968131065" lat="46.138770980760455">
        <ele>467.79998779296875</ele>
        <time>2014-05-10T11:01:17.000Z</time>
      </trkpt>
      <trkpt lon="7.13521895930171" lat="46.13841198384762">
        <ele>467.6000061035156</ele>
        <time>2014-05-10T11:01:26.000Z</time>
      </trkpt>
      <trkpt lon="7.1346719563007355" lat="46.138064973056316">
        <ele>467.79998779296875</ele>
        <time>2014-05-10T11:01:34.000Z</time>
      </trkpt>
      <trkpt lon="7.134171975776553" lat="46.13778191618621">
        <ele>468.0</ele>
        <time>2014-05-10T11:01:42.000Z</time>
      </trkpt>
      <trkpt lon="7.13367098942399" lat="46.137484945356846">
        <ele>467.79998779296875</ele>
        <time>2014-05-10T11:01:50.000Z</time>
      </trkpt>
      <trkpt lon="7.133128931745887" lat="46.137180933728814">
        <ele>468.0</ele>
        <time>2014-05-10T11:01:58.000Z</time>
      </trkpt>
      <trkpt lon="7.132759960368276" lat="46.13702192902565">
        <ele>468.0</ele>
        <time>2014-05-10T11:02:04.000Z</time>
      </trkpt>
      <trkpt lon="7.132375985383987" lat="46.136818919330835">
        <ele>467.79998779296875</ele>
        <time>2014-05-10T11:02:11.000Z</time>
      </trkpt>
      <trkpt lon="7.131806937977672" lat="46.13657299429178">
        <ele>467.6000061035156</ele>
        <time>2014-05-10T11:02:19.000Z</time>
      </trkpt>
      <trkpt lon="7.131271921098232" lat="46.13639295101166">
        <ele>467.6000061035156</ele>
        <time>2014-05-10T11:02:26.000Z</time>
      </trkpt>
      <trkpt lon="7.130570942535996" lat="46.13616697490215">
        <ele>467.79998779296875</ele>
        <time>2014-05-10T11:02:35.000Z</time>
      </trkpt>
      <trkpt lon="7.1298599895089865" lat="46.13593194633722">
        <ele>468.0</ele>
        <time>2014-05-10T11:02:44.000Z</time>
      </trkpt>
      <trkpt lon="7.129083992913365" lat="46.13571192137897">
        <ele>468.3999938964844</ele>
        <time>2014-05-10T11:02:54.000Z</time>
      </trkpt>
      <trkpt lon="7.1285199746489525" lat="46.135529950261116">
        <ele>468.3999938964844</ele>
        <time>2014-05-10T11:03:02.000Z</time>
      </trkpt>
      <trkpt lon="7.127810949459672" lat="46.13534496165812">
        <ele>468.6000061035156</ele>
        <time>2014-05-10T11:03:11.000Z</time>
      </trkpt>
      <trkpt lon="7.127178953960538" lat="46.13519894890487">
        <ele>468.6000061035156</ele>
        <time>2014-05-10T11:03:19.000Z</time>
      </trkpt>
      <trkpt lon="7.126472946256399" lat="46.135029969736934">
        <ele>468.3999938964844</ele>
        <time>2014-05-10T11:03:28.000Z</time>
      </trkpt>
      <trkpt lon="7.125748917460442" lat="46.13478496670723">
        <ele>468.6000061035156</ele>
        <time>2014-05-10T11:03:37.000Z</time>
      </trkpt>
      <trkpt lon="7.125673983246088" lat="46.13474096171558">
        <ele>468.6000061035156</ele>
        <time>2014-05-10T11:03:38.000Z</time>
      </trkpt>
      <trkpt lon="7.12526997551322" lat="46.134602995589375">
        <ele>468.3999938964844</ele>
        <time>2014-05-10T11:03:44.000Z</time>
      </trkpt>
      <trkpt lon="7.1247699949890375" lat="46.1344999819994">
        <ele>467.20001220703125</ele>
        <time>2014-05-10T11:03:51.000Z</time>
      </trkpt>
      <trkpt lon="7.124171946197748" lat="46.134472992271185">
        <ele>467.6000061035156</ele>
        <time>2014-05-10T11:03:58.000Z</time>
      </trkpt>
      <trkpt lon="7.123996932059526" lat="46.13447894342244">
        <ele>467.6000061035156</ele>
        <time>2014-05-10T11:04:00.000Z</time>
      </trkpt>
      <trkpt lon="7.123129991814494" lat="46.134557984769344">
        <ele>468.0</ele>
        <time>2014-05-10T11:04:11.000Z</time>
      </trkpt>
      <trkpt lon="7.122803935781121" lat="46.13459897227585">
        <ele>468.6000061035156</ele>
        <time>2014-05-10T11:04:15.000Z</time>
      </trkpt>
      <trkpt lon="7.122509982436895" lat="46.13474699668586">
        <ele>469.3999938964844</ele>
        <time>2014-05-10T11:04:20.000Z</time>
      </trkpt>
      <trkpt lon="7.122249975800514" lat="46.13478295505047">
        <ele>470.20001220703125</ele>
        <time>2014-05-10T11:04:25.000Z</time>
      </trkpt>
      <trkpt lon="7.122188955545425" lat="46.134776920080185">
        <ele>470.3999938964844</ele>
        <time>2014-05-10T11:04:26.000Z</time>
      </trkpt>
      <trkpt lon="7.121868934482336" lat="46.13470491953194">
        <ele>471.3999938964844</ele>
        <time>2014-05-10T11:04:33.000Z</time>
      </trkpt>
      <trkpt lon="7.121704984456301" lat="46.134649934247136">
        <ele>472.3999938964844</ele>
        <time>2014-05-10T11:04:39.000Z</time>
      </trkpt>
      <trkpt lon="7.121418993920088" lat="46.13457592204213">
        <ele>471.3999938964844</ele>
        <time>2014-05-10T11:04:46.000Z</time>
      </trkpt>
      <trkpt lon="7.120979949831963" lat="46.13444399088621">
        <ele>469.79998779296875</ele>
        <time>2014-05-10T11:04:54.000Z</time>
      </trkpt>
      <trkpt lon="7.120484998449683" lat="46.13428892567754">
        <ele>468.3999938964844</ele>
        <time>2014-05-10T11:05:01.000Z</time>
      </trkpt>
      <trkpt lon="7.119977977126837" lat="46.13412396982312">
        <ele>467.0</ele>
        <time>2014-05-10T11:05:07.000Z</time>
      </trkpt>
      <trkpt lon="7.119640940800309" lat="46.133872931823134">
        <ele>466.6000061035156</ele>
        <time>2014-05-10T11:05:12.000Z</time>
      </trkpt>
      <trkpt lon="7.119531976059079" lat="46.13375793211162">
        <ele>466.79998779296875</ele>
        <time>2014-05-10T11:05:18.000Z</time>
      </trkpt>
      <trkpt lon="7.119224946945906" lat="46.133637987077236">
        <ele>466.79998779296875</ele>
        <time>2014-05-10T11:05:19.000Z</time>
      </trkpt>
      <trkpt lon="7.118499996140599" lat="46.13339591771364">
        <ele>466.79998779296875</ele>
        <time>2014-05-10T11:05:27.000Z</time>
      </trkpt>
      <trkpt lon="7.117716958746314" lat="46.133141946047544">
        <ele>466.79998779296875</ele>
        <time>2014-05-10T11:05:35.000Z</time>
      </trkpt>
      <trkpt lon="7.1166489366441965" lat="46.13276593387127">
        <ele>466.79998779296875</ele>
        <time>2014-05-10T11:05:46.000Z</time>
      </trkpt>
      <trkpt lon="7.116030938923359" lat="46.1325519438833">
        <ele>467.0</ele>
        <time>2014-05-10T11:05:53.000Z</time>
      </trkpt>
      <trkpt lon="7.115359967574477" lat="46.13232093863189">
        <ele>467.20001220703125</ele>
        <time>2014-05-10T11:06:01.000Z</time>
      </trkpt>
      <trkpt lon="7.114705927670002" lat="46.13207099027932">
        <ele>467.0</ele>
        <time>2014-05-10T11:06:09.000Z</time>
      </trkpt>
      <trkpt lon="7.1139379777014256" lat="46.1317749414593">
        <ele>466.79998779296875</ele>
        <time>2014-05-10T11:06:19.000Z</time>
      </trkpt>
      <trkpt lon="7.113312939181924" lat="46.131486939266324">
        <ele>466.6000061035156</ele>
        <time>2014-05-10T11:06:27.000Z</time>
      </trkpt>
      <trkpt lon="7.112935921177268" lat="46.13124093040824">
        <ele>466.6000061035156</ele>
        <time>2014-05-10T11:06:33.000Z</time>
      </trkpt>
      <trkpt lon="7.1125599928200245" lat="46.131017971783876">
        <ele>467.0</ele>
        <time>2014-05-10T11:06:40.000Z</time>
      </trkpt>
      <trkpt lon="7.112070992588997" lat="46.13072795793414">
        <ele>466.79998779296875</ele>
        <time>2014-05-10T11:06:48.000Z</time>
      </trkpt>
      <trkpt lon="7.111392980441451" lat="46.13032495602965">
        <ele>466.3999938964844</ele>
        <time>2014-05-10T11:06:58.000Z</time>
      </trkpt>
      <trkpt lon="7.110936921089888" lat="46.13005899824202">
        <ele>466.20001220703125</ele>
        <time>2014-05-10T11:07:05.000Z</time>
      </trkpt>
      <trkpt lon="7.110549928620458" lat="46.12982799299061">
        <ele>466.20001220703125</ele>
        <time>2014-05-10T11:07:12.000Z</time>
      </trkpt>
      <trkpt lon="7.110254969447851" lat="46.12964996136725">
        <ele>466.20001220703125</ele>
        <time>2014-05-10T11:07:17.000Z</time>
      </trkpt>
      <trkpt lon="7.109665973111987" lat="46.129295993596315">
        <ele>466.0</ele>
        <time>2014-05-10T11:07:26.000Z</time>
      </trkpt>
      <trkpt lon="7.109223995357752" lat="46.12902995198965">
        <ele>466.20001220703125</ele>
        <time>2014-05-10T11:07:33.000Z</time>
      </trkpt>
      <trkpt lon="7.10851195268333" lat="46.12860197201371">
        <ele>466.20001220703125</ele>
        <time>2014-05-10T11:07:44.000Z</time>
      </trkpt>
      <trkpt lon="7.10786797106266" lat="46.128217997029424">
        <ele>466.20001220703125</ele>
        <time>2014-05-10T11:07:54.000Z</time>
      </trkpt>
      <trkpt lon="7.107185935601592" lat="46.127814995124936">
        <ele>466.3999938964844</ele>
        <time>2014-05-10T11:08:04.000Z</time>
      </trkpt>
      <trkpt lon="7.10649199783802" lat="46.12739397212863">
        <ele>466.20001220703125</ele>
        <time>2014-05-10T11:08:14.000Z</time>
      </trkpt>
      <trkpt lon="7.105877939611673" lat="46.12702491693199">
        <ele>466.20001220703125</ele>
        <time>2014-05-10T11:08:23.000Z</time>
      </trkpt>
      <trkpt lon="7.105507962405682" lat="46.126802964136004">
        <ele>466.3999938964844</ele>
        <time>2014-05-10T11:08:29.000Z</time>
      </trkpt>
      <trkpt lon="7.105091968551278" lat="46.1265579611063">
        <ele>466.6000061035156</ele>
        <time>2014-05-10T11:08:36.000Z</time>
      </trkpt>
      <trkpt lon="7.104742946103215" lat="46.12634992226958">
        <ele>466.6000061035156</ele>
        <time>2014-05-10T11:08:43.000Z</time>
      </trkpt>
      <trkpt lon="7.10440993309021" lat="46.12615093588829">
        <ele>466.6000061035156</ele>
        <time>2014-05-10T11:08:49.000Z</time>
      </trkpt>
      <trkpt lon="7.1040949411690235" lat="46.12596292980015">
        <ele>467.3999938964844</ele>
        <time>2014-05-10T11:08:55.000Z</time>
      </trkpt>
      <trkpt lon="7.103704931214452" lat="46.125727985054255">
        <ele>466.3999938964844</ele>
        <time>2014-05-10T11:09:01.000Z</time>
      </trkpt>
      <trkpt lon="7.103366972878575" lat="46.12552296370268">
        <ele>466.3999938964844</ele>
        <time>2014-05-10T11:09:07.000Z</time>
      </trkpt>
      <trkpt lon="7.1031769551336765" lat="46.125406958162785">
        <ele>466.6000061035156</ele>
        <time>2014-05-10T11:09:11.000Z</time>
      </trkpt>
      <trkpt lon="7.103001940995455" lat="46.125300927087665">
        <ele>466.3999938964844</ele>
        <time>2014-05-10T11:09:15.000Z</time>
      </trkpt>
      <trkpt lon="7.102919965982437" lat="46.12525097094476">
        <ele>466.3999938964844</ele>
        <time>2014-05-10T11:09:17.000Z</time>
      </trkpt>
      <trkpt lon="7.102338932454586" lat="46.12476892769337">
        <ele>465.6000061035156</ele>
        <time>2014-05-10T11:09:21.000Z</time>
      </trkpt>
      <trkpt lon="7.102338932454586" lat="46.12476892769337">
        <ele>465.6000061035156</ele>
        <time>2014-05-10T11:09:23.000Z</time>
      </trkpt>
      <trkpt lon="7.102338932454586" lat="46.12476892769337">
        <ele>466.3999938964844</ele>
        <time>2014-05-10T11:10:03.000Z</time>
      </trkpt>
      <trkpt lon="7.102338932454586" lat="46.12476892769337">
        <ele>466.3999938964844</ele>
        <time>2014-05-10T11:10:04.000Z</time>
      </trkpt>
      <trkpt lon="7.102720979601145" lat="46.12513395957649">
        <ele>465.20001220703125</ele>
        <time>2014-05-10T11:10:18.000Z</time>
      </trkpt>
      <trkpt lon="7.1024539321660995" lat="46.12498199567199">
        <ele>465.0</ele>
        <time>2014-05-10T11:10:26.000Z</time>
      </trkpt>
      <trkpt lon="7.102317977696657" lat="46.12485492601991">
        <ele>465.20001220703125</ele>
        <time>2014-05-10T11:10:31.000Z</time>
      </trkpt>
      <trkpt lon="7.102107927203178" lat="46.12490798346698">
        <ele>465.20001220703125</ele>
        <time>2014-05-10T11:10:35.000Z</time>
      </trkpt>
      <trkpt lon="7.101695956662297" lat="46.12515499815345">
        <ele>464.3999938964844</ele>
        <time>2014-05-10T11:10:44.000Z</time>
      </trkpt>
      <trkpt lon="7.101602917537093" lat="46.12520998343825">
        <ele>464.0</ele>
        <time>2014-05-10T11:10:46.000Z</time>
      </trkpt>
      <trkpt lon="7.10144592449069" lat="46.12530595622957">
        <ele>464.0</ele>
        <time>2014-05-10T11:10:50.000Z</time>
      </trkpt>
      <trkpt lon="7.101318938657641" lat="46.12519992515445">
        <ele>464.0</ele>
        <time>2014-05-10T11:10:51.000Z</time>
      </trkpt>
      <trkpt lon="7.10110092535615" lat="46.125085931271315">
        <ele>464.20001220703125</ele>
        <time>2014-05-10T11:10:55.000Z</time>
      </trkpt>
      <trkpt lon="7.1008859295398" lat="46.12497495487332">
        <ele>464.20001220703125</ele>
        <time>2014-05-10T11:10:59.000Z</time>
      </trkpt>
      <trkpt lon="7.100807977840304" lat="46.125084925442934">
        <ele>464.20001220703125</ele>
        <time>2014-05-10T11:11:00.000Z</time>
      </trkpt>
      <trkpt lon="7.100324928760529" lat="46.125366976484656">
        <ele>464.20001220703125</ele>
        <time>2014-05-10T11:11:08.000Z</time>
      </trkpt>
      <trkpt lon="7.099929973483086" lat="46.12561298534274">
        <ele>464.20001220703125</ele>
        <time>2014-05-10T11:11:15.000Z</time>
      </trkpt>
      <trkpt lon="7.09948698990047" lat="46.1258879955858">
        <ele>463.79998779296875</ele>
        <time>2014-05-10T11:11:23.000Z</time>
      </trkpt>
      <trkpt lon="7.099191946908832" lat="46.126051945611835">
        <ele>463.3999938964844</ele>
        <time>2014-05-10T11:11:29.000Z</time>
      </trkpt>
      <trkpt lon="7.0990529749542475" lat="46.12618798390031">
        <ele>463.6000061035156</ele>
        <time>2014-05-10T11:11:33.000Z</time>
      </trkpt>
      <trkpt lon="7.098876954987645" lat="46.12619091756642">
        <ele>463.6000061035156</ele>
        <time>2014-05-10T11:11:35.000Z</time>
      </trkpt>
      <trkpt lon="7.098247976973653" lat="46.12600492313504">
        <ele>464.20001220703125</ele>
        <time>2014-05-10T11:11:44.000Z</time>
      </trkpt>
      <trkpt lon="7.097797952592373" lat="46.12584692426026">
        <ele>464.79998779296875</ele>
        <time>2014-05-10T11:11:50.000Z</time>
      </trkpt>
      <trkpt lon="7.097222954034805" lat="46.1255219578743">
        <ele>465.6000061035156</ele>
        <time>2014-05-10T11:11:58.000Z</time>
      </trkpt>
      <trkpt lon="7.0966229774057865" lat="46.12515399232507">
        <ele>466.3999938964844</ele>
        <time>2014-05-10T11:12:07.000Z</time>
      </trkpt>
      <trkpt lon="7.096124924719334" lat="46.12490597181022">
        <ele>466.6000061035156</ele>
        <time>2014-05-10T11:12:14.000Z</time>
      </trkpt>
      <trkpt lon="7.095549926161766" lat="46.12472995184362">
        <ele>467.0</ele>
        <time>2014-05-10T11:12:21.000Z</time>
      </trkpt>
      <trkpt lon="7.09508297033608" lat="46.12464998848736">
        <ele>467.0</ele>
        <time>2014-05-10T11:12:27.000Z</time>
      </trkpt>
      <trkpt lon="7.094538984820247" lat="46.12458192743361">
        <ele>466.6000061035156</ele>
        <time>2014-05-10T11:12:33.000Z</time>
      </trkpt>
      <trkpt lon="7.09362493827939" lat="46.12459693104029">
        <ele>466.20001220703125</ele>
        <time>2014-05-10T11:12:43.000Z</time>
      </trkpt>
      <trkpt lon="7.093304917216301" lat="46.12459693104029">
        <ele>466.20001220703125</ele>
        <time>2014-05-10T11:12:47.000Z</time>
      </trkpt>
      <trkpt lon="7.092520957812667" lat="46.12458695657551">
        <ele>466.0</ele>
        <time>2014-05-10T11:12:56.000Z</time>
      </trkpt>
      <trkpt lon="7.092035980895162" lat="46.1245789937675">
        <ele>465.6000061035156</ele>
        <time>2014-05-10T11:13:02.000Z</time>
      </trkpt>
      <trkpt lon="7.091452935710549" lat="46.12460296601057">
        <ele>466.3999938964844</ele>
        <time>2014-05-10T11:13:10.000Z</time>
      </trkpt>
      <trkpt lon="7.091012969613075" lat="46.1245599668473">
        <ele>466.6000061035156</ele>
        <time>2014-05-10T11:13:16.000Z</time>
      </trkpt>
      <trkpt lon="7.090193973854184" lat="46.12438998185098">
        <ele>467.3999938964844</ele>
        <time>2014-05-10T11:13:27.000Z</time>
      </trkpt>
      <trkpt lon="7.08951897919178" lat="46.12424396909773">
        <ele>468.20001220703125</ele>
        <time>2014-05-10T11:13:36.000Z</time>
      </trkpt>
      <trkpt lon="7.088961917907" lat="46.12415294162929">
        <ele>469.20001220703125</ele>
        <time>2014-05-10T11:13:44.000Z</time>
      </trkpt>
      <trkpt lon="7.0886389631778" lat="46.12412896938622">
        <ele>470.20001220703125</ele>
        <time>2014-05-10T11:13:49.000Z</time>
      </trkpt>
      <trkpt lon="7.0885849837213755" lat="46.1241249460727">
        <ele>470.3999938964844</ele>
        <time>2014-05-10T11:13:54.000Z</time>
      </trkpt>
      <trkpt lon="7.087944941595197" lat="46.12397197633982">
        <ele>470.6000061035156</ele>
        <time>2014-05-10T11:14:01.000Z</time>
      </trkpt>
      <trkpt lon="7.0874399319291115" lat="46.12385094165802">
        <ele>470.20001220703125</ele>
        <time>2014-05-10T11:14:09.000Z</time>
      </trkpt>
      <trkpt lon="7.087106918916106" lat="46.123771984130144">
        <ele>470.3999938964844</ele>
        <time>2014-05-10T11:14:15.000Z</time>
      </trkpt>
      <trkpt lon="7.086666952818632" lat="46.123666958883405">
        <ele>470.6000061035156</ele>
        <time>2014-05-10T11:14:23.000Z</time>
      </trkpt>
      <trkpt lon="7.086539966985583" lat="46.12363292835653">
        <ele>470.6000061035156</ele>
        <time>2014-05-10T11:14:25.000Z</time>
      </trkpt>
      <trkpt lon="7.086431924253702" lat="46.12357199192047">
        <ele>470.6000061035156</ele>
        <time>2014-05-10T11:14:27.000Z</time>
      </trkpt>
      <trkpt lon="7.0863419864326715" lat="46.1235049366951">
        <ele>470.3999938964844</ele>
        <time>2014-05-10T11:14:29.000Z</time>
      </trkpt>
      <trkpt lon="7.085647964850068" lat="46.123302932828665">
        <ele>470.3999938964844</ele>
        <time>2014-05-10T11:14:39.000Z</time>
      </trkpt>
      <trkpt lon="7.085120994597673" lat="46.12316094338894">
        <ele>470.0</ele>
        <time>2014-05-10T11:14:47.000Z</time>
      </trkpt>
      <trkpt lon="7.084529986605048" lat="46.123002944514155">
        <ele>470.20001220703125</ele>
        <time>2014-05-10T11:14:55.000Z</time>
      </trkpt>
      <trkpt lon="7.084003938362002" lat="46.12283597700298">
        <ele>469.79998779296875</ele>
        <time>2014-05-10T11:15:03.000Z</time>
      </trkpt>
      <trkpt lon="7.083564978092909" lat="46.122695999220014">
        <ele>469.6000061035156</ele>
        <time>2014-05-10T11:15:10.000Z</time>
      </trkpt>
      <trkpt lon="7.083104979246855" lat="46.122550992295146">
        <ele>469.20001220703125</ele>
        <time>2014-05-10T11:15:17.000Z</time>
      </trkpt>
      <trkpt lon="7.082620924338698" lat="46.12239693291485">
        <ele>469.6000061035156</ele>
        <time>2014-05-10T11:15:24.000Z</time>
      </trkpt>
      <trkpt lon="7.082296963781118" lat="46.122294925153255">
        <ele>470.20001220703125</ele>
        <time>2014-05-10T11:15:29.000Z</time>
      </trkpt>
      <trkpt lon="7.082060929387808" lat="46.12223097123206">
        <ele>471.0</ele>
        <time>2014-05-10T11:15:33.000Z</time>
      </trkpt>
      <trkpt lon="7.08169799298048" lat="46.1221319809556">
        <ele>470.20001220703125</ele>
        <time>2014-05-10T11:15:39.000Z</time>
      </trkpt>
      <trkpt lon="7.081626998260617" lat="46.12211194820702">
        <ele>470.0</ele>
        <time>2014-05-10T11:15:40.000Z</time>
      </trkpt>
      <trkpt lon="7.08114193752408" lat="46.12197993323207">
        <ele>469.3999938964844</ele>
        <time>2014-05-10T11:15:47.000Z</time>
      </trkpt>
      <trkpt lon="7.080813953652978" lat="46.12191597931087">
        <ele>469.3999938964844</ele>
        <time>2014-05-10T11:15:52.000Z</time>
      </trkpt>
      <trkpt lon="7.080434923991561" lat="46.121842972934246">
        <ele>469.0</ele>
        <time>2014-05-10T11:15:59.000Z</time>
      </trkpt>
      <trkpt lon="7.080293940380216" lat="46.12181497737765">
        <ele>468.20001220703125</ele>
        <time>2014-05-10T11:16:02.000Z</time>
      </trkpt>
      <trkpt lon="7.080114986747503" lat="46.12178094685078">
        <ele>467.79998779296875</ele>
        <time>2014-05-10T11:16:06.000Z</time>
      </trkpt>
      <trkpt lon="7.0800059381872416" lat="46.12175999209285">
        <ele>468.0</ele>
        <time>2014-05-10T11:16:08.000Z</time>
      </trkpt>
      <trkpt lon="7.0795889385044575" lat="46.12167893908918">
        <ele>468.6000061035156</ele>
        <time>2014-05-10T11:16:15.000Z</time>
      </trkpt>
      <trkpt lon="7.078881924971938" lat="46.121538961306214">
        <ele>469.0</ele>
        <time>2014-05-10T11:16:26.000Z</time>
      </trkpt>
      <trkpt lon="7.07830298691988" lat="46.12141599878669">
        <ele>469.3999938964844</ele>
        <time>2014-05-10T11:16:35.000Z</time>
      </trkpt>
      <trkpt lon="7.077867966145277" lat="46.121323965489864">
        <ele>469.3999938964844</ele>
        <time>2014-05-10T11:16:42.000Z</time>
      </trkpt>
      <trkpt lon="7.077394975349307" lat="46.12122396938503">
        <ele>469.6000061035156</ele>
        <time>2014-05-10T11:16:49.000Z</time>
      </trkpt>
      <trkpt lon="7.077261954545975" lat="46.121194968000054">
        <ele>469.6000061035156</ele>
        <time>2014-05-10T11:16:51.000Z</time>
      </trkpt>
      <trkpt lon="7.076999936252832" lat="46.12113998271525">
        <ele>469.79998779296875</ele>
        <time>2014-05-10T11:16:55.000Z</time>
      </trkpt>
      <trkpt lon="7.076337933540344" lat="46.120998999103904">
        <ele>470.0</ele>
        <time>2014-05-10T11:17:05.000Z</time>
      </trkpt>
      <trkpt lon="7.076271967962384" lat="46.120984917506576">
        <ele>470.0</ele>
        <time>2014-05-10T11:17:06.000Z</time>
      </trkpt>
      <trkpt lon="7.075626980513334" lat="46.12086195498705">
        <ele>470.3999938964844</ele>
        <time>2014-05-10T11:17:16.000Z</time>
      </trkpt>
      <trkpt lon="7.0752019342035055" lat="46.12078199163079">
        <ele>470.3999938964844</ele>
        <time>2014-05-10T11:17:23.000Z</time>
      </trkpt>
      <trkpt lon="7.074898928403854" lat="46.120724994689226">
        <ele>470.3999938964844</ele>
        <time>2014-05-10T11:17:29.000Z</time>
      </trkpt>
      <trkpt lon="7.074274979531765" lat="46.12060798332095">
        <ele>470.3999938964844</ele>
        <time>2014-05-10T11:17:39.000Z</time>
      </trkpt>
      <trkpt lon="7.073715990409255" lat="46.12050295807421">
        <ele>470.3999938964844</ele>
        <time>2014-05-10T11:17:48.000Z</time>
      </trkpt>
      <trkpt lon="7.073295973241329" lat="46.12043892033398">
        <ele>470.20001220703125</ele>
        <time>2014-05-10T11:17:55.000Z</time>
      </trkpt>
      <trkpt lon="7.072922978550196" lat="46.120382929220796">
        <ele>469.79998779296875</ele>
        <time>2014-05-10T11:18:02.000Z</time>
      </trkpt>
      <trkpt lon="7.072315961122513" lat="46.12031998112798">
        <ele>469.20001220703125</ele>
        <time>2014-05-10T11:18:11.000Z</time>
      </trkpt>
      <trkpt lon="7.071723947301507" lat="46.12026298418641">
        <ele>468.6000061035156</ele>
        <time>2014-05-10T11:18:19.000Z</time>
      </trkpt>
      <trkpt lon="7.071134950965643" lat="46.12017698585987">
        <ele>468.3999938964844</ele>
        <time>2014-05-10T11:18:27.000Z</time>
      </trkpt>
      <trkpt lon="7.071065967902541" lat="46.120166927576065">
        <ele>468.6000061035156</ele>
        <time>2014-05-10T11:18:28.000Z</time>
      </trkpt>
      <trkpt lon="7.070689955726266" lat="46.12011596560478">
        <ele>467.79998779296875</ele>
        <time>2014-05-10T11:18:34.000Z</time>
      </trkpt>
      <trkpt lon="7.070214953273535" lat="46.12005393952131">
        <ele>468.20001220703125</ele>
        <time>2014-05-10T11:18:42.000Z</time>
      </trkpt>
      <trkpt lon="7.069807928055525" lat="46.120033990591764">
        <ele>467.20001220703125</ele>
        <time>2014-05-10T11:18:49.000Z</time>
      </trkpt>
      <trkpt lon="7.069579940289259" lat="46.120037930086255">
        <ele>466.6000061035156</ele>
        <time>2014-05-10T11:18:54.000Z</time>
      </trkpt>
      <trkpt lon="7.069337954744697" lat="46.12008696421981">
        <ele>466.3999938964844</ele>
        <time>2014-05-10T11:18:59.000Z</time>
      </trkpt>
      <trkpt lon="7.068903939798474" lat="46.120253931730986">
        <ele>466.20001220703125</ele>
        <time>2014-05-10T11:19:07.000Z</time>
      </trkpt>
      <trkpt lon="7.068542931228876" lat="46.120464988052845">
        <ele>466.0</ele>
        <time>2014-05-10T11:19:15.000Z</time>
      </trkpt>
      <trkpt lon="7.068150993436575" lat="46.12070797942579">
        <ele>465.6000061035156</ele>
        <time>2014-05-10T11:19:23.000Z</time>
      </trkpt>
      <trkpt lon="7.067803982645273" lat="46.12090394832194">
        <ele>465.3999938964844</ele>
        <time>2014-05-10T11:19:30.000Z</time>
      </trkpt>
      <trkpt lon="7.067599967122078" lat="46.121027916669846">
        <ele>465.3999938964844</ele>
        <time>2014-05-10T11:19:35.000Z</time>
      </trkpt>
      <trkpt lon="7.06730299629271" lat="46.12124492414296">
        <ele>465.6000061035156</ele>
        <time>2014-05-10T11:19:42.000Z</time>
      </trkpt>
      <trkpt lon="7.0669489447027445" lat="46.121583972126245">
        <ele>466.0</ele>
        <time>2014-05-10T11:19:51.000Z</time>
      </trkpt>
      <trkpt lon="7.066720956936479" lat="46.12193995155394">
        <ele>466.20001220703125</ele>
        <time>2014-05-10T11:19:59.000Z</time>
      </trkpt>
      <trkpt lon="7.066585924476385" lat="46.12223097123206">
        <ele>467.0</ele>
        <time>2014-05-10T11:20:05.000Z</time>
      </trkpt>
      <trkpt lon="7.066497998312116" lat="46.12259994260967">
        <ele>466.20001220703125</ele>
        <time>2014-05-10T11:20:12.000Z</time>
      </trkpt>
      <trkpt lon="7.066441923379898" lat="46.12308491952717">
        <ele>466.3999938964844</ele>
        <time>2014-05-10T11:20:21.000Z</time>
      </trkpt>
      <trkpt lon="7.066325917840004" lat="46.12333092838526">
        <ele>465.3999938964844</ele>
        <time>2014-05-10T11:20:26.000Z</time>
      </trkpt>
      <trkpt lon="7.066177977249026" lat="46.12333092838526">
        <ele>465.79998779296875</ele>
        <time>2014-05-10T11:20:29.000Z</time>
      </trkpt>
      <trkpt lon="7.066019978374243" lat="46.12333092838526">
        <ele>466.20001220703125</ele>
        <time>2014-05-10T11:20:32.000Z</time>
      </trkpt>
      <trkpt lon="7.065934985876083" lat="46.123429918661714">
        <ele>465.6000061035156</ele>
        <time>2014-05-10T11:20:36.000Z</time>
      </trkpt>
      <trkpt lon="7.065922999754548" lat="46.12352295778692">
        <ele>465.6000061035156</ele>
        <time>2014-05-10T11:20:38.000Z</time>
      </trkpt>
      <trkpt lon="7.065870948135853" lat="46.12393593415618">
        <ele>466.6000061035156</ele>
        <time>2014-05-10T11:20:46.000Z</time>
      </trkpt>
      <trkpt lon="7.065807916224003" lat="46.12435192801058">
        <ele>466.79998779296875</ele>
        <time>2014-05-10T11:20:54.000Z</time>
      </trkpt>
      <trkpt lon="7.065754942595959" lat="46.124764988198876">
        <ele>468.0</ele>
        <time>2014-05-10T11:21:02.000Z</time>
      </trkpt>
      <trkpt lon="7.065679924562573" lat="46.12527192570269">
        <ele>469.0</ele>
        <time>2014-05-10T11:21:12.000Z</time>
      </trkpt>
      <trkpt lon="7.0656489953398705" lat="46.12537393346429">
        <ele>468.20001220703125</ele>
        <time>2014-05-10T11:21:14.000Z</time>
      </trkpt>
      <trkpt lon="7.065567942336202" lat="46.125512989237905">
        <ele>467.0</ele>
        <time>2014-05-10T11:21:17.000Z</time>
      </trkpt>
      <trkpt lon="7.065243981778622" lat="46.12578892149031">
        <ele>465.20001220703125</ele>
        <time>2014-05-10T11:21:25.000Z</time>
      </trkpt>
      <trkpt lon="7.064967965707183" lat="46.12600198946893">
        <ele>464.20001220703125</ele>
        <time>2014-05-10T11:21:32.000Z</time>
      </trkpt>
      <trkpt lon="7.0648829732090235" lat="46.12606795504689">
        <ele>463.79998779296875</ele>
        <time>2014-05-10T11:21:34.000Z</time>
      </trkpt>
      <trkpt lon="7.064471924677491" lat="46.1263869702816">
        <ele>462.6000061035156</ele>
        <time>2014-05-10T11:21:43.000Z</time>
      </trkpt>
      <trkpt lon="7.064068922773004" lat="46.126697938889265">
        <ele>461.79998779296875</ele>
        <time>2014-05-10T11:21:51.000Z</time>
      </trkpt>
      <trkpt lon="7.063754936680198" lat="46.12694093026221">
        <ele>462.20001220703125</ele>
        <time>2014-05-10T11:21:57.000Z</time>
      </trkpt>
      <trkpt lon="7.063431981950998" lat="46.127190962433815">
        <ele>462.3999938964844</ele>
        <time>2014-05-10T11:22:03.000Z</time>
      </trkpt>
      <trkpt lon="7.063373979181051" lat="46.127235973253846">
        <ele>462.6000061035156</ele>
        <time>2014-05-10T11:22:04.000Z</time>
      </trkpt>
      <trkpt lon="7.0630269683897495" lat="46.12750394269824">
        <ele>462.3999938964844</ele>
        <time>2014-05-10T11:22:10.000Z</time>
      </trkpt>
      <trkpt lon="7.06270694732666" lat="46.127750957384706">
        <ele>462.3999938964844</ele>
        <time>2014-05-10T11:22:17.000Z</time>
      </trkpt>
      <trkpt lon="7.06270694732666" lat="46.127750957384706">
        <ele>463.0</ele>
        <time>2014-05-10T11:22:19.000Z</time>
      </trkpt>
      <trkpt lon="7.062254995107651" lat="46.128112971782684">
        <ele>463.6000061035156</ele>
        <time>2014-05-10T11:22:23.000Z</time>
      </trkpt>
      <trkpt lon="7.062078975141048" lat="46.12825395539403">
        <ele>464.0</ele>
        <time>2014-05-10T11:22:26.000Z</time>
      </trkpt>
      <trkpt lon="7.061743950471282" lat="46.128521924838424">
        <ele>465.0</ele>
        <time>2014-05-10T11:22:32.000Z</time>
      </trkpt>
      <trkpt lon="7.061463994905353" lat="46.12875494174659">
        <ele>468.0</ele>
        <time>2014-05-10T11:22:38.000Z</time>
      </trkpt>
      <trkpt lon="7.061228966340423" lat="46.128950994461775">
        <ele>469.0</ele>
        <time>2014-05-10T11:22:43.000Z</time>
      </trkpt>
      <trkpt lon="7.061032997444272" lat="46.129120979458094">
        <ele>468.0</ele>
        <time>2014-05-10T11:22:47.000Z</time>
      </trkpt>
      <trkpt lon="7.060888996347785" lat="46.12924595363438">
        <ele>467.79998779296875</ele>
        <time>2014-05-10T11:22:50.000Z</time>
      </trkpt>
      <trkpt lon="7.060491945594549" lat="46.129574943333864">
        <ele>469.79998779296875</ele>
        <time>2014-05-10T11:22:58.000Z</time>
      </trkpt>
      <trkpt lon="7.0602229703217745" lat="46.129789939150214">
        <ele>469.20001220703125</ele>
        <time>2014-05-10T11:23:03.000Z</time>
      </trkpt>
      <trkpt lon="7.060016943141818" lat="46.129964953288436">
        <ele>469.0</ele>
        <time>2014-05-10T11:23:07.000Z</time>
      </trkpt>
      <trkpt lon="7.0597579423338175" lat="46.13018698990345">
        <ele>468.6000061035156</ele>
        <time>2014-05-10T11:23:12.000Z</time>
      </trkpt>
      <trkpt lon="7.059479998424649" lat="46.13042595796287">
        <ele>468.6000061035156</ele>
        <time>2014-05-10T11:23:18.000Z</time>
      </trkpt>
      <trkpt lon="7.059389976784587" lat="46.1305039934814">
        <ele>468.20001220703125</ele>
        <time>2014-05-10T11:23:20.000Z</time>
      </trkpt>
      <trkpt lon="7.05928998067975" lat="46.13058999180794">
        <ele>467.0</ele>
        <time>2014-05-10T11:23:22.000Z</time>
      </trkpt>
      <trkpt lon="7.059110943228006" lat="46.13074296154082">
        <ele>466.3999938964844</ele>
        <time>2014-05-10T11:23:26.000Z</time>
      </trkpt>
      <trkpt lon="7.058843979611993" lat="46.130972960963845">
        <ele>466.6000061035156</ele>
        <time>2014-05-10T11:23:32.000Z</time>
      </trkpt>
      <trkpt lon="7.058655973523855" lat="46.13113397732377">
        <ele>467.3999938964844</ele>
        <time>2014-05-10T11:23:36.000Z</time>
      </trkpt>
      <trkpt lon="7.058419939130545" lat="46.131336987018585">
        <ele>466.3999938964844</ele>
        <time>2014-05-10T11:23:41.000Z</time>
      </trkpt>
      <trkpt lon="7.058079969137907" lat="46.1316039506346">
        <ele>464.0</ele>
        <time>2014-05-10T11:23:47.000Z</time>
      </trkpt>
      <trkpt lon="7.057782998308539" lat="46.1318629514426">
        <ele>462.20001220703125</ele>
        <time>2014-05-10T11:23:53.000Z</time>
      </trkpt>
      <trkpt lon="7.057426935061812" lat="46.132171992212534">
        <ele>460.6000061035156</ele>
        <time>2014-05-10T11:24:00.000Z</time>
      </trkpt>
      <trkpt lon="7.0571409445255995" lat="46.13241992890835">
        <ele>460.20001220703125</ele>
        <time>2014-05-10T11:24:06.000Z</time>
      </trkpt>
      <trkpt lon="7.056807931512594" lat="46.13270994275808">
        <ele>459.79998779296875</ele>
        <time>2014-05-10T11:24:13.000Z</time>
      </trkpt>
      <trkpt lon="7.056550942361355" lat="46.13293399102986">
        <ele>459.20001220703125</ele>
        <time>2014-05-10T11:24:19.000Z</time>
      </trkpt>
      <trkpt lon="7.056330917403102" lat="46.133124930784106">
        <ele>459.6000061035156</ele>
        <time>2014-05-10T11:24:24.000Z</time>
      </trkpt>
      <trkpt lon="7.056164955720305" lat="46.13326893188059">
        <ele>460.79998779296875</ele>
        <time>2014-05-10T11:24:29.000Z</time>
      </trkpt>
      <trkpt lon="7.055888939648867" lat="46.1335189640522">
        <ele>460.3999938964844</ele>
        <time>2014-05-10T11:24:36.000Z</time>
      </trkpt>
      <trkpt lon="7.055588951334357" lat="46.133789950981736">
        <ele>460.3999938964844</ele>
        <time>2014-05-10T11:24:43.000Z</time>
      </trkpt>
      <trkpt lon="7.055384935811162" lat="46.133959935978055">
        <ele>461.6000061035156</ele>
        <time>2014-05-10T11:24:49.000Z</time>
      </trkpt>
      <trkpt lon="7.055126940831542" lat="46.134174931794405">
        <ele>462.3999938964844</ele>
        <time>2014-05-10T11:24:56.000Z</time>
      </trkpt>
      <trkpt lon="7.054919991642237" lat="46.13435396924615">
        <ele>462.3999938964844</ele>
        <time>2014-05-10T11:25:02.000Z</time>
      </trkpt>
      <trkpt lon="7.05466995947063" lat="46.13456997089088">
        <ele>462.20001220703125</ele>
        <time>2014-05-10T11:25:09.000Z</time>
      </trkpt>
      <trkpt lon="7.054514978080988" lat="46.13470299169421">
        <ele>463.0</ele>
        <time>2014-05-10T11:25:13.000Z</time>
      </trkpt>
      <trkpt lon="7.054247930645943" lat="46.13493399694562">
        <ele>463.3999938964844</ele>
        <time>2014-05-10T11:25:20.000Z</time>
      </trkpt>
      <trkpt lon="7.054059924557805" lat="46.135098952800035">
        <ele>462.3999938964844</ele>
        <time>2014-05-10T11:25:26.000Z</time>
      </trkpt>
      <trkpt lon="7.0539269875735044" lat="46.13521898165345">
        <ele>460.79998779296875</ele>
        <time>2014-05-10T11:25:31.000Z</time>
      </trkpt>
      <trkpt lon="7.053687935695052" lat="46.13542794249952">
        <ele>461.20001220703125</ele>
        <time>2014-05-10T11:25:38.000Z</time>
      </trkpt>
      <trkpt lon="7.0534539967775345" lat="46.1356239952147">
        <ele>461.6000061035156</ele>
        <time>2014-05-10T11:25:44.000Z</time>
      </trkpt>
      <trkpt lon="7.053264984861016" lat="46.135781994089484">
        <ele>460.79998779296875</ele>
        <time>2014-05-10T11:25:49.000Z</time>
      </trkpt>
      <trkpt lon="7.052969941869378" lat="46.13602892495692">
        <ele>461.79998779296875</ele>
        <time>2014-05-10T11:25:57.000Z</time>
      </trkpt>
      <trkpt lon="7.052739942446351" lat="46.13622095435858">
        <ele>461.79998779296875</ele>
        <time>2014-05-10T11:26:03.000Z</time>
      </trkpt>
      <trkpt lon="7.052419921383262" lat="46.13649093545973">
        <ele>461.20001220703125</ele>
        <time>2014-05-10T11:26:11.000Z</time>
      </trkpt>
      <trkpt lon="7.052378933876753" lat="46.13652597181499">
        <ele>461.0</ele>
        <time>2014-05-10T11:26:12.000Z</time>
      </trkpt>
      <trkpt lon="7.052187994122505" lat="46.136686988174915">
        <ele>461.3999938964844</ele>
        <time>2014-05-10T11:26:17.000Z</time>
      </trkpt>
      <trkpt lon="7.051880965009332" lat="46.13693199120462">
        <ele>462.3999938964844</ele>
        <time>2014-05-10T11:26:24.000Z</time>
      </trkpt>
      <trkpt lon="7.051767976954579" lat="46.13703894428909">
        <ele>462.6000061035156</ele>
        <time>2014-05-10T11:26:29.000Z</time>
      </trkpt>
      <trkpt lon="7.051655994728208" lat="46.137163918465376">
        <ele>458.79998779296875</ele>
        <time>2014-05-10T11:26:35.000Z</time>
      </trkpt>
      <trkpt lon="7.051399927586317" lat="46.13723994232714">
        <ele>457.79998779296875</ele>
        <time>2014-05-10T11:26:41.000Z</time>
      </trkpt>
      <trkpt lon="7.051222985610366" lat="46.13732594065368">
        <ele>458.3999938964844</ele>
        <time>2014-05-10T11:26:45.000Z</time>
      </trkpt>
      <trkpt lon="7.051207982003689" lat="46.1374649964273">
        <ele>458.6000061035156</ele>
        <time>2014-05-10T11:26:49.000Z</time>
      </trkpt>
      <trkpt lon="7.051182920113206" lat="46.137567926198244">
        <ele>458.6000061035156</ele>
        <time>2014-05-10T11:26:52.000Z</time>
      </trkpt>
      <trkpt lon="7.051201947033405" lat="46.137610925361514">
        <ele>458.6000061035156</ele>
        <time>2014-05-10T11:26:56.000Z</time>
      </trkpt>
      <trkpt lon="7.051108991727233" lat="46.137700947001576">
        <ele>462.20001220703125</ele>
        <time>2014-05-10T11:28:38.000Z</time>
      </trkpt>
      <trkpt lon="7.050880920141935" lat="46.1378569342196">
        <ele>461.6000061035156</ele>
        <time>2014-05-10T11:28:45.000Z</time>
      </trkpt>
      <trkpt lon="7.050627954304218" lat="46.13803697749972">
        <ele>461.79998779296875</ele>
        <time>2014-05-10T11:28:52.000Z</time>
      </trkpt>
      <trkpt lon="7.050369959324598" lat="46.13824292086065">
        <ele>461.3999938964844</ele>
        <time>2014-05-10T11:28:58.000Z</time>
      </trkpt>
      <trkpt lon="7.049923958256841" lat="46.13861298188567">
        <ele>461.0</ele>
        <time>2014-05-10T11:29:06.000Z</time>
      </trkpt>
      <trkpt lon="7.0494539849460125" lat="46.13897792994976">
        <ele>461.3999938964844</ele>
        <time>2014-05-10T11:29:14.000Z</time>
      </trkpt>
      <trkpt lon="7.04899893142283" lat="46.13935897126794">
        <ele>459.3999938964844</ele>
        <time>2014-05-10T11:29:22.000Z</time>
      </trkpt>
      <trkpt lon="7.0486019644886255" lat="46.139691984280944">
        <ele>458.6000061035156</ele>
        <time>2014-05-10T11:29:29.000Z</time>
      </trkpt>
      <trkpt lon="7.048237938433886" lat="46.139997923746705">
        <ele>458.79998779296875</ele>
        <time>2014-05-10T11:29:35.000Z</time>
      </trkpt>
      <trkpt lon="7.047865949571133" lat="46.140296990051866">
        <ele>461.20001220703125</ele>
        <time>2014-05-10T11:29:42.000Z</time>
      </trkpt>
      <trkpt lon="7.0477699767798185" lat="46.14036999642849">
        <ele>461.0</ele>
        <time>2014-05-10T11:29:44.000Z</time>
      </trkpt>
      <trkpt lon="7.047432940453291" lat="46.14062597975135">
        <ele>461.0</ele>
        <time>2014-05-10T11:29:50.000Z</time>
      </trkpt>
      <trkpt lon="7.047119960188866" lat="46.14084994420409">
        <ele>461.6000061035156</ele>
        <time>2014-05-10T11:29:55.000Z</time>
      </trkpt>
      <trkpt lon="7.046610927209258" lat="46.14119293168187">
        <ele>460.79998779296875</ele>
        <time>2014-05-10T11:30:03.000Z</time>
      </trkpt>
      <trkpt lon="7.046486958861351" lat="46.14127792418003">
        <ele>461.0</ele>
        <time>2014-05-10T11:30:05.000Z</time>
      </trkpt>
      <trkpt lon="7.046185964718461" lat="46.14148294553161">
        <ele>461.0</ele>
        <time>2014-05-10T11:30:10.000Z</time>
      </trkpt>
      <trkpt lon="7.045778939500451" lat="46.141734989359975">
        <ele>462.3999938964844</ele>
        <time>2014-05-10T11:30:17.000Z</time>
      </trkpt>
      <trkpt lon="7.045717919245362" lat="46.1417699418962">
        <ele>462.6000061035156</ele>
        <time>2014-05-10T11:30:18.000Z</time>
      </trkpt>
      <trkpt lon="7.045256998389959" lat="46.14203296601772">
        <ele>463.79998779296875</ele>
        <time>2014-05-10T11:30:25.000Z</time>
      </trkpt>
      <trkpt lon="7.045070920139551" lat="46.1421359796077">
        <ele>464.0</ele>
        <time>2014-05-10T11:30:28.000Z</time>
      </trkpt>
      <trkpt lon="7.044853996485472" lat="46.14219197072089">
        <ele>464.20001220703125</ele>
        <time>2014-05-10T11:30:33.000Z</time>
      </trkpt>
      <trkpt lon="7.0448169484734535" lat="46.14215492270887">
        <ele>463.20001220703125</ele>
        <time>2014-05-10T11:30:35.000Z</time>
      </trkpt>
      <trkpt lon="7.044741930440068" lat="46.14208795130253">
        <ele>462.20001220703125</ele>
        <time>2014-05-10T11:30:37.000Z</time>
      </trkpt>
      <trkpt lon="7.044511931017041" lat="46.14206297323108">
        <ele>461.79998779296875</ele>
        <time>2014-05-10T11:30:41.000Z</time>
      </trkpt>
      <trkpt lon="7.0444349851459265" lat="46.142120976001024">
        <ele>462.20001220703125</ele>
        <time>2014-05-10T11:30:43.000Z</time>
      </trkpt>
      <trkpt lon="7.044150922447443" lat="46.142337983474135">
        <ele>461.6000061035156</ele>
        <time>2014-05-10T11:30:49.000Z</time>
      </trkpt>
      <trkpt lon="7.044143965467811" lat="46.142552979290485">
        <ele>461.6000061035156</ele>
        <time>2014-05-10T11:30:53.000Z</time>
      </trkpt>
      <trkpt lon="7.044023936614394" lat="46.14265196956694">
        <ele>461.0</ele>
        <time>2014-05-10T11:30:56.000Z</time>
      </trkpt>
      <trkpt lon="7.043526973575354" lat="46.14290996454656">
        <ele>460.0</ele>
        <time>2014-05-10T11:31:04.000Z</time>
      </trkpt>
      <trkpt lon="7.042977958917618" lat="46.1431669536978">
        <ele>460.0</ele>
        <time>2014-05-10T11:31:12.000Z</time>
      </trkpt>
      <trkpt lon="7.042439924553037" lat="46.14341899752617">
        <ele>460.6000061035156</ele>
        <time>2014-05-10T11:31:19.000Z</time>
      </trkpt>
      <trkpt lon="7.041891999542713" lat="46.14367397502065">
        <ele>458.79998779296875</ele>
        <time>2014-05-10T11:31:26.000Z</time>
      </trkpt>
      <trkpt lon="7.041191942989826" lat="46.14401897415519">
        <ele>460.0</ele>
        <time>2014-05-10T11:31:35.000Z</time>
      </trkpt>
      <trkpt lon="7.040501944720745" lat="46.144353998824954">
        <ele>458.79998779296875</ele>
        <time>2014-05-10T11:31:44.000Z</time>
      </trkpt>
      <trkpt lon="7.039785962551832" lat="46.14468893967569">
        <ele>457.20001220703125</ele>
        <time>2014-05-10T11:31:53.000Z</time>
      </trkpt>
      <trkpt lon="7.038977947086096" lat="46.145068975165486">
        <ele>458.20001220703125</ele>
        <time>2014-05-10T11:32:03.000Z</time>
      </trkpt>
      <trkpt lon="7.038548961281776" lat="46.14527097903192">
        <ele>459.3999938964844</ele>
        <time>2014-05-10T11:32:09.000Z</time>
      </trkpt>
      <trkpt lon="7.037922916933894" lat="46.1455449834466">
        <ele>460.6000061035156</ele>
        <time>2014-05-10T11:32:17.000Z</time>
      </trkpt>
      <trkpt lon="7.0372669491916895" lat="46.14587196148932">
        <ele>460.0</ele>
        <time>2014-05-10T11:32:26.000Z</time>
      </trkpt>
      <trkpt lon="7.0367309264838696" lat="46.14613599143922">
        <ele>460.20001220703125</ele>
        <time>2014-05-10T11:32:33.000Z</time>
      </trkpt>
      <trkpt lon="7.036078982055187" lat="46.146503956988454">
        <ele>460.0</ele>
        <time>2014-05-10T11:32:42.000Z</time>
      </trkpt>
      <trkpt lon="7.035598950460553" lat="46.1468209605664">
        <ele>459.79998779296875</ele>
        <time>2014-05-10T11:32:49.000Z</time>
      </trkpt>
      <trkpt lon="7.035191925242543" lat="46.147088930010796">
        <ele>459.79998779296875</ele>
        <time>2014-05-10T11:32:55.000Z</time>
      </trkpt>
      <trkpt lon="7.03481993637979" lat="46.147364946082234">
        <ele>458.0</ele>
        <time>2014-05-10T11:33:01.000Z</time>
      </trkpt>
      <trkpt lon="7.034504944458604" lat="46.14761397242546">
        <ele>457.79998779296875</ele>
        <time>2014-05-10T11:33:06.000Z</time>
      </trkpt>
      <trkpt lon="7.03415097668767" lat="46.14791295491159">
        <ele>456.20001220703125</ele>
        <time>2014-05-10T11:33:12.000Z</time>
      </trkpt>
      <trkpt lon="7.033771947026253" lat="46.14828594960272">
        <ele>455.0</ele>
        <time>2014-05-10T11:33:20.000Z</time>
      </trkpt>
      <trkpt lon="7.033285964280367" lat="46.148867988958955">
        <ele>455.3999938964844</ele>
        <time>2014-05-10T11:33:31.000Z</time>
      </trkpt>
      <trkpt lon="7.03305596485734" lat="46.14924299530685">
        <ele>455.3999938964844</ele>
        <time>2014-05-10T11:33:38.000Z</time>
      </trkpt>
      <trkpt lon="7.032817918807268" lat="46.149749932810664">
        <ele>454.6000061035156</ele>
        <time>2014-05-10T11:33:47.000Z</time>
      </trkpt>
      <trkpt lon="7.032660925760865" lat="46.15029492415488">
        <ele>454.0</ele>
        <time>2014-05-10T11:33:56.000Z</time>
      </trkpt>
      <trkpt lon="7.0324549823999405" lat="46.15082994103432">
        <ele>453.6000061035156</ele>
        <time>2014-05-10T11:34:05.000Z</time>
      </trkpt>
      <trkpt lon="7.0322679821401834" lat="46.151516921818256">
        <ele>453.3999938964844</ele>
        <time>2014-05-10T11:34:17.000Z</time>
      </trkpt>
      <trkpt lon="7.032177960500121" lat="46.1519879847765">
        <ele>453.3999938964844</ele>
        <time>2014-05-10T11:34:25.000Z</time>
      </trkpt>
      <trkpt lon="7.03208995051682" lat="46.15246692672372">
        <ele>453.6000061035156</ele>
        <time>2014-05-10T11:34:33.000Z</time>
      </trkpt>
      <trkpt lon="7.032030941918492" lat="46.1528389994055">
        <ele>453.6000061035156</ele>
        <time>2014-05-10T11:34:40.000Z</time>
      </trkpt>
      <trkpt lon="7.032000934705138" lat="46.15317695774138">
        <ele>454.0</ele>
        <time>2014-05-10T11:34:47.000Z</time>
      </trkpt>
      <trkpt lon="7.032016944140196" lat="46.15356797352433">
        <ele>454.20001220703125</ele>
        <time>2014-05-10T11:34:55.000Z</time>
      </trkpt>
      <trkpt lon="7.032033959403634" lat="46.15396896377206">
        <ele>454.3999938964844</ele>
        <time>2014-05-10T11:35:02.000Z</time>
      </trkpt>
      <trkpt lon="7.0320679899305105" lat="46.154498951509595">
        <ele>454.20001220703125</ele>
        <time>2014-05-10T11:35:11.000Z</time>
      </trkpt>
      <trkpt lon="7.032093973830342" lat="46.15480799227953">
        <ele>454.3999938964844</ele>
        <time>2014-05-10T11:35:17.000Z</time>
      </trkpt>
      <trkpt lon="7.0321189519017935" lat="46.15513497032225">
        <ele>454.79998779296875</ele>
        <time>2014-05-10T11:35:23.000Z</time>
      </trkpt>
      <trkpt lon="7.032151976600289" lat="46.155638974159956">
        <ele>455.3999938964844</ele>
        <time>2014-05-10T11:35:32.000Z</time>
      </trkpt>
      <trkpt lon="7.032177960500121" lat="46.15602093748748">
        <ele>455.20001220703125</ele>
        <time>2014-05-10T11:35:39.000Z</time>
      </trkpt>
      <trkpt lon="7.0321969874203205" lat="46.15627096965909">
        <ele>454.79998779296875</ele>
        <time>2014-05-10T11:35:44.000Z</time>
      </trkpt>
      <trkpt lon="7.032231939956546" lat="46.15665293298662">
        <ele>455.20001220703125</ele>
        <time>2014-05-10T11:35:51.000Z</time>
      </trkpt>
      <trkpt lon="7.032264964655042" lat="46.157011929899454">
        <ele>455.0</ele>
        <time>2014-05-10T11:35:57.000Z</time>
      </trkpt>
      <trkpt lon="7.0323059521615505" lat="46.15755692124367">
        <ele>455.3999938964844</ele>
        <time>2014-05-10T11:36:06.000Z</time>
      </trkpt>
      <trkpt lon="7.032326990738511" lat="46.1577589251101">
        <ele>455.0</ele>
        <time>2014-05-10T11:36:10.000Z</time>
      </trkpt>
      <trkpt lon="7.032343922182918" lat="46.157894963398576">
        <ele>454.79998779296875</ele>
        <time>2014-05-10T11:36:13.000Z</time>
      </trkpt>
      <trkpt lon="7.0321849174797535" lat="46.157911978662014">
        <ele>454.3999938964844</ele>
        <time>2014-05-10T11:36:17.000Z</time>
      </trkpt>
      <trkpt lon="7.032064972445369" lat="46.15792094729841">
        <ele>454.79998779296875</ele>
        <time>2014-05-10T11:36:20.000Z</time>
      </trkpt>
      <trkpt lon="7.032064972445369" lat="46.15784299559891">
        <ele>454.6000061035156</ele>
        <time>2014-05-10T11:36:22.000Z</time>
      </trkpt>
      <trkpt lon="7.032045945525169" lat="46.15758399479091">
        <ele>453.0</ele>
        <time>2014-05-10T11:36:27.000Z</time>
      </trkpt>
      <trkpt lon="7.032043933868408" lat="46.15755599923432">
        <ele>453.3999938964844</ele>
        <time>2014-05-10T11:36:31.000Z</time>
      </trkpt>
      <trkpt lon="7.031537918373942" lat="46.157315941527486">
        <ele>454.0</ele>
        <time>2014-05-10T11:36:35.000Z</time>
      </trkpt>
      <trkpt lon="7.03133599832654" lat="46.15743496455252">
        <ele>453.79998779296875</ele>
        <time>2014-05-10T11:36:38.000Z</time>
      </trkpt>
      <trkpt lon="7.03133599832654" lat="46.15749196149409">
        <ele>454.20001220703125</ele>
        <time>2014-05-10T11:36:39.000Z</time>
      </trkpt>
      <trkpt lon="7.031320994719863" lat="46.15783394314349">
        <ele>454.3999938964844</ele>
        <time>2014-05-10T11:36:46.000Z</time>
      </trkpt>
      <trkpt lon="7.031299956142902" lat="46.1582269705832">
        <ele>454.20001220703125</ele>
        <time>2014-05-10T11:36:54.000Z</time>
      </trkpt>
      <trkpt lon="7.031274978071451" lat="46.15867992863059">
        <ele>453.79998779296875</ele>
        <time>2014-05-10T11:37:03.000Z</time>
      </trkpt>
      <trkpt lon="7.031224938109517" lat="46.159204971045256">
        <ele>452.79998779296875</ele>
        <time>2014-05-10T11:37:13.000Z</time>
      </trkpt>
      <trkpt lon="7.031190991401672" lat="46.15955592133105">
        <ele>452.20001220703125</ele>
        <time>2014-05-10T11:37:20.000Z</time>
      </trkpt>
      <trkpt lon="7.031149920076132" lat="46.15996898151934">
        <ele>451.79998779296875</ele>
        <time>2014-05-10T11:37:29.000Z</time>
      </trkpt>
      <trkpt lon="7.031103987246752" lat="46.16026595234871">
        <ele>451.6000061035156</ele>
        <time>2014-05-10T11:37:35.000Z</time>
      </trkpt>
      <trkpt lon="7.031038943678141" lat="46.160641964524984">
        <ele>451.3999938964844</ele>
        <time>2014-05-10T11:37:43.000Z</time>
      </trkpt>
      <trkpt lon="7.030998962000012" lat="46.16087196394801">
        <ele>451.0</ele>
        <time>2014-05-10T11:37:48.000Z</time>
      </trkpt>
      <trkpt lon="7.030895948410034" lat="46.161348978057504">
        <ele>450.6000061035156</ele>
        <time>2014-05-10T11:37:58.000Z</time>
      </trkpt>
      <trkpt lon="7.030792934820056" lat="46.161785926669836">
        <ele>450.20001220703125</ele>
        <time>2014-05-10T11:38:07.000Z</time>
      </trkpt>
      <trkpt lon="7.0306929387152195" lat="46.162149952724576">
        <ele>450.3999938964844</ele>
        <time>2014-05-10T11:38:15.000Z</time>
      </trkpt>
      <trkpt lon="7.030601995065808" lat="46.16247299127281">
        <ele>450.3999938964844</ele>
        <time>2014-05-10T11:38:22.000Z</time>
      </trkpt>
      <trkpt lon="7.03045598231256" lat="46.16296894848347">
        <ele>450.6000061035156</ele>
        <time>2014-05-10T11:38:32.000Z</time>
      </trkpt>
      <trkpt lon="7.030277950689197" lat="46.16353296674788">
        <ele>450.3999938964844</ele>
        <time>2014-05-10T11:38:43.000Z</time>
      </trkpt>
      <trkpt lon="7.030108971521258" lat="46.16394493728876">
        <ele>450.0</ele>
        <time>2014-05-10T11:38:51.000Z</time>
      </trkpt>
      <trkpt lon="7.02989992685616" lat="46.16440795361996">
        <ele>450.0</ele>
        <time>2014-05-10T11:39:00.000Z</time>
      </trkpt>
      <trkpt lon="7.029628939926624" lat="46.164918998256326">
        <ele>450.3999938964844</ele>
        <time>2014-05-10T11:39:10.000Z</time>
      </trkpt>
      <trkpt lon="7.029476976022124" lat="46.16520599462092">
        <ele>450.20001220703125</ele>
        <time>2014-05-10T11:39:16.000Z</time>
      </trkpt>
      <trkpt lon="7.029280923306942" lat="46.16559298709035">
        <ele>450.0</ele>
        <time>2014-05-10T11:39:25.000Z</time>
      </trkpt>
      <trkpt lon="7.029118984937668" lat="46.16592591628432">
        <ele>449.79998779296875</ele>
        <time>2014-05-10T11:39:32.000Z</time>
      </trkpt>
      <trkpt lon="7.028949921950698" lat="46.16625398397446">
        <ele>449.79998779296875</ele>
        <time>2014-05-10T11:39:39.000Z</time>
      </trkpt>
      <trkpt lon="7.0287509355694056" lat="46.16665195673704">
        <ele>449.79998779296875</ele>
        <time>2014-05-10T11:39:48.000Z</time>
      </trkpt>
      <trkpt lon="7.0285559725016356" lat="46.167023945599794">
        <ele>449.79998779296875</ele>
        <time>2014-05-10T11:39:57.000Z</time>
      </trkpt>
      <trkpt lon="7.028382970020175" lat="46.1673429608345">
        <ele>449.3999938964844</ele>
        <time>2014-05-10T11:40:05.000Z</time>
      </trkpt>
      <trkpt lon="7.02824198640883" lat="46.1676159594208">
        <ele>449.79998779296875</ele>
        <time>2014-05-10T11:40:12.000Z</time>
      </trkpt>
      <trkpt lon="7.028143918141723" lat="46.16780698299408">
        <ele>450.20001220703125</ele>
        <time>2014-05-10T11:40:18.000Z</time>
      </trkpt>
      <trkpt lon="7.028102930635214" lat="46.167885940521955">
        <ele>450.3999938964844</ele>
        <time>2014-05-10T11:40:21.000Z</time>
      </trkpt>
      <trkpt lon="7.02807099558413" lat="46.167947966605425">
        <ele>450.79998779296875</ele>
        <time>2014-05-10T11:40:25.000Z</time>
      </trkpt>
      <trkpt lon="7.028023973107338" lat="46.16804293356836">
        <ele>451.0</ele>
        <time>2014-05-10T11:42:19.000Z</time>
      </trkpt>
      <trkpt lon="7.027913918718696" lat="46.16826295852661">
        <ele>451.0</ele>
        <time>2014-05-10T11:42:26.000Z</time>
      </trkpt>
      <trkpt lon="7.027654917910695" lat="46.168680964037776">
        <ele>451.79998779296875</ele>
        <time>2014-05-10T11:42:38.000Z</time>
      </trkpt>
      <trkpt lon="7.027548970654607" lat="46.168855978176">
        <ele>450.6000061035156</ele>
        <time>2014-05-10T11:42:45.000Z</time>
      </trkpt>
      <trkpt lon="7.027453919872642" lat="46.16901095956564">
        <ele>451.6000061035156</ele>
        <time>2014-05-10T11:42:52.000Z</time>
      </trkpt>
      <trkpt lon="7.027315953746438" lat="46.16899092681706">
        <ele>454.0</ele>
        <time>2014-05-10T11:42:58.000Z</time>
      </trkpt>
      <trkpt lon="7.0271859504282475" lat="46.16894692182541">
        <ele>455.6000061035156</ele>
        <time>2014-05-10T11:43:06.000Z</time>
      </trkpt>
      <trkpt lon="7.027029963210225" lat="46.16881499066949">
        <ele>456.20001220703125</ele>
        <time>2014-05-10T11:43:10.000Z</time>
      </trkpt>
      <trkpt lon="7.027047984302044" lat="46.16860896348953">
        <ele>458.6000061035156</ele>
        <time>2014-05-10T11:43:19.000Z</time>
      </trkpt>
      <trkpt lon="7.027064999565482" lat="46.168527994304895">
        <ele>459.3999938964844</ele>
        <time>2014-05-10T11:43:25.000Z</time>
      </trkpt>
      <trkpt lon="7.027078997343779" lat="46.16852397099137">
        <ele>459.6000061035156</ele>
        <time>2014-05-10T11:43:27.000Z</time>
      </trkpt>
      <trkpt lon="7.027469929307699" lat="46.168610975146294">
        <ele>460.0</ele>
        <time>2014-05-10T11:43:35.000Z</time>
      </trkpt>
      <trkpt lon="7.02790193259716" lat="46.16871692240238">
        <ele>460.0</ele>
        <time>2014-05-10T11:43:43.000Z</time>
      </trkpt>
      <trkpt lon="7.028323961421847" lat="46.168808955699205">
        <ele>458.79998779296875</ele>
        <time>2014-05-10T11:43:50.000Z</time>
      </trkpt>
      <trkpt lon="7.028713971376419" lat="46.16889093071222">
        <ele>457.0</ele>
        <time>2014-05-10T11:43:55.000Z</time>
      </trkpt>
      <trkpt lon="7.029066933318973" lat="46.16896594874561">
        <ele>456.20001220703125</ele>
        <time>2014-05-10T11:43:59.000Z</time>
      </trkpt>
      <trkpt lon="7.029105992987752" lat="46.16897692903876">
        <ele>456.20001220703125</ele>
        <time>2014-05-10T11:44:00.000Z</time>
      </trkpt>
      <trkpt lon="7.028816984966397" lat="46.169577995315194">
        <ele>455.0</ele>
        <time>2014-05-10T11:44:09.000Z</time>
      </trkpt>
      <trkpt lon="7.028590925037861" lat="46.170056937262416">
        <ele>454.0</ele>
        <time>2014-05-10T11:44:17.000Z</time>
      </trkpt>
      <trkpt lon="7.028334941715002" lat="46.17061994969845">
        <ele>453.6000061035156</ele>
        <time>2014-05-10T11:44:27.000Z</time>
      </trkpt>
      <trkpt lon="7.028122963383794" lat="46.171086989343166">
        <ele>452.3999938964844</ele>
        <time>2014-05-10T11:44:35.000Z</time>
      </trkpt>
      <trkpt lon="7.027914924547076" lat="46.17154598236084">
        <ele>452.0</ele>
        <time>2014-05-10T11:44:43.000Z</time>
      </trkpt>
      <trkpt lon="7.027692971751094" lat="46.172052919864655">
        <ele>452.0</ele>
        <time>2014-05-10T11:44:52.000Z</time>
      </trkpt>
      <trkpt lon="7.027468923479319" lat="46.172570921480656">
        <ele>451.6000061035156</ele>
        <time>2014-05-10T11:45:01.000Z</time>
      </trkpt>
      <trkpt lon="7.027280917391181" lat="46.1730039305985">
        <ele>452.0</ele>
        <time>2014-05-10T11:45:09.000Z</time>
      </trkpt>
      <trkpt lon="7.027111938223243" lat="46.17348396219313">
        <ele>452.20001220703125</ele>
        <time>2014-05-10T11:45:18.000Z</time>
      </trkpt>
      <trkpt lon="7.02697891741991" lat="46.17390297353268">
        <ele>451.3999938964844</ele>
        <time>2014-05-10T11:45:26.000Z</time>
      </trkpt>
      <trkpt lon="7.026857966557145" lat="46.17434092797339">
        <ele>451.20001220703125</ele>
        <time>2014-05-10T11:45:34.000Z</time>
      </trkpt>
      <trkpt lon="7.0267559587955475" lat="46.17493495345116">
        <ele>451.3999938964844</ele>
        <time>2014-05-10T11:45:44.000Z</time>
      </trkpt>
      <trkpt lon="7.0267279632389545" lat="46.17533292621374">
        <ele>452.20001220703125</ele>
        <time>2014-05-10T11:45:51.000Z</time>
      </trkpt>
      <trkpt lon="7.026753947138786" lat="46.17577599361539">
        <ele>451.6000061035156</ele>
        <time>2014-05-10T11:46:00.000Z</time>
      </trkpt>
      <trkpt lon="7.026776997372508" lat="46.17612392641604">
        <ele>451.3999938964844</ele>
        <time>2014-05-10T11:46:07.000Z</time>
      </trkpt>
      <trkpt lon="7.026822930201888" lat="46.176519971340895">
        <ele>451.3999938964844</ele>
        <time>2014-05-10T11:46:14.000Z</time>
      </trkpt>
      <trkpt lon="7.02684698626399" lat="46.17670596577227">
        <ele>452.79998779296875</ele>
        <time>2014-05-10T11:46:18.000Z</time>
      </trkpt>
      <trkpt lon="7.026862995699048" lat="46.17685893550515">
        <ele>454.3999938964844</ele>
        <time>2014-05-10T11:46:24.000Z</time>
      </trkpt>
      <trkpt lon="7.026926949620247" lat="46.177081977948546">
        <ele>456.3999938964844</ele>
        <time>2014-05-10T11:46:36.000Z</time>
      </trkpt>
      <trkpt lon="7.026976989582181" lat="46.17721793241799">
        <ele>458.20001220703125</ele>
        <time>2014-05-10T11:46:45.000Z</time>
      </trkpt>
      <trkpt lon="7.0270339865237474" lat="46.177379954606295">
        <ele>460.6000061035156</ele>
        <time>2014-05-10T11:46:54.000Z</time>
      </trkpt>
      <trkpt lon="7.027095928788185" lat="46.177552957087755">
        <ele>461.3999938964844</ele>
        <time>2014-05-10T11:47:04.000Z</time>
      </trkpt>
      <trkpt lon="7.0271859504282475" lat="46.177746998146176">
        <ele>462.20001220703125</ele>
        <time>2014-05-10T11:47:16.000Z</time>
      </trkpt>
      <trkpt lon="7.027258956804872" lat="46.177896950393915">
        <ele>463.0</ele>
        <time>2014-05-10T11:47:25.000Z</time>
      </trkpt>
      <trkpt lon="7.027357947081327" lat="46.17805796675384">
        <ele>463.0</ele>
        <time>2014-05-10T11:47:34.000Z</time>
      </trkpt>
      <trkpt lon="7.027483927085996" lat="46.178235998377204">
        <ele>461.0</ele>
        <time>2014-05-10T11:47:39.000Z</time>
      </trkpt>
      <trkpt lon="7.027732953429222" lat="46.17852894589305">
        <ele>458.3999938964844</ele>
        <time>2014-05-10T11:47:45.000Z</time>
      </trkpt>
      <trkpt lon="7.027998995035887" lat="46.17883597500622">
        <ele>457.6000061035156</ele>
        <time>2014-05-10T11:47:51.000Z</time>
      </trkpt>
      <trkpt lon="7.028249949216843" lat="46.17912791669369">
        <ele>457.0</ele>
        <time>2014-05-10T11:47:58.000Z</time>
      </trkpt>
      <trkpt lon="7.028490928933024" lat="46.17940795607865">
        <ele>456.6000061035156</ele>
        <time>2014-05-10T11:48:05.000Z</time>
      </trkpt>
      <trkpt lon="7.02875797636807" lat="46.17971699684858">
        <ele>455.20001220703125</ele>
        <time>2014-05-10T11:48:12.000Z</time>
      </trkpt>
      <trkpt lon="7.029046984389424" lat="46.18005093187094">
        <ele>453.6000061035156</ele>
        <time>2014-05-10T11:48:18.000Z</time>
      </trkpt>
      <trkpt lon="7.029191991314292" lat="46.180217983201146">
        <ele>453.3999938964844</ele>
        <time>2014-05-10T11:48:21.000Z</time>
      </trkpt>
      <trkpt lon="7.029224932193756" lat="46.180256959050894">
        <ele>452.79998779296875</ele>
        <time>2014-05-10T11:48:24.000Z</time>
      </trkpt>
      <trkpt lon="7.028964925557375" lat="46.18050397373736">
        <ele>453.6000061035156</ele>
        <time>2014-05-10T11:48:28.000Z</time>
      </trkpt>
      <trkpt lon="7.029093923047185" lat="46.18070094846189">
        <ele>454.79998779296875</ele>
        <time>2014-05-10T11:48:35.000Z</time>
      </trkpt>
      <trkpt lon="7.029207916930318" lat="46.18093597702682">
        <ele>456.20001220703125</ele>
        <time>2014-05-10T11:48:44.000Z</time>
      </trkpt>
      <trkpt lon="7.029305985197425" lat="46.181248957291245">
        <ele>458.20001220703125</ele>
        <time>2014-05-10T11:48:54.000Z</time>
      </trkpt>
      <trkpt lon="7.0293649937957525" lat="46.18148599751294">
        <ele>459.0</ele>
        <time>2014-05-10T11:49:02.000Z</time>
      </trkpt>
      <trkpt lon="7.0294229965657" lat="46.181764947250485">
        <ele>460.0</ele>
        <time>2014-05-10T11:49:11.000Z</time>
      </trkpt>
      <trkpt lon="7.029466917738318" lat="46.18202595971525">
        <ele>461.3999938964844</ele>
        <time>2014-05-10T11:49:20.000Z</time>
      </trkpt>
      <trkpt lon="7.029482927173376" lat="46.18228294886649">
        <ele>463.0</ele>
        <time>2014-05-10T11:49:29.000Z</time>
      </trkpt>
      <trkpt lon="7.029484938830137" lat="46.18254496715963">
        <ele>464.79998779296875</ele>
        <time>2014-05-10T11:49:39.000Z</time>
      </trkpt>
      <trkpt lon="7.0294739585369825" lat="46.18277597241104">
        <ele>465.3999938964844</ele>
        <time>2014-05-10T11:49:47.000Z</time>
      </trkpt>
      <trkpt lon="7.02944596298039" lat="46.183007983490825">
        <ele>466.20001220703125</ele>
        <time>2014-05-10T11:49:54.000Z</time>
      </trkpt>
      <trkpt lon="7.029370944947004" lat="46.183353988453746">
        <ele>466.79998779296875</ele>
        <time>2014-05-10T11:50:04.000Z</time>
      </trkpt>
      <trkpt lon="7.029313948005438" lat="46.18361692875624">
        <ele>467.20001220703125</ele>
        <time>2014-05-10T11:50:12.000Z</time>
      </trkpt>
      <trkpt lon="7.029213951900601" lat="46.18388397619128">
        <ele>468.0</ele>
        <time>2014-05-10T11:50:20.000Z</time>
      </trkpt>
      <trkpt lon="7.0290999580174685" lat="46.184144988656044">
        <ele>468.20001220703125</ele>
        <time>2014-05-10T11:50:28.000Z</time>
      </trkpt>
      <trkpt lon="7.028935924172401" lat="46.18445998057723">
        <ele>468.6000061035156</ele>
        <time>2014-05-10T11:50:38.000Z</time>
      </trkpt>
      <trkpt lon="7.028880938887596" lat="46.18460892699659">
        <ele>468.6000061035156</ele>
        <time>2014-05-10T11:50:43.000Z</time>
      </trkpt>
      <trkpt lon="7.028826959431171" lat="46.184707917273045">
        <ele>468.79998779296875</ele>
        <time>2014-05-10T11:50:48.000Z</time>
      </trkpt>
      <trkpt lon="7.028760993853211" lat="46.18482895195484">
        <ele>468.6000061035156</ele>
        <time>2014-05-10T11:50:58.000Z</time>
      </trkpt>
      <trkpt lon="7.0283109694719315" lat="46.18525693193078">
        <ele>468.3999938964844</ele>
        <time>2014-05-10T11:51:05.000Z</time>
      </trkpt>
      <trkpt lon="7.028162945061922" lat="46.18566496297717">
        <ele>468.0</ele>
        <time>2014-05-10T11:51:14.000Z</time>
      </trkpt>
      <trkpt lon="7.02802992425859" lat="46.186099983751774">
        <ele>467.6000061035156</ele>
        <time>2014-05-10T11:51:24.000Z</time>
      </trkpt>
      <trkpt lon="7.0280069578439" lat="46.18617894127965">
        <ele>467.6000061035156</ele>
        <time>2014-05-10T11:51:26.000Z</time>
      </trkpt>
      <trkpt lon="7.027915930375457" lat="46.18649795651436">
        <ele>467.79998779296875</ele>
        <time>2014-05-10T11:51:34.000Z</time>
      </trkpt>
      <trkpt lon="7.02787896618247" lat="46.18662795983255">
        <ele>468.20001220703125</ele>
        <time>2014-05-10T11:51:38.000Z</time>
      </trkpt>
      <trkpt lon="7.0278549939394" lat="46.18671194650233">
        <ele>468.6000061035156</ele>
        <time>2014-05-10T11:51:43.000Z</time>
      </trkpt>
      <trkpt lon="7.0278549939394" lat="46.18671194650233">
        <ele>468.6000061035156</ele>
        <time>2014-05-10T11:51:44.000Z</time>
      </trkpt>
      <trkpt lon="7.027838984504342" lat="46.186767937615514">
        <ele>469.3999938964844</ele>
        <time>2014-05-10T11:53:02.000Z</time>
      </trkpt>
      <trkpt lon="7.027818951755762" lat="46.186836920678616">
        <ele>468.3999938964844</ele>
        <time>2014-05-10T11:53:08.000Z</time>
      </trkpt>
      <trkpt lon="7.027763966470957" lat="46.187025932595134">
        <ele>469.6000061035156</ele>
        <time>2014-05-10T11:53:14.000Z</time>
      </trkpt>
      <trkpt lon="7.027651984244585" lat="46.18737897835672">
        <ele>470.20001220703125</ele>
        <time>2014-05-10T11:53:22.000Z</time>
      </trkpt>
      <trkpt lon="7.027499936521053" lat="46.18777393363416">
        <ele>470.3999938964844</ele>
        <time>2014-05-10T11:53:31.000Z</time>
      </trkpt>
      <trkpt lon="7.027328945696354" lat="46.188163943588734">
        <ele>470.20001220703125</ele>
        <time>2014-05-10T11:53:40.000Z</time>
      </trkpt>
      <trkpt lon="7.027129959315062" lat="46.188484970480204">
        <ele>470.6000061035156</ele>
        <time>2014-05-10T11:53:48.000Z</time>
      </trkpt>
      <trkpt lon="7.026923932135105" lat="46.18875092826784">
        <ele>470.79998779296875</ele>
        <time>2014-05-10T11:53:55.000Z</time>
      </trkpt>
      <trkpt lon="7.026600977405906" lat="46.1890999507159">
        <ele>470.79998779296875</ele>
        <time>2014-05-10T11:54:04.000Z</time>
      </trkpt>
      <trkpt lon="7.026277938857675" lat="46.18944897316396">
        <ele>470.20001220703125</ele>
        <time>2014-05-10T11:54:13.000Z</time>
      </trkpt>
      <trkpt lon="7.025964958593249" lat="46.189798917621374">
        <ele>470.0</ele>
        <time>2014-05-10T11:54:21.000Z</time>
      </trkpt>
      <trkpt lon="7.025724984705448" lat="46.19010997004807">
        <ele>470.3999938964844</ele>
        <time>2014-05-10T11:54:28.000Z</time>
      </trkpt>
      <trkpt lon="7.025436982512474" lat="46.19054297916591">
        <ele>469.20001220703125</ele>
        <time>2014-05-10T11:54:37.000Z</time>
      </trkpt>
      <trkpt lon="7.025188961997628" lat="46.190981939435005">
        <ele>468.20001220703125</ele>
        <time>2014-05-10T11:54:45.000Z</time>
      </trkpt>
      <trkpt lon="7.024873970076442" lat="46.191562972962856">
        <ele>467.3999938964844</ele>
        <time>2014-05-10T11:54:55.000Z</time>
      </trkpt>
      <trkpt lon="7.0246189925819635" lat="46.192012997344136">
        <ele>466.20001220703125</ele>
        <time>2014-05-10T11:55:04.000Z</time>
      </trkpt>
      <trkpt lon="7.024340964853764" lat="46.19248799979687">
        <ele>464.6000061035156</ele>
        <time>2014-05-10T11:55:13.000Z</time>
      </trkpt>
      <trkpt lon="7.024059919640422" lat="46.19299099780619">
        <ele>463.3999938964844</ele>
        <time>2014-05-10T11:55:22.000Z</time>
      </trkpt>
      <trkpt lon="7.0236889366060495" lat="46.193625926971436">
        <ele>463.3999938964844</ele>
        <time>2014-05-10T11:55:33.000Z</time>
      </trkpt>
      <trkpt lon="7.023495985195041" lat="46.193986935541034">
        <ele>463.20001220703125</ele>
        <time>2014-05-10T11:55:40.000Z</time>
      </trkpt>
      <trkpt lon="7.0233649760484695" lat="46.194162955507636">
        <ele>464.3999938964844</ele>
        <time>2014-05-10T11:55:44.000Z</time>
      </trkpt>
      <trkpt lon="7.023018971085548" lat="46.194505942985415">
        <ele>463.79998779296875</ele>
        <time>2014-05-10T11:55:52.000Z</time>
      </trkpt>
      <trkpt lon="7.022619992494583" lat="46.19492696598172">
        <ele>462.3999938964844</ele>
        <time>2014-05-10T11:56:00.000Z</time>
      </trkpt>
      <trkpt lon="7.022211961448193" lat="46.19534798897803">
        <ele>458.6000061035156</ele>
        <time>2014-05-10T11:56:08.000Z</time>
      </trkpt>
      <trkpt lon="7.02175498008728" lat="46.19584294036031">
        <ele>455.79998779296875</ele>
        <time>2014-05-10T11:56:17.000Z</time>
      </trkpt>
      <trkpt lon="7.021368993446231" lat="46.19638198055327">
        <ele>457.20001220703125</ele>
        <time>2014-05-10T11:56:25.000Z</time>
      </trkpt>
      <trkpt lon="7.02108895406127" lat="46.19674793444574">
        <ele>458.79998779296875</ele>
        <time>2014-05-10T11:56:32.000Z</time>
      </trkpt>
      <trkpt lon="7.02076893299818" lat="46.197115983814">
        <ele>458.0</ele>
        <time>2014-05-10T11:56:40.000Z</time>
      </trkpt>
      <trkpt lon="7.020425945520401" lat="46.19754798710346">
        <ele>460.79998779296875</ele>
        <time>2014-05-10T11:56:49.000Z</time>
      </trkpt>
      <trkpt lon="7.0201589819043875" lat="46.19775795377791">
        <ele>457.3999938964844</ele>
        <time>2014-05-10T11:56:56.000Z</time>
      </trkpt>
      <trkpt lon="7.020005928352475" lat="46.19793891906738">
        <ele>455.20001220703125</ele>
        <time>2014-05-10T11:57:01.000Z</time>
      </trkpt>
      <trkpt lon="7.019701916724443" lat="46.1982679925859">
        <ele>451.20001220703125</ele>
        <time>2014-05-10T11:57:06.000Z</time>
      </trkpt>
      <trkpt lon="7.019321965053678" lat="46.19870997034013">
        <ele>445.0</ele>
        <time>2014-05-10T11:57:12.000Z</time>
      </trkpt>
      <trkpt lon="7.019022982567549" lat="46.19905396364629">
        <ele>441.79998779296875</ele>
        <time>2014-05-10T11:57:16.000Z</time>
      </trkpt>
      <trkpt lon="7.018620986491442" lat="46.19934297166765">
        <ele>440.0</ele>
        <time>2014-05-10T11:57:20.000Z</time>
      </trkpt>
      <trkpt lon="7.018506992608309" lat="46.199372978881">
        <ele>439.79998779296875</ele>
        <time>2014-05-10T11:57:21.000Z</time>
      </trkpt>
      <trkpt lon="7.018260983750224" lat="46.199423940852284">
        <ele>439.79998779296875</ele>
        <time>2014-05-10T11:57:23.000Z</time>
      </trkpt>
      <trkpt lon="7.017055917531252" lat="46.199658969417214">
        <ele>442.3999938964844</ele>
        <time>2014-05-10T11:57:32.000Z</time>
      </trkpt>
      <trkpt lon="7.016418976709247" lat="46.199787966907024">
        <ele>442.79998779296875</ele>
        <time>2014-05-10T11:57:37.000Z</time>
      </trkpt>
      <trkpt lon="7.01599795371294" lat="46.199872959405184">
        <ele>444.3999938964844</ele>
        <time>2014-05-10T11:57:41.000Z</time>
      </trkpt>
      <trkpt lon="7.015605932101607" lat="46.19995292276144">
        <ele>444.6000061035156</ele>
        <time>2014-05-10T11:57:44.000Z</time>
      </trkpt>
      <trkpt lon="7.015327988192439" lat="46.20002098381519">
        <ele>443.6000061035156</ele>
        <time>2014-05-10T11:57:46.000Z</time>
      </trkpt>
      <trkpt lon="7.014418970793486" lat="46.20027797296643">
        <ele>440.0</ele>
        <time>2014-05-10T11:57:54.000Z</time>
      </trkpt>
      <trkpt lon="7.01367499306798" lat="46.200542924925685">
        <ele>436.6000061035156</ele>
        <time>2014-05-10T11:58:02.000Z</time>
      </trkpt>
      <trkpt lon="7.012780979275703" lat="46.20095799677074">
        <ele>429.0</ele>
        <time>2014-05-10T11:58:12.000Z</time>
      </trkpt>
      <trkpt lon="7.01210992410779" lat="46.20129897259176">
        <ele>426.3999938964844</ele>
        <time>2014-05-10T11:58:19.000Z</time>
      </trkpt>
      <trkpt lon="7.0112839713692665" lat="46.20179291814566">
        <ele>423.0</ele>
        <time>2014-05-10T11:58:28.000Z</time>
      </trkpt>
      <trkpt lon="7.010693969205022" lat="46.20216691866517">
        <ele>419.6000061035156</ele>
        <time>2014-05-10T11:58:35.000Z</time>
      </trkpt>
      <trkpt lon="7.010351987555623" lat="46.20246095582843">
        <ele>418.6000061035156</ele>
        <time>2014-05-10T11:58:40.000Z</time>
      </trkpt>
      <trkpt lon="7.00995896011591" lat="46.202860940247774">
        <ele>417.6000061035156</ele>
        <time>2014-05-10T11:58:46.000Z</time>
      </trkpt>
      <trkpt lon="7.009567944332957" lat="46.203294955193996">
        <ele>419.3999938964844</ele>
        <time>2014-05-10T11:58:52.000Z</time>
      </trkpt>
      <trkpt lon="7.0092289801687" lat="46.203720923513174">
        <ele>420.3999938964844</ele>
        <time>2014-05-10T11:58:58.000Z</time>
      </trkpt>
      <trkpt lon="7.00888498686254" lat="46.204153932631016">
        <ele>417.79998779296875</ele>
        <time>2014-05-10T11:59:05.000Z</time>
      </trkpt>
      <trkpt lon="7.00856395997107" lat="46.20455592870712">
        <ele>414.79998779296875</ele>
        <time>2014-05-10T11:59:12.000Z</time>
      </trkpt>
      <trkpt lon="7.0085179433226585" lat="46.20461493730545">
        <ele>414.6000061035156</ele>
        <time>2014-05-10T11:59:13.000Z</time>
      </trkpt>
      <trkpt lon="7.008329937234521" lat="46.20485097169876">
        <ele>415.3999938964844</ele>
        <time>2014-05-10T11:59:17.000Z</time>
      </trkpt>
      <trkpt lon="7.0082429330796" lat="46.20495993643999">
        <ele>414.3999938964844</ele>
        <time>2014-05-10T11:59:19.000Z</time>
      </trkpt>
      <trkpt lon="7.007956942543387" lat="46.20531792752445">
        <ele>413.20001220703125</ele>
        <time>2014-05-10T11:59:26.000Z</time>
      </trkpt>
      <trkpt lon="7.007919978350401" lat="46.20536293834448">
        <ele>411.6000061035156</ele>
        <time>2014-05-10T11:59:27.000Z</time>
      </trkpt>
      <trkpt lon="7.007674975320697" lat="46.205655969679356">
        <ele>412.20001220703125</ele>
        <time>2014-05-10T11:59:35.000Z</time>
      </trkpt>
      <trkpt lon="7.007460985332727" lat="46.205933997407556">
        <ele>411.0</ele>
        <time>2014-05-10T11:59:43.000Z</time>
      </trkpt>
      <trkpt lon="7.007215982303023" lat="46.20625091716647">
        <ele>414.20001220703125</ele>
        <time>2014-05-10T11:59:51.000Z</time>
      </trkpt>
      <trkpt lon="7.006980953738093" lat="46.20655199512839">
        <ele>415.0</ele>
        <time>2014-05-10T11:59:59.000Z</time>
      </trkpt>
      <trkpt lon="7.006786996498704" lat="46.206797920167446">
        <ele>416.0</ele>
        <time>2014-05-10T12:00:06.000Z</time>
      </trkpt>
      <trkpt lon="7.006589937955141" lat="46.20704795233905">
        <ele>417.0</ele>
        <time>2014-05-10T12:00:14.000Z</time>
      </trkpt>
      <trkpt lon="7.0063659735023975" lat="46.207331931218505">
        <ele>417.6000061035156</ele>
        <time>2014-05-10T12:00:23.000Z</time>
      </trkpt>
      <trkpt lon="7.006096998229623" lat="46.2076429836452">
        <ele>418.0</ele>
        <time>2014-05-10T12:00:33.000Z</time>
      </trkpt>
      <trkpt lon="7.005841936916113" lat="46.207845993340015">
        <ele>419.79998779296875</ele>
        <time>2014-05-10T12:00:41.000Z</time>
      </trkpt>
      <trkpt lon="7.005731966346502" lat="46.20813097804785">
        <ele>421.3999938964844</ele>
        <time>2014-05-10T12:00:47.000Z</time>
      </trkpt>
      <trkpt lon="7.005743952468038" lat="46.20815997943282">
        <ele>421.3999938964844</ele>
        <time>2014-05-10T12:00:48.000Z</time>
      </trkpt>
      <trkpt lon="7.005841936916113" lat="46.20836793445051">
        <ele>421.3999938964844</ele>
        <time>2014-05-10T12:00:54.000Z</time>
      </trkpt>
      <trkpt lon="7.005999935790896" lat="46.20854496024549">
        <ele>422.6000061035156</ele>
        <time>2014-05-10T12:00:58.000Z</time>
      </trkpt>
      <trkpt lon="7.006257930770516" lat="46.20864495635033">
        <ele>424.79998779296875</ele>
        <time>2014-05-10T12:01:03.000Z</time>
      </trkpt>
      <trkpt lon="7.006475944072008" lat="46.20870195329189">
        <ele>425.6000061035156</ele>
        <time>2014-05-10T12:01:08.000Z</time>
      </trkpt>
      <trkpt lon="7.006508968770504" lat="46.20871092192829">
        <ele>426.79998779296875</ele>
        <time>2014-05-10T12:01:11.000Z</time>
      </trkpt>
      <trkpt lon="7.006508968770504" lat="46.20871092192829">
        <ele>427.3999938964844</ele>
        <time>2014-05-10T12:01:14.000Z</time>
      </trkpt>
      <trkpt lon="7.006895961239934" lat="46.20873296633363">
        <ele>427.20001220703125</ele>
        <time>2014-05-10T12:01:18.000Z</time>
      </trkpt>
      <trkpt lon="7.006895961239934" lat="46.20873296633363">
        <ele>426.79998779296875</ele>
        <time>2014-05-10T12:01:22.000Z</time>
      </trkpt>
      <trkpt lon="7.006895961239934" lat="46.20873296633363">
        <ele>426.79998779296875</ele>
        <time>2014-05-10T12:01:24.000Z</time>
      </trkpt>
      <trkpt lon="7.006353987380862" lat="46.209374936297536">
        <ele>425.79998779296875</ele>
        <time>2014-05-10T12:01:34.000Z</time>
      </trkpt>
      <trkpt lon="7.006174949929118" lat="46.20991598814726">
        <ele>424.20001220703125</ele>
        <time>2014-05-10T12:01:45.000Z</time>
      </trkpt>
      <trkpt lon="7.006051987409592" lat="46.21043298393488">
        <ele>422.6000061035156</ele>
        <time>2014-05-10T12:01:55.000Z</time>
      </trkpt>
      <trkpt lon="7.005995996296406" lat="46.210850989446044">
        <ele>420.6000061035156</ele>
        <time>2014-05-10T12:02:03.000Z</time>
      </trkpt>
      <trkpt lon="7.005960959941149" lat="46.211158940568566">
        <ele>418.79998779296875</ele>
        <time>2014-05-10T12:02:09.000Z</time>
      </trkpt>
      <trkpt lon="7.005930952727795" lat="46.21146898716688">
        <ele>417.3999938964844</ele>
        <time>2014-05-10T12:02:15.000Z</time>
      </trkpt>
      <trkpt lon="7.005955930799246" lat="46.211776938289404">
        <ele>416.20001220703125</ele>
        <time>2014-05-10T12:02:21.000Z</time>
      </trkpt>
      <trkpt lon="7.005980992689729" lat="46.21195798739791">
        <ele>415.79998779296875</ele>
        <time>2014-05-10T12:02:25.000Z</time>
      </trkpt>
      <trkpt lon="7.005988955497742" lat="46.21198497712612">
        <ele>415.79998779296875</ele>
        <time>2014-05-10T12:02:30.000Z</time>
      </trkpt>
      <trkpt lon="7.005436923354864" lat="46.212485963478684">
        <ele>415.6000061035156</ele>
        <time>2014-05-10T12:02:37.000Z</time>
      </trkpt>
      <trkpt lon="7.005322929471731" lat="46.2128599639982">
        <ele>416.0</ele>
        <time>2014-05-10T12:02:44.000Z</time>
      </trkpt>
      <trkpt lon="7.005195943638682" lat="46.21340696699917">
        <ele>417.0</ele>
        <time>2014-05-10T12:02:54.000Z</time>
      </trkpt>
      <trkpt lon="7.005094941705465" lat="46.21378993615508">
        <ele>417.6000061035156</ele>
        <time>2014-05-10T12:03:01.000Z</time>
      </trkpt>
      <trkpt lon="7.005079938098788" lat="46.21384793892503">
        <ele>417.20001220703125</ele>
        <time>2014-05-10T12:03:02.000Z</time>
      </trkpt>
      <trkpt lon="7.005054960027337" lat="46.21394097805023">
        <ele>416.20001220703125</ele>
        <time>2014-05-10T12:03:04.000Z</time>
      </trkpt>
      <trkpt lon="7.004960998892784" lat="46.21429896913469">
        <ele>416.79998779296875</ele>
        <time>2014-05-10T12:03:12.000Z</time>
      </trkpt>
      <trkpt lon="7.004893943667412" lat="46.214552940800786">
        <ele>418.79998779296875</ele>
        <time>2014-05-10T12:03:18.000Z</time>
      </trkpt>
      <trkpt lon="7.0048309955745935" lat="46.2148249335587">
        <ele>418.79998779296875</ele>
        <time>2014-05-10T12:03:26.000Z</time>
      </trkpt>
      <trkpt lon="7.0047759264707565" lat="46.21505493298173">
        <ele>418.3999938964844</ele>
        <time>2014-05-10T12:03:32.000Z</time>
      </trkpt>
      <trkpt lon="7.00467299669981" lat="46.21541594155133">
        <ele>419.20001220703125</ele>
        <time>2014-05-10T12:03:39.000Z</time>
      </trkpt>
      <trkpt lon="7.004579957574606" lat="46.21586998924613">
        <ele>419.3999938964844</ele>
        <time>2014-05-10T12:03:47.000Z</time>
      </trkpt>
      <trkpt lon="7.004568977281451" lat="46.21592899784446">
        <ele>419.20001220703125</ele>
        <time>2014-05-10T12:03:48.000Z</time>
      </trkpt>
      <trkpt lon="7.00454399921" lat="46.21606394648552">
        <ele>418.6000061035156</ele>
        <time>2014-05-10T12:03:51.000Z</time>
      </trkpt>
      <trkpt lon="7.004508962854743" lat="46.216310961171985">
        <ele>419.20001220703125</ele>
        <time>2014-05-10T12:03:56.000Z</time>
      </trkpt>
      <trkpt lon="7.004463952034712" lat="46.21664598584175">
        <ele>421.20001220703125</ele>
        <time>2014-05-10T12:04:02.000Z</time>
      </trkpt>
      <trkpt lon="7.004448948428035" lat="46.21690699830651">
        <ele>426.79998779296875</ele>
        <time>2014-05-10T12:04:08.000Z</time>
      </trkpt>
      <trkpt lon="7.004431933164597" lat="46.216998947784305">
        <ele>428.0</ele>
        <time>2014-05-10T12:04:12.000Z</time>
      </trkpt>
      <trkpt lon="7.004427993670106" lat="46.21701495721936">
        <ele>433.3999938964844</ele>
        <time>2014-05-10T12:04:16.000Z</time>
      </trkpt>
      <trkpt lon="7.004466969519854" lat="46.2174669932574">
        <ele>436.79998779296875</ele>
        <time>2014-05-10T12:04:21.000Z</time>
      </trkpt>
      <trkpt lon="7.004468981176615" lat="46.2174809910357">
        <ele>435.79998779296875</ele>
        <time>2014-05-10T12:04:22.000Z</time>
      </trkpt>
      <trkpt lon="7.004783973097801" lat="46.21751996688545">
        <ele>435.3999938964844</ele>
        <time>2014-05-10T12:04:24.000Z</time>
      </trkpt>
      <trkpt lon="7.005334999412298" lat="46.217540921643376">
        <ele>435.20001220703125</ele>
        <time>2014-05-10T12:04:32.000Z</time>
      </trkpt>
      <trkpt lon="7.005465924739838" lat="46.21754595078528">
        <ele>435.0</ele>
        <time>2014-05-10T12:04:34.000Z</time>
      </trkpt>
      <trkpt lon="7.005947967991233" lat="46.21756497770548">
        <ele>426.6000061035156</ele>
        <time>2014-05-10T12:04:41.000Z</time>
      </trkpt>
      <trkpt lon="7.006118958815932" lat="46.21757193468511">
        <ele>422.3999938964844</ele>
        <time>2014-05-10T12:04:45.000Z</time>
      </trkpt>
      <trkpt lon="7.006191965192556" lat="46.217576963827014">
        <ele>420.79998779296875</ele>
        <time>2014-05-10T12:04:48.000Z</time>
      </trkpt>
      <trkpt lon="7.006137985736132" lat="46.21761694550514">
        <ele>424.0</ele>
        <time>2014-05-10T12:04:54.000Z</time>
      </trkpt>
      <trkpt lon="7.006137985736132" lat="46.21761694550514">
        <ele>423.20001220703125</ele>
        <time>2014-05-10T12:04:55.000Z</time>
      </trkpt>
      <trkpt lon="7.006137985736132" lat="46.21761694550514">
        <ele>418.6000061035156</ele>
        <time>2014-05-10T12:05:14.000Z</time>
      </trkpt>
      <trkpt lon="7.006122982129455" lat="46.21776195243001">
        <ele>448.3999938964844</ele>
        <time>2014-05-10T12:05:22.000Z</time>
      </trkpt>
      <trkpt lon="7.006120970472693" lat="46.21792891994119">
        <ele>464.79998779296875</ele>
        <time>2014-05-10T12:05:27.000Z</time>
      </trkpt>
      <trkpt lon="7.006106972694397" lat="46.21804098598659">
        <ele>473.3999938964844</ele>
        <time>2014-05-10T12:05:33.000Z</time>
      </trkpt>
      <trkpt lon="7.006106972694397" lat="46.21804098598659">
        <ele>466.79998779296875</ele>
        <time>2014-05-10T12:05:37.000Z</time>
      </trkpt>
      <trkpt lon="7.006122982129455" lat="46.21784895658493">
        <ele>456.0</ele>
        <time>2014-05-10T12:05:44.000Z</time>
      </trkpt>
      <trkpt lon="7.006122982129455" lat="46.21777896769345">
        <ele>448.6000061035156</ele>
        <time>2014-05-10T12:05:50.000Z</time>
      </trkpt>
      <trkpt lon="7.006124993786216" lat="46.217709984630346">
        <ele>439.6000061035156</ele>
        <time>2014-05-10T12:05:55.000Z</time>
      </trkpt>
      <trkpt lon="7.006141925230622" lat="46.21759599074721">
        <ele>430.6000061035156</ele>
        <time>2014-05-10T12:06:02.000Z</time>
      </trkpt>
      <trkpt lon="7.006144942715764" lat="46.21757394634187">
        <ele>430.3999938964844</ele>
        <time>2014-05-10T12:06:07.000Z</time>
      </trkpt>
      <trkpt lon="7.006144942715764" lat="46.21757294051349">
        <ele>425.3999938964844</ele>
        <time>2014-05-10T12:06:15.000Z</time>
      </trkpt>
      <trkpt lon="7.006144942715764" lat="46.21757294051349">
        <ele>422.6000061035156</ele>
        <time>2014-05-10T12:06:20.000Z</time>
      </trkpt>
      <trkpt lon="7.006144942715764" lat="46.21757294051349">
        <ele>422.6000061035156</ele>
        <time>2014-05-10T12:06:23.000Z</time>
      </trkpt>
      <trkpt lon="7.006126921623945" lat="46.21769992634654">
        <ele>430.0</ele>
        <time>2014-05-10T12:06:35.000Z</time>
      </trkpt>
      <trkpt lon="7.006126921623945" lat="46.21769992634654">
        <ele>430.6000061035156</ele>
        <time>2014-05-10T12:06:46.000Z</time>
      </trkpt>
      <trkpt lon="7.006126921623945" lat="46.21769992634654">
        <ele>424.0</ele>
        <time>2014-05-10T12:07:02.000Z</time>
      </trkpt>
      <trkpt lon="7.006126921623945" lat="46.21769992634654">
        <ele>425.3999938964844</ele>
        <time>2014-05-10T12:07:11.000Z</time>
      </trkpt>
      <trkpt lon="7.006126921623945" lat="46.21769992634654">
        <ele>420.3999938964844</ele>
        <time>2014-05-10T12:07:18.000Z</time>
      </trkpt>
      <trkpt lon="7.006126921623945" lat="46.21769498102367">
        <ele>420.3999938964844</ele>
        <time>2014-05-10T12:07:25.000Z</time>
      </trkpt>
      <trkpt lon="7.006108984351158" lat="46.21802296489477">
        <ele>423.3999938964844</ele>
        <time>2014-05-10T12:07:30.000Z</time>
      </trkpt>
      <trkpt lon="7.006099931895733" lat="46.21809194795787">
        <ele>423.20001220703125</ele>
        <time>2014-05-10T12:07:32.000Z</time>
      </trkpt>
      <trkpt lon="7.006095992401242" lat="46.21812195517123">
        <ele>429.0</ele>
        <time>2014-05-10T12:07:36.000Z</time>
      </trkpt>
      <trkpt lon="7.006098926067352" lat="46.218094965443015">
        <ele>429.6000061035156</ele>
        <time>2014-05-10T12:07:37.000Z</time>
      </trkpt>
      <trkpt lon="7.006122982129455" lat="46.21786798350513">
        <ele>431.79998779296875</ele>
        <time>2014-05-10T12:07:43.000Z</time>
      </trkpt>
      <trkpt lon="7.006122982129455" lat="46.21780193410814">
        <ele>436.0</ele>
        <time>2014-05-10T12:07:45.000Z</time>
      </trkpt>
      <trkpt lon="7.006098926067352" lat="46.21757092885673">
        <ele>442.79998779296875</ele>
        <time>2014-05-10T12:07:50.000Z</time>
      </trkpt>
      <trkpt lon="7.006055926904082" lat="46.21756891719997">
        <ele>443.6000061035156</ele>
        <time>2014-05-10T12:07:51.000Z</time>
      </trkpt>
      <trkpt lon="7.005655942484736" lat="46.21755299158394">
        <ele>441.79998779296875</ele>
        <time>2014-05-10T12:07:58.000Z</time>
      </trkpt>
      <trkpt lon="7.005343968048692" lat="46.217540921643376">
        <ele>437.0</ele>
        <time>2014-05-10T12:08:03.000Z</time>
      </trkpt>
      <trkpt lon="7.005017995834351" lat="46.21752893552184">
        <ele>436.3999938964844</ele>
        <time>2014-05-10T12:08:09.000Z</time>
      </trkpt>
      <trkpt lon="7.004779949784279" lat="46.21751996688545">
        <ele>435.6000061035156</ele>
        <time>2014-05-10T12:08:13.000Z</time>
      </trkpt>
      <trkpt lon="7.004624968394637" lat="46.217514937743545">
        <ele>437.20001220703125</ele>
        <time>2014-05-10T12:08:16.000Z</time>
      </trkpt>
      <trkpt lon="7.004470992833376" lat="46.21750898659229">
        <ele>434.3999938964844</ele>
        <time>2014-05-10T12:08:22.000Z</time>
      </trkpt>
      <trkpt lon="7.004487924277782" lat="46.217682994902134">
        <ele>433.20001220703125</ele>
        <time>2014-05-10T12:08:26.000Z</time>
      </trkpt>
      <trkpt lon="7.004519943147898" lat="46.21793093159795">
        <ele>434.79998779296875</ele>
        <time>2014-05-10T12:08:30.000Z</time>
      </trkpt>
      <trkpt lon="7.00454693287611" lat="46.21817794628441">
        <ele>438.79998779296875</ele>
        <time>2014-05-10T12:08:33.000Z</time>
      </trkpt>
      <trkpt lon="7.0045659597963095" lat="46.21838891878724">
        <ele>444.0</ele>
        <time>2014-05-10T12:08:37.000Z</time>
      </trkpt>
      <trkpt lon="7.004583980888128" lat="46.21862394735217">
        <ele>448.3999938964844</ele>
        <time>2014-05-10T12:08:43.000Z</time>
      </trkpt>
      <trkpt lon="7.004605941474438" lat="46.218849923461676">
        <ele>451.6000061035156</ele>
        <time>2014-05-10T12:08:48.000Z</time>
      </trkpt>
      <trkpt lon="7.004622956737876" lat="46.21907698921859">
        <ele>453.0</ele>
        <time>2014-05-10T12:08:54.000Z</time>
      </trkpt>
      <trkpt lon="7.0046239625662565" lat="46.21912099421024">
        <ele>452.20001220703125</ele>
        <time>2014-05-10T12:08:55.000Z</time>
      </trkpt>
      <trkpt lon="7.0046289917081594" lat="46.21935392729938">
        <ele>454.6000061035156</ele>
        <time>2014-05-10T12:08:59.000Z</time>
      </trkpt>
      <trkpt lon="7.0046319253742695" lat="46.21948191896081">
        <ele>456.0</ele>
        <time>2014-05-10T12:09:01.000Z</time>
      </trkpt>
      <trkpt lon="7.004637960344553" lat="46.21971493586898">
        <ele>456.0</ele>
        <time>2014-05-10T12:09:06.000Z</time>
      </trkpt>
      <trkpt lon="7.004641983658075" lat="46.21988198719919">
        <ele>453.79998779296875</ele>
        <time>2014-05-10T12:09:10.000Z</time>
      </trkpt>
      <trkpt lon="7.004642989486456" lat="46.21995499357581">
        <ele>451.0</ele>
        <time>2014-05-10T12:09:12.000Z</time>
      </trkpt>
      <trkpt lon="7.004613988101482" lat="46.2201629485935">
        <ele>449.0</ele>
        <time>2014-05-10T12:09:17.000Z</time>
      </trkpt>
      <trkpt lon="7.004592949524522" lat="46.22027493081987">
        <ele>450.0</ele>
        <time>2014-05-10T12:09:19.000Z</time>
      </trkpt>
      <trkpt lon="7.004547938704491" lat="46.22059495188296">
        <ele>462.79998779296875</ele>
        <time>2014-05-10T12:09:24.000Z</time>
      </trkpt>
      <trkpt lon="7.004527989774942" lat="46.22082092799246">
        <ele>459.3999938964844</ele>
        <time>2014-05-10T12:09:28.000Z</time>
      </trkpt>
      <trkpt lon="7.004484990611672" lat="46.220973981544375">
        <ele>459.6000061035156</ele>
        <time>2014-05-10T12:09:32.000Z</time>
      </trkpt>
      <trkpt lon="7.004426987841725" lat="46.22131294570863">
        <ele>456.6000061035156</ele>
        <time>2014-05-10T12:09:38.000Z</time>
      </trkpt>
      <trkpt lon="7.004320956766605" lat="46.22169096954167">
        <ele>457.20001220703125</ele>
        <time>2014-05-10T12:09:45.000Z</time>
      </trkpt>
      <trkpt lon="7.004125993698835" lat="46.22200193814933">
        <ele>453.20001220703125</ele>
        <time>2014-05-10T12:09:52.000Z</time>
      </trkpt>
      <trkpt lon="7.003855928778648" lat="46.222347943112254">
        <ele>451.6000061035156</ele>
        <time>2014-05-10T12:10:00.000Z</time>
      </trkpt>
      <trkpt lon="7.003637999296188" lat="46.22263393364847">
        <ele>451.79998779296875</ele>
        <time>2014-05-10T12:10:07.000Z</time>
      </trkpt>
      <trkpt lon="7.003497937694192" lat="46.2228549644351">
        <ele>452.0</ele>
        <time>2014-05-10T12:10:12.000Z</time>
      </trkpt>
      <trkpt lon="7.0032799243927" lat="46.22318998910487">
        <ele>448.0</ele>
        <time>2014-05-10T12:10:22.000Z</time>
      </trkpt>
      <trkpt lon="7.00306098908186" lat="46.223424933850765">
        <ele>446.3999938964844</ele>
        <time>2014-05-10T12:10:30.000Z</time>
      </trkpt>
      <trkpt lon="7.0027529541403055" lat="46.22373296879232">
        <ele>443.6000061035156</ele>
        <time>2014-05-10T12:10:40.000Z</time>
      </trkpt>
      <trkpt lon="7.002723952755332" lat="46.22376197017729">
        <ele>442.79998779296875</ele>
        <time>2014-05-10T12:10:41.000Z</time>
      </trkpt>
      <trkpt lon="7.00252597220242" lat="46.22397093102336">
        <ele>441.79998779296875</ele>
        <time>2014-05-10T12:10:46.000Z</time>
      </trkpt>
      <trkpt lon="7.00237694196403" lat="46.22418492101133">
        <ele>441.3999938964844</ele>
        <time>2014-05-10T12:10:50.000Z</time>
      </trkpt>
      <trkpt lon="7.002131938934326" lat="46.2247319240123">
        <ele>440.6000061035156</ele>
        <time>2014-05-10T12:10:59.000Z</time>
      </trkpt>
      <trkpt lon="7.001980980858207" lat="46.225184965878725">
        <ele>440.6000061035156</ele>
        <time>2014-05-10T12:11:06.000Z</time>
      </trkpt>
      <trkpt lon="7.001916943117976" lat="46.22538596391678">
        <ele>440.20001220703125</ele>
        <time>2014-05-10T12:11:10.000Z</time>
      </trkpt>
      <trkpt lon="7.001341944560409" lat="46.22542996890843">
        <ele>441.0</ele>
        <time>2014-05-10T12:11:15.000Z</time>
      </trkpt>
      <trkpt lon="7.001243960112333" lat="46.22557698749006">
        <ele>442.3999938964844</ele>
        <time>2014-05-10T12:11:17.000Z</time>
      </trkpt>
      <trkpt lon="7.001230968162417" lat="46.22590094804764">
        <ele>441.6000061035156</ele>
        <time>2014-05-10T12:11:21.000Z</time>
      </trkpt>
      <trkpt lon="7.001121919602156" lat="46.22637393884361">
        <ele>436.3999938964844</ele>
        <time>2014-05-10T12:11:28.000Z</time>
      </trkpt>
      <trkpt lon="7.001052936539054" lat="46.226922953501344">
        <ele>428.6000061035156</ele>
        <time>2014-05-10T12:11:37.000Z</time>
      </trkpt>
      <trkpt lon="7.000950928777456" lat="46.22757598757744">
        <ele>424.20001220703125</ele>
        <time>2014-05-10T12:11:47.000Z</time>
      </trkpt>
      <trkpt lon="7.000824948772788" lat="46.22808191925287">
        <ele>430.0</ele>
        <time>2014-05-10T12:11:55.000Z</time>
      </trkpt>
      <trkpt lon="7.00063694268465" lat="46.22852892614901">
        <ele>435.3999938964844</ele>
        <time>2014-05-10T12:12:02.000Z</time>
      </trkpt>
      <trkpt lon="7.0004719868302345" lat="46.22890795581043">
        <ele>441.0</ele>
        <time>2014-05-10T12:12:08.000Z</time>
      </trkpt>
      <trkpt lon="7.0001709926873446" lat="46.22940491884947">
        <ele>432.3999938964844</ele>
        <time>2014-05-10T12:12:16.000Z</time>
      </trkpt>
      <trkpt lon="6.999836973845959" lat="46.22988092713058">
        <ele>419.79998779296875</ele>
        <time>2014-05-10T12:12:24.000Z</time>
      </trkpt>
      <trkpt lon="6.999313943088055" lat="46.230447962880135">
        <ele>414.20001220703125</ele>
        <time>2014-05-10T12:12:34.000Z</time>
      </trkpt>
      <trkpt lon="6.998887974768877" lat="46.23083093203604">
        <ele>412.6000061035156</ele>
        <time>2014-05-10T12:12:41.000Z</time>
      </trkpt>
      <trkpt lon="6.998376930132508" lat="46.231266958639026">
        <ele>412.6000061035156</ele>
        <time>2014-05-10T12:12:49.000Z</time>
      </trkpt>
      <trkpt lon="6.9979639537632465" lat="46.23161992058158">
        <ele>413.3999938964844</ele>
        <time>2014-05-10T12:12:56.000Z</time>
      </trkpt>
      <trkpt lon="6.997395996004343" lat="46.23210699297488">
        <ele>413.79998779296875</ele>
        <time>2014-05-10T12:13:06.000Z</time>
      </trkpt>
      <trkpt lon="6.9969099294394255" lat="46.232513934373856">
        <ele>414.6000061035156</ele>
        <time>2014-05-10T12:13:15.000Z</time>
      </trkpt>
      <trkpt lon="6.996713960543275" lat="46.23267796821892">
        <ele>414.79998779296875</ele>
        <time>2014-05-10T12:13:20.000Z</time>
      </trkpt>
      <trkpt lon="6.996377930045128" lat="46.23286798596382">
        <ele>412.79998779296875</ele>
        <time>2014-05-10T12:13:28.000Z</time>
      </trkpt>
      <trkpt lon="6.996256979182363" lat="46.23295398429036">
        <ele>411.3999938964844</ele>
        <time>2014-05-10T12:13:32.000Z</time>
      </trkpt>
      <trkpt lon="6.996256979182363" lat="46.23295398429036">
        <ele>411.20001220703125</ele>
        <time>2014-05-10T12:13:33.000Z</time>
      </trkpt>
      <trkpt lon="6.99625295586884" lat="46.23295792378485">
        <ele>406.6000061035156</ele>
        <time>2014-05-10T12:14:07.000Z</time>
      </trkpt>
      <trkpt lon="6.99625295586884" lat="46.23295792378485">
        <ele>406.3999938964844</ele>
        <time>2014-05-10T12:14:08.000Z</time>
      </trkpt>
      <trkpt lon="6.9959919434040785" lat="46.233264952898026">
        <ele>405.0</ele>
        <time>2014-05-10T12:14:15.000Z</time>
      </trkpt>
      <trkpt lon="6.995522975921631" lat="46.23366594314575">
        <ele>403.3999938964844</ele>
        <time>2014-05-10T12:14:24.000Z</time>
      </trkpt>
      <trkpt lon="6.995191974565387" lat="46.23394095338881">
        <ele>402.6000061035156</ele>
        <time>2014-05-10T12:14:31.000Z</time>
      </trkpt>
      <trkpt lon="6.9951319601386786" lat="46.23415695503354">
        <ele>405.0</ele>
        <time>2014-05-10T12:14:35.000Z</time>
      </trkpt>
      <trkpt lon="6.995244948193431" lat="46.234231973066926">
        <ele>405.0</ele>
        <time>2014-05-10T12:14:38.000Z</time>
      </trkpt>
      <trkpt lon="6.995296999812126" lat="46.23425996862352">
        <ele>405.79998779296875</ele>
        <time>2014-05-10T12:14:40.000Z</time>
      </trkpt>
      <trkpt lon="6.9952889531850815" lat="46.23458594083786">
        <ele>406.79998779296875</ele>
        <time>2014-05-10T12:14:44.000Z</time>
      </trkpt>
      <trkpt lon="6.995318960398436" lat="46.23478392139077">
        <ele>407.0</ele>
        <time>2014-05-10T12:14:49.000Z</time>
      </trkpt>
      <trkpt lon="6.995363971218467" lat="46.23482499271631">
        <ele>407.0</ele>
        <time>2014-05-10T12:14:50.000Z</time>
      </trkpt>
      <trkpt lon="6.9957189448177814" lat="46.23517099767923">
        <ele>406.20001220703125</ele>
        <time>2014-05-10T12:14:57.000Z</time>
      </trkpt>
      <trkpt lon="6.9961129780858755" lat="46.235564947128296">
        <ele>405.0</ele>
        <time>2014-05-10T12:15:04.000Z</time>
      </trkpt>
      <trkpt lon="6.996230995282531" lat="46.23568397015333">
        <ele>405.20001220703125</ele>
        <time>2014-05-10T12:15:07.000Z</time>
      </trkpt>
      <trkpt lon="6.996119935065508" lat="46.235733926296234">
        <ele>405.3999938964844</ele>
        <time>2014-05-10T12:15:08.000Z</time>
      </trkpt>
      <trkpt lon="6.995574943721294" lat="46.236031986773014">
        <ele>405.0</ele>
        <time>2014-05-10T12:15:16.000Z</time>
      </trkpt>
      <trkpt lon="6.9954559206962585" lat="46.236143968999386">
        <ele>405.0</ele>
        <time>2014-05-10T12:15:18.000Z</time>
      </trkpt>
      <trkpt lon="6.9952029548585415" lat="46.236463990062475">
        <ele>405.0</ele>
        <time>2014-05-10T12:15:24.000Z</time>
      </trkpt>
      <trkpt lon="6.994999945163727" lat="46.236936980858445">
        <ele>405.3999938964844</ele>
        <time>2014-05-10T12:15:32.000Z</time>
      </trkpt>
      <trkpt lon="6.994767934083939" lat="46.23746193945408">
        <ele>406.20001220703125</ele>
        <time>2014-05-10T12:15:41.000Z</time>
      </trkpt>
      <trkpt lon="6.994587974622846" lat="46.23787097632885">
        <ele>406.20001220703125</ele>
        <time>2014-05-10T12:15:48.000Z</time>
      </trkpt>
      <trkpt lon="6.9943359307944775" lat="46.23841093853116">
        <ele>406.6000061035156</ele>
        <time>2014-05-10T12:15:57.000Z</time>
      </trkpt>
      <trkpt lon="6.994040971621871" lat="46.23893095180392">
        <ele>407.0</ele>
        <time>2014-05-10T12:16:06.000Z</time>
      </trkpt>
      <trkpt lon="6.993914991617203" lat="46.23911895789206">
        <ele>407.20001220703125</ele>
        <time>2014-05-10T12:16:10.000Z</time>
      </trkpt>
      <trkpt lon="6.993654984980822" lat="46.23941995203495">
        <ele>407.6000061035156</ele>
        <time>2014-05-10T12:16:17.000Z</time>
      </trkpt>
      <trkpt lon="6.993166990578175" lat="46.23995798639953">
        <ele>408.0</ele>
        <time>2014-05-10T12:16:29.000Z</time>
      </trkpt>
      <trkpt lon="6.992832971736789" lat="46.24029896222055">
        <ele>407.6000061035156</ele>
        <time>2014-05-10T12:16:36.000Z</time>
      </trkpt>
      <trkpt lon="6.99251395650208" lat="46.24060892499983">
        <ele>407.3999938964844</ele>
        <time>2014-05-10T12:16:43.000Z</time>
      </trkpt>
      <trkpt lon="6.9921179953962564" lat="46.24099298380315">
        <ele>407.6000061035156</ele>
        <time>2014-05-10T12:16:51.000Z</time>
      </trkpt>
      <trkpt lon="6.991755980998278" lat="46.241343934088945">
        <ele>407.20001220703125</ele>
        <time>2014-05-10T12:16:59.000Z</time>
      </trkpt>
      <trkpt lon="6.991565963253379" lat="46.241553984582424">
        <ele>407.0</ele>
        <time>2014-05-10T12:17:04.000Z</time>
      </trkpt>
      <trkpt lon="6.991454986855388" lat="46.24176093377173">
        <ele>406.20001220703125</ele>
        <time>2014-05-10T12:17:09.000Z</time>
      </trkpt>
      <trkpt lon="6.991080986335874" lat="46.24197098426521">
        <ele>404.3999938964844</ele>
        <time>2014-05-10T12:17:16.000Z</time>
      </trkpt>
      <trkpt lon="6.991009991616011" lat="46.24210593290627">
        <ele>403.79998779296875</ele>
        <time>2014-05-10T12:17:18.000Z</time>
      </trkpt>
      <trkpt lon="6.9906719494611025" lat="46.24241195619106">
        <ele>403.6000061035156</ele>
        <time>2014-05-10T12:17:26.000Z</time>
      </trkpt>
      <trkpt lon="6.990356957539916" lat="46.24266793951392">
        <ele>404.6000061035156</ele>
        <time>2014-05-10T12:17:33.000Z</time>
      </trkpt>
      <trkpt lon="6.990208933129907" lat="46.24278796836734">
        <ele>405.20001220703125</ele>
        <time>2014-05-10T12:17:37.000Z</time>
      </trkpt>
      <trkpt lon="6.9902699533849955" lat="46.24289793893695">
        <ele>405.3999938964844</ele>
        <time>2014-05-10T12:17:41.000Z</time>
      </trkpt>
      <trkpt lon="6.990546975284815" lat="46.24306892976165">
        <ele>403.6000061035156</ele>
        <time>2014-05-10T12:17:48.000Z</time>
      </trkpt>
      <trkpt lon="6.990806981921196" lat="46.24322994612157">
        <ele>401.3999938964844</ele>
        <time>2014-05-10T12:17:55.000Z</time>
      </trkpt>
      <trkpt lon="6.990887951105833" lat="46.24327998608351">
        <ele>401.0</ele>
        <time>2014-05-10T12:17:57.000Z</time>
      </trkpt>
      <trkpt lon="6.991227921098471" lat="46.24346296302974">
        <ele>400.0</ele>
        <time>2014-05-10T12:18:03.000Z</time>
      </trkpt>
      <trkpt lon="6.991763943806291" lat="46.243773931637406">
        <ele>399.20001220703125</ele>
        <time>2014-05-10T12:18:11.000Z</time>
      </trkpt>
      <trkpt lon="6.9922419637441635" lat="46.2440299987793">
        <ele>398.79998779296875</ele>
        <time>2014-05-10T12:18:18.000Z</time>
      </trkpt>
      <trkpt lon="6.992675978690386" lat="46.24423393048346">
        <ele>398.79998779296875</ele>
        <time>2014-05-10T12:18:24.000Z</time>
      </trkpt>
      <trkpt lon="6.993144946172833" lat="46.24433996155858">
        <ele>399.20001220703125</ele>
        <time>2014-05-10T12:18:30.000Z</time>
      </trkpt>
      <trkpt lon="6.993687925860286" lat="46.24444993212819">
        <ele>400.20001220703125</ele>
        <time>2014-05-10T12:18:37.000Z</time>
      </trkpt>
      <trkpt lon="6.99423392303288" lat="46.2446169834584">
        <ele>402.0</ele>
        <time>2014-05-10T12:18:44.000Z</time>
      </trkpt>
      <trkpt lon="6.994482949376106" lat="46.24466392211616">
        <ele>402.3999938964844</ele>
        <time>2014-05-10T12:18:48.000Z</time>
      </trkpt>
      <trkpt lon="6.994681935757399" lat="46.24470298178494">
        <ele>401.79998779296875</ele>
        <time>2014-05-10T12:18:51.000Z</time>
      </trkpt>
      <trkpt lon="6.994742956012487" lat="46.244715973734856">
        <ele>400.20001220703125</ele>
        <time>2014-05-10T12:18:52.000Z</time>
      </trkpt>
      <trkpt lon="6.994930962100625" lat="46.24476592987776">
        <ele>398.20001220703125</ele>
        <time>2014-05-10T12:18:55.000Z</time>
      </trkpt>
      <trkpt lon="6.995442928746343" lat="46.24490297399461">
        <ele>401.3999938964844</ele>
        <time>2014-05-10T12:19:03.000Z</time>
      </trkpt>
      <trkpt lon="6.996004935353994" lat="46.24505393207073">
        <ele>403.3999938964844</ele>
        <time>2014-05-10T12:19:11.000Z</time>
      </trkpt>
      <trkpt lon="6.996168969199061" lat="46.24509793706238">
        <ele>403.79998779296875</ele>
        <time>2014-05-10T12:19:13.000Z</time>
      </trkpt>
      <trkpt lon="6.996525954455137" lat="46.24522098340094">
        <ele>404.79998779296875</ele>
        <time>2014-05-10T12:19:19.000Z</time>
      </trkpt>
      <trkpt lon="6.996880928054452" lat="46.245249984785914">
        <ele>405.20001220703125</ele>
        <time>2014-05-10T12:19:24.000Z</time>
      </trkpt>
      <trkpt lon="6.996895931661129" lat="46.245253924280405">
        <ele>405.0</ele>
        <time>2014-05-10T12:19:25.000Z</time>
      </trkpt>
      <trkpt lon="6.996899954974651" lat="46.24545592814684">
        <ele>404.79998779296875</ele>
        <time>2014-05-10T12:19:27.000Z</time>
      </trkpt>
      <trkpt lon="6.9972409307956696" lat="46.24547495506704">
        <ele>405.3999938964844</ele>
        <time>2014-05-10T12:19:31.000Z</time>
      </trkpt>
      <trkpt lon="6.997384931892157" lat="46.245426926761866">
        <ele>406.0</ele>
        <time>2014-05-10T12:19:33.000Z</time>
      </trkpt>
      <trkpt lon="6.997707970440388" lat="46.245381999760866">
        <ele>407.0</ele>
        <time>2014-05-10T12:19:37.000Z</time>
      </trkpt>
      <trkpt lon="6.998215997591615" lat="46.24549993313849">
        <ele>408.3999938964844</ele>
        <time>2014-05-10T12:19:44.000Z</time>
      </trkpt>
      <trkpt lon="6.998790996149182" lat="46.24561493285">
        <ele>410.0</ele>
        <time>2014-05-10T12:19:53.000Z</time>
      </trkpt>
      <trkpt lon="6.999306986108422" lat="46.24573898501694">
        <ele>410.79998779296875</ele>
        <time>2014-05-10T12:20:01.000Z</time>
      </trkpt>
      <trkpt lon="6.999817946925759" lat="46.245852978900075">
        <ele>410.3999938964844</ele>
        <time>2014-05-10T12:20:09.000Z</time>
      </trkpt>
      <trkpt lon="7.000212986022234" lat="46.245940988883376">
        <ele>410.79998779296875</ele>
        <time>2014-05-10T12:20:15.000Z</time>
      </trkpt>
      <trkpt lon="7.0008009765297174" lat="46.246066968888044">
        <ele>411.20001220703125</ele>
        <time>2014-05-10T12:20:24.000Z</time>
      </trkpt>
      <trkpt lon="7.00142995454371" lat="46.24621298164129">
        <ele>413.0</ele>
        <time>2014-05-10T12:20:34.000Z</time>
      </trkpt>
      <trkpt lon="7.001686943694949" lat="46.24626595526934">
        <ele>413.6000061035156</ele>
        <time>2014-05-10T12:20:38.000Z</time>
      </trkpt>
      <trkpt lon="7.002024985849857" lat="46.246347930282354">
        <ele>413.20001220703125</ele>
        <time>2014-05-10T12:20:44.000Z</time>
      </trkpt>
      <trkpt lon="7.002024985849857" lat="46.246347930282354">
        <ele>413.3999938964844</ele>
        <time>2014-05-10T12:20:47.000Z</time>
      </trkpt>
      <trkpt lon="7.002410972490907" lat="46.246454967185855">
        <ele>414.20001220703125</ele>
        <time>2014-05-10T12:20:49.000Z</time>
      </trkpt>
      <trkpt lon="7.002914976328611" lat="46.24658698216081">
        <ele>416.79998779296875</ele>
        <time>2014-05-10T12:20:56.000Z</time>
      </trkpt>
      <trkpt lon="7.002971973270178" lat="46.246603997424245">
        <ele>416.79998779296875</ele>
        <time>2014-05-10T12:20:57.000Z</time>
      </trkpt>
      <trkpt lon="7.003292916342616" lat="46.24670097604394">
        <ele>416.20001220703125</ele>
        <time>2014-05-10T12:21:03.000Z</time>
      </trkpt>
      <trkpt lon="7.003503972664475" lat="46.24676099047065">
        <ele>417.6000061035156</ele>
        <time>2014-05-10T12:21:08.000Z</time>
      </trkpt>
      <trkpt lon="7.0036279410123825" lat="46.246796948835254">
        <ele>418.6000061035156</ele>
        <time>2014-05-10T12:21:12.000Z</time>
      </trkpt>
      <trkpt lon="7.003753921017051" lat="46.24688093550503">
        <ele>419.0</ele>
        <time>2014-05-10T12:21:16.000Z</time>
      </trkpt>
      <trkpt lon="7.003891970962286" lat="46.24697498045862">
        <ele>417.6000061035156</ele>
        <time>2014-05-10T12:21:19.000Z</time>
      </trkpt>
      <trkpt lon="7.00411694124341" lat="46.24711194075644">
        <ele>416.79998779296875</ele>
        <time>2014-05-10T12:21:23.000Z</time>
      </trkpt>
      <trkpt lon="7.004634942859411" lat="46.24731997959316">
        <ele>416.0</ele>
        <time>2014-05-10T12:21:31.000Z</time>
      </trkpt>
      <trkpt lon="7.0052029844373465" lat="46.24749097041786">
        <ele>416.6000061035156</ele>
        <time>2014-05-10T12:21:39.000Z</time>
      </trkpt>
      <trkpt lon="7.005572961643338" lat="46.24758392572403">
        <ele>416.6000061035156</ele>
        <time>2014-05-10T12:21:44.000Z</time>
      </trkpt>
      <trkpt lon="7.006223984062672" lat="46.24769297428429">
        <ele>416.0</ele>
        <time>2014-05-10T12:21:53.000Z</time>
      </trkpt>
      <trkpt lon="7.006297996267676" lat="46.24770697206259">
        <ele>416.20001220703125</ele>
        <time>2014-05-10T12:21:54.000Z</time>
      </trkpt>
      <trkpt lon="7.006543921306729" lat="46.247752988711">
        <ele>417.0</ele>
        <time>2014-05-10T12:21:58.000Z</time>
      </trkpt>
      <trkpt lon="7.006872994825244" lat="46.24750094488263">
        <ele>419.0</ele>
        <time>2014-05-10T12:22:05.000Z</time>
      </trkpt>
      <trkpt lon="7.0070309937000275" lat="46.247359961271286">
        <ele>419.0</ele>
        <time>2014-05-10T12:22:09.000Z</time>
      </trkpt>
      <trkpt lon="7.007373981177807" lat="46.246994929388165">
        <ele>420.3999938964844</ele>
        <time>2014-05-10T12:22:18.000Z</time>
      </trkpt>
      <trkpt lon="7.007598951458931" lat="46.24672695994377">
        <ele>420.6000061035156</ele>
        <time>2014-05-10T12:22:25.000Z</time>
      </trkpt>
      <trkpt lon="7.007787963375449" lat="46.246562926098704">
        <ele>421.6000061035156</ele>
        <time>2014-05-10T12:22:30.000Z</time>
      </trkpt>
      <trkpt lon="7.008116953074932" lat="46.24635295942426">
        <ele>424.20001220703125</ele>
        <time>2014-05-10T12:22:38.000Z</time>
      </trkpt>
      <trkpt lon="7.008445942774415" lat="46.246198983862996">
        <ele>429.20001220703125</ele>
        <time>2014-05-10T12:22:46.000Z</time>
      </trkpt>
      <trkpt lon="7.008604947477579" lat="46.24612497165799">
        <ele>429.79998779296875</ele>
        <time>2014-05-10T12:22:51.000Z</time>
      </trkpt>
      <trkpt lon="7.0087529718875885" lat="46.24605598859489">
        <ele>429.79998779296875</ele>
        <time>2014-05-10T12:22:56.000Z</time>
      </trkpt>
      <trkpt lon="7.008978947997093" lat="46.24594995751977">
        <ele>428.0</ele>
        <time>2014-05-10T12:23:02.000Z</time>
      </trkpt>
      <trkpt lon="7.009083973243833" lat="46.245896983891726">
        <ele>427.3999938964844</ele>
        <time>2014-05-10T12:23:07.000Z</time>
      </trkpt>
      <trkpt lon="7.0096359215676785" lat="46.24616495333612">
        <ele>428.3999938964844</ele>
        <time>2014-05-10T12:23:16.000Z</time>
      </trkpt>
      <trkpt lon="7.009949991479516" lat="46.24627199023962">
        <ele>429.3999938964844</ele>
        <time>2014-05-10T12:23:23.000Z</time>
      </trkpt>
      <trkpt lon="7.01028099283576" lat="46.24635899439454">
        <ele>432.3999938964844</ele>
        <time>2014-05-10T12:23:30.000Z</time>
      </trkpt>
      <trkpt lon="7.010585926473141" lat="46.246413979679346">
        <ele>434.3999938964844</ele>
        <time>2014-05-10T12:23:37.000Z</time>
      </trkpt>
      <trkpt lon="7.010814920067787" lat="46.24644893221557">
        <ele>433.20001220703125</ele>
        <time>2014-05-10T12:23:43.000Z</time>
      </trkpt>
      <trkpt lon="7.011130917817354" lat="46.24648899771273">
        <ele>432.3999938964844</ele>
        <time>2014-05-10T12:23:50.000Z</time>
      </trkpt>
      <trkpt lon="7.011402994394302" lat="46.2465129699558">
        <ele>431.79998779296875</ele>
        <time>2014-05-10T12:23:56.000Z</time>
      </trkpt>
      <trkpt lon="7.011706922203302" lat="46.24653493054211">
        <ele>430.6000061035156</ele>
        <time>2014-05-10T12:24:03.000Z</time>
      </trkpt>
      <trkpt lon="7.011749921366572" lat="46.24653794802725">
        <ele>430.3999938964844</ele>
        <time>2014-05-10T12:24:04.000Z</time>
      </trkpt>
      <trkpt lon="7.011864921078086" lat="46.24644499272108">
        <ele>429.79998779296875</ele>
        <time>2014-05-10T12:24:09.000Z</time>
      </trkpt>
      <trkpt lon="7.012055944651365" lat="46.24626897275448">
        <ele>431.0</ele>
        <time>2014-05-10T12:24:17.000Z</time>
      </trkpt>
      <trkpt lon="7.012300947681069" lat="46.24614098109305">
        <ele>432.6000061035156</ele>
        <time>2014-05-10T12:24:25.000Z</time>
      </trkpt>
      <trkpt lon="7.0124799851328135" lat="46.24608197249472">
        <ele>432.79998779296875</ele>
        <time>2014-05-10T12:24:31.000Z</time>
      </trkpt>
      <trkpt lon="7.012550979852676" lat="46.24606294557452">
        <ele>434.3999938964844</ele>
        <time>2014-05-10T12:24:36.000Z</time>
      </trkpt>
      <trkpt lon="7.01264594681561" lat="46.246047941967845">
        <ele>434.6000061035156</ele>
        <time>2014-05-10T12:24:41.000Z</time>
      </trkpt>
      <trkpt lon="7.01264594681561" lat="46.246047941967845">
        <ele>436.20001220703125</ele>
        <time>2014-05-10T12:24:43.000Z</time>
      </trkpt>
    </trkseg>
  </trk>
</gpx>
